<?xml version="1.0" encoding="UTF-8" standalone="no" ?>
<gpx xmlns="http://www.topografix.com/GPX/1/1" xmlns:xsi="http://www.w3.org/2001/XMLSchema-instance" xsi:schemaLocation="http://www.topografix.com/GPX/1/1 http://www.topografix.com/GPX/1/1/gpx.xsd" version="1.1" creator="VisuGPX - https://www.visugpx.com">
  <metadata>
    <name>Mas Thibert -&gt; Plage Napoléon -&gt; Mas Thibert</name>
  </metadata>
  <trk>
    <name><![CDATA[Mas Thibert -> Plage Napoléon -> Mas Thibert]]></name>
    <extensions>
      <line xmlns="http://www.topografix.com/GPX/gpx_style/0/2">
        <color>0000FF</color>
        <width>4</width>
      </line>
    </extensions>
    <trkseg>
      <trkpt lat="43.55901" lon="4.72747">
        <ele>3.594</ele>
        <time>2022-05-12T08:47:14.000Z</time>
      </trkpt>
      <trkpt lat="43.55901" lon="4.72747">
        <ele>3.594</ele>
        <time>2022-05-12T08:47:15.000Z</time>
      </trkpt>
      <trkpt lat="43.55901" lon="4.72747">
        <ele>3.594</ele>
        <time>2022-05-12T08:47:21.000Z</time>
      </trkpt>
      <trkpt lat="43.559" lon="4.72745">
        <ele>3.594</ele>
        <time>2022-05-12T08:47:28.000Z</time>
      </trkpt>
      <trkpt lat="43.559" lon="4.72745">
        <ele>3.594</ele>
        <time>2022-05-12T08:47:34.000Z</time>
      </trkpt>
      <trkpt lat="43.55899" lon="4.72743">
        <ele>3.594</ele>
        <time>2022-05-12T08:47:36.000Z</time>
      </trkpt>
      <trkpt lat="43.55897" lon="4.72737">
        <ele>3.594</ele>
        <time>2022-05-12T08:47:38.000Z</time>
      </trkpt>
      <trkpt lat="43.55895" lon="4.72733">
        <ele>3.594</ele>
        <time>2022-05-12T08:47:40.000Z</time>
      </trkpt>
      <trkpt lat="43.55896" lon="4.72731">
        <ele>3.594</ele>
        <time>2022-05-12T08:47:42.000Z</time>
      </trkpt>
      <trkpt lat="43.55896" lon="4.7273">
        <ele>3.594</ele>
        <time>2022-05-12T08:47:44.000Z</time>
      </trkpt>
      <trkpt lat="43.55896" lon="4.72728">
        <ele>3.594</ele>
        <time>2022-05-12T08:47:49.000Z</time>
      </trkpt>
      <trkpt lat="43.55895" lon="4.72725">
        <ele>3.594</ele>
        <time>2022-05-12T08:47:51.000Z</time>
      </trkpt>
      <trkpt lat="43.55891" lon="4.72715">
        <ele>3.594</ele>
        <time>2022-05-12T08:47:54.000Z</time>
      </trkpt>
      <trkpt lat="43.55883" lon="4.72686">
        <ele>3.594</ele>
        <time>2022-05-12T08:48:00.000Z</time>
      </trkpt>
      <trkpt lat="43.55876" lon="4.72667">
        <ele>3.594</ele>
        <time>2022-05-12T08:48:04.000Z</time>
      </trkpt>
      <trkpt lat="43.55873" lon="4.72663">
        <ele>3.594</ele>
        <time>2022-05-12T08:48:05.000Z</time>
      </trkpt>
      <trkpt lat="43.55868" lon="4.72654">
        <ele>3.594</ele>
        <time>2022-05-12T08:48:07.000Z</time>
      </trkpt>
      <trkpt lat="43.55861" lon="4.72641">
        <ele>3.594</ele>
        <time>2022-05-12T08:48:10.000Z</time>
      </trkpt>
      <trkpt lat="43.55855" lon="4.72633">
        <ele>3.641604</ele>
        <time>2022-05-12T08:48:12.000Z</time>
      </trkpt>
      <trkpt lat="43.55853" lon="4.72629">
        <ele>3.665037</ele>
        <time>2022-05-12T08:48:13.000Z</time>
      </trkpt>
      <trkpt lat="43.55836" lon="4.72602">
        <ele>3.828582</ele>
        <time>2022-05-12T08:48:21.000Z</time>
      </trkpt>
      <trkpt lat="43.55834" lon="4.72599">
        <ele>3.845493</ele>
        <time>2022-05-12T08:48:22.000Z</time>
      </trkpt>
      <trkpt lat="43.55823" lon="4.72582">
        <ele>3.947103</ele>
        <time>2022-05-12T08:48:28.000Z</time>
      </trkpt>
      <trkpt lat="43.5581" lon="4.72571">
        <ele>4.048991</ele>
        <time>2022-05-12T08:48:33.000Z</time>
      </trkpt>
      <trkpt lat="43.55799" lon="4.72574">
        <ele>4.115791</ele>
        <time>2022-05-12T08:48:38.000Z</time>
      </trkpt>
      <trkpt lat="43.55797" lon="4.72576">
        <ele>4.136433</ele>
        <time>2022-05-12T08:48:40.000Z</time>
      </trkpt>
      <trkpt lat="43.55793" lon="4.72581">
        <ele>4.170078</ele>
        <time>2022-05-12T08:48:42.000Z</time>
      </trkpt>
      <trkpt lat="43.55778" lon="4.72595">
        <ele>4.280646</ele>
        <time>2022-05-12T08:48:47.000Z</time>
      </trkpt>
      <trkpt lat="43.55769" lon="4.72604">
        <ele>4.353998</ele>
        <time>2022-05-12T08:48:50.000Z</time>
      </trkpt>
      <trkpt lat="43.55757" lon="4.72614">
        <ele>4.438841</ele>
        <time>2022-05-12T08:48:53.000Z</time>
      </trkpt>
      <trkpt lat="43.55741" lon="4.72628">
        <ele>4.560101</ele>
        <time>2022-05-12T08:48:58.000Z</time>
      </trkpt>
      <trkpt lat="43.55729" lon="4.7264">
        <ele>4.656867</ele>
        <time>2022-05-12T08:49:03.000Z</time>
      </trkpt>
      <trkpt lat="43.5571" lon="4.72657">
        <ele>4.727385</ele>
        <time>2022-05-12T08:49:08.000Z</time>
      </trkpt>
      <trkpt lat="43.55706" lon="4.7266">
        <ele>4.725959</ele>
        <time>2022-05-12T08:49:09.000Z</time>
      </trkpt>
      <trkpt lat="43.55681" lon="4.72686">
        <ele>4.715708</ele>
        <time>2022-05-12T08:49:16.000Z</time>
      </trkpt>
      <trkpt lat="43.55653" lon="4.72714">
        <ele>4.70447</ele>
        <time>2022-05-12T08:49:24.000Z</time>
      </trkpt>
      <trkpt lat="43.5565" lon="4.72717">
        <ele>4.703097</ele>
        <time>2022-05-12T08:49:26.000Z</time>
      </trkpt>
      <trkpt lat="43.55649" lon="4.72717">
        <ele>4.702839</ele>
        <time>2022-05-12T08:49:27.000Z</time>
      </trkpt>
      <trkpt lat="43.55649" lon="4.72717">
        <ele>4.702807</ele>
        <time>2022-05-12T08:49:33.000Z</time>
      </trkpt>
      <trkpt lat="43.55647" lon="4.7272">
        <ele>4.701802</ele>
        <time>2022-05-12T08:49:35.000Z</time>
      </trkpt>
      <trkpt lat="43.55642" lon="4.72725">
        <ele>4.699948</ele>
        <time>2022-05-12T08:49:37.000Z</time>
      </trkpt>
      <trkpt lat="43.55624" lon="4.72742">
        <ele>4.692704</ele>
        <time>2022-05-12T08:49:43.000Z</time>
      </trkpt>
      <trkpt lat="43.55594" lon="4.7277">
        <ele>4.680849</ele>
        <time>2022-05-12T08:49:51.000Z</time>
      </trkpt>
      <trkpt lat="43.55569" lon="4.72794">
        <ele>4.66953</ele>
        <time>2022-05-12T08:49:59.000Z</time>
      </trkpt>
      <trkpt lat="43.55565" lon="4.72798">
        <ele>4.667035</ele>
        <time>2022-05-12T08:50:00.000Z</time>
      </trkpt>
      <trkpt lat="43.55562" lon="4.72801">
        <ele>4.664462</ele>
        <time>2022-05-12T08:50:01.000Z</time>
      </trkpt>
      <trkpt lat="43.55533" lon="4.72827">
        <ele>4.64266</ele>
        <time>2022-05-12T08:50:09.000Z</time>
      </trkpt>
      <trkpt lat="43.55496" lon="4.72861">
        <ele>4.614593</ele>
        <time>2022-05-12T08:50:19.000Z</time>
      </trkpt>
      <trkpt lat="43.55462" lon="4.72896">
        <ele>4.587613</ele>
        <time>2022-05-12T08:50:28.000Z</time>
      </trkpt>
      <trkpt lat="43.55424" lon="4.72931">
        <ele>4.559083</ele>
        <time>2022-05-12T08:50:37.000Z</time>
      </trkpt>
      <trkpt lat="43.5542" lon="4.72935">
        <ele>4.553927</ele>
        <time>2022-05-12T08:50:38.000Z</time>
      </trkpt>
      <trkpt lat="43.55394" lon="4.72959">
        <ele>4.519533</ele>
        <time>2022-05-12T08:50:44.000Z</time>
      </trkpt>
      <trkpt lat="43.55385" lon="4.72967">
        <ele>4.508096</ele>
        <time>2022-05-12T08:50:46.000Z</time>
      </trkpt>
      <trkpt lat="43.55372" lon="4.72979">
        <ele>4.491299</ele>
        <time>2022-05-12T08:50:49.000Z</time>
      </trkpt>
      <trkpt lat="43.5535" lon="4.73">
        <ele>4.462848</ele>
        <time>2022-05-12T08:50:54.000Z</time>
      </trkpt>
      <trkpt lat="43.55338" lon="4.73012">
        <ele>4.445692</ele>
        <time>2022-05-12T08:50:57.000Z</time>
      </trkpt>
      <trkpt lat="43.55325" lon="4.73024">
        <ele>4.428895</ele>
        <time>2022-05-12T08:51:00.000Z</time>
      </trkpt>
      <trkpt lat="43.55295" lon="4.73052">
        <ele>4.389992</ele>
        <time>2022-05-12T08:51:07.000Z</time>
      </trkpt>
      <trkpt lat="43.55277" lon="4.73067">
        <ele>4.367048</ele>
        <time>2022-05-12T08:51:11.000Z</time>
      </trkpt>
      <trkpt lat="43.55263" lon="4.73081">
        <ele>4.346946</ele>
        <time>2022-05-12T08:51:14.000Z</time>
      </trkpt>
      <trkpt lat="43.55234" lon="4.73109">
        <ele>4.303928</ele>
        <time>2022-05-12T08:51:21.000Z</time>
      </trkpt>
      <trkpt lat="43.55198" lon="4.73142">
        <ele>4.251927</ele>
        <time>2022-05-12T08:51:29.000Z</time>
      </trkpt>
      <trkpt lat="43.55167" lon="4.7317">
        <ele>4.20691</ele>
        <time>2022-05-12T08:51:36.000Z</time>
      </trkpt>
      <trkpt lat="43.55163" lon="4.73174">
        <ele>4.200779</ele>
        <time>2022-05-12T08:51:37.000Z</time>
      </trkpt>
      <trkpt lat="43.55146" lon="4.7319">
        <ele>4.175657</ele>
        <time>2022-05-12T08:51:41.000Z</time>
      </trkpt>
      <trkpt lat="43.5512" lon="4.73215">
        <ele>4.14069</ele>
        <time>2022-05-12T08:51:47.000Z</time>
      </trkpt>
      <trkpt lat="43.55098" lon="4.73235">
        <ele>4.121172</ele>
        <time>2022-05-12T08:51:52.000Z</time>
      </trkpt>
      <trkpt lat="43.55085" lon="4.73247">
        <ele>4.109509</ele>
        <time>2022-05-12T08:51:55.000Z</time>
      </trkpt>
      <trkpt lat="43.55076" lon="4.73255">
        <ele>4.101413</ele>
        <time>2022-05-12T08:51:57.000Z</time>
      </trkpt>
      <trkpt lat="43.55063" lon="4.73266">
        <ele>4.090036</ele>
        <time>2022-05-12T08:52:00.000Z</time>
      </trkpt>
      <trkpt lat="43.55054" lon="4.73274">
        <ele>4.082277</ele>
        <time>2022-05-12T08:52:02.000Z</time>
      </trkpt>
      <trkpt lat="43.55041" lon="4.73286">
        <ele>4.070857</ele>
        <time>2022-05-12T08:52:05.000Z</time>
      </trkpt>
      <trkpt lat="43.55007" lon="4.73319">
        <ele>4.039929</ele>
        <time>2022-05-12T08:52:13.000Z</time>
      </trkpt>
      <trkpt lat="43.54985" lon="4.73338">
        <ele>4.020097</ele>
        <time>2022-05-12T08:52:18.000Z</time>
      </trkpt>
      <trkpt lat="43.5496" lon="4.73364">
        <ele>4.000867</ele>
        <time>2022-05-12T08:52:24.000Z</time>
      </trkpt>
      <trkpt lat="43.5494" lon="4.73382">
        <ele>3.987178</ele>
        <time>2022-05-12T08:52:29.000Z</time>
      </trkpt>
      <trkpt lat="43.54931" lon="4.7339">
        <ele>3.981678</ele>
        <time>2022-05-12T08:52:31.000Z</time>
      </trkpt>
      <trkpt lat="43.54919" lon="4.73401">
        <ele>3.973394</ele>
        <time>2022-05-12T08:52:34.000Z</time>
      </trkpt>
      <trkpt lat="43.54899" lon="4.73419">
        <ele>3.960211</ele>
        <time>2022-05-12T08:52:39.000Z</time>
      </trkpt>
      <trkpt lat="43.54879" lon="4.73438">
        <ele>3.946567</ele>
        <time>2022-05-12T08:52:44.000Z</time>
      </trkpt>
      <trkpt lat="43.54851" lon="4.73465">
        <ele>3.927357</ele>
        <time>2022-05-12T08:52:51.000Z</time>
      </trkpt>
      <trkpt lat="43.54829" lon="4.73484">
        <ele>3.912805</ele>
        <time>2022-05-12T08:52:56.000Z</time>
      </trkpt>
      <trkpt lat="43.54783" lon="4.73527">
        <ele>3.849034</ele>
        <time>2022-05-12T08:53:07.000Z</time>
      </trkpt>
      <trkpt lat="43.5475" lon="4.73559">
        <ele>3.801028</ele>
        <time>2022-05-12T08:53:15.000Z</time>
      </trkpt>
      <trkpt lat="43.54741" lon="4.73566">
        <ele>3.789029</ele>
        <time>2022-05-12T08:53:17.000Z</time>
      </trkpt>
      <trkpt lat="43.54732" lon="4.73574">
        <ele>3.776699</ele>
        <time>2022-05-12T08:53:19.000Z</time>
      </trkpt>
      <trkpt lat="43.54724" lon="4.73582">
        <ele>3.764564</ele>
        <time>2022-05-12T08:53:21.000Z</time>
      </trkpt>
      <trkpt lat="43.54703" lon="4.73602">
        <ele>3.735003</ele>
        <time>2022-05-12T08:53:26.000Z</time>
      </trkpt>
      <trkpt lat="43.54691" lon="4.73614">
        <ele>3.71748</ele>
        <time>2022-05-12T08:53:29.000Z</time>
      </trkpt>
      <trkpt lat="43.54646" lon="4.73656">
        <ele>3.74588</ele>
        <time>2022-05-12T08:53:40.000Z</time>
      </trkpt>
      <trkpt lat="43.54638" lon="4.73664">
        <ele>3.757346</ele>
        <time>2022-05-12T08:53:42.000Z</time>
      </trkpt>
      <trkpt lat="43.54591" lon="4.73705">
        <ele>3.824517</ele>
        <time>2022-05-12T08:53:53.000Z</time>
      </trkpt>
      <trkpt lat="43.54587" lon="4.7371">
        <ele>3.830498</ele>
        <time>2022-05-12T08:53:54.000Z</time>
      </trkpt>
      <trkpt lat="43.54541" lon="4.73752">
        <ele>3.897148</ele>
        <time>2022-05-12T08:54:05.000Z</time>
      </trkpt>
      <trkpt lat="43.54528" lon="4.73764">
        <ele>3.913555</ele>
        <time>2022-05-12T08:54:08.000Z</time>
      </trkpt>
      <trkpt lat="43.54481" lon="4.73808">
        <ele>3.724529</ele>
        <time>2022-05-12T08:54:19.000Z</time>
      </trkpt>
      <trkpt lat="43.54477" lon="4.73812">
        <ele>3.707443</ele>
        <time>2022-05-12T08:54:20.000Z</time>
      </trkpt>
      <trkpt lat="43.54452" lon="4.73836">
        <ele>3.606574</ele>
        <time>2022-05-12T08:54:26.000Z</time>
      </trkpt>
      <trkpt lat="43.54423" lon="4.73863">
        <ele>3.491086</ele>
        <time>2022-05-12T08:54:33.000Z</time>
      </trkpt>
      <trkpt lat="43.54387" lon="4.73895">
        <ele>3.347957</ele>
        <time>2022-05-12T08:54:42.000Z</time>
      </trkpt>
      <trkpt lat="43.54379" lon="4.73902">
        <ele>3.319113</ele>
        <time>2022-05-12T08:54:44.000Z</time>
      </trkpt>
      <trkpt lat="43.54358" lon="4.73923">
        <ele>3.365423</ele>
        <time>2022-05-12T08:54:49.000Z</time>
      </trkpt>
      <trkpt lat="43.54328" lon="4.7395">
        <ele>3.431323</ele>
        <time>2022-05-12T08:54:56.000Z</time>
      </trkpt>
      <trkpt lat="43.54283" lon="4.73991">
        <ele>3.528297</ele>
        <time>2022-05-12T08:55:06.000Z</time>
      </trkpt>
      <trkpt lat="43.5425" lon="4.74018">
        <ele>3.597484</ele>
        <time>2022-05-12T08:55:14.000Z</time>
      </trkpt>
      <trkpt lat="43.54203" lon="4.7406">
        <ele>3.577446</ele>
        <time>2022-05-12T08:55:25.000Z</time>
      </trkpt>
      <trkpt lat="43.54154" lon="4.74102">
        <ele>3.453687</ele>
        <time>2022-05-12T08:55:36.000Z</time>
      </trkpt>
      <trkpt lat="43.54107" lon="4.74141">
        <ele>3.336589</ele>
        <time>2022-05-12T08:55:47.000Z</time>
      </trkpt>
      <trkpt lat="43.54102" lon="4.74145">
        <ele>3.326361</ele>
        <time>2022-05-12T08:55:48.000Z</time>
      </trkpt>
      <trkpt lat="43.54052" lon="4.74184">
        <ele>3.193405</ele>
        <time>2022-05-12T08:55:59.000Z</time>
      </trkpt>
      <trkpt lat="43.54048" lon="4.74188">
        <ele>3.17989</ele>
        <time>2022-05-12T08:56:00.000Z</time>
      </trkpt>
      <trkpt lat="43.53998" lon="4.74226">
        <ele>3.036749</ele>
        <time>2022-05-12T08:56:11.000Z</time>
      </trkpt>
      <trkpt lat="43.53949" lon="4.74265">
        <ele>2.892769</ele>
        <time>2022-05-12T08:56:22.000Z</time>
      </trkpt>
      <trkpt lat="43.53903" lon="4.743">
        <ele>2.762299</ele>
        <time>2022-05-12T08:56:32.000Z</time>
      </trkpt>
      <trkpt lat="43.53862" lon="4.74332">
        <ele>2.643621</ele>
        <time>2022-05-12T08:56:41.000Z</time>
      </trkpt>
      <trkpt lat="43.53813" lon="4.7437">
        <ele>2.502996</ele>
        <time>2022-05-12T08:56:52.000Z</time>
      </trkpt>
      <trkpt lat="43.53804" lon="4.74377">
        <ele>2.477717</ele>
        <time>2022-05-12T08:56:54.000Z</time>
      </trkpt>
      <trkpt lat="43.53761" lon="4.74411">
        <ele>2.355146</ele>
        <time>2022-05-12T08:57:04.000Z</time>
      </trkpt>
      <trkpt lat="43.53747" lon="4.74421">
        <ele>2.321157</ele>
        <time>2022-05-12T08:57:07.000Z</time>
      </trkpt>
      <trkpt lat="43.53708" lon="4.74452">
        <ele>2.222748</ele>
        <time>2022-05-12T08:57:16.000Z</time>
      </trkpt>
      <trkpt lat="43.5366" lon="4.74489">
        <ele>2.102157</ele>
        <time>2022-05-12T08:57:27.000Z</time>
      </trkpt>
      <trkpt lat="43.53615" lon="4.74524">
        <ele>1.988584</ele>
        <time>2022-05-12T08:57:37.000Z</time>
      </trkpt>
      <trkpt lat="43.53564" lon="4.74564">
        <ele>1.85344</ele>
        <time>2022-05-12T08:57:48.000Z</time>
      </trkpt>
      <trkpt lat="43.53556" lon="4.7457">
        <ele>1.831575</ele>
        <time>2022-05-12T08:57:50.000Z</time>
      </trkpt>
      <trkpt lat="43.53508" lon="4.74608">
        <ele>1.700302</ele>
        <time>2022-05-12T08:58:01.000Z</time>
      </trkpt>
      <trkpt lat="43.53503" lon="4.74613">
        <ele>1.686447</ele>
        <time>2022-05-12T08:58:02.000Z</time>
      </trkpt>
      <trkpt lat="43.53456" lon="4.7465">
        <ele>1.559099</ele>
        <time>2022-05-12T08:58:13.000Z</time>
      </trkpt>
      <trkpt lat="43.53452" lon="4.74653">
        <ele>1.547817</ele>
        <time>2022-05-12T08:58:14.000Z</time>
      </trkpt>
      <trkpt lat="43.53415" lon="4.74682">
        <ele>1.533452</ele>
        <time>2022-05-12T08:58:23.000Z</time>
      </trkpt>
      <trkpt lat="43.53382" lon="4.74707">
        <ele>1.526264</ele>
        <time>2022-05-12T08:58:31.000Z</time>
      </trkpt>
      <trkpt lat="43.53348" lon="4.74732">
        <ele>1.518888</ele>
        <time>2022-05-12T08:58:39.000Z</time>
      </trkpt>
      <trkpt lat="43.53336" lon="4.74742">
        <ele>1.516119</ele>
        <time>2022-05-12T08:58:42.000Z</time>
      </trkpt>
      <trkpt lat="43.5329" lon="4.74777">
        <ele>1.505398</ele>
        <time>2022-05-12T08:58:53.000Z</time>
      </trkpt>
      <trkpt lat="43.53242" lon="4.74816">
        <ele>1.460587</ele>
        <time>2022-05-12T08:59:05.000Z</time>
      </trkpt>
      <trkpt lat="43.53211" lon="4.74838">
        <ele>1.433489</ele>
        <time>2022-05-12T08:59:12.000Z</time>
      </trkpt>
      <trkpt lat="43.53206" lon="4.7484">
        <ele>1.428802</ele>
        <time>2022-05-12T08:59:13.000Z</time>
      </trkpt>
      <trkpt lat="43.53201" lon="4.74843">
        <ele>1.424902</ele>
        <time>2022-05-12T08:59:14.000Z</time>
      </trkpt>
      <trkpt lat="43.53185" lon="4.74856">
        <ele>1.409664</ele>
        <time>2022-05-12T08:59:18.000Z</time>
      </trkpt>
      <trkpt lat="43.53145" lon="4.74889">
        <ele>1.372646</ele>
        <time>2022-05-12T08:59:28.000Z</time>
      </trkpt>
      <trkpt lat="43.53109" lon="4.74918">
        <ele>1.360055</ele>
        <time>2022-05-12T08:59:37.000Z</time>
      </trkpt>
      <trkpt lat="43.53072" lon="4.74946">
        <ele>1.354527</ele>
        <time>2022-05-12T08:59:45.000Z</time>
      </trkpt>
      <trkpt lat="43.53045" lon="4.74967">
        <ele>1.350608</ele>
        <time>2022-05-12T08:59:51.000Z</time>
      </trkpt>
      <trkpt lat="43.53032" lon="4.74977">
        <ele>1.348664</ele>
        <time>2022-05-12T08:59:54.000Z</time>
      </trkpt>
      <trkpt lat="43.52989" lon="4.7501">
        <ele>1.342326</ele>
        <time>2022-05-12T09:00:04.000Z</time>
      </trkpt>
      <trkpt lat="43.52943" lon="4.75047">
        <ele>1.311773</ele>
        <time>2022-05-12T09:00:15.000Z</time>
      </trkpt>
      <trkpt lat="43.52898" lon="4.75081">
        <ele>1.275115</ele>
        <time>2022-05-12T09:00:26.000Z</time>
      </trkpt>
      <trkpt lat="43.52847" lon="4.75122">
        <ele>1.232879</ele>
        <time>2022-05-12T09:00:37.000Z</time>
      </trkpt>
      <trkpt lat="43.52803" lon="4.75157">
        <ele>1.197681</ele>
        <time>2022-05-12T09:00:47.000Z</time>
      </trkpt>
      <trkpt lat="43.52756" lon="4.75192">
        <ele>1.16061</ele>
        <time>2022-05-12T09:00:58.000Z</time>
      </trkpt>
      <trkpt lat="43.52719" lon="4.75219">
        <ele>1.132194</ele>
        <time>2022-05-12T09:01:06.000Z</time>
      </trkpt>
      <trkpt lat="43.52674" lon="4.75247">
        <ele>1.09815</ele>
        <time>2022-05-12T09:01:16.000Z</time>
      </trkpt>
      <trkpt lat="43.52651" lon="4.75261">
        <ele>1.071173</ele>
        <time>2022-05-12T09:01:21.000Z</time>
      </trkpt>
      <trkpt lat="43.52619" lon="4.7528">
        <ele>1.020774</ele>
        <time>2022-05-12T09:01:28.000Z</time>
      </trkpt>
      <trkpt lat="43.52597" lon="4.75293">
        <ele>0.986034</ele>
        <time>2022-05-12T09:01:33.000Z</time>
      </trkpt>
      <trkpt lat="43.52589" lon="4.75298">
        <ele>0.973261</ele>
        <time>2022-05-12T09:01:35.000Z</time>
      </trkpt>
      <trkpt lat="43.52584" lon="4.75301">
        <ele>0.966255</ele>
        <time>2022-05-12T09:01:36.000Z</time>
      </trkpt>
      <trkpt lat="43.52548" lon="4.75319">
        <ele>0.911093</ele>
        <time>2022-05-12T09:01:44.000Z</time>
      </trkpt>
      <trkpt lat="43.52496" lon="4.75343">
        <ele>0.832074</ele>
        <time>2022-05-12T09:01:55.000Z</time>
      </trkpt>
      <trkpt lat="43.52445" lon="4.75367">
        <ele>0.723997</ele>
        <time>2022-05-12T09:02:06.000Z</time>
      </trkpt>
      <trkpt lat="43.52425" lon="4.75375">
        <ele>0.68272</ele>
        <time>2022-05-12T09:02:10.000Z</time>
      </trkpt>
      <trkpt lat="43.52375" lon="4.75393">
        <ele>0.579893</ele>
        <time>2022-05-12T09:02:20.000Z</time>
      </trkpt>
      <trkpt lat="43.52318" lon="4.75411">
        <ele>0.459725</ele>
        <time>2022-05-12T09:02:31.000Z</time>
      </trkpt>
      <trkpt lat="43.5226" lon="4.75429">
        <ele>0.305585</ele>
        <time>2022-05-12T09:02:42.000Z</time>
      </trkpt>
      <trkpt lat="43.52207" lon="4.75445">
        <ele>0.162519</ele>
        <time>2022-05-12T09:02:52.000Z</time>
      </trkpt>
      <trkpt lat="43.52202" lon="4.75447">
        <ele>0.149201</ele>
        <time>2022-05-12T09:02:53.000Z</time>
      </trkpt>
      <trkpt lat="43.52154" lon="4.75461">
        <ele>0.022031</ele>
        <time>2022-05-12T09:03:02.000Z</time>
      </trkpt>
      <trkpt lat="43.52122" lon="4.75469">
        <ele>0.00631</ele>
        <time>2022-05-12T09:03:08.000Z</time>
      </trkpt>
      <trkpt lat="43.52097" lon="4.75476">
        <ele>0.013377</ele>
        <time>2022-05-12T09:03:13.000Z</time>
      </trkpt>
      <trkpt lat="43.52041" lon="4.75492">
        <ele>0.0292</ele>
        <time>2022-05-12T09:03:24.000Z</time>
      </trkpt>
      <trkpt lat="43.52036" lon="4.75494">
        <ele>0.030664</ele>
        <time>2022-05-12T09:03:25.000Z</time>
      </trkpt>
      <trkpt lat="43.52005" lon="4.75505">
        <ele>0.039599</ele>
        <time>2022-05-12T09:03:32.000Z</time>
      </trkpt>
      <trkpt lat="43.51962" lon="4.75521">
        <ele>0.026607</ele>
        <time>2022-05-12T09:03:41.000Z</time>
      </trkpt>
      <trkpt lat="43.51908" lon="4.75538">
        <ele>-0.118883</ele>
        <time>2022-05-12T09:03:52.000Z</time>
      </trkpt>
      <trkpt lat="43.51903" lon="4.7554">
        <ele>-0.131754</ele>
        <time>2022-05-12T09:03:53.000Z</time>
      </trkpt>
      <trkpt lat="43.51847" lon="4.75556">
        <ele>-0.281085</ele>
        <time>2022-05-12T09:04:05.000Z</time>
      </trkpt>
      <trkpt lat="43.51792" lon="4.75571">
        <ele>-0.418371</ele>
        <time>2022-05-12T09:04:17.000Z</time>
      </trkpt>
      <trkpt lat="43.51741" lon="4.75587">
        <ele>-0.33577</ele>
        <time>2022-05-12T09:04:28.000Z</time>
      </trkpt>
      <trkpt lat="43.51692" lon="4.75601">
        <ele>-0.256337</ele>
        <time>2022-05-12T09:04:38.000Z</time>
      </trkpt>
      <trkpt lat="43.5165" lon="4.75613">
        <ele>-0.189659</ele>
        <time>2022-05-12T09:04:47.000Z</time>
      </trkpt>
      <trkpt lat="43.51612" lon="4.75623">
        <ele>-0.146597</ele>
        <time>2022-05-12T09:04:56.000Z</time>
      </trkpt>
      <trkpt lat="43.51599" lon="4.75627">
        <ele>-0.163952</ele>
        <time>2022-05-12T09:05:00.000Z</time>
      </trkpt>
      <trkpt lat="43.51591" lon="4.75629">
        <ele>-0.172819</ele>
        <time>2022-05-12T09:05:02.000Z</time>
      </trkpt>
      <trkpt lat="43.51545" lon="4.75643">
        <ele>-0.231527</ele>
        <time>2022-05-12T09:05:13.000Z</time>
      </trkpt>
      <trkpt lat="43.51514" lon="4.75653">
        <ele>-0.27064</ele>
        <time>2022-05-12T09:05:20.000Z</time>
      </trkpt>
      <trkpt lat="43.51504" lon="4.75656">
        <ele>-0.282171</ele>
        <time>2022-05-12T09:05:22.000Z</time>
      </trkpt>
      <trkpt lat="43.5145" lon="4.75673">
        <ele>-0.350932</ele>
        <time>2022-05-12T09:05:34.000Z</time>
      </trkpt>
      <trkpt lat="43.51403" lon="4.75689">
        <ele>-0.210599</ele>
        <time>2022-05-12T09:05:44.000Z</time>
      </trkpt>
      <trkpt lat="43.51363" lon="4.757">
        <ele>-0.062805</ele>
        <time>2022-05-12T09:05:52.000Z</time>
      </trkpt>
      <trkpt lat="43.51314" lon="4.75714">
        <ele>0.119927</ele>
        <time>2022-05-12T09:06:01.000Z</time>
      </trkpt>
      <trkpt lat="43.51277" lon="4.75726">
        <ele>0.258526</ele>
        <time>2022-05-12T09:06:08.000Z</time>
      </trkpt>
      <trkpt lat="43.51256" lon="4.75732">
        <ele>0.274386</ele>
        <time>2022-05-12T09:06:12.000Z</time>
      </trkpt>
      <trkpt lat="43.51223" lon="4.75742">
        <ele>0.21434</ele>
        <time>2022-05-12T09:06:19.000Z</time>
      </trkpt>
      <trkpt lat="43.51173" lon="4.75756">
        <ele>0.125986</ele>
        <time>2022-05-12T09:06:29.000Z</time>
      </trkpt>
      <trkpt lat="43.51119" lon="4.75772">
        <ele>0.03084</ele>
        <time>2022-05-12T09:06:40.000Z</time>
      </trkpt>
      <trkpt lat="43.51074" lon="4.75786">
        <ele>-0.016666</ele>
        <time>2022-05-12T09:06:50.000Z</time>
      </trkpt>
      <trkpt lat="43.51017" lon="4.75803">
        <ele>-0.010694</ele>
        <time>2022-05-12T09:07:02.000Z</time>
      </trkpt>
      <trkpt lat="43.50977" lon="4.75815">
        <ele>-0.006524</ele>
        <time>2022-05-12T09:07:10.000Z</time>
      </trkpt>
      <trkpt lat="43.50924" lon="4.75831">
        <ele>-0.00096</ele>
        <time>2022-05-12T09:07:21.000Z</time>
      </trkpt>
      <trkpt lat="43.50919" lon="4.75832">
        <ele>-0.000462</ele>
        <time>2022-05-12T09:07:22.000Z</time>
      </trkpt>
      <trkpt lat="43.50864" lon="4.7585">
        <ele>-0.088801</ele>
        <time>2022-05-12T09:07:34.000Z</time>
      </trkpt>
      <trkpt lat="43.5086" lon="4.75851">
        <ele>-0.095905</ele>
        <time>2022-05-12T09:07:35.000Z</time>
      </trkpt>
      <trkpt lat="43.50817" lon="4.75864">
        <ele>-0.16955</ele>
        <time>2022-05-12T09:07:44.000Z</time>
      </trkpt>
      <trkpt lat="43.50776" lon="4.75876">
        <ele>-0.239432</ele>
        <time>2022-05-12T09:07:52.000Z</time>
      </trkpt>
      <trkpt lat="43.50723" lon="4.75892">
        <ele>-0.314233</ele>
        <time>2022-05-12T09:08:03.000Z</time>
      </trkpt>
      <trkpt lat="43.50671" lon="4.75908">
        <ele>-0.357131</ele>
        <time>2022-05-12T09:08:14.000Z</time>
      </trkpt>
      <trkpt lat="43.50621" lon="4.75924">
        <ele>-0.39837</ele>
        <time>2022-05-12T09:08:25.000Z</time>
      </trkpt>
      <trkpt lat="43.50572" lon="4.75939">
        <ele>-0.438409</ele>
        <time>2022-05-12T09:08:35.000Z</time>
      </trkpt>
      <trkpt lat="43.50517" lon="4.75955">
        <ele>-0.456875</ele>
        <time>2022-05-12T09:08:47.000Z</time>
      </trkpt>
      <trkpt lat="43.50512" lon="4.75957">
        <ele>-0.458076</ele>
        <time>2022-05-12T09:08:48.000Z</time>
      </trkpt>
      <trkpt lat="43.50493" lon="4.75963">
        <ele>-0.463019</ele>
        <time>2022-05-12T09:08:52.000Z</time>
      </trkpt>
      <trkpt lat="43.50466" lon="4.75972">
        <ele>-0.47022</ele>
        <time>2022-05-12T09:08:58.000Z</time>
      </trkpt>
      <trkpt lat="43.50461" lon="4.75974">
        <ele>-0.471343</ele>
        <time>2022-05-12T09:08:59.000Z</time>
      </trkpt>
      <trkpt lat="43.50419" lon="4.75985">
        <ele>-0.48229</ele>
        <time>2022-05-12T09:09:09.000Z</time>
      </trkpt>
      <trkpt lat="43.50384" lon="4.75995">
        <ele>-0.492343</ele>
        <time>2022-05-12T09:09:18.000Z</time>
      </trkpt>
      <trkpt lat="43.50353" lon="4.76003">
        <ele>-0.505678</ele>
        <time>2022-05-12T09:09:25.000Z</time>
      </trkpt>
      <trkpt lat="43.50312" lon="4.76016">
        <ele>-0.523927</ele>
        <time>2022-05-12T09:09:35.000Z</time>
      </trkpt>
      <trkpt lat="43.50281" lon="4.76025">
        <ele>-0.537845</ele>
        <time>2022-05-12T09:09:42.000Z</time>
      </trkpt>
      <trkpt lat="43.50241" lon="4.76037">
        <ele>-0.555258</ele>
        <time>2022-05-12T09:09:51.000Z</time>
      </trkpt>
      <trkpt lat="43.50229" lon="4.76041">
        <ele>-0.560865</ele>
        <time>2022-05-12T09:09:54.000Z</time>
      </trkpt>
      <trkpt lat="43.50225" lon="4.76042">
        <ele>-0.562691</ele>
        <time>2022-05-12T09:09:55.000Z</time>
      </trkpt>
      <trkpt lat="43.50216" lon="4.76045">
        <ele>-0.566463</ele>
        <time>2022-05-12T09:09:57.000Z</time>
      </trkpt>
      <trkpt lat="43.5018" lon="4.76056">
        <ele>-0.493842</ele>
        <time>2022-05-12T09:10:06.000Z</time>
      </trkpt>
      <trkpt lat="43.50176" lon="4.76058">
        <ele>-0.485551</ele>
        <time>2022-05-12T09:10:07.000Z</time>
      </trkpt>
      <trkpt lat="43.50148" lon="4.76065">
        <ele>-0.422883</ele>
        <time>2022-05-12T09:10:14.000Z</time>
      </trkpt>
      <trkpt lat="43.50104" lon="4.76079">
        <ele>-0.3249</ele>
        <time>2022-05-12T09:10:25.000Z</time>
      </trkpt>
      <trkpt lat="43.50082" lon="4.76085">
        <ele>-0.276991</ele>
        <time>2022-05-12T09:10:30.000Z</time>
      </trkpt>
      <trkpt lat="43.50065" lon="4.7609">
        <ele>-0.238122</ele>
        <time>2022-05-12T09:10:34.000Z</time>
      </trkpt>
      <trkpt lat="43.50034" lon="4.76099">
        <ele>-0.16674</ele>
        <time>2022-05-12T09:10:41.000Z</time>
      </trkpt>
      <trkpt lat="43.4998" lon="4.76116">
        <ele>0.0063</ele>
        <time>2022-05-12T09:10:53.000Z</time>
      </trkpt>
      <trkpt lat="43.4993" lon="4.7613">
        <ele>0.165778</ele>
        <time>2022-05-12T09:11:05.000Z</time>
      </trkpt>
      <trkpt lat="43.49906" lon="4.76139">
        <ele>0.242629</ele>
        <time>2022-05-12T09:11:11.000Z</time>
      </trkpt>
      <trkpt lat="43.49895" lon="4.76142">
        <ele>0.276284</ele>
        <time>2022-05-12T09:11:14.000Z</time>
      </trkpt>
      <trkpt lat="43.4986" lon="4.76152">
        <ele>0.380133</ele>
        <time>2022-05-12T09:11:23.000Z</time>
      </trkpt>
      <trkpt lat="43.49832" lon="4.76161">
        <ele>0.310467</ele>
        <time>2022-05-12T09:11:30.000Z</time>
      </trkpt>
      <trkpt lat="43.49823" lon="4.76163">
        <ele>0.288633</ele>
        <time>2022-05-12T09:11:32.000Z</time>
      </trkpt>
      <trkpt lat="43.49784" lon="4.76175">
        <ele>0.191558</ele>
        <time>2022-05-12T09:11:41.000Z</time>
      </trkpt>
      <trkpt lat="43.49732" lon="4.76191">
        <ele>0.063321</ele>
        <time>2022-05-12T09:11:53.000Z</time>
      </trkpt>
      <trkpt lat="43.4969" lon="4.76203">
        <ele>-0.043021</ele>
        <time>2022-05-12T09:12:04.000Z</time>
      </trkpt>
      <trkpt lat="43.49669" lon="4.76211">
        <ele>-0.143246</ele>
        <time>2022-05-12T09:12:09.000Z</time>
      </trkpt>
      <trkpt lat="43.49655" lon="4.76216">
        <ele>-0.21819</ele>
        <time>2022-05-12T09:12:12.000Z</time>
      </trkpt>
      <trkpt lat="43.49611" lon="4.76229">
        <ele>-0.451449</ele>
        <time>2022-05-12T09:12:23.000Z</time>
      </trkpt>
      <trkpt lat="43.49572" lon="4.7624">
        <ele>-0.66008</ele>
        <time>2022-05-12T09:12:33.000Z</time>
      </trkpt>
      <trkpt lat="43.49535" lon="4.76251">
        <ele>-0.853584</ele>
        <time>2022-05-12T09:12:42.000Z</time>
      </trkpt>
      <trkpt lat="43.49483" lon="4.76268">
        <ele>-1.007398</ele>
        <time>2022-05-12T09:12:55.000Z</time>
      </trkpt>
      <trkpt lat="43.49463" lon="4.76273">
        <ele>-1.022515</ele>
        <time>2022-05-12T09:13:00.000Z</time>
      </trkpt>
      <trkpt lat="43.49454" lon="4.76275">
        <ele>-1.029143</ele>
        <time>2022-05-12T09:13:02.000Z</time>
      </trkpt>
      <trkpt lat="43.49436" lon="4.76281">
        <ele>-1.043427</ele>
        <time>2022-05-12T09:13:06.000Z</time>
      </trkpt>
      <trkpt lat="43.49393" lon="4.76295">
        <ele>-1.076265</ele>
        <time>2022-05-12T09:13:16.000Z</time>
      </trkpt>
      <trkpt lat="43.49376" lon="4.76299">
        <ele>-1.088975</ele>
        <time>2022-05-12T09:13:20.000Z</time>
      </trkpt>
      <trkpt lat="43.49358" lon="4.76304">
        <ele>-1.102186</ele>
        <time>2022-05-12T09:13:24.000Z</time>
      </trkpt>
      <trkpt lat="43.49349" lon="4.76306">
        <ele>-1.108927</ele>
        <time>2022-05-12T09:13:26.000Z</time>
      </trkpt>
      <trkpt lat="43.49336" lon="4.7631">
        <ele>-1.118876</ele>
        <time>2022-05-12T09:13:29.000Z</time>
      </trkpt>
      <trkpt lat="43.49302" lon="4.76321">
        <ele>-0.958788</ele>
        <time>2022-05-12T09:13:37.000Z</time>
      </trkpt>
      <trkpt lat="43.49252" lon="4.76335">
        <ele>-0.712469</ele>
        <time>2022-05-12T09:13:48.000Z</time>
      </trkpt>
      <trkpt lat="43.49213" lon="4.76348">
        <ele>-0.521961</ele>
        <time>2022-05-12T09:13:56.000Z</time>
      </trkpt>
      <trkpt lat="43.49195" lon="4.76353">
        <ele>-0.432332</ele>
        <time>2022-05-12T09:14:00.000Z</time>
      </trkpt>
      <trkpt lat="43.4917" lon="4.7636">
        <ele>-0.308901</ele>
        <time>2022-05-12T09:14:05.000Z</time>
      </trkpt>
      <trkpt lat="43.49165" lon="4.76362">
        <ele>-0.284188</ele>
        <time>2022-05-12T09:14:06.000Z</time>
      </trkpt>
      <trkpt lat="43.49118" lon="4.76376">
        <ele>-0.26927</ele>
        <time>2022-05-12T09:14:17.000Z</time>
      </trkpt>
      <trkpt lat="43.49073" lon="4.76389">
        <ele>-0.285695</ele>
        <time>2022-05-12T09:14:29.000Z</time>
      </trkpt>
      <trkpt lat="43.49051" lon="4.76397">
        <ele>-0.293965</ele>
        <time>2022-05-12T09:14:35.000Z</time>
      </trkpt>
      <trkpt lat="43.49032" lon="4.76401">
        <ele>-0.300696</ele>
        <time>2022-05-12T09:14:40.000Z</time>
      </trkpt>
      <trkpt lat="43.49022" lon="4.76405">
        <ele>-0.304434</ele>
        <time>2022-05-12T09:14:43.000Z</time>
      </trkpt>
      <trkpt lat="43.49017" lon="4.76406">
        <ele>-0.306262</ele>
        <time>2022-05-12T09:14:46.000Z</time>
      </trkpt>
      <trkpt lat="43.49017" lon="4.76406">
        <ele>-0.306262</ele>
        <time>2022-05-12T09:14:50.000Z</time>
      </trkpt>
      <trkpt lat="43.49017" lon="4.76406">
        <ele>-0.306262</ele>
        <time>2022-05-12T09:14:56.000Z</time>
      </trkpt>
      <trkpt lat="43.49016" lon="4.76406">
        <ele>-0.30649</ele>
        <time>2022-05-12T09:14:59.000Z</time>
      </trkpt>
      <trkpt lat="43.49016" lon="4.76406">
        <ele>-0.30649</ele>
        <time>2022-05-12T09:15:25.000Z</time>
      </trkpt>
      <trkpt lat="43.49016" lon="4.76406">
        <ele>-0.30649</ele>
        <time>2022-05-12T09:15:46.000Z</time>
      </trkpt>
      <trkpt lat="43.49016" lon="4.76406">
        <ele>-0.30649</ele>
        <time>2022-05-12T09:15:51.000Z</time>
      </trkpt>
      <trkpt lat="43.49016" lon="4.76406">
        <ele>-0.30649</ele>
        <time>2022-05-12T09:16:02.000Z</time>
      </trkpt>
      <trkpt lat="43.49016" lon="4.76406">
        <ele>-0.30649</ele>
        <time>2022-05-12T09:16:05.000Z</time>
      </trkpt>
      <trkpt lat="43.49016" lon="4.76406">
        <ele>-0.30649</ele>
        <time>2022-05-12T09:16:08.000Z</time>
      </trkpt>
      <trkpt lat="43.49016" lon="4.76406">
        <ele>-0.30649</ele>
        <time>2022-05-12T09:16:22.000Z</time>
      </trkpt>
      <trkpt lat="43.49016" lon="4.76406">
        <ele>-0.30649</ele>
        <time>2022-05-12T09:16:29.000Z</time>
      </trkpt>
      <trkpt lat="43.49016" lon="4.76407">
        <ele>-0.306805</ele>
        <time>2022-05-12T09:16:34.000Z</time>
      </trkpt>
      <trkpt lat="43.49015" lon="4.76407">
        <ele>-0.306916</ele>
        <time>2022-05-12T09:16:37.000Z</time>
      </trkpt>
      <trkpt lat="43.49003" lon="4.76412">
        <ele>-0.311641</ele>
        <time>2022-05-12T09:16:42.000Z</time>
      </trkpt>
      <trkpt lat="43.48984" lon="4.76416">
        <ele>-0.318513</ele>
        <time>2022-05-12T09:16:47.000Z</time>
      </trkpt>
      <trkpt lat="43.48961" lon="4.76422">
        <ele>-0.308231</ele>
        <time>2022-05-12T09:16:53.000Z</time>
      </trkpt>
      <trkpt lat="43.48945" lon="4.76427">
        <ele>-0.301248</ele>
        <time>2022-05-12T09:16:57.000Z</time>
      </trkpt>
      <trkpt lat="43.48926" lon="4.76432">
        <ele>-0.292409</ele>
        <time>2022-05-12T09:17:02.000Z</time>
      </trkpt>
      <trkpt lat="43.48885" lon="4.76445">
        <ele>-0.273285</ele>
        <time>2022-05-12T09:17:13.000Z</time>
      </trkpt>
      <trkpt lat="43.48847" lon="4.76456">
        <ele>-0.256163</ele>
        <time>2022-05-12T09:17:23.000Z</time>
      </trkpt>
      <trkpt lat="43.48819" lon="4.76464">
        <ele>-0.243175</ele>
        <time>2022-05-12T09:17:30.000Z</time>
      </trkpt>
      <trkpt lat="43.48815" lon="4.76465">
        <ele>-0.241245</ele>
        <time>2022-05-12T09:17:31.000Z</time>
      </trkpt>
      <trkpt lat="43.48798" lon="4.76471">
        <ele>-0.258475</ele>
        <time>2022-05-12T09:17:35.000Z</time>
      </trkpt>
      <trkpt lat="43.4879" lon="4.76474">
        <ele>-0.276432</ele>
        <time>2022-05-12T09:17:37.000Z</time>
      </trkpt>
      <trkpt lat="43.48774" lon="4.76479">
        <ele>-0.312767</ele>
        <time>2022-05-12T09:17:41.000Z</time>
      </trkpt>
      <trkpt lat="43.48718" lon="4.76495">
        <ele>-0.436187</ele>
        <time>2022-05-12T09:17:54.000Z</time>
      </trkpt>
      <trkpt lat="43.48664" lon="4.7651">
        <ele>-0.555814</ele>
        <time>2022-05-12T09:18:06.000Z</time>
      </trkpt>
      <trkpt lat="43.48611" lon="4.76528">
        <ele>-0.675167</ele>
        <time>2022-05-12T09:18:18.000Z</time>
      </trkpt>
      <trkpt lat="43.48568" lon="4.76541">
        <ele>-0.770849</ele>
        <time>2022-05-12T09:18:28.000Z</time>
      </trkpt>
      <trkpt lat="43.48547" lon="4.76547">
        <ele>-0.818394</ele>
        <time>2022-05-12T09:18:33.000Z</time>
      </trkpt>
      <trkpt lat="43.48516" lon="4.76557">
        <ele>-0.886796</ele>
        <time>2022-05-12T09:18:40.000Z</time>
      </trkpt>
      <trkpt lat="43.48477" lon="4.76567">
        <ele>-0.972715</ele>
        <time>2022-05-12T09:18:49.000Z</time>
      </trkpt>
      <trkpt lat="43.48438" lon="4.76579">
        <ele>-0.999544</ele>
        <time>2022-05-12T09:18:58.000Z</time>
      </trkpt>
      <trkpt lat="43.48403" lon="4.7659">
        <ele>-0.961378</ele>
        <time>2022-05-12T09:19:06.000Z</time>
      </trkpt>
      <trkpt lat="43.48375" lon="4.76598">
        <ele>-0.931206</ele>
        <time>2022-05-12T09:19:13.000Z</time>
      </trkpt>
      <trkpt lat="43.48361" lon="4.76603">
        <ele>-0.915063</ele>
        <time>2022-05-12T09:19:17.000Z</time>
      </trkpt>
      <trkpt lat="43.4833" lon="4.76612">
        <ele>-0.881061</ele>
        <time>2022-05-12T09:19:25.000Z</time>
      </trkpt>
      <trkpt lat="43.48309" lon="4.76618">
        <ele>-0.858652</ele>
        <time>2022-05-12T09:19:30.000Z</time>
      </trkpt>
      <trkpt lat="43.48297" lon="4.76622">
        <ele>-0.844812</ele>
        <time>2022-05-12T09:19:33.000Z</time>
      </trkpt>
      <trkpt lat="43.48255" lon="4.76634">
        <ele>-0.79623</ele>
        <time>2022-05-12T09:19:43.000Z</time>
      </trkpt>
      <trkpt lat="43.48204" lon="4.76651">
        <ele>-0.736317</ele>
        <time>2022-05-12T09:19:55.000Z</time>
      </trkpt>
      <trkpt lat="43.48168" lon="4.76662">
        <ele>-0.693793</ele>
        <time>2022-05-12T09:20:04.000Z</time>
      </trkpt>
      <trkpt lat="43.48161" lon="4.76665">
        <ele>-0.684517</ele>
        <time>2022-05-12T09:20:06.000Z</time>
      </trkpt>
      <trkpt lat="43.48125" lon="4.76676">
        <ele>-0.642724</ele>
        <time>2022-05-12T09:20:15.000Z</time>
      </trkpt>
      <trkpt lat="43.48095" lon="4.76683">
        <ele>-0.578029</ele>
        <time>2022-05-12T09:20:22.000Z</time>
      </trkpt>
      <trkpt lat="43.48043" lon="4.76698">
        <ele>-0.361766</ele>
        <time>2022-05-12T09:20:34.000Z</time>
      </trkpt>
      <trkpt lat="43.48008" lon="4.76708">
        <ele>-0.21736</ele>
        <time>2022-05-12T09:20:43.000Z</time>
      </trkpt>
      <trkpt lat="43.47962" lon="4.76722">
        <ele>-0.025112</ele>
        <time>2022-05-12T09:20:54.000Z</time>
      </trkpt>
      <trkpt lat="43.47932" lon="4.76733">
        <ele>0.099115</ele>
        <time>2022-05-12T09:21:01.000Z</time>
      </trkpt>
      <trkpt lat="43.47928" lon="4.76734">
        <ele>0.106875</ele>
        <time>2022-05-12T09:21:02.000Z</time>
      </trkpt>
      <trkpt lat="43.47919" lon="4.76736">
        <ele>0.080654</ele>
        <time>2022-05-12T09:21:04.000Z</time>
      </trkpt>
      <trkpt lat="43.47864" lon="4.7675">
        <ele>-0.092662</ele>
        <time>2022-05-12T09:21:17.000Z</time>
      </trkpt>
      <trkpt lat="43.47831" lon="4.76759">
        <ele>-0.198839</ele>
        <time>2022-05-12T09:21:25.000Z</time>
      </trkpt>
      <trkpt lat="43.47823" lon="4.76762">
        <ele>-0.223952</ele>
        <time>2022-05-12T09:21:27.000Z</time>
      </trkpt>
      <trkpt lat="43.47778" lon="4.76775">
        <ele>-0.364296</ele>
        <time>2022-05-12T09:21:38.000Z</time>
      </trkpt>
      <trkpt lat="43.47728" lon="4.76793">
        <ele>-0.42829</ele>
        <time>2022-05-12T09:21:50.000Z</time>
      </trkpt>
      <trkpt lat="43.47678" lon="4.76809">
        <ele>-0.395974</ele>
        <time>2022-05-12T09:22:02.000Z</time>
      </trkpt>
      <trkpt lat="43.47637" lon="4.7682">
        <ele>-0.369255</ele>
        <time>2022-05-12T09:22:12.000Z</time>
      </trkpt>
      <trkpt lat="43.47607" lon="4.76827">
        <ele>-0.349882</ele>
        <time>2022-05-12T09:22:18.000Z</time>
      </trkpt>
      <trkpt lat="43.4757" lon="4.76835">
        <ele>-0.332903</ele>
        <time>2022-05-12T09:22:26.000Z</time>
      </trkpt>
      <trkpt lat="43.47515" lon="4.76848">
        <ele>-0.352267</ele>
        <time>2022-05-12T09:22:38.000Z</time>
      </trkpt>
      <trkpt lat="43.47467" lon="4.76858">
        <ele>-0.368858</ele>
        <time>2022-05-12T09:22:48.000Z</time>
      </trkpt>
      <trkpt lat="43.47424" lon="4.76867">
        <ele>-0.383622</ele>
        <time>2022-05-12T09:22:57.000Z</time>
      </trkpt>
      <trkpt lat="43.47386" lon="4.76873">
        <ele>-0.409128</ele>
        <time>2022-05-12T09:23:05.000Z</time>
      </trkpt>
      <trkpt lat="43.47372" lon="4.76875">
        <ele>-0.426669</ele>
        <time>2022-05-12T09:23:08.000Z</time>
      </trkpt>
      <trkpt lat="43.47336" lon="4.76879">
        <ele>-0.470772</ele>
        <time>2022-05-12T09:23:16.000Z</time>
      </trkpt>
      <trkpt lat="43.47313" lon="4.76882">
        <ele>-0.499172</ele>
        <time>2022-05-12T09:23:21.000Z</time>
      </trkpt>
      <trkpt lat="43.47304" lon="4.76883">
        <ele>-0.511209</ele>
        <time>2022-05-12T09:23:23.000Z</time>
      </trkpt>
      <trkpt lat="43.47265" lon="4.76889">
        <ele>-0.5594</ele>
        <time>2022-05-12T09:23:32.000Z</time>
      </trkpt>
      <trkpt lat="43.47222" lon="4.76893">
        <ele>-0.613389</ele>
        <time>2022-05-12T09:23:42.000Z</time>
      </trkpt>
      <trkpt lat="43.472" lon="4.76896">
        <ele>-0.594765</ele>
        <time>2022-05-12T09:23:47.000Z</time>
      </trkpt>
      <trkpt lat="43.47187" lon="4.76897">
        <ele>-0.581057</ele>
        <time>2022-05-12T09:23:50.000Z</time>
      </trkpt>
      <trkpt lat="43.47168" lon="4.769">
        <ele>-0.560251</ele>
        <time>2022-05-12T09:23:55.000Z</time>
      </trkpt>
      <trkpt lat="43.47155" lon="4.76901">
        <ele>-0.547397</ele>
        <time>2022-05-12T09:23:58.000Z</time>
      </trkpt>
      <trkpt lat="43.47147" lon="4.769">
        <ele>-0.538823</ele>
        <time>2022-05-12T09:24:00.000Z</time>
      </trkpt>
      <trkpt lat="43.47134" lon="4.76897">
        <ele>-0.524661</ele>
        <time>2022-05-12T09:24:03.000Z</time>
      </trkpt>
      <trkpt lat="43.47093" lon="4.76899">
        <ele>-0.482658</ele>
        <time>2022-05-12T09:24:13.000Z</time>
      </trkpt>
      <trkpt lat="43.47072" lon="4.76902">
        <ele>-0.459841</ele>
        <time>2022-05-12T09:24:18.000Z</time>
      </trkpt>
      <trkpt lat="43.47063" lon="4.76901">
        <ele>-0.451279</ele>
        <time>2022-05-12T09:24:20.000Z</time>
      </trkpt>
      <trkpt lat="43.47012" lon="4.76903">
        <ele>-0.461591</ele>
        <time>2022-05-12T09:24:31.000Z</time>
      </trkpt>
      <trkpt lat="43.4698" lon="4.76906">
        <ele>-0.499615</ele>
        <time>2022-05-12T09:24:38.000Z</time>
      </trkpt>
      <trkpt lat="43.46965" lon="4.76907">
        <ele>-0.517393</ele>
        <time>2022-05-12T09:24:41.000Z</time>
      </trkpt>
      <trkpt lat="43.46916" lon="4.76911">
        <ele>-0.575661</ele>
        <time>2022-05-12T09:24:52.000Z</time>
      </trkpt>
      <trkpt lat="43.46869" lon="4.76914">
        <ele>-0.630853</ele>
        <time>2022-05-12T09:25:03.000Z</time>
      </trkpt>
      <trkpt lat="43.46825" lon="4.76917">
        <ele>-0.638284</ele>
        <time>2022-05-12T09:25:13.000Z</time>
      </trkpt>
      <trkpt lat="43.46774" lon="4.76921">
        <ele>-0.635482</ele>
        <time>2022-05-12T09:25:24.000Z</time>
      </trkpt>
      <trkpt lat="43.46725" lon="4.76926">
        <ele>-0.632746</ele>
        <time>2022-05-12T09:25:35.000Z</time>
      </trkpt>
      <trkpt lat="43.46716" lon="4.76927">
        <ele>-0.632269</ele>
        <time>2022-05-12T09:25:37.000Z</time>
      </trkpt>
      <trkpt lat="43.46683" lon="4.76928">
        <ele>-0.630433</ele>
        <time>2022-05-12T09:25:44.000Z</time>
      </trkpt>
      <trkpt lat="43.46628" lon="4.76932">
        <ele>-0.946796</ele>
        <time>2022-05-12T09:25:57.000Z</time>
      </trkpt>
      <trkpt lat="43.4658" lon="4.76935">
        <ele>-1.225696</ele>
        <time>2022-05-12T09:26:08.000Z</time>
      </trkpt>
      <trkpt lat="43.46551" lon="4.76931">
        <ele>-1.394527</ele>
        <time>2022-05-12T09:26:16.000Z</time>
      </trkpt>
      <trkpt lat="43.46546" lon="4.76931">
        <ele>-1.423916</ele>
        <time>2022-05-12T09:26:17.000Z</time>
      </trkpt>
      <trkpt lat="43.46535" lon="4.76932">
        <ele>-1.490195</ele>
        <time>2022-05-12T09:26:20.000Z</time>
      </trkpt>
      <trkpt lat="43.46512" lon="4.76933">
        <ele>-1.622566</ele>
        <time>2022-05-12T09:26:25.000Z</time>
      </trkpt>
      <trkpt lat="43.46475" lon="4.76937">
        <ele>-1.684953</ele>
        <time>2022-05-12T09:26:33.000Z</time>
      </trkpt>
      <trkpt lat="43.46456" lon="4.76937">
        <ele>-1.685958</ele>
        <time>2022-05-12T09:26:37.000Z</time>
      </trkpt>
      <trkpt lat="43.46418" lon="4.76939">
        <ele>-1.687963</ele>
        <time>2022-05-12T09:26:45.000Z</time>
      </trkpt>
      <trkpt lat="43.46378" lon="4.76941">
        <ele>-1.690005</ele>
        <time>2022-05-12T09:26:54.000Z</time>
      </trkpt>
      <trkpt lat="43.4637" lon="4.76942">
        <ele>-1.690433</ele>
        <time>2022-05-12T09:26:56.000Z</time>
      </trkpt>
      <trkpt lat="43.46332" lon="4.76944">
        <ele>-1.692443</ele>
        <time>2022-05-12T09:27:05.000Z</time>
      </trkpt>
      <trkpt lat="43.46323" lon="4.76945">
        <ele>-1.692912</ele>
        <time>2022-05-12T09:27:07.000Z</time>
      </trkpt>
      <trkpt lat="43.46278" lon="4.76948">
        <ele>-1.548825</ele>
        <time>2022-05-12T09:27:17.000Z</time>
      </trkpt>
      <trkpt lat="43.46252" lon="4.7695">
        <ele>-1.46332</ele>
        <time>2022-05-12T09:27:23.000Z</time>
      </trkpt>
      <trkpt lat="43.46231" lon="4.76952">
        <ele>-1.393236</ele>
        <time>2022-05-12T09:27:28.000Z</time>
      </trkpt>
      <trkpt lat="43.46187" lon="4.76958">
        <ele>-1.249361</ele>
        <time>2022-05-12T09:27:38.000Z</time>
      </trkpt>
      <trkpt lat="43.46153" lon="4.76964">
        <ele>-1.13645</ele>
        <time>2022-05-12T09:27:46.000Z</time>
      </trkpt>
      <trkpt lat="43.46132" lon="4.76968">
        <ele>-1.124799</ele>
        <time>2022-05-12T09:27:51.000Z</time>
      </trkpt>
      <trkpt lat="43.4609" lon="4.76975">
        <ele>-1.196777</ele>
        <time>2022-05-12T09:28:01.000Z</time>
      </trkpt>
      <trkpt lat="43.46086" lon="4.76976">
        <ele>-1.203886</ele>
        <time>2022-05-12T09:28:02.000Z</time>
      </trkpt>
      <trkpt lat="43.4607" lon="4.76979">
        <ele>-1.231302</ele>
        <time>2022-05-12T09:28:06.000Z</time>
      </trkpt>
      <trkpt lat="43.46038" lon="4.76984">
        <ele>-1.284908</ele>
        <time>2022-05-12T09:28:14.000Z</time>
      </trkpt>
      <trkpt lat="43.45998" lon="4.76994">
        <ele>-1.354033</ele>
        <time>2022-05-12T09:28:24.000Z</time>
      </trkpt>
      <trkpt lat="43.45954" lon="4.77008">
        <ele>-1.482768</ele>
        <time>2022-05-12T09:28:35.000Z</time>
      </trkpt>
      <trkpt lat="43.45907" lon="4.77022">
        <ele>-1.776447</ele>
        <time>2022-05-12T09:28:46.000Z</time>
      </trkpt>
      <trkpt lat="43.45884" lon="4.77028">
        <ele>-1.916568</ele>
        <time>2022-05-12T09:28:51.000Z</time>
      </trkpt>
      <trkpt lat="43.45866" lon="4.77034">
        <ele>-2.029274</ele>
        <time>2022-05-12T09:28:55.000Z</time>
      </trkpt>
      <trkpt lat="43.45862" lon="4.77035">
        <ele>-2.056638</ele>
        <time>2022-05-12T09:28:56.000Z</time>
      </trkpt>
      <trkpt lat="43.45853" lon="4.77038">
        <ele>-2.111459</ele>
        <time>2022-05-12T09:28:58.000Z</time>
      </trkpt>
      <trkpt lat="43.45815" lon="4.77048">
        <ele>-2.345426</ele>
        <time>2022-05-12T09:29:07.000Z</time>
      </trkpt>
      <trkpt lat="43.45763" lon="4.77065">
        <ele>-2.473923</ele>
        <time>2022-05-12T09:29:19.000Z</time>
      </trkpt>
      <trkpt lat="43.45706" lon="4.77082">
        <ele>-2.408684</ele>
        <time>2022-05-12T09:29:32.000Z</time>
      </trkpt>
      <trkpt lat="43.4565" lon="4.77098">
        <ele>-2.345039</ele>
        <time>2022-05-12T09:29:45.000Z</time>
      </trkpt>
      <trkpt lat="43.45605" lon="4.77113">
        <ele>-2.24018</ele>
        <time>2022-05-12T09:29:56.000Z</time>
      </trkpt>
      <trkpt lat="43.45597" lon="4.77115">
        <ele>-2.186058</ele>
        <time>2022-05-12T09:29:58.000Z</time>
      </trkpt>
      <trkpt lat="43.45569" lon="4.77124">
        <ele>-1.990604</ele>
        <time>2022-05-12T09:30:05.000Z</time>
      </trkpt>
      <trkpt lat="43.45561" lon="4.77126">
        <ele>-1.936161</ele>
        <time>2022-05-12T09:30:07.000Z</time>
      </trkpt>
      <trkpt lat="43.45529" lon="4.77136">
        <ele>-1.719053</ele>
        <time>2022-05-12T09:30:15.000Z</time>
      </trkpt>
      <trkpt lat="43.4551" lon="4.77142">
        <ele>-1.587196</ele>
        <time>2022-05-12T09:30:20.000Z</time>
      </trkpt>
      <trkpt lat="43.45491" lon="4.77148">
        <ele>-1.459582</ele>
        <time>2022-05-12T09:30:25.000Z</time>
      </trkpt>
      <trkpt lat="43.4545" lon="4.77159">
        <ele>-1.179979</ele>
        <time>2022-05-12T09:30:35.000Z</time>
      </trkpt>
      <trkpt lat="43.45447" lon="4.7716">
        <ele>-1.155803</ele>
        <time>2022-05-12T09:30:36.000Z</time>
      </trkpt>
      <trkpt lat="43.4543" lon="4.77166">
        <ele>-1.044766</ele>
        <time>2022-05-12T09:30:41.000Z</time>
      </trkpt>
      <trkpt lat="43.45423" lon="4.77168">
        <ele>-0.998767</ele>
        <time>2022-05-12T09:30:43.000Z</time>
      </trkpt>
      <trkpt lat="43.45397" lon="4.77176">
        <ele>-0.840284</ele>
        <time>2022-05-12T09:30:50.000Z</time>
      </trkpt>
      <trkpt lat="43.4539" lon="4.77177">
        <ele>-0.79505</ele>
        <time>2022-05-12T09:30:52.000Z</time>
      </trkpt>
      <trkpt lat="43.45353" lon="4.77188">
        <ele>-0.566075</ele>
        <time>2022-05-12T09:31:02.000Z</time>
      </trkpt>
      <trkpt lat="43.45316" lon="4.77199">
        <ele>-0.33715</ele>
        <time>2022-05-12T09:31:12.000Z</time>
      </trkpt>
      <trkpt lat="43.45273" lon="4.77212">
        <ele>-0.073763</ele>
        <time>2022-05-12T09:31:23.000Z</time>
      </trkpt>
      <trkpt lat="43.45223" lon="4.77227">
        <ele>-0.066135</ele>
        <time>2022-05-12T09:31:36.000Z</time>
      </trkpt>
      <trkpt lat="43.45182" lon="4.77238">
        <ele>-0.126449</ele>
        <time>2022-05-12T09:31:46.000Z</time>
      </trkpt>
      <trkpt lat="43.45149" lon="4.77253">
        <ele>-0.177088</ele>
        <time>2022-05-12T09:31:55.000Z</time>
      </trkpt>
      <trkpt lat="43.45125" lon="4.77265">
        <ele>-0.214513</ele>
        <time>2022-05-12T09:32:02.000Z</time>
      </trkpt>
      <trkpt lat="43.4508" lon="4.77278">
        <ele>-0.277708</ele>
        <time>2022-05-12T09:32:13.000Z</time>
      </trkpt>
      <trkpt lat="43.4503" lon="4.77293">
        <ele>-0.332814</ele>
        <time>2022-05-12T09:32:25.000Z</time>
      </trkpt>
      <trkpt lat="43.44986" lon="4.77308">
        <ele>-0.380607</ele>
        <time>2022-05-12T09:32:36.000Z</time>
      </trkpt>
      <trkpt lat="43.44949" lon="4.77319">
        <ele>-0.420583</ele>
        <time>2022-05-12T09:32:45.000Z</time>
      </trkpt>
      <trkpt lat="43.44909" lon="4.7733">
        <ele>-0.496097</ele>
        <time>2022-05-12T09:32:55.000Z</time>
      </trkpt>
      <trkpt lat="43.4487" lon="4.77342">
        <ele>-0.802084</ele>
        <time>2022-05-12T09:33:04.000Z</time>
      </trkpt>
      <trkpt lat="43.44824" lon="4.77357">
        <ele>-1.176207</ele>
        <time>2022-05-12T09:33:15.000Z</time>
      </trkpt>
      <trkpt lat="43.44786" lon="4.77368">
        <ele>-1.474079</ele>
        <time>2022-05-12T09:33:24.000Z</time>
      </trkpt>
      <trkpt lat="43.44756" lon="4.77376">
        <ele>-1.714205</ele>
        <time>2022-05-12T09:33:31.000Z</time>
      </trkpt>
      <trkpt lat="43.44739" lon="4.77381">
        <ele>-1.8496</ele>
        <time>2022-05-12T09:33:35.000Z</time>
      </trkpt>
      <trkpt lat="43.44701" lon="4.77392">
        <ele>-1.993744</ele>
        <time>2022-05-12T09:33:44.000Z</time>
      </trkpt>
      <trkpt lat="43.44662" lon="4.77404">
        <ele>-2.132788</ele>
        <time>2022-05-12T09:33:53.000Z</time>
      </trkpt>
      <trkpt lat="43.44607" lon="4.77422">
        <ele>-2.328674</ele>
        <time>2022-05-12T09:34:06.000Z</time>
      </trkpt>
      <trkpt lat="43.44574" lon="4.77432">
        <ele>-2.446716</ele>
        <time>2022-05-12T09:34:14.000Z</time>
      </trkpt>
      <trkpt lat="43.44563" lon="4.77436">
        <ele>-2.488769</ele>
        <time>2022-05-12T09:34:17.000Z</time>
      </trkpt>
      <trkpt lat="43.44551" lon="4.7744">
        <ele>-2.407102</ele>
        <time>2022-05-12T09:34:20.000Z</time>
      </trkpt>
      <trkpt lat="43.44516" lon="4.7745">
        <ele>-2.151454</ele>
        <time>2022-05-12T09:34:28.000Z</time>
      </trkpt>
      <trkpt lat="43.44508" lon="4.77453">
        <ele>-2.087463</ele>
        <time>2022-05-12T09:34:30.000Z</time>
      </trkpt>
      <trkpt lat="43.44473" lon="4.77463">
        <ele>-1.825176</ele>
        <time>2022-05-12T09:34:38.000Z</time>
      </trkpt>
      <trkpt lat="43.44435" lon="4.77474">
        <ele>-1.542253</ele>
        <time>2022-05-12T09:34:47.000Z</time>
      </trkpt>
      <trkpt lat="43.44418" lon="4.77479">
        <ele>-1.41812</ele>
        <time>2022-05-12T09:34:51.000Z</time>
      </trkpt>
      <trkpt lat="43.44395" lon="4.77487">
        <ele>-1.2409</ele>
        <time>2022-05-12T09:34:57.000Z</time>
      </trkpt>
      <trkpt lat="43.44364" lon="4.77495">
        <ele>-1.166771</ele>
        <time>2022-05-12T09:35:05.000Z</time>
      </trkpt>
      <trkpt lat="43.44336" lon="4.77504">
        <ele>-1.150271</ele>
        <time>2022-05-12T09:35:11.000Z</time>
      </trkpt>
      <trkpt lat="43.44302" lon="4.77513">
        <ele>-1.129938</ele>
        <time>2022-05-12T09:35:19.000Z</time>
      </trkpt>
      <trkpt lat="43.44293" lon="4.77511">
        <ele>-1.125189</ele>
        <time>2022-05-12T09:35:21.000Z</time>
      </trkpt>
      <trkpt lat="43.44285" lon="4.77509">
        <ele>-1.120349</ele>
        <time>2022-05-12T09:35:23.000Z</time>
      </trkpt>
      <trkpt lat="43.44281" lon="4.77508">
        <ele>-1.118022</ele>
        <time>2022-05-12T09:35:24.000Z</time>
      </trkpt>
      <trkpt lat="43.44269" lon="4.77515">
        <ele>-1.110313</ele>
        <time>2022-05-12T09:35:28.000Z</time>
      </trkpt>
      <trkpt lat="43.44257" lon="4.77532">
        <ele>-1.100435</ele>
        <time>2022-05-12T09:35:34.000Z</time>
      </trkpt>
      <trkpt lat="43.44237" lon="4.77535">
        <ele>-1.088853</ele>
        <time>2022-05-12T09:35:40.000Z</time>
      </trkpt>
      <trkpt lat="43.44226" lon="4.77537">
        <ele>-1.082477</ele>
        <time>2022-05-12T09:35:43.000Z</time>
      </trkpt>
      <trkpt lat="43.44205" lon="4.77542">
        <ele>-1.04479</ele>
        <time>2022-05-12T09:35:48.000Z</time>
      </trkpt>
      <trkpt lat="43.44173" lon="4.77552">
        <ele>-0.948459</ele>
        <time>2022-05-12T09:35:56.000Z</time>
      </trkpt>
      <trkpt lat="43.44137" lon="4.77563">
        <ele>-0.837914</ele>
        <time>2022-05-12T09:36:05.000Z</time>
      </trkpt>
      <trkpt lat="43.44088" lon="4.77579">
        <ele>-0.690058</ele>
        <time>2022-05-12T09:36:17.000Z</time>
      </trkpt>
      <trkpt lat="43.44058" lon="4.77589">
        <ele>-0.597811</ele>
        <time>2022-05-12T09:36:25.000Z</time>
      </trkpt>
      <trkpt lat="43.44022" lon="4.77598">
        <ele>-0.573013</ele>
        <time>2022-05-12T09:36:34.000Z</time>
      </trkpt>
      <trkpt lat="43.43975" lon="4.77611">
        <ele>-0.645892</ele>
        <time>2022-05-12T09:36:45.000Z</time>
      </trkpt>
      <trkpt lat="43.43952" lon="4.77616">
        <ele>-0.682589</ele>
        <time>2022-05-12T09:36:51.000Z</time>
      </trkpt>
      <trkpt lat="43.4394" lon="4.77618">
        <ele>-0.700955</ele>
        <time>2022-05-12T09:36:54.000Z</time>
      </trkpt>
      <trkpt lat="43.43905" lon="4.77625">
        <ele>-0.754887</ele>
        <time>2022-05-12T09:37:03.000Z</time>
      </trkpt>
      <trkpt lat="43.43863" lon="4.77639">
        <ele>-0.820456</ele>
        <time>2022-05-12T09:37:14.000Z</time>
      </trkpt>
      <trkpt lat="43.43826" lon="4.77651">
        <ele>-0.729184</ele>
        <time>2022-05-12T09:37:24.000Z</time>
      </trkpt>
      <trkpt lat="43.43793" lon="4.77658">
        <ele>-0.649603</ele>
        <time>2022-05-12T09:37:33.000Z</time>
      </trkpt>
      <trkpt lat="43.43767" lon="4.77666">
        <ele>-0.587013</ele>
        <time>2022-05-12T09:37:40.000Z</time>
      </trkpt>
      <trkpt lat="43.43753" lon="4.77657">
        <ele>-0.551426</ele>
        <time>2022-05-12T09:37:44.000Z</time>
      </trkpt>
      <trkpt lat="43.43743" lon="4.77641">
        <ele>-0.515629</ele>
        <time>2022-05-12T09:37:49.000Z</time>
      </trkpt>
      <trkpt lat="43.43733" lon="4.77623">
        <ele>-0.475525</ele>
        <time>2022-05-12T09:37:56.000Z</time>
      </trkpt>
      <trkpt lat="43.43728" lon="4.77616">
        <ele>-0.459191</ele>
        <time>2022-05-12T09:38:00.000Z</time>
      </trkpt>
      <trkpt lat="43.43728" lon="4.77616">
        <ele>-0.457024</ele>
        <time>2022-05-12T09:38:01.000Z</time>
      </trkpt>
      <trkpt lat="43.43727" lon="4.77614">
        <ele>-0.452972</ele>
        <time>2022-05-12T09:38:06.000Z</time>
      </trkpt>
      <trkpt lat="43.43726" lon="4.77612">
        <ele>-0.450286</ele>
        <time>2022-05-12T09:38:10.000Z</time>
      </trkpt>
      <trkpt lat="43.43724" lon="4.77609">
        <ele>-0.4431</ele>
        <time>2022-05-12T09:38:13.000Z</time>
      </trkpt>
      <trkpt lat="43.43722" lon="4.77608">
        <ele>-0.437977</ele>
        <time>2022-05-12T09:38:14.000Z</time>
      </trkpt>
      <trkpt lat="43.43708" lon="4.77601">
        <ele>-0.403516</ele>
        <time>2022-05-12T09:38:20.000Z</time>
      </trkpt>
      <trkpt lat="43.43701" lon="4.77605">
        <ele>-0.382203</ele>
        <time>2022-05-12T09:38:23.000Z</time>
      </trkpt>
      <trkpt lat="43.43697" lon="4.77611">
        <ele>-0.364798</ele>
        <time>2022-05-12T09:38:25.000Z</time>
      </trkpt>
      <trkpt lat="43.43694" lon="4.77613">
        <ele>-0.355881</ele>
        <time>2022-05-12T09:38:26.000Z</time>
      </trkpt>
      <trkpt lat="43.43689" lon="4.77617">
        <ele>-0.338785</ele>
        <time>2022-05-12T09:38:28.000Z</time>
      </trkpt>
      <trkpt lat="43.43683" lon="4.77616">
        <ele>-0.320803</ele>
        <time>2022-05-12T09:38:30.000Z</time>
      </trkpt>
      <trkpt lat="43.43673" lon="4.77604">
        <ele>-0.281156</ele>
        <time>2022-05-12T09:38:35.000Z</time>
      </trkpt>
      <trkpt lat="43.43661" lon="4.77583">
        <ele>-0.223421</ele>
        <time>2022-05-12T09:38:44.000Z</time>
      </trkpt>
      <trkpt lat="43.43661" lon="4.77583">
        <ele>-0.223421</ele>
        <time>2022-05-12T09:38:46.000Z</time>
      </trkpt>
      <trkpt lat="43.43661" lon="4.77583">
        <ele>-0.223421</ele>
        <time>2022-05-12T09:38:49.000Z</time>
      </trkpt>
      <trkpt lat="43.43661" lon="4.77583">
        <ele>-0.223421</ele>
        <time>2022-05-12T09:38:53.000Z</time>
      </trkpt>
      <trkpt lat="43.43661" lon="4.77583">
        <ele>-0.223421</ele>
        <time>2022-05-12T09:39:02.000Z</time>
      </trkpt>
      <trkpt lat="43.43661" lon="4.77583">
        <ele>-0.223421</ele>
        <time>2022-05-12T09:39:07.000Z</time>
      </trkpt>
      <trkpt lat="43.43661" lon="4.77583">
        <ele>-0.223421</ele>
        <time>2022-05-12T09:39:24.000Z</time>
      </trkpt>
      <trkpt lat="43.43661" lon="4.77583">
        <ele>-0.223421</ele>
        <time>2022-05-12T09:39:25.000Z</time>
      </trkpt>
      <trkpt lat="43.43661" lon="4.77583">
        <ele>-0.223421</ele>
        <time>2022-05-12T09:39:35.000Z</time>
      </trkpt>
      <trkpt lat="43.43661" lon="4.77583">
        <ele>-0.223421</ele>
        <time>2022-05-12T09:39:38.000Z</time>
      </trkpt>
      <trkpt lat="43.43661" lon="4.77583">
        <ele>-0.223421</ele>
        <time>2022-05-12T09:39:47.000Z</time>
      </trkpt>
      <trkpt lat="43.43661" lon="4.77583">
        <ele>-0.223421</ele>
        <time>2022-05-12T09:39:49.000Z</time>
      </trkpt>
      <trkpt lat="43.43661" lon="4.77583">
        <ele>-0.223421</ele>
        <time>2022-05-12T09:39:51.000Z</time>
      </trkpt>
      <trkpt lat="43.43661" lon="4.77583">
        <ele>-0.223421</ele>
        <time>2022-05-12T09:40:10.000Z</time>
      </trkpt>
      <trkpt lat="43.43661" lon="4.77583">
        <ele>-0.223421</ele>
        <time>2022-05-12T09:40:17.000Z</time>
      </trkpt>
      <trkpt lat="43.43661" lon="4.77583">
        <ele>-0.223421</ele>
        <time>2022-05-12T09:40:22.000Z</time>
      </trkpt>
      <trkpt lat="43.43661" lon="4.77583">
        <ele>-0.223421</ele>
        <time>2022-05-12T09:40:26.000Z</time>
      </trkpt>
      <trkpt lat="43.43661" lon="4.77583">
        <ele>-0.223421</ele>
        <time>2022-05-12T09:40:41.000Z</time>
      </trkpt>
      <trkpt lat="43.43661" lon="4.77583">
        <ele>-0.223421</ele>
        <time>2022-05-12T09:41:00.000Z</time>
      </trkpt>
      <trkpt lat="43.43661" lon="4.77583">
        <ele>-0.223055</ele>
        <time>2022-05-12T09:41:03.000Z</time>
      </trkpt>
      <trkpt lat="43.43658" lon="4.77578">
        <ele>-0.208862</ele>
        <time>2022-05-12T09:41:06.000Z</time>
      </trkpt>
      <trkpt lat="43.43649" lon="4.77563">
        <ele>-0.16859</ele>
        <time>2022-05-12T09:41:12.000Z</time>
      </trkpt>
      <trkpt lat="43.43642" lon="4.77551">
        <ele>-0.13446</ele>
        <time>2022-05-12T09:41:17.000Z</time>
      </trkpt>
      <trkpt lat="43.43637" lon="4.77544">
        <ele>-0.115005</ele>
        <time>2022-05-12T09:41:20.000Z</time>
      </trkpt>
      <trkpt lat="43.43628" lon="4.77534">
        <ele>-0.078697</ele>
        <time>2022-05-12T09:41:26.000Z</time>
      </trkpt>
      <trkpt lat="43.43627" lon="4.77532">
        <ele>-0.073952</ele>
        <time>2022-05-12T09:41:27.000Z</time>
      </trkpt>
      <trkpt lat="43.4362" lon="4.77514">
        <ele>-0.031043</ele>
        <time>2022-05-12T09:41:35.000Z</time>
      </trkpt>
      <trkpt lat="43.4361" lon="4.77496">
        <ele>0.018803</ele>
        <time>2022-05-12T09:41:44.000Z</time>
      </trkpt>
      <trkpt lat="43.43602" lon="4.77484">
        <ele>0.054184</ele>
        <time>2022-05-12T09:41:50.000Z</time>
      </trkpt>
      <trkpt lat="43.43597" lon="4.77478">
        <ele>0.07337</ele>
        <time>2022-05-12T09:41:53.000Z</time>
      </trkpt>
      <trkpt lat="43.43595" lon="4.77474">
        <ele>0.084006</ele>
        <time>2022-05-12T09:41:55.000Z</time>
      </trkpt>
      <trkpt lat="43.43591" lon="4.77467">
        <ele>0.103232</ele>
        <time>2022-05-12T09:41:59.000Z</time>
      </trkpt>
      <trkpt lat="43.43587" lon="4.77462">
        <ele>0.118883</ele>
        <time>2022-05-12T09:42:02.000Z</time>
      </trkpt>
      <trkpt lat="43.4358" lon="4.77451">
        <ele>0.136385</ele>
        <time>2022-05-12T09:42:08.000Z</time>
      </trkpt>
      <trkpt lat="43.43579" lon="4.7745">
        <ele>0.134658</ele>
        <time>2022-05-12T09:42:09.000Z</time>
      </trkpt>
      <trkpt lat="43.43566" lon="4.77429">
        <ele>0.114463</ele>
        <time>2022-05-12T09:42:18.000Z</time>
      </trkpt>
      <trkpt lat="43.43554" lon="4.77411">
        <ele>0.095606</ele>
        <time>2022-05-12T09:42:26.000Z</time>
      </trkpt>
      <trkpt lat="43.43547" lon="4.77398">
        <ele>0.083067</ele>
        <time>2022-05-12T09:42:32.000Z</time>
      </trkpt>
      <trkpt lat="43.43532" lon="4.77375">
        <ele>0.060252</ele>
        <time>2022-05-12T09:42:42.000Z</time>
      </trkpt>
      <trkpt lat="43.43523" lon="4.77362">
        <ele>0.046606</ele>
        <time>2022-05-12T09:42:48.000Z</time>
      </trkpt>
      <trkpt lat="43.43519" lon="4.77355">
        <ele>0.039685</ele>
        <time>2022-05-12T09:42:51.000Z</time>
      </trkpt>
      <trkpt lat="43.43517" lon="4.77353">
        <ele>0.036579</ele>
        <time>2022-05-12T09:42:52.000Z</time>
      </trkpt>
      <trkpt lat="43.43505" lon="4.77335">
        <ele>0.018539</ele>
        <time>2022-05-12T09:43:00.000Z</time>
      </trkpt>
      <trkpt lat="43.43493" lon="4.77315">
        <ele>-0.001463</ele>
        <time>2022-05-12T09:43:09.000Z</time>
      </trkpt>
      <trkpt lat="43.43483" lon="4.77298">
        <ele>-0.017984</ele>
        <time>2022-05-12T09:43:16.000Z</time>
      </trkpt>
      <trkpt lat="43.43471" lon="4.77283">
        <ele>-0.035012</ele>
        <time>2022-05-12T09:43:23.000Z</time>
      </trkpt>
      <trkpt lat="43.43457" lon="4.77262">
        <ele>-0.045357</ele>
        <time>2022-05-12T09:43:32.000Z</time>
      </trkpt>
      <trkpt lat="43.4345" lon="4.77247">
        <ele>-0.041319</ele>
        <time>2022-05-12T09:43:38.000Z</time>
      </trkpt>
      <trkpt lat="43.43446" lon="4.77242">
        <ele>-0.039697</ele>
        <time>2022-05-12T09:43:40.000Z</time>
      </trkpt>
      <trkpt lat="43.43435" lon="4.77228">
        <ele>-0.035143</ele>
        <time>2022-05-12T09:43:46.000Z</time>
      </trkpt>
      <trkpt lat="43.43428" lon="4.77219">
        <ele>-0.032425</ele>
        <time>2022-05-12T09:43:51.000Z</time>
      </trkpt>
      <trkpt lat="43.4342" lon="4.77209">
        <ele>-0.029043</ele>
        <time>2022-05-12T09:43:57.000Z</time>
      </trkpt>
      <trkpt lat="43.43419" lon="4.77207">
        <ele>-0.028471</ele>
        <time>2022-05-12T09:43:58.000Z</time>
      </trkpt>
      <trkpt lat="43.43408" lon="4.7719">
        <ele>-0.023383</ele>
        <time>2022-05-12T09:44:06.000Z</time>
      </trkpt>
      <trkpt lat="43.43407" lon="4.77188">
        <ele>-0.022847</ele>
        <time>2022-05-12T09:44:07.000Z</time>
      </trkpt>
      <trkpt lat="43.43406" lon="4.77186">
        <ele>-0.022275</ele>
        <time>2022-05-12T09:44:08.000Z</time>
      </trkpt>
      <trkpt lat="43.43404" lon="4.77184">
        <ele>-0.021715</ele>
        <time>2022-05-12T09:44:09.000Z</time>
      </trkpt>
      <trkpt lat="43.43396" lon="4.7717">
        <ele>-0.017744</ele>
        <time>2022-05-12T09:44:16.000Z</time>
      </trkpt>
      <trkpt lat="43.43395" lon="4.77168">
        <ele>-0.017131</ele>
        <time>2022-05-12T09:44:17.000Z</time>
      </trkpt>
      <trkpt lat="43.43384" lon="4.77148">
        <ele>-0.011574</ele>
        <time>2022-05-12T09:44:26.000Z</time>
      </trkpt>
      <trkpt lat="43.43382" lon="4.77146">
        <ele>-0.010944</ele>
        <time>2022-05-12T09:44:27.000Z</time>
      </trkpt>
      <trkpt lat="43.43376" lon="4.77134">
        <ele>-0.007675</ele>
        <time>2022-05-12T09:44:34.000Z</time>
      </trkpt>
      <trkpt lat="43.43375" lon="4.77133">
        <ele>-0.007279</ele>
        <time>2022-05-12T09:44:35.000Z</time>
      </trkpt>
      <trkpt lat="43.43365" lon="4.7712">
        <ele>-0.003061</ele>
        <time>2022-05-12T09:44:44.000Z</time>
      </trkpt>
      <trkpt lat="43.43354" lon="4.77106">
        <ele>0.001339</ele>
        <time>2022-05-12T09:44:53.000Z</time>
      </trkpt>
      <trkpt lat="43.43346" lon="4.77094">
        <ele>0.005041</ele>
        <time>2022-05-12T09:45:01.000Z</time>
      </trkpt>
      <trkpt lat="43.43345" lon="4.77092">
        <ele>0.005524</ele>
        <time>2022-05-12T09:45:02.000Z</time>
      </trkpt>
      <trkpt lat="43.43343" lon="4.77088">
        <ele>0.006507</ele>
        <time>2022-05-12T09:45:04.000Z</time>
      </trkpt>
      <trkpt lat="43.43342" lon="4.77087">
        <ele>0.007383</ele>
        <time>2022-05-12T09:45:05.000Z</time>
      </trkpt>
      <trkpt lat="43.43341" lon="4.77085">
        <ele>0.010067</ele>
        <time>2022-05-12T09:45:06.000Z</time>
      </trkpt>
      <trkpt lat="43.43339" lon="4.77081">
        <ele>0.016185</ele>
        <time>2022-05-12T09:45:08.000Z</time>
      </trkpt>
      <trkpt lat="43.43336" lon="4.77077">
        <ele>0.023342</ele>
        <time>2022-05-12T09:45:11.000Z</time>
      </trkpt>
      <trkpt lat="43.43335" lon="4.77074">
        <ele>0.027715</ele>
        <time>2022-05-12T09:45:13.000Z</time>
      </trkpt>
      <trkpt lat="43.43334" lon="4.77072">
        <ele>0.030011</ele>
        <time>2022-05-12T09:45:14.000Z</time>
      </trkpt>
      <trkpt lat="43.43332" lon="4.7707">
        <ele>0.034186</ele>
        <time>2022-05-12T09:45:16.000Z</time>
      </trkpt>
      <trkpt lat="43.43331" lon="4.77068">
        <ele>0.037097</ele>
        <time>2022-05-12T09:45:17.000Z</time>
      </trkpt>
      <trkpt lat="43.4333" lon="4.77066">
        <ele>0.039894</ele>
        <time>2022-05-12T09:45:18.000Z</time>
      </trkpt>
      <trkpt lat="43.43327" lon="4.7706">
        <ele>0.049137</ele>
        <time>2022-05-12T09:45:22.000Z</time>
      </trkpt>
      <trkpt lat="43.43324" lon="4.77055">
        <ele>0.05679</ele>
        <time>2022-05-12T09:45:25.000Z</time>
      </trkpt>
      <trkpt lat="43.4332" lon="4.77045">
        <ele>0.070835</ele>
        <time>2022-05-12T09:45:31.000Z</time>
      </trkpt>
      <trkpt lat="43.4331" lon="4.77032">
        <ele>0.094572</ele>
        <time>2022-05-12T09:45:41.000Z</time>
      </trkpt>
      <trkpt lat="43.43307" lon="4.7703">
        <ele>0.099964</ele>
        <time>2022-05-12T09:45:44.000Z</time>
      </trkpt>
      <trkpt lat="43.43304" lon="4.77027">
        <ele>0.105416</ele>
        <time>2022-05-12T09:45:48.000Z</time>
      </trkpt>
      <trkpt lat="43.43297" lon="4.77017">
        <ele>0.123416</ele>
        <time>2022-05-12T09:45:53.000Z</time>
      </trkpt>
      <trkpt lat="43.43288" lon="4.77002">
        <ele>0.147684</ele>
        <time>2022-05-12T09:46:00.000Z</time>
      </trkpt>
      <trkpt lat="43.43279" lon="4.76986">
        <ele>0.171847</ele>
        <time>2022-05-12T09:46:06.000Z</time>
      </trkpt>
      <trkpt lat="43.43274" lon="4.76977">
        <ele>0.185996</ele>
        <time>2022-05-12T09:46:09.000Z</time>
      </trkpt>
      <trkpt lat="43.4327" lon="4.76971">
        <ele>0.196477</ele>
        <time>2022-05-12T09:46:11.000Z</time>
      </trkpt>
      <trkpt lat="43.43259" lon="4.76954">
        <ele>0.224606</ele>
        <time>2022-05-12T09:46:18.000Z</time>
      </trkpt>
      <trkpt lat="43.43253" lon="4.76944">
        <ele>0.239222</ele>
        <time>2022-05-12T09:46:25.000Z</time>
      </trkpt>
      <trkpt lat="43.4325" lon="4.76936">
        <ele>0.251222</ele>
        <time>2022-05-12T09:46:31.000Z</time>
      </trkpt>
      <trkpt lat="43.43246" lon="4.76929">
        <ele>0.261262</ele>
        <time>2022-05-12T09:46:36.000Z</time>
      </trkpt>
      <trkpt lat="43.43243" lon="4.7692">
        <ele>0.273666</ele>
        <time>2022-05-12T09:46:45.000Z</time>
      </trkpt>
      <trkpt lat="43.43237" lon="4.76913">
        <ele>0.286293</ele>
        <time>2022-05-12T09:46:54.000Z</time>
      </trkpt>
      <trkpt lat="43.43231" lon="4.76905">
        <ele>0.300371</ele>
        <time>2022-05-12T09:47:01.000Z</time>
      </trkpt>
      <trkpt lat="43.43225" lon="4.76893">
        <ele>0.301352</ele>
        <time>2022-05-12T09:47:10.000Z</time>
      </trkpt>
      <trkpt lat="43.43224" lon="4.76891">
        <ele>0.297981</ele>
        <time>2022-05-12T09:47:12.000Z</time>
      </trkpt>
      <trkpt lat="43.43223" lon="4.76888">
        <ele>0.291583</ele>
        <time>2022-05-12T09:47:16.000Z</time>
      </trkpt>
      <trkpt lat="43.43219" lon="4.76884">
        <ele>0.28202</ele>
        <time>2022-05-12T09:47:20.000Z</time>
      </trkpt>
      <trkpt lat="43.43214" lon="4.76879">
        <ele>0.269677</ele>
        <time>2022-05-12T09:47:25.000Z</time>
      </trkpt>
      <trkpt lat="43.43211" lon="4.76869">
        <ele>0.254117</ele>
        <time>2022-05-12T09:47:33.000Z</time>
      </trkpt>
      <trkpt lat="43.4321" lon="4.76866">
        <ele>0.248042</ele>
        <time>2022-05-12T09:47:36.000Z</time>
      </trkpt>
      <trkpt lat="43.43207" lon="4.76859">
        <ele>0.235858</ele>
        <time>2022-05-12T09:47:41.000Z</time>
      </trkpt>
      <trkpt lat="43.43206" lon="4.76857">
        <ele>0.231413</ele>
        <time>2022-05-12T09:47:44.000Z</time>
      </trkpt>
      <trkpt lat="43.43202" lon="4.76848">
        <ele>0.216219</ele>
        <time>2022-05-12T09:47:52.000Z</time>
      </trkpt>
      <trkpt lat="43.43202" lon="4.76847">
        <ele>0.214432</ele>
        <time>2022-05-12T09:47:53.000Z</time>
      </trkpt>
      <trkpt lat="43.43199" lon="4.76842">
        <ele>0.205397</ele>
        <time>2022-05-12T09:47:57.000Z</time>
      </trkpt>
      <trkpt lat="43.43197" lon="4.76838">
        <ele>0.197183</ele>
        <time>2022-05-12T09:48:01.000Z</time>
      </trkpt>
      <trkpt lat="43.4319" lon="4.76824">
        <ele>0.171839</ele>
        <time>2022-05-12T09:48:07.000Z</time>
      </trkpt>
      <trkpt lat="43.43186" lon="4.76817">
        <ele>0.157395</ele>
        <time>2022-05-12T09:48:10.000Z</time>
      </trkpt>
      <trkpt lat="43.4318" lon="4.7681">
        <ele>0.142378</ele>
        <time>2022-05-12T09:48:13.000Z</time>
      </trkpt>
      <trkpt lat="43.43175" lon="4.76802">
        <ele>0.124953</ele>
        <time>2022-05-12T09:48:16.000Z</time>
      </trkpt>
      <trkpt lat="43.43166" lon="4.76787">
        <ele>0.095351</ele>
        <time>2022-05-12T09:48:21.000Z</time>
      </trkpt>
      <trkpt lat="43.43154" lon="4.76766">
        <ele>0.055118</ele>
        <time>2022-05-12T09:48:28.000Z</time>
      </trkpt>
      <trkpt lat="43.43151" lon="4.7676">
        <ele>0.044167</ele>
        <time>2022-05-12T09:48:30.000Z</time>
      </trkpt>
      <trkpt lat="43.43144" lon="4.76747">
        <ele>0.019928</ele>
        <time>2022-05-12T09:48:34.000Z</time>
      </trkpt>
      <trkpt lat="43.43135" lon="4.76732">
        <ele>-0.009937</ele>
        <time>2022-05-12T09:48:39.000Z</time>
      </trkpt>
      <trkpt lat="43.43126" lon="4.76718">
        <ele>-0.038787</ele>
        <time>2022-05-12T09:48:44.000Z</time>
      </trkpt>
      <trkpt lat="43.43118" lon="4.76706">
        <ele>-0.063765</ele>
        <time>2022-05-12T09:48:48.000Z</time>
      </trkpt>
      <trkpt lat="43.43104" lon="4.76684">
        <ele>0.043142</ele>
        <time>2022-05-12T09:48:55.000Z</time>
      </trkpt>
      <trkpt lat="43.43081" lon="4.7665">
        <ele>0.224686</ele>
        <time>2022-05-12T09:49:06.000Z</time>
      </trkpt>
      <trkpt lat="43.43075" lon="4.76643">
        <ele>0.268415</ele>
        <time>2022-05-12T09:49:09.000Z</time>
      </trkpt>
      <trkpt lat="43.43064" lon="4.76627">
        <ele>0.355132</ele>
        <time>2022-05-12T09:49:15.000Z</time>
      </trkpt>
      <trkpt lat="43.43045" lon="4.76605">
        <ele>0.4879</ele>
        <time>2022-05-12T09:49:23.000Z</time>
      </trkpt>
      <trkpt lat="43.43029" lon="4.76593">
        <ele>0.589539</ele>
        <time>2022-05-12T09:49:29.000Z</time>
      </trkpt>
      <trkpt lat="43.43021" lon="4.76588">
        <ele>0.636998</ele>
        <time>2022-05-12T09:49:32.000Z</time>
      </trkpt>
      <trkpt lat="43.43006" lon="4.7658">
        <ele>0.722097</ele>
        <time>2022-05-12T09:49:37.000Z</time>
      </trkpt>
      <trkpt lat="43.42997" lon="4.76576">
        <ele>0.771008</ele>
        <time>2022-05-12T09:49:40.000Z</time>
      </trkpt>
      <trkpt lat="43.42982" lon="4.7656">
        <ele>0.876285</ele>
        <time>2022-05-12T09:49:46.000Z</time>
      </trkpt>
      <trkpt lat="43.42976" lon="4.76551">
        <ele>0.940856</ele>
        <time>2022-05-12T09:49:49.000Z</time>
      </trkpt>
      <trkpt lat="43.42974" lon="4.76548">
        <ele>0.973204</ele>
        <time>2022-05-12T09:49:50.000Z</time>
      </trkpt>
      <trkpt lat="43.42971" lon="4.76542">
        <ele>1.040671</ele>
        <time>2022-05-12T09:49:52.000Z</time>
      </trkpt>
      <trkpt lat="43.42969" lon="4.76539">
        <ele>1.074394</ele>
        <time>2022-05-12T09:49:53.000Z</time>
      </trkpt>
      <trkpt lat="43.4296" lon="4.76523">
        <ele>1.24952</ele>
        <time>2022-05-12T09:49:58.000Z</time>
      </trkpt>
      <trkpt lat="43.42948" lon="4.76506">
        <ele>1.445708</ele>
        <time>2022-05-12T09:50:04.000Z</time>
      </trkpt>
      <trkpt lat="43.42934" lon="4.76482">
        <ele>1.705482</ele>
        <time>2022-05-12T09:50:11.000Z</time>
      </trkpt>
      <trkpt lat="43.42916" lon="4.76457">
        <ele>2.002509</ele>
        <time>2022-05-12T09:50:18.000Z</time>
      </trkpt>
      <trkpt lat="43.42912" lon="4.7645">
        <ele>2.083306</ele>
        <time>2022-05-12T09:50:20.000Z</time>
      </trkpt>
      <trkpt lat="43.42894" lon="4.76422">
        <ele>2.402388</ele>
        <time>2022-05-12T09:50:28.000Z</time>
      </trkpt>
      <trkpt lat="43.42879" lon="4.76399">
        <ele>2.663765</ele>
        <time>2022-05-12T09:50:34.000Z</time>
      </trkpt>
      <trkpt lat="43.42862" lon="4.7637">
        <ele>2.98018</ele>
        <time>2022-05-12T09:50:41.000Z</time>
      </trkpt>
      <trkpt lat="43.42847" lon="4.76343">
        <ele>3.67799</ele>
        <time>2022-05-12T09:50:48.000Z</time>
      </trkpt>
      <trkpt lat="43.42846" lon="4.76336">
        <ele>3.827877</ele>
        <time>2022-05-12T09:50:50.000Z</time>
      </trkpt>
      <trkpt lat="43.42845" lon="4.76331">
        <ele>3.959889</ele>
        <time>2022-05-12T09:50:52.000Z</time>
      </trkpt>
      <trkpt lat="43.42845" lon="4.76324">
        <ele>4.111775</ele>
        <time>2022-05-12T09:50:54.000Z</time>
      </trkpt>
      <trkpt lat="43.42847" lon="4.76311">
        <ele>4.410018</ele>
        <time>2022-05-12T09:50:59.000Z</time>
      </trkpt>
      <trkpt lat="43.4285" lon="4.76303">
        <ele>4.604153</ele>
        <time>2022-05-12T09:51:02.000Z</time>
      </trkpt>
      <trkpt lat="43.42854" lon="4.76296">
        <ele>4.800063</ele>
        <time>2022-05-12T09:51:05.000Z</time>
      </trkpt>
      <trkpt lat="43.42864" lon="4.76285">
        <ele>5.164787</ele>
        <time>2022-05-12T09:51:10.000Z</time>
      </trkpt>
      <trkpt lat="43.42866" lon="4.76283">
        <ele>5.257211</ele>
        <time>2022-05-12T09:51:11.000Z</time>
      </trkpt>
      <trkpt lat="43.42875" lon="4.76273">
        <ele>5.598606</ele>
        <time>2022-05-12T09:51:16.000Z</time>
      </trkpt>
      <trkpt lat="43.42876" lon="4.76268">
        <ele>5.712241</ele>
        <time>2022-05-12T09:51:18.000Z</time>
      </trkpt>
      <trkpt lat="43.42875" lon="4.76266">
        <ele>5.752292</ele>
        <time>2022-05-12T09:51:19.000Z</time>
      </trkpt>
      <trkpt lat="43.42875" lon="4.76266">
        <ele>5.766813</ele>
        <time>2022-05-12T09:51:22.000Z</time>
      </trkpt>
      <trkpt lat="43.42875" lon="4.76266">
        <ele>5.766813</ele>
        <time>2022-05-12T09:51:29.000Z</time>
      </trkpt>
      <trkpt lat="43.42875" lon="4.76266">
        <ele>5.766813</ele>
        <time>2022-05-12T09:51:33.000Z</time>
      </trkpt>
      <trkpt lat="43.42875" lon="4.76266">
        <ele>5.766813</ele>
        <time>2022-05-12T09:51:39.000Z</time>
      </trkpt>
      <trkpt lat="43.42875" lon="4.76266">
        <ele>5.766813</ele>
        <time>2022-05-12T09:51:50.000Z</time>
      </trkpt>
      <trkpt lat="43.42875" lon="4.76266">
        <ele>5.766813</ele>
        <time>2022-05-12T09:52:02.000Z</time>
      </trkpt>
      <trkpt lat="43.42875" lon="4.76267">
        <ele>5.803115</ele>
        <time>2022-05-12T09:52:19.000Z</time>
      </trkpt>
      <trkpt lat="43.42875" lon="4.76267">
        <ele>5.806143</ele>
        <time>2022-05-12T09:52:22.000Z</time>
      </trkpt>
      <trkpt lat="43.4287" lon="4.7627">
        <ele>5.967673</ele>
        <time>2022-05-12T09:52:25.000Z</time>
      </trkpt>
      <trkpt lat="43.4286" lon="4.76279">
        <ele>6.309604</ele>
        <time>2022-05-12T09:52:30.000Z</time>
      </trkpt>
      <trkpt lat="43.42856" lon="4.76283">
        <ele>6.464268</ele>
        <time>2022-05-12T09:52:32.000Z</time>
      </trkpt>
      <trkpt lat="43.4285" lon="4.76288">
        <ele>6.675066</ele>
        <time>2022-05-12T09:52:35.000Z</time>
      </trkpt>
      <trkpt lat="43.42843" lon="4.76295">
        <ele>6.938377</ele>
        <time>2022-05-12T09:52:39.000Z</time>
      </trkpt>
      <trkpt lat="43.42842" lon="4.76297">
        <ele>6.998637</ele>
        <time>2022-05-12T09:52:40.000Z</time>
      </trkpt>
      <trkpt lat="43.42827" lon="4.76313">
        <ele>7.572792</ele>
        <time>2022-05-12T09:52:48.000Z</time>
      </trkpt>
      <trkpt lat="43.42817" lon="4.76322">
        <ele>7.925935</ele>
        <time>2022-05-12T09:52:53.000Z</time>
      </trkpt>
      <trkpt lat="43.42815" lon="4.76324">
        <ele>7.995985</ele>
        <time>2022-05-12T09:52:54.000Z</time>
      </trkpt>
      <trkpt lat="43.42814" lon="4.76326">
        <ele>8.062316</ele>
        <time>2022-05-12T09:52:55.000Z</time>
      </trkpt>
      <trkpt lat="43.42806" lon="4.76332">
        <ele>8.320932</ele>
        <time>2022-05-12T09:52:59.000Z</time>
      </trkpt>
      <trkpt lat="43.42803" lon="4.76334">
        <ele>8.427134</ele>
        <time>2022-05-12T09:53:01.000Z</time>
      </trkpt>
      <trkpt lat="43.428" lon="4.76337">
        <ele>8.449554</ele>
        <time>2022-05-12T09:53:03.000Z</time>
      </trkpt>
      <trkpt lat="43.42789" lon="4.76348">
        <ele>8.390367</ele>
        <time>2022-05-12T09:53:11.000Z</time>
      </trkpt>
      <trkpt lat="43.42784" lon="4.76353">
        <ele>8.35997</ele>
        <time>2022-05-12T09:53:15.000Z</time>
      </trkpt>
      <trkpt lat="43.42783" lon="4.76354">
        <ele>8.355296</ele>
        <time>2022-05-12T09:53:16.000Z</time>
      </trkpt>
      <trkpt lat="43.42777" lon="4.76359">
        <ele>8.325105</ele>
        <time>2022-05-12T09:53:20.000Z</time>
      </trkpt>
      <trkpt lat="43.42767" lon="4.76369">
        <ele>8.273704</ele>
        <time>2022-05-12T09:53:25.000Z</time>
      </trkpt>
      <trkpt lat="43.42764" lon="4.76372">
        <ele>8.255333</ele>
        <time>2022-05-12T09:53:27.000Z</time>
      </trkpt>
      <trkpt lat="43.42761" lon="4.76377">
        <ele>8.233687</ele>
        <time>2022-05-12T09:53:29.000Z</time>
      </trkpt>
      <trkpt lat="43.4276" lon="4.76379">
        <ele>8.225219</ele>
        <time>2022-05-12T09:53:30.000Z</time>
      </trkpt>
      <trkpt lat="43.42754" lon="4.76389">
        <ele>8.186739</ele>
        <time>2022-05-12T09:53:33.000Z</time>
      </trkpt>
      <trkpt lat="43.42752" lon="4.76393">
        <ele>8.172892</ele>
        <time>2022-05-12T09:53:34.000Z</time>
      </trkpt>
      <trkpt lat="43.42746" lon="4.76403">
        <ele>8.130326</ele>
        <time>2022-05-12T09:53:37.000Z</time>
      </trkpt>
      <trkpt lat="43.4274" lon="4.76422">
        <ele>8.064317</ele>
        <time>2022-05-12T09:53:42.000Z</time>
      </trkpt>
      <trkpt lat="43.42738" lon="4.76431">
        <ele>8.035785</ele>
        <time>2022-05-12T09:53:46.000Z</time>
      </trkpt>
      <trkpt lat="43.42737" lon="4.76431">
        <ele>8.033428</ele>
        <time>2022-05-12T09:53:48.000Z</time>
      </trkpt>
      <trkpt lat="43.42737" lon="4.76431">
        <ele>8.033428</ele>
        <time>2022-05-12T09:53:51.000Z</time>
      </trkpt>
      <trkpt lat="43.42736" lon="4.76435">
        <ele>8.020169</ele>
        <time>2022-05-12T09:54:01.000Z</time>
      </trkpt>
      <trkpt lat="43.42735" lon="4.76436">
        <ele>8.013879</ele>
        <time>2022-05-12T09:54:02.000Z</time>
      </trkpt>
      <trkpt lat="43.42727" lon="4.76435">
        <ele>7.977985</ele>
        <time>2022-05-12T09:54:06.000Z</time>
      </trkpt>
      <trkpt lat="43.42719" lon="4.76433">
        <ele>7.944951</ele>
        <time>2022-05-12T09:54:10.000Z</time>
      </trkpt>
      <trkpt lat="43.42714" lon="4.76434">
        <ele>7.923541</ele>
        <time>2022-05-12T09:54:13.000Z</time>
      </trkpt>
      <trkpt lat="43.4271" lon="4.76437">
        <ele>7.902484</ele>
        <time>2022-05-12T09:54:16.000Z</time>
      </trkpt>
      <trkpt lat="43.42704" lon="4.76441">
        <ele>7.871218</ele>
        <time>2022-05-12T09:54:20.000Z</time>
      </trkpt>
      <trkpt lat="43.42691" lon="4.76453">
        <ele>7.804727</ele>
        <time>2022-05-12T09:54:26.000Z</time>
      </trkpt>
      <trkpt lat="43.42683" lon="4.76461">
        <ele>7.763387</ele>
        <time>2022-05-12T09:54:29.000Z</time>
      </trkpt>
      <trkpt lat="43.42676" lon="4.76469">
        <ele>7.720757</ele>
        <time>2022-05-12T09:54:32.000Z</time>
      </trkpt>
      <trkpt lat="43.42669" lon="4.76476">
        <ele>7.686945</ele>
        <time>2022-05-12T09:54:35.000Z</time>
      </trkpt>
      <trkpt lat="43.42665" lon="4.76479">
        <ele>7.643891</ele>
        <time>2022-05-12T09:54:38.000Z</time>
      </trkpt>
      <trkpt lat="43.42653" lon="4.7649">
        <ele>7.446427</ele>
        <time>2022-05-12T09:54:47.000Z</time>
      </trkpt>
      <trkpt lat="43.42652" lon="4.76491">
        <ele>7.44251</ele>
        <time>2022-05-12T09:54:49.000Z</time>
      </trkpt>
      <trkpt lat="43.42652" lon="4.76491">
        <ele>7.44251</ele>
        <time>2022-05-12T09:54:53.000Z</time>
      </trkpt>
      <trkpt lat="43.42652" lon="4.76491">
        <ele>7.44251</ele>
        <time>2022-05-12T09:54:55.000Z</time>
      </trkpt>
      <trkpt lat="43.42652" lon="4.76491">
        <ele>7.44251</ele>
        <time>2022-05-12T09:54:56.000Z</time>
      </trkpt>
      <trkpt lat="43.42652" lon="4.76491">
        <ele>7.44251</ele>
        <time>2022-05-12T09:54:58.000Z</time>
      </trkpt>
      <trkpt lat="43.42652" lon="4.76491">
        <ele>7.44251</ele>
        <time>2022-05-12T09:55:00.000Z</time>
      </trkpt>
      <trkpt lat="43.42652" lon="4.76491">
        <ele>7.44251</ele>
        <time>2022-05-12T09:55:01.000Z</time>
      </trkpt>
      <trkpt lat="43.42652" lon="4.76491">
        <ele>7.44251</ele>
        <time>2022-05-12T09:55:03.000Z</time>
      </trkpt>
      <trkpt lat="43.42652" lon="4.76491">
        <ele>7.44251</ele>
        <time>2022-05-12T09:55:04.000Z</time>
      </trkpt>
      <trkpt lat="43.42652" lon="4.76491">
        <ele>7.44251</ele>
        <time>2022-05-12T09:55:13.000Z</time>
      </trkpt>
      <trkpt lat="43.42653" lon="4.7649">
        <ele>7.440174</ele>
        <time>2022-05-12T09:55:38.000Z</time>
      </trkpt>
      <trkpt lat="43.42657" lon="4.76486">
        <ele>7.370131</ele>
        <time>2022-05-12T09:55:42.000Z</time>
      </trkpt>
      <trkpt lat="43.42666" lon="4.76476">
        <ele>7.215705</ele>
        <time>2022-05-12T09:55:50.000Z</time>
      </trkpt>
      <trkpt lat="43.42684" lon="4.76458">
        <ele>6.915532</ele>
        <time>2022-05-12T09:55:58.000Z</time>
      </trkpt>
      <trkpt lat="43.42705" lon="4.7644">
        <ele>6.591378</ele>
        <time>2022-05-12T09:56:07.000Z</time>
      </trkpt>
      <trkpt lat="43.42712" lon="4.76436">
        <ele>6.497139</ele>
        <time>2022-05-12T09:56:10.000Z</time>
      </trkpt>
      <trkpt lat="43.42719" lon="4.76434">
        <ele>6.400963</ele>
        <time>2022-05-12T09:56:13.000Z</time>
      </trkpt>
      <trkpt lat="43.42721" lon="4.76434">
        <ele>6.373002</ele>
        <time>2022-05-12T09:56:14.000Z</time>
      </trkpt>
      <trkpt lat="43.4273" lon="4.76435">
        <ele>6.251734</ele>
        <time>2022-05-12T09:56:19.000Z</time>
      </trkpt>
      <trkpt lat="43.42732" lon="4.76436">
        <ele>6.224404</ele>
        <time>2022-05-12T09:56:20.000Z</time>
      </trkpt>
      <trkpt lat="43.42744" lon="4.76443">
        <ele>6.0441</ele>
        <time>2022-05-12T09:56:25.000Z</time>
      </trkpt>
      <trkpt lat="43.4276" lon="4.76464">
        <ele>5.757056</ele>
        <time>2022-05-12T09:56:31.000Z</time>
      </trkpt>
      <trkpt lat="43.42764" lon="4.76475">
        <ele>5.638734</ele>
        <time>2022-05-12T09:56:33.000Z</time>
      </trkpt>
      <trkpt lat="43.42767" lon="4.76488">
        <ele>5.510533</ele>
        <time>2022-05-12T09:56:35.000Z</time>
      </trkpt>
      <trkpt lat="43.42767" lon="4.76494">
        <ele>5.447791</ele>
        <time>2022-05-12T09:56:36.000Z</time>
      </trkpt>
      <trkpt lat="43.42767" lon="4.76508">
        <ele>5.317918</ele>
        <time>2022-05-12T09:56:38.000Z</time>
      </trkpt>
      <trkpt lat="43.42764" lon="4.76522">
        <ele>5.042084</ele>
        <time>2022-05-12T09:56:40.000Z</time>
      </trkpt>
      <trkpt lat="43.42762" lon="4.76528">
        <ele>4.883244</ele>
        <time>2022-05-12T09:56:41.000Z</time>
      </trkpt>
      <trkpt lat="43.42759" lon="4.76535">
        <ele>4.721486</ele>
        <time>2022-05-12T09:56:42.000Z</time>
      </trkpt>
      <trkpt lat="43.42755" lon="4.76541">
        <ele>4.544576</ele>
        <time>2022-05-12T09:56:43.000Z</time>
      </trkpt>
      <trkpt lat="43.42751" lon="4.76547">
        <ele>4.36553</ele>
        <time>2022-05-12T09:56:44.000Z</time>
      </trkpt>
      <trkpt lat="43.42746" lon="4.76551">
        <ele>4.191578</ele>
        <time>2022-05-12T09:56:45.000Z</time>
      </trkpt>
      <trkpt lat="43.42741" lon="4.76555">
        <ele>4.022736</ele>
        <time>2022-05-12T09:56:46.000Z</time>
      </trkpt>
      <trkpt lat="43.42736" lon="4.76558">
        <ele>3.856914</ele>
        <time>2022-05-12T09:56:47.000Z</time>
      </trkpt>
      <trkpt lat="43.42725" lon="4.76562">
        <ele>3.519579</ele>
        <time>2022-05-12T09:56:49.000Z</time>
      </trkpt>
      <trkpt lat="43.42714" lon="4.76561">
        <ele>3.177076</ele>
        <time>2022-05-12T09:56:51.000Z</time>
      </trkpt>
      <trkpt lat="43.42702" lon="4.76558">
        <ele>2.830121</ele>
        <time>2022-05-12T09:56:53.000Z</time>
      </trkpt>
      <trkpt lat="43.42692" lon="4.76551">
        <ele>2.490352</ele>
        <time>2022-05-12T09:56:55.000Z</time>
      </trkpt>
      <trkpt lat="43.42682" lon="4.7654">
        <ele>2.12528</ele>
        <time>2022-05-12T09:56:57.000Z</time>
      </trkpt>
      <trkpt lat="43.42666" lon="4.76515">
        <ele>1.40112</ele>
        <time>2022-05-12T09:57:01.000Z</time>
      </trkpt>
      <trkpt lat="43.42659" lon="4.76502">
        <ele>1.046294</ele>
        <time>2022-05-12T09:57:03.000Z</time>
      </trkpt>
      <trkpt lat="43.42652" lon="4.7649">
        <ele>0.722727</ele>
        <time>2022-05-12T09:57:05.000Z</time>
      </trkpt>
      <trkpt lat="43.42648" lon="4.76485">
        <ele>0.556922</ele>
        <time>2022-05-12T09:57:06.000Z</time>
      </trkpt>
      <trkpt lat="43.4264" lon="4.76474">
        <ele>0.22367</ele>
        <time>2022-05-12T09:57:08.000Z</time>
      </trkpt>
      <trkpt lat="43.42638" lon="4.76466">
        <ele>0.032706</ele>
        <time>2022-05-12T09:57:09.000Z</time>
      </trkpt>
      <trkpt lat="43.42627" lon="4.76437">
        <ele>-0.203577</ele>
        <time>2022-05-12T09:57:13.000Z</time>
      </trkpt>
      <trkpt lat="43.42615" lon="4.76411">
        <ele>-0.362872</ele>
        <time>2022-05-12T09:57:17.000Z</time>
      </trkpt>
      <trkpt lat="43.42609" lon="4.76397">
        <ele>-0.443165</ele>
        <time>2022-05-12T09:57:19.000Z</time>
      </trkpt>
      <trkpt lat="43.42603" lon="4.76384">
        <ele>-0.521198</ele>
        <time>2022-05-12T09:57:21.000Z</time>
      </trkpt>
      <trkpt lat="43.42594" lon="4.76366">
        <ele>-0.636887</ele>
        <time>2022-05-12T09:57:24.000Z</time>
      </trkpt>
      <trkpt lat="43.42575" lon="4.76329">
        <ele>-0.863266</ele>
        <time>2022-05-12T09:57:30.000Z</time>
      </trkpt>
      <trkpt lat="43.42547" lon="4.76273">
        <ele>-1.21279</ele>
        <time>2022-05-12T09:57:39.000Z</time>
      </trkpt>
      <trkpt lat="43.42541" lon="4.7626">
        <ele>-1.291276</ele>
        <time>2022-05-12T09:57:41.000Z</time>
      </trkpt>
      <trkpt lat="43.42532" lon="4.76241">
        <ele>-1.297895</ele>
        <time>2022-05-12T09:57:44.000Z</time>
      </trkpt>
      <trkpt lat="43.4252" lon="4.76216">
        <ele>-1.255723</ele>
        <time>2022-05-12T09:57:48.000Z</time>
      </trkpt>
      <trkpt lat="43.42518" lon="4.7621">
        <ele>-1.245698</ele>
        <time>2022-05-12T09:57:49.000Z</time>
      </trkpt>
      <trkpt lat="43.42512" lon="4.76198">
        <ele>-1.22568</ele>
        <time>2022-05-12T09:57:51.000Z</time>
      </trkpt>
      <trkpt lat="43.42506" lon="4.76186">
        <ele>-1.205227</ele>
        <time>2022-05-12T09:57:53.000Z</time>
      </trkpt>
      <trkpt lat="43.42486" lon="4.76142">
        <ele>-1.132427</ele>
        <time>2022-05-12T09:58:00.000Z</time>
      </trkpt>
      <trkpt lat="43.42456" lon="4.7608">
        <ele>-1.028332</ele>
        <time>2022-05-12T09:58:10.000Z</time>
      </trkpt>
      <trkpt lat="43.42424" lon="4.76017">
        <ele>-0.912057</ele>
        <time>2022-05-12T09:58:21.000Z</time>
      </trkpt>
      <trkpt lat="43.42418" lon="4.76005">
        <ele>-0.889189</ele>
        <time>2022-05-12T09:58:23.000Z</time>
      </trkpt>
      <trkpt lat="43.42395" lon="4.75958">
        <ele>-0.797264</ele>
        <time>2022-05-12T09:58:31.000Z</time>
      </trkpt>
      <trkpt lat="43.42383" lon="4.75934">
        <ele>-0.751017</ele>
        <time>2022-05-12T09:58:35.000Z</time>
      </trkpt>
      <trkpt lat="43.42365" lon="4.759">
        <ele>-0.6843</ele>
        <time>2022-05-12T09:58:41.000Z</time>
      </trkpt>
      <trkpt lat="43.42357" lon="4.75883">
        <ele>-0.651065</ele>
        <time>2022-05-12T09:58:44.000Z</time>
      </trkpt>
      <trkpt lat="43.42354" lon="4.75878">
        <ele>-0.640031</ele>
        <time>2022-05-12T09:58:45.000Z</time>
      </trkpt>
      <trkpt lat="43.42325" lon="4.75821">
        <ele>-0.611549</ele>
        <time>2022-05-12T09:58:55.000Z</time>
      </trkpt>
      <trkpt lat="43.42308" lon="4.7579">
        <ele>-0.65951</ele>
        <time>2022-05-12T09:59:01.000Z</time>
      </trkpt>
      <trkpt lat="43.42306" lon="4.75784">
        <ele>-0.667633</ele>
        <time>2022-05-12T09:59:02.000Z</time>
      </trkpt>
      <trkpt lat="43.42303" lon="4.75779">
        <ele>-0.675254</ele>
        <time>2022-05-12T09:59:03.000Z</time>
      </trkpt>
      <trkpt lat="43.42278" lon="4.75725">
        <ele>-0.7533</ele>
        <time>2022-05-12T09:59:13.000Z</time>
      </trkpt>
      <trkpt lat="43.42258" lon="4.7568">
        <ele>-0.818042</ele>
        <time>2022-05-12T09:59:21.000Z</time>
      </trkpt>
      <trkpt lat="43.42246" lon="4.75651">
        <ele>-0.858372</ele>
        <time>2022-05-12T09:59:26.000Z</time>
      </trkpt>
      <trkpt lat="43.42234" lon="4.75623">
        <ele>-0.834594</ele>
        <time>2022-05-12T09:59:31.000Z</time>
      </trkpt>
      <trkpt lat="43.42228" lon="4.75606">
        <ele>-0.780337</ele>
        <time>2022-05-12T09:59:34.000Z</time>
      </trkpt>
      <trkpt lat="43.42208" lon="4.75552">
        <ele>-0.612096</ele>
        <time>2022-05-12T09:59:43.000Z</time>
      </trkpt>
      <trkpt lat="43.42197" lon="4.75523">
        <ele>-0.51858</ele>
        <time>2022-05-12T09:59:48.000Z</time>
      </trkpt>
      <trkpt lat="43.42186" lon="4.75491">
        <ele>-0.419202</ele>
        <time>2022-05-12T09:59:54.000Z</time>
      </trkpt>
      <trkpt lat="43.42171" lon="4.75444">
        <ele>-0.276898</ele>
        <time>2022-05-12T10:00:02.000Z</time>
      </trkpt>
      <trkpt lat="43.42166" lon="4.75426">
        <ele>-0.222376</ele>
        <time>2022-05-12T10:00:05.000Z</time>
      </trkpt>
      <trkpt lat="43.42163" lon="4.75413">
        <ele>-0.184747</ele>
        <time>2022-05-12T10:00:07.000Z</time>
      </trkpt>
      <trkpt lat="43.42149" lon="4.75362">
        <ele>-0.120834</ele>
        <time>2022-05-12T10:00:15.000Z</time>
      </trkpt>
      <trkpt lat="43.42133" lon="4.75287">
        <ele>-0.028742</ele>
        <time>2022-05-12T10:00:27.000Z</time>
      </trkpt>
      <trkpt lat="43.42122" lon="4.75211">
        <ele>0.062076</ele>
        <time>2022-05-12T10:00:39.000Z</time>
      </trkpt>
      <trkpt lat="43.42121" lon="4.75206">
        <ele>0.068597</ele>
        <time>2022-05-12T10:00:40.000Z</time>
      </trkpt>
      <trkpt lat="43.42117" lon="4.7518">
        <ele>0.100143</ele>
        <time>2022-05-12T10:00:45.000Z</time>
      </trkpt>
      <trkpt lat="43.42116" lon="4.75169">
        <ele>0.139182</ele>
        <time>2022-05-12T10:00:47.000Z</time>
      </trkpt>
      <trkpt lat="43.42112" lon="4.75131">
        <ele>0.364633</ele>
        <time>2022-05-12T10:00:54.000Z</time>
      </trkpt>
      <trkpt lat="43.4211" lon="4.75114">
        <ele>0.46481</ele>
        <time>2022-05-12T10:00:57.000Z</time>
      </trkpt>
      <trkpt lat="43.42106" lon="4.75053">
        <ele>0.823508</ele>
        <time>2022-05-12T10:01:07.000Z</time>
      </trkpt>
      <trkpt lat="43.42105" lon="4.7503">
        <ele>0.961672</ele>
        <time>2022-05-12T10:01:11.000Z</time>
      </trkpt>
      <trkpt lat="43.42101" lon="4.74985">
        <ele>1.227091</ele>
        <time>2022-05-12T10:01:19.000Z</time>
      </trkpt>
      <trkpt lat="43.42097" lon="4.74951">
        <ele>1.431046</ele>
        <time>2022-05-12T10:01:26.000Z</time>
      </trkpt>
      <trkpt lat="43.42096" lon="4.74946">
        <ele>1.456758</ele>
        <time>2022-05-12T10:01:27.000Z</time>
      </trkpt>
      <trkpt lat="43.42096" lon="4.74943">
        <ele>1.479989</ele>
        <time>2022-05-12T10:01:28.000Z</time>
      </trkpt>
      <trkpt lat="43.42088" lon="4.74918">
        <ele>1.555289</ele>
        <time>2022-05-12T10:01:34.000Z</time>
      </trkpt>
      <trkpt lat="43.42086" lon="4.74909">
        <ele>1.551637</ele>
        <time>2022-05-12T10:01:36.000Z</time>
      </trkpt>
      <trkpt lat="43.42074" lon="4.74888">
        <ele>1.540998</ele>
        <time>2022-05-12T10:01:42.000Z</time>
      </trkpt>
      <trkpt lat="43.42067" lon="4.7487">
        <ele>1.532999</ele>
        <time>2022-05-12T10:01:47.000Z</time>
      </trkpt>
      <trkpt lat="43.42055" lon="4.74846">
        <ele>1.521429</ele>
        <time>2022-05-12T10:01:54.000Z</time>
      </trkpt>
      <trkpt lat="43.42041" lon="4.74833">
        <ele>1.512542</ele>
        <time>2022-05-12T10:01:59.000Z</time>
      </trkpt>
      <trkpt lat="43.42038" lon="4.74836">
        <ele>1.510667</ele>
        <time>2022-05-12T10:02:01.000Z</time>
      </trkpt>
      <trkpt lat="43.42037" lon="4.74838">
        <ele>1.509663</ele>
        <time>2022-05-12T10:02:02.000Z</time>
      </trkpt>
      <trkpt lat="43.42036" lon="4.74845">
        <ele>1.507034</ele>
        <time>2022-05-12T10:02:08.000Z</time>
      </trkpt>
      <trkpt lat="43.42034" lon="4.74845">
        <ele>1.506092</ele>
        <time>2022-05-12T10:02:10.000Z</time>
      </trkpt>
      <trkpt lat="43.42027" lon="4.74844">
        <ele>1.502151</ele>
        <time>2022-05-12T10:02:14.000Z</time>
      </trkpt>
      <trkpt lat="43.42018" lon="4.74842">
        <ele>1.497197</ele>
        <time>2022-05-12T10:02:18.000Z</time>
      </trkpt>
      <trkpt lat="43.42008" lon="4.74839">
        <ele>1.491772</ele>
        <time>2022-05-12T10:02:22.000Z</time>
      </trkpt>
      <trkpt lat="43.42" lon="4.74838">
        <ele>1.487533</ele>
        <time>2022-05-12T10:02:25.000Z</time>
      </trkpt>
      <trkpt lat="43.41993" lon="4.74836">
        <ele>1.483368</ele>
        <time>2022-05-12T10:02:30.000Z</time>
      </trkpt>
      <trkpt lat="43.41992" lon="4.74836">
        <ele>1.483205</ele>
        <time>2022-05-12T10:02:37.000Z</time>
      </trkpt>
      <trkpt lat="43.41992" lon="4.74836">
        <ele>1.483205</ele>
        <time>2022-05-12T10:02:39.000Z</time>
      </trkpt>
      <trkpt lat="43.41992" lon="4.74836">
        <ele>1.483205</ele>
        <time>2022-05-12T10:02:43.000Z</time>
      </trkpt>
      <trkpt lat="43.41991" lon="4.74836">
        <ele>1.482716</ele>
        <time>2022-05-12T10:02:48.000Z</time>
      </trkpt>
      <trkpt lat="43.41991" lon="4.74836">
        <ele>1.482716</ele>
        <time>2022-05-12T10:02:53.000Z</time>
      </trkpt>
      <trkpt lat="43.41991" lon="4.74836">
        <ele>1.482716</ele>
        <time>2022-05-12T10:02:54.000Z</time>
      </trkpt>
      <trkpt lat="43.41991" lon="4.74835">
        <ele>1.482556</ele>
        <time>2022-05-12T10:02:59.000Z</time>
      </trkpt>
      <trkpt lat="43.41991" lon="4.74835">
        <ele>1.482388</ele>
        <time>2022-05-12T10:03:01.000Z</time>
      </trkpt>
      <trkpt lat="43.41987" lon="4.74835">
        <ele>1.480436</ele>
        <time>2022-05-12T10:03:08.000Z</time>
      </trkpt>
      <trkpt lat="43.41979" lon="4.74831">
        <ele>1.475601</ele>
        <time>2022-05-12T10:03:14.000Z</time>
      </trkpt>
      <trkpt lat="43.41976" lon="4.7483">
        <ele>1.47396</ele>
        <time>2022-05-12T10:03:17.000Z</time>
      </trkpt>
      <trkpt lat="43.41976" lon="4.7483">
        <ele>1.47396</ele>
        <time>2022-05-12T10:03:20.000Z</time>
      </trkpt>
      <trkpt lat="43.41976" lon="4.7483">
        <ele>1.47396</ele>
        <time>2022-05-12T10:03:23.000Z</time>
      </trkpt>
      <trkpt lat="43.41976" lon="4.7483">
        <ele>1.47396</ele>
        <time>2022-05-12T10:03:30.000Z</time>
      </trkpt>
      <trkpt lat="43.41976" lon="4.7483">
        <ele>1.47396</ele>
        <time>2022-05-12T10:03:32.000Z</time>
      </trkpt>
      <trkpt lat="43.41976" lon="4.7483">
        <ele>1.473713</ele>
        <time>2022-05-12T10:03:36.000Z</time>
      </trkpt>
      <trkpt lat="43.41979" lon="4.74831">
        <ele>1.472417</ele>
        <time>2022-05-12T10:03:38.000Z</time>
      </trkpt>
      <trkpt lat="43.41984" lon="4.74834">
        <ele>1.469225</ele>
        <time>2022-05-12T10:03:42.000Z</time>
      </trkpt>
      <trkpt lat="43.41987" lon="4.74836">
        <ele>1.467334</ele>
        <time>2022-05-12T10:03:46.000Z</time>
      </trkpt>
      <trkpt lat="43.41989" lon="4.74836">
        <ele>1.466517</ele>
        <time>2022-05-12T10:03:48.000Z</time>
      </trkpt>
      <trkpt lat="43.41989" lon="4.74835">
        <ele>1.466084</ele>
        <time>2022-05-12T10:03:56.000Z</time>
      </trkpt>
      <trkpt lat="43.41988" lon="4.74833">
        <ele>1.465478</ele>
        <time>2022-05-12T10:04:02.000Z</time>
      </trkpt>
      <trkpt lat="43.41987" lon="4.74838">
        <ele>1.463515</ele>
        <time>2022-05-12T10:04:12.000Z</time>
      </trkpt>
      <trkpt lat="43.41986" lon="4.74839">
        <ele>1.461609</ele>
        <time>2022-05-12T10:04:13.000Z</time>
      </trkpt>
      <trkpt lat="43.41976" lon="4.74846">
        <ele>1.421486</ele>
        <time>2022-05-12T10:04:16.000Z</time>
      </trkpt>
      <trkpt lat="43.41968" lon="4.74852">
        <ele>1.387958</ele>
        <time>2022-05-12T10:04:18.000Z</time>
      </trkpt>
      <trkpt lat="43.41961" lon="4.74858">
        <ele>1.355695</ele>
        <time>2022-05-12T10:04:20.000Z</time>
      </trkpt>
      <trkpt lat="43.41953" lon="4.74864">
        <ele>1.324029</ele>
        <time>2022-05-12T10:04:22.000Z</time>
      </trkpt>
      <trkpt lat="43.41926" lon="4.74889">
        <ele>1.203223</ele>
        <time>2022-05-12T10:04:30.000Z</time>
      </trkpt>
      <trkpt lat="43.41894" lon="4.74919">
        <ele>1.060563</ele>
        <time>2022-05-12T10:04:40.000Z</time>
      </trkpt>
      <trkpt lat="43.41873" lon="4.74937">
        <ele>0.966716</ele>
        <time>2022-05-12T10:04:46.000Z</time>
      </trkpt>
      <trkpt lat="43.41862" lon="4.74947">
        <ele>0.918848</ele>
        <time>2022-05-12T10:04:49.000Z</time>
      </trkpt>
      <trkpt lat="43.41844" lon="4.74962">
        <ele>0.840312</ele>
        <time>2022-05-12T10:04:54.000Z</time>
      </trkpt>
      <trkpt lat="43.41834" lon="4.74972">
        <ele>0.795707</ele>
        <time>2022-05-12T10:04:57.000Z</time>
      </trkpt>
      <trkpt lat="43.41823" lon="4.74981">
        <ele>0.789677</ele>
        <time>2022-05-12T10:05:00.000Z</time>
      </trkpt>
      <trkpt lat="43.41813" lon="4.7499">
        <ele>0.783975</ele>
        <time>2022-05-12T10:05:03.000Z</time>
      </trkpt>
      <trkpt lat="43.41786" lon="4.75017">
        <ele>0.767495</ele>
        <time>2022-05-12T10:05:12.000Z</time>
      </trkpt>
      <trkpt lat="43.41774" lon="4.75027">
        <ele>0.760907</ele>
        <time>2022-05-12T10:05:16.000Z</time>
      </trkpt>
      <trkpt lat="43.41761" lon="4.75038">
        <ele>0.753529</ele>
        <time>2022-05-12T10:05:20.000Z</time>
      </trkpt>
      <trkpt lat="43.41746" lon="4.75053">
        <ele>0.744493</ele>
        <time>2022-05-12T10:05:25.000Z</time>
      </trkpt>
      <trkpt lat="43.4173" lon="4.75068">
        <ele>0.73504</ele>
        <time>2022-05-12T10:05:30.000Z</time>
      </trkpt>
      <trkpt lat="43.417" lon="4.75096">
        <ele>0.717586</ele>
        <time>2022-05-12T10:05:40.000Z</time>
      </trkpt>
      <trkpt lat="43.41688" lon="4.75115">
        <ele>0.709087</ele>
        <time>2022-05-12T10:05:45.000Z</time>
      </trkpt>
      <trkpt lat="43.41685" lon="4.75141">
        <ele>0.615582</ele>
        <time>2022-05-12T10:05:51.000Z</time>
      </trkpt>
      <trkpt lat="43.41678" lon="4.75149">
        <ele>0.569276</ele>
        <time>2022-05-12T10:05:55.000Z</time>
      </trkpt>
      <trkpt lat="43.41669" lon="4.75148">
        <ele>0.525264</ele>
        <time>2022-05-12T10:05:58.000Z</time>
      </trkpt>
      <trkpt lat="43.41656" lon="4.75148">
        <ele>0.461664</ele>
        <time>2022-05-12T10:06:02.000Z</time>
      </trkpt>
      <trkpt lat="43.41634" lon="4.75156">
        <ele>0.353232</ele>
        <time>2022-05-12T10:06:08.000Z</time>
      </trkpt>
      <trkpt lat="43.41612" lon="4.75177">
        <ele>0.22621</ele>
        <time>2022-05-12T10:06:15.000Z</time>
      </trkpt>
      <trkpt lat="43.416" lon="4.75191">
        <ele>0.150337</ele>
        <time>2022-05-12T10:06:20.000Z</time>
      </trkpt>
      <trkpt lat="43.41591" lon="4.75198">
        <ele>0.099339</ele>
        <time>2022-05-12T10:06:23.000Z</time>
      </trkpt>
      <trkpt lat="43.41578" lon="4.7521">
        <ele>0.021938</ele>
        <time>2022-05-12T10:06:27.000Z</time>
      </trkpt>
      <trkpt lat="43.41571" lon="4.75216">
        <ele>-0.017153</ele>
        <time>2022-05-12T10:06:29.000Z</time>
      </trkpt>
      <trkpt lat="43.41558" lon="4.7523">
        <ele>-0.095783</ele>
        <time>2022-05-12T10:06:33.000Z</time>
      </trkpt>
      <trkpt lat="43.41535" lon="4.75251">
        <ele>-0.101989</ele>
        <time>2022-05-12T10:06:40.000Z</time>
      </trkpt>
      <trkpt lat="43.41502" lon="4.7528">
        <ele>0.052261</ele>
        <time>2022-05-12T10:06:50.000Z</time>
      </trkpt>
      <trkpt lat="43.41475" lon="4.75305">
        <ele>0.178826</ele>
        <time>2022-05-12T10:06:59.000Z</time>
      </trkpt>
      <trkpt lat="43.41471" lon="4.75307">
        <ele>0.193257</ele>
        <time>2022-05-12T10:07:00.000Z</time>
      </trkpt>
      <trkpt lat="43.41442" lon="4.75333">
        <ele>0.327682</ele>
        <time>2022-05-12T10:07:09.000Z</time>
      </trkpt>
      <trkpt lat="43.41439" lon="4.75337">
        <ele>0.343381</ele>
        <time>2022-05-12T10:07:10.000Z</time>
      </trkpt>
      <trkpt lat="43.4141" lon="4.75362">
        <ele>0.478364</ele>
        <time>2022-05-12T10:07:19.000Z</time>
      </trkpt>
      <trkpt lat="43.41389" lon="4.75383">
        <ele>0.535578</ele>
        <time>2022-05-12T10:07:26.000Z</time>
      </trkpt>
      <trkpt lat="43.41383" lon="4.75388">
        <ele>0.531577</ele>
        <time>2022-05-12T10:07:28.000Z</time>
      </trkpt>
      <trkpt lat="43.41356" lon="4.75414">
        <ele>0.513106</ele>
        <time>2022-05-12T10:07:37.000Z</time>
      </trkpt>
      <trkpt lat="43.41347" lon="4.75423">
        <ele>0.506589</ele>
        <time>2022-05-12T10:07:40.000Z</time>
      </trkpt>
      <trkpt lat="43.41327" lon="4.7544">
        <ele>0.493322</ele>
        <time>2022-05-12T10:07:46.000Z</time>
      </trkpt>
      <trkpt lat="43.41317" lon="4.7545">
        <ele>0.486646</ele>
        <time>2022-05-12T10:07:49.000Z</time>
      </trkpt>
      <trkpt lat="43.41286" lon="4.75478">
        <ele>0.465499</ele>
        <time>2022-05-12T10:07:58.000Z</time>
      </trkpt>
      <trkpt lat="43.41283" lon="4.75482">
        <ele>0.463126</ele>
        <time>2022-05-12T10:07:59.000Z</time>
      </trkpt>
      <trkpt lat="43.41256" lon="4.75507">
        <ele>0.444585</ele>
        <time>2022-05-12T10:08:07.000Z</time>
      </trkpt>
      <trkpt lat="43.41224" lon="4.75537">
        <ele>0.400673</ele>
        <time>2022-05-12T10:08:17.000Z</time>
      </trkpt>
      <trkpt lat="43.41195" lon="4.75563">
        <ele>0.354182</ele>
        <time>2022-05-12T10:08:25.000Z</time>
      </trkpt>
      <trkpt lat="43.41166" lon="4.75588">
        <ele>0.307829</ele>
        <time>2022-05-12T10:08:34.000Z</time>
      </trkpt>
      <trkpt lat="43.4116" lon="4.75594">
        <ele>0.297502</ele>
        <time>2022-05-12T10:08:36.000Z</time>
      </trkpt>
      <trkpt lat="43.41142" lon="4.75611">
        <ele>0.268158</ele>
        <time>2022-05-12T10:08:42.000Z</time>
      </trkpt>
      <trkpt lat="43.41132" lon="4.75622">
        <ele>0.251067</ele>
        <time>2022-05-12T10:08:47.000Z</time>
      </trkpt>
      <trkpt lat="43.41118" lon="4.75634">
        <ele>0.22846</ele>
        <time>2022-05-12T10:08:53.000Z</time>
      </trkpt>
      <trkpt lat="43.41099" lon="4.75651">
        <ele>0.198558</ele>
        <time>2022-05-12T10:08:59.000Z</time>
      </trkpt>
      <trkpt lat="43.4108" lon="4.75679">
        <ele>0.246744</ele>
        <time>2022-05-12T10:09:06.000Z</time>
      </trkpt>
      <trkpt lat="43.41071" lon="4.75697">
        <ele>0.27568</ele>
        <time>2022-05-12T10:09:10.000Z</time>
      </trkpt>
      <trkpt lat="43.41065" lon="4.75711">
        <ele>0.29677</ele>
        <time>2022-05-12T10:09:13.000Z</time>
      </trkpt>
      <trkpt lat="43.41045" lon="4.75755">
        <ele>0.365568</ele>
        <time>2022-05-12T10:09:23.000Z</time>
      </trkpt>
      <trkpt lat="43.41023" lon="4.75803">
        <ele>0.441381</ele>
        <time>2022-05-12T10:09:34.000Z</time>
      </trkpt>
      <trkpt lat="43.41007" lon="4.75835">
        <ele>0.492321</ele>
        <time>2022-05-12T10:09:41.000Z</time>
      </trkpt>
      <trkpt lat="43.40993" lon="4.75864">
        <ele>0.505534</ele>
        <time>2022-05-12T10:09:47.000Z</time>
      </trkpt>
      <trkpt lat="43.40972" lon="4.7591">
        <ele>0.393174</ele>
        <time>2022-05-12T10:09:57.000Z</time>
      </trkpt>
      <trkpt lat="43.40958" lon="4.75941">
        <ele>0.316405</ele>
        <time>2022-05-12T10:10:04.000Z</time>
      </trkpt>
      <trkpt lat="43.40952" lon="4.75955">
        <ele>0.283111</ele>
        <time>2022-05-12T10:10:07.000Z</time>
      </trkpt>
      <trkpt lat="43.40932" lon="4.75996">
        <ele>0.181306</ele>
        <time>2022-05-12T10:10:15.000Z</time>
      </trkpt>
      <trkpt lat="43.40913" lon="4.76036">
        <ele>0.082322</ele>
        <time>2022-05-12T10:10:23.000Z</time>
      </trkpt>
      <trkpt lat="43.40906" lon="4.7605">
        <ele>0.047063</ele>
        <time>2022-05-12T10:10:26.000Z</time>
      </trkpt>
      <trkpt lat="43.40893" lon="4.76079">
        <ele>0.042283</ele>
        <time>2022-05-12T10:10:32.000Z</time>
      </trkpt>
      <trkpt lat="43.40877" lon="4.76113">
        <ele>0.106454</ele>
        <time>2022-05-12T10:10:39.000Z</time>
      </trkpt>
      <trkpt lat="43.40873" lon="4.76124">
        <ele>0.125091</ele>
        <time>2022-05-12T10:10:41.000Z</time>
      </trkpt>
      <trkpt lat="43.40854" lon="4.76168">
        <ele>0.206196</ele>
        <time>2022-05-12T10:10:50.000Z</time>
      </trkpt>
      <trkpt lat="43.40838" lon="4.76205">
        <ele>0.274175</ele>
        <time>2022-05-12T10:10:58.000Z</time>
      </trkpt>
      <trkpt lat="43.40837" lon="4.76208">
        <ele>0.280777</ele>
        <time>2022-05-12T10:10:59.000Z</time>
      </trkpt>
      <trkpt lat="43.40834" lon="4.76214">
        <ele>0.290546</ele>
        <time>2022-05-12T10:11:01.000Z</time>
      </trkpt>
      <trkpt lat="43.40832" lon="4.76221">
        <ele>0.302652</ele>
        <time>2022-05-12T10:11:04.000Z</time>
      </trkpt>
      <trkpt lat="43.40827" lon="4.7624">
        <ele>0.334345</ele>
        <time>2022-05-12T10:11:08.000Z</time>
      </trkpt>
      <trkpt lat="43.40819" lon="4.76268">
        <ele>0.382185</ele>
        <time>2022-05-12T10:11:13.000Z</time>
      </trkpt>
      <trkpt lat="43.40814" lon="4.76286">
        <ele>0.39909</ele>
        <time>2022-05-12T10:11:16.000Z</time>
      </trkpt>
      <trkpt lat="43.40796" lon="4.76342">
        <ele>0.323762</ele>
        <time>2022-05-12T10:11:26.000Z</time>
      </trkpt>
      <trkpt lat="43.40794" lon="4.76347">
        <ele>0.316204</ele>
        <time>2022-05-12T10:11:27.000Z</time>
      </trkpt>
      <trkpt lat="43.40777" lon="4.76402">
        <ele>0.242986</ele>
        <time>2022-05-12T10:11:37.000Z</time>
      </trkpt>
      <trkpt lat="43.40762" lon="4.76446">
        <ele>0.182822</ele>
        <time>2022-05-12T10:11:45.000Z</time>
      </trkpt>
      <trkpt lat="43.40752" lon="4.7648">
        <ele>0.137212</ele>
        <time>2022-05-12T10:11:51.000Z</time>
      </trkpt>
      <trkpt lat="43.40745" lon="4.76503">
        <ele>0.10694</ele>
        <time>2022-05-12T10:11:55.000Z</time>
      </trkpt>
      <trkpt lat="43.40735" lon="4.76538">
        <ele>0.047648</ele>
        <time>2022-05-12T10:12:01.000Z</time>
      </trkpt>
      <trkpt lat="43.40729" lon="4.76561">
        <ele>0.007503</ele>
        <time>2022-05-12T10:12:05.000Z</time>
      </trkpt>
      <trkpt lat="43.40711" lon="4.76623">
        <ele>-0.101523</ele>
        <time>2022-05-12T10:12:16.000Z</time>
      </trkpt>
      <trkpt lat="43.40694" lon="4.76681">
        <ele>-0.202861</ele>
        <time>2022-05-12T10:12:27.000Z</time>
      </trkpt>
      <trkpt lat="43.40677" lon="4.76739">
        <ele>-0.304035</ele>
        <time>2022-05-12T10:12:38.000Z</time>
      </trkpt>
      <trkpt lat="43.40666" lon="4.76774">
        <ele>-0.259999</ele>
        <time>2022-05-12T10:12:45.000Z</time>
      </trkpt>
      <trkpt lat="43.40665" lon="4.76778">
        <ele>-0.254984</ele>
        <time>2022-05-12T10:12:46.000Z</time>
      </trkpt>
      <trkpt lat="43.40662" lon="4.76788">
        <ele>-0.242083</ele>
        <time>2022-05-12T10:12:48.000Z</time>
      </trkpt>
      <trkpt lat="43.4065" lon="4.76833">
        <ele>-0.187144</ele>
        <time>2022-05-12T10:12:56.000Z</time>
      </trkpt>
      <trkpt lat="43.40635" lon="4.76883">
        <ele>-0.1246</ele>
        <time>2022-05-12T10:13:05.000Z</time>
      </trkpt>
      <trkpt lat="43.40618" lon="4.76944">
        <ele>-0.049334</ele>
        <time>2022-05-12T10:13:16.000Z</time>
      </trkpt>
      <trkpt lat="43.40606" lon="4.76988">
        <ele>0.01798</ele>
        <time>2022-05-12T10:13:24.000Z</time>
      </trkpt>
      <trkpt lat="43.4059" lon="4.77045">
        <ele>0.125521</ele>
        <time>2022-05-12T10:13:34.000Z</time>
      </trkpt>
      <trkpt lat="43.4058" lon="4.77094">
        <ele>0.215858</ele>
        <time>2022-05-12T10:13:42.000Z</time>
      </trkpt>
      <trkpt lat="43.40566" lon="4.77153">
        <ele>0.324396</ele>
        <time>2022-05-12T10:13:52.000Z</time>
      </trkpt>
      <trkpt lat="43.40553" lon="4.7721">
        <ele>0.422954</ele>
        <time>2022-05-12T10:14:02.000Z</time>
      </trkpt>
      <trkpt lat="43.40542" lon="4.77254">
        <ele>0.451875</ele>
        <time>2022-05-12T10:14:09.000Z</time>
      </trkpt>
      <trkpt lat="43.40537" lon="4.77271">
        <ele>0.462921</ele>
        <time>2022-05-12T10:14:12.000Z</time>
      </trkpt>
      <trkpt lat="43.40522" lon="4.77335">
        <ele>0.504164</ele>
        <time>2022-05-12T10:14:23.000Z</time>
      </trkpt>
      <trkpt lat="43.40508" lon="4.77397">
        <ele>0.544179</ele>
        <time>2022-05-12T10:14:34.000Z</time>
      </trkpt>
      <trkpt lat="43.40507" lon="4.77402">
        <ele>0.547169</ele>
        <time>2022-05-12T10:14:35.000Z</time>
      </trkpt>
      <trkpt lat="43.40505" lon="4.77413">
        <ele>0.554407</ele>
        <time>2022-05-12T10:14:37.000Z</time>
      </trkpt>
      <trkpt lat="43.40501" lon="4.7743">
        <ele>0.565343</ele>
        <time>2022-05-12T10:14:40.000Z</time>
      </trkpt>
      <trkpt lat="43.40486" lon="4.77498">
        <ele>0.620266</ele>
        <time>2022-05-12T10:14:51.000Z</time>
      </trkpt>
      <trkpt lat="43.40474" lon="4.77553">
        <ele>0.66615</ele>
        <time>2022-05-12T10:15:00.000Z</time>
      </trkpt>
      <trkpt lat="43.40469" lon="4.77575">
        <ele>0.684127</ele>
        <time>2022-05-12T10:15:04.000Z</time>
      </trkpt>
      <trkpt lat="43.40465" lon="4.77586">
        <ele>0.694012</ele>
        <time>2022-05-12T10:15:06.000Z</time>
      </trkpt>
      <trkpt lat="43.40464" lon="4.77592">
        <ele>0.699038</ele>
        <time>2022-05-12T10:15:07.000Z</time>
      </trkpt>
      <trkpt lat="43.4045" lon="4.77651">
        <ele>0.748364</ele>
        <time>2022-05-12T10:15:17.000Z</time>
      </trkpt>
      <trkpt lat="43.40444" lon="4.77681">
        <ele>0.755527</ele>
        <time>2022-05-12T10:15:22.000Z</time>
      </trkpt>
      <trkpt lat="43.4044" lon="4.77698">
        <ele>0.721842</ele>
        <time>2022-05-12T10:15:25.000Z</time>
      </trkpt>
      <trkpt lat="43.4043" lon="4.7773">
        <ele>0.653819</ele>
        <time>2022-05-12T10:15:32.000Z</time>
      </trkpt>
      <trkpt lat="43.40425" lon="4.77739">
        <ele>0.629865</ele>
        <time>2022-05-12T10:15:36.000Z</time>
      </trkpt>
      <trkpt lat="43.40422" lon="4.77744">
        <ele>0.617299</ele>
        <time>2022-05-12T10:15:38.000Z</time>
      </trkpt>
      <trkpt lat="43.40414" lon="4.77764">
        <ele>0.571501</ele>
        <time>2022-05-12T10:15:43.000Z</time>
      </trkpt>
      <trkpt lat="43.40404" lon="4.77802">
        <ele>0.493961</ele>
        <time>2022-05-12T10:15:50.000Z</time>
      </trkpt>
      <trkpt lat="43.40395" lon="4.77847">
        <ele>0.401925</ele>
        <time>2022-05-12T10:15:58.000Z</time>
      </trkpt>
      <trkpt lat="43.40389" lon="4.77871">
        <ele>0.352604</ele>
        <time>2022-05-12T10:16:02.000Z</time>
      </trkpt>
      <trkpt lat="43.40385" lon="4.77891">
        <ele>0.311374</ele>
        <time>2022-05-12T10:16:06.000Z</time>
      </trkpt>
      <trkpt lat="43.40378" lon="4.77922">
        <ele>0.268732</ele>
        <time>2022-05-12T10:16:12.000Z</time>
      </trkpt>
      <trkpt lat="43.40376" lon="4.77932">
        <ele>0.260921</ele>
        <time>2022-05-12T10:16:14.000Z</time>
      </trkpt>
      <trkpt lat="43.40363" lon="4.77984">
        <ele>0.219991</ele>
        <time>2022-05-12T10:16:23.000Z</time>
      </trkpt>
      <trkpt lat="43.40353" lon="4.78022">
        <ele>0.189028</ele>
        <time>2022-05-12T10:16:30.000Z</time>
      </trkpt>
      <trkpt lat="43.40349" lon="4.78035">
        <ele>0.179031</ele>
        <time>2022-05-12T10:16:32.000Z</time>
      </trkpt>
      <trkpt lat="43.40333" lon="4.7809">
        <ele>0.134471</ele>
        <time>2022-05-12T10:16:42.000Z</time>
      </trkpt>
      <trkpt lat="43.40315" lon="4.78147">
        <ele>0.097721</ele>
        <time>2022-05-12T10:16:53.000Z</time>
      </trkpt>
      <trkpt lat="43.40304" lon="4.78188">
        <ele>0.102241</ele>
        <time>2022-05-12T10:17:01.000Z</time>
      </trkpt>
      <trkpt lat="43.40303" lon="4.78193">
        <ele>0.102783</ele>
        <time>2022-05-12T10:17:02.000Z</time>
      </trkpt>
      <trkpt lat="43.40293" lon="4.78227">
        <ele>0.106724</ele>
        <time>2022-05-12T10:17:09.000Z</time>
      </trkpt>
      <trkpt lat="43.40279" lon="4.78273">
        <ele>0.111905</ele>
        <time>2022-05-12T10:17:18.000Z</time>
      </trkpt>
      <trkpt lat="43.40259" lon="4.78323">
        <ele>0.11789</ele>
        <time>2022-05-12T10:17:28.000Z</time>
      </trkpt>
      <trkpt lat="43.40237" lon="4.78364">
        <ele>0.118939</ele>
        <time>2022-05-12T10:17:37.000Z</time>
      </trkpt>
      <trkpt lat="43.40225" lon="4.78387">
        <ele>0.106325</ele>
        <time>2022-05-12T10:17:42.000Z</time>
      </trkpt>
      <trkpt lat="43.4022" lon="4.78395">
        <ele>0.101457</ele>
        <time>2022-05-12T10:17:44.000Z</time>
      </trkpt>
      <trkpt lat="43.40203" lon="4.78425">
        <ele>0.084362</ele>
        <time>2022-05-12T10:17:51.000Z</time>
      </trkpt>
      <trkpt lat="43.402" lon="4.78429">
        <ele>0.081466</ele>
        <time>2022-05-12T10:17:52.000Z</time>
      </trkpt>
      <trkpt lat="43.40175" lon="4.78474">
        <ele>0.056231</ele>
        <time>2022-05-12T10:18:02.000Z</time>
      </trkpt>
      <trkpt lat="43.4015" lon="4.78518">
        <ele>0.031184</ele>
        <time>2022-05-12T10:18:12.000Z</time>
      </trkpt>
      <trkpt lat="43.40123" lon="4.78566">
        <ele>0.005827</ele>
        <time>2022-05-12T10:18:22.000Z</time>
      </trkpt>
      <trkpt lat="43.40102" lon="4.78603">
        <ele>-0.008258</ele>
        <time>2022-05-12T10:18:30.000Z</time>
      </trkpt>
      <trkpt lat="43.40078" lon="4.78644">
        <ele>-0.024334</ele>
        <time>2022-05-12T10:18:40.000Z</time>
      </trkpt>
      <trkpt lat="43.40063" lon="4.78671">
        <ele>-0.034479</ele>
        <time>2022-05-12T10:18:46.000Z</time>
      </trkpt>
      <trkpt lat="43.40048" lon="4.78696">
        <ele>-0.044273</ele>
        <time>2022-05-12T10:18:52.000Z</time>
      </trkpt>
      <trkpt lat="43.40038" lon="4.78714">
        <ele>-0.051092</ele>
        <time>2022-05-12T10:18:56.000Z</time>
      </trkpt>
      <trkpt lat="43.4002" lon="4.78745">
        <ele>-0.06295</ele>
        <time>2022-05-12T10:19:03.000Z</time>
      </trkpt>
      <trkpt lat="43.40015" lon="4.78756">
        <ele>-0.04281</ele>
        <time>2022-05-12T10:19:07.000Z</time>
      </trkpt>
      <trkpt lat="43.40015" lon="4.78762">
        <ele>-0.030015</ele>
        <time>2022-05-12T10:19:09.000Z</time>
      </trkpt>
      <trkpt lat="43.40018" lon="4.78773">
        <ele>-0.004494</ele>
        <time>2022-05-12T10:19:14.000Z</time>
      </trkpt>
      <trkpt lat="43.40023" lon="4.7878">
        <ele>0.018665</ele>
        <time>2022-05-12T10:19:19.000Z</time>
      </trkpt>
      <trkpt lat="43.40023" lon="4.78781">
        <ele>0.021389</ele>
        <time>2022-05-12T10:19:20.000Z</time>
      </trkpt>
      <trkpt lat="43.40022" lon="4.78782">
        <ele>0.024698</ele>
        <time>2022-05-12T10:19:21.000Z</time>
      </trkpt>
      <trkpt lat="43.40021" lon="4.78782">
        <ele>0.027819</ele>
        <time>2022-05-12T10:19:22.000Z</time>
      </trkpt>
      <trkpt lat="43.4002" lon="4.78781">
        <ele>0.031586</ele>
        <time>2022-05-12T10:19:23.000Z</time>
      </trkpt>
      <trkpt lat="43.40019" lon="4.78781">
        <ele>0.033759</ele>
        <time>2022-05-12T10:19:24.000Z</time>
      </trkpt>
      <trkpt lat="43.40018" lon="4.78784">
        <ele>0.040493</ele>
        <time>2022-05-12T10:19:29.000Z</time>
      </trkpt>
      <trkpt lat="43.40016" lon="4.78786">
        <ele>0.047055</ele>
        <time>2022-05-12T10:19:31.000Z</time>
      </trkpt>
      <trkpt lat="43.40013" lon="4.78791">
        <ele>0.061674</ele>
        <time>2022-05-12T10:19:33.000Z</time>
      </trkpt>
      <trkpt lat="43.4001" lon="4.78794">
        <ele>0.075824</ele>
        <time>2022-05-12T10:19:35.000Z</time>
      </trkpt>
      <trkpt lat="43.39998" lon="4.78806">
        <ele>0.119979</ele>
        <time>2022-05-12T10:19:40.000Z</time>
      </trkpt>
      <trkpt lat="43.39996" lon="4.78808">
        <ele>0.129011</ele>
        <time>2022-05-12T10:19:41.000Z</time>
      </trkpt>
      <trkpt lat="43.39985" lon="4.78814">
        <ele>0.16345</ele>
        <time>2022-05-12T10:19:45.000Z</time>
      </trkpt>
      <trkpt lat="43.39983" lon="4.78816">
        <ele>0.172529</ele>
        <time>2022-05-12T10:19:47.000Z</time>
      </trkpt>
      <trkpt lat="43.39983" lon="4.78816">
        <ele>0.17327</ele>
        <time>2022-05-12T10:19:48.000Z</time>
      </trkpt>
      <trkpt lat="43.39983" lon="4.78816">
        <ele>0.17327</ele>
        <time>2022-05-12T10:19:56.000Z</time>
      </trkpt>
      <trkpt lat="43.39983" lon="4.78816">
        <ele>0.17327</ele>
        <time>2022-05-12T10:19:58.000Z</time>
      </trkpt>
      <trkpt lat="43.39983" lon="4.78816">
        <ele>0.17327</ele>
        <time>2022-05-12T10:20:00.000Z</time>
      </trkpt>
      <trkpt lat="43.39983" lon="4.78816">
        <ele>0.17327</ele>
        <time>2022-05-12T10:20:02.000Z</time>
      </trkpt>
      <trkpt lat="43.39983" lon="4.78816">
        <ele>0.17327</ele>
        <time>2022-05-12T10:20:04.000Z</time>
      </trkpt>
      <trkpt lat="43.39983" lon="4.78816">
        <ele>0.17327</ele>
        <time>2022-05-12T10:20:06.000Z</time>
      </trkpt>
      <trkpt lat="43.39983" lon="4.78816">
        <ele>0.17327</ele>
        <time>2022-05-12T10:20:08.000Z</time>
      </trkpt>
      <trkpt lat="43.39983" lon="4.78816">
        <ele>0.17327</ele>
        <time>2022-05-12T10:20:12.000Z</time>
      </trkpt>
      <trkpt lat="43.39983" lon="4.78816">
        <ele>0.17327</ele>
        <time>2022-05-12T10:20:17.000Z</time>
      </trkpt>
      <trkpt lat="43.39983" lon="4.78816">
        <ele>0.17327</ele>
        <time>2022-05-12T10:20:25.000Z</time>
      </trkpt>
      <trkpt lat="43.39983" lon="4.78816">
        <ele>0.17327</ele>
        <time>2022-05-12T10:20:27.000Z</time>
      </trkpt>
      <trkpt lat="43.39983" lon="4.78816">
        <ele>0.17327</ele>
        <time>2022-05-12T10:20:30.000Z</time>
      </trkpt>
      <trkpt lat="43.39982" lon="4.78816">
        <ele>0.173888</ele>
        <time>2022-05-12T10:20:42.000Z</time>
      </trkpt>
      <trkpt lat="43.39979" lon="4.78818">
        <ele>0.185682</ele>
        <time>2022-05-12T10:20:44.000Z</time>
      </trkpt>
      <trkpt lat="43.39976" lon="4.78818">
        <ele>0.192818</ele>
        <time>2022-05-12T10:20:45.000Z</time>
      </trkpt>
      <trkpt lat="43.39957" lon="4.78827">
        <ele>0.254879</ele>
        <time>2022-05-12T10:20:52.000Z</time>
      </trkpt>
      <trkpt lat="43.39938" lon="4.78837">
        <ele>0.318732</ele>
        <time>2022-05-12T10:20:59.000Z</time>
      </trkpt>
      <trkpt lat="43.39916" lon="4.78851">
        <ele>0.392191</ele>
        <time>2022-05-12T10:21:06.000Z</time>
      </trkpt>
      <trkpt lat="43.39907" lon="4.78857">
        <ele>0.423901</ele>
        <time>2022-05-12T10:21:09.000Z</time>
      </trkpt>
      <trkpt lat="43.39885" lon="4.78871">
        <ele>0.490969</ele>
        <time>2022-05-12T10:21:16.000Z</time>
      </trkpt>
      <trkpt lat="43.39871" lon="4.78879">
        <ele>0.489183</ele>
        <time>2022-05-12T10:21:20.000Z</time>
      </trkpt>
      <trkpt lat="43.3985" lon="4.78891">
        <ele>0.48627</ele>
        <time>2022-05-12T10:21:26.000Z</time>
      </trkpt>
      <trkpt lat="43.3984" lon="4.78898">
        <ele>0.484834</ele>
        <time>2022-05-12T10:21:29.000Z</time>
      </trkpt>
      <trkpt lat="43.39833" lon="4.78902">
        <ele>0.483931</ele>
        <time>2022-05-12T10:21:31.000Z</time>
      </trkpt>
      <trkpt lat="43.39815" lon="4.78914">
        <ele>0.481435</ele>
        <time>2022-05-12T10:21:37.000Z</time>
      </trkpt>
      <trkpt lat="43.39782" lon="4.78931">
        <ele>0.476966</ele>
        <time>2022-05-12T10:21:46.000Z</time>
      </trkpt>
      <trkpt lat="43.39756" lon="4.78945">
        <ele>0.473515</ele>
        <time>2022-05-12T10:21:53.000Z</time>
      </trkpt>
      <trkpt lat="43.39745" lon="4.78951">
        <ele>0.472037</ele>
        <time>2022-05-12T10:21:56.000Z</time>
      </trkpt>
      <trkpt lat="43.39722" lon="4.78967">
        <ele>0.469785</ele>
        <time>2022-05-12T10:22:03.000Z</time>
      </trkpt>
      <trkpt lat="43.39704" lon="4.78993">
        <ele>0.615175</ele>
        <time>2022-05-12T10:22:10.000Z</time>
      </trkpt>
      <trkpt lat="43.39682" lon="4.79034">
        <ele>0.822089</ele>
        <time>2022-05-12T10:22:20.000Z</time>
      </trkpt>
      <trkpt lat="43.39667" lon="4.79064">
        <ele>0.972079</ele>
        <time>2022-05-12T10:22:27.000Z</time>
      </trkpt>
      <trkpt lat="43.39641" lon="4.79112">
        <ele>1.218063</ele>
        <time>2022-05-12T10:22:38.000Z</time>
      </trkpt>
      <trkpt lat="43.39627" lon="4.79131">
        <ele>1.327656</ele>
        <time>2022-05-12T10:22:44.000Z</time>
      </trkpt>
      <trkpt lat="43.39625" lon="4.79132">
        <ele>1.341378</ele>
        <time>2022-05-12T10:22:45.000Z</time>
      </trkpt>
      <trkpt lat="43.39618" lon="4.79142">
        <ele>1.397149</ele>
        <time>2022-05-12T10:22:50.000Z</time>
      </trkpt>
      <trkpt lat="43.39606" lon="4.79161">
        <ele>1.486908</ele>
        <time>2022-05-12T10:22:57.000Z</time>
      </trkpt>
      <trkpt lat="43.39591" lon="4.79191">
        <ele>1.525987</ele>
        <time>2022-05-12T10:23:05.000Z</time>
      </trkpt>
      <trkpt lat="43.39575" lon="4.79221">
        <ele>1.567533</ele>
        <time>2022-05-12T10:23:13.000Z</time>
      </trkpt>
      <trkpt lat="43.39557" lon="4.79257">
        <ele>1.615261</ele>
        <time>2022-05-12T10:23:22.000Z</time>
      </trkpt>
      <trkpt lat="43.39536" lon="4.79298">
        <ele>1.669775</ele>
        <time>2022-05-12T10:23:32.000Z</time>
      </trkpt>
      <trkpt lat="43.39516" lon="4.79333">
        <ele>1.71761</ele>
        <time>2022-05-12T10:23:42.000Z</time>
      </trkpt>
      <trkpt lat="43.39501" lon="4.79361">
        <ele>1.72967</ele>
        <time>2022-05-12T10:23:50.000Z</time>
      </trkpt>
      <trkpt lat="43.39485" lon="4.7939">
        <ele>1.513559</ele>
        <time>2022-05-12T10:23:58.000Z</time>
      </trkpt>
      <trkpt lat="43.39476" lon="4.79409">
        <ele>1.376256</ele>
        <time>2022-05-12T10:24:03.000Z</time>
      </trkpt>
      <trkpt lat="43.39468" lon="4.79421">
        <ele>1.277615</ele>
        <time>2022-05-12T10:24:07.000Z</time>
      </trkpt>
      <trkpt lat="43.39461" lon="4.79432">
        <ele>1.191448</ele>
        <time>2022-05-12T10:24:12.000Z</time>
      </trkpt>
      <trkpt lat="43.39461" lon="4.79437">
        <ele>1.160874</ele>
        <time>2022-05-12T10:24:16.000Z</time>
      </trkpt>
      <trkpt lat="43.39462" lon="4.79438">
        <ele>1.149774</ele>
        <time>2022-05-12T10:24:21.000Z</time>
      </trkpt>
      <trkpt lat="43.39463" lon="4.79438">
        <ele>1.141978</ele>
        <time>2022-05-12T10:24:22.000Z</time>
      </trkpt>
      <trkpt lat="43.39466" lon="4.79442">
        <ele>1.104181</ele>
        <time>2022-05-12T10:24:24.000Z</time>
      </trkpt>
      <trkpt lat="43.39477" lon="4.79457">
        <ele>0.984015</ele>
        <time>2022-05-12T10:24:28.000Z</time>
      </trkpt>
      <trkpt lat="43.39482" lon="4.79465">
        <ele>0.919325</ele>
        <time>2022-05-12T10:24:30.000Z</time>
      </trkpt>
      <trkpt lat="43.39502" lon="4.79493">
        <ele>0.679698</ele>
        <time>2022-05-12T10:24:37.000Z</time>
      </trkpt>
      <trkpt lat="43.39516" lon="4.79515">
        <ele>0.506743</ele>
        <time>2022-05-12T10:24:43.000Z</time>
      </trkpt>
      <trkpt lat="43.39534" lon="4.79543">
        <ele>0.28659</ele>
        <time>2022-05-12T10:24:50.000Z</time>
      </trkpt>
      <trkpt lat="43.39557" lon="4.79575">
        <ele>0.333827</ele>
        <time>2022-05-12T10:24:58.000Z</time>
      </trkpt>
      <trkpt lat="43.39576" lon="4.79601">
        <ele>0.386691</ele>
        <time>2022-05-12T10:25:05.000Z</time>
      </trkpt>
      <trkpt lat="43.39579" lon="4.79612">
        <ele>0.402206</ele>
        <time>2022-05-12T10:25:08.000Z</time>
      </trkpt>
      <trkpt lat="43.39577" lon="4.79614">
        <ele>0.40663</ele>
        <time>2022-05-12T10:25:09.000Z</time>
      </trkpt>
      <trkpt lat="43.39567" lon="4.79623">
        <ele>0.431632</ele>
        <time>2022-05-12T10:25:13.000Z</time>
      </trkpt>
      <trkpt lat="43.39546" lon="4.79641">
        <ele>0.479384</ele>
        <time>2022-05-12T10:25:19.000Z</time>
      </trkpt>
      <trkpt lat="43.39521" lon="4.79664">
        <ele>0.539182</ele>
        <time>2022-05-12T10:25:26.000Z</time>
      </trkpt>
      <trkpt lat="43.39475" lon="4.79703">
        <ele>0.633482</ele>
        <time>2022-05-12T10:25:38.000Z</time>
      </trkpt>
      <trkpt lat="43.39455" lon="4.79724">
        <ele>0.652953</ele>
        <time>2022-05-12T10:25:44.000Z</time>
      </trkpt>
      <trkpt lat="43.39452" lon="4.79727">
        <ele>0.655954</ele>
        <time>2022-05-12T10:25:45.000Z</time>
      </trkpt>
      <trkpt lat="43.39422" lon="4.79753">
        <ele>0.682752</ele>
        <time>2022-05-12T10:25:54.000Z</time>
      </trkpt>
      <trkpt lat="43.39407" lon="4.79768">
        <ele>0.696652</ele>
        <time>2022-05-12T10:26:00.000Z</time>
      </trkpt>
      <trkpt lat="43.39406" lon="4.79769">
        <ele>0.697758</ele>
        <time>2022-05-12T10:26:04.000Z</time>
      </trkpt>
      <trkpt lat="43.39403" lon="4.79772">
        <ele>0.700445</ele>
        <time>2022-05-12T10:26:10.000Z</time>
      </trkpt>
      <trkpt lat="43.39399" lon="4.79775">
        <ele>0.704111</ele>
        <time>2022-05-12T10:26:12.000Z</time>
      </trkpt>
      <trkpt lat="43.39383" lon="4.79791">
        <ele>0.719686</ele>
        <time>2022-05-12T10:26:18.000Z</time>
      </trkpt>
      <trkpt lat="43.39362" lon="4.7981">
        <ele>0.738735</ele>
        <time>2022-05-12T10:26:24.000Z</time>
      </trkpt>
      <trkpt lat="43.39334" lon="4.79834">
        <ele>0.763933</ele>
        <time>2022-05-12T10:26:32.000Z</time>
      </trkpt>
      <trkpt lat="43.39328" lon="4.79842">
        <ele>0.7702</ele>
        <time>2022-05-12T10:26:34.000Z</time>
      </trkpt>
      <trkpt lat="43.39325" lon="4.79845">
        <ele>0.773139</ele>
        <time>2022-05-12T10:26:35.000Z</time>
      </trkpt>
      <trkpt lat="43.39318" lon="4.79852">
        <ele>0.779609</ele>
        <time>2022-05-12T10:26:37.000Z</time>
      </trkpt>
      <trkpt lat="43.39307" lon="4.79862">
        <ele>0.789664</ele>
        <time>2022-05-12T10:26:40.000Z</time>
      </trkpt>
      <trkpt lat="43.39304" lon="4.79865">
        <ele>0.792922</ele>
        <time>2022-05-12T10:26:41.000Z</time>
      </trkpt>
      <trkpt lat="43.39271" lon="4.79898">
        <ele>0.824361</ele>
        <time>2022-05-12T10:26:50.000Z</time>
      </trkpt>
      <trkpt lat="43.39254" lon="4.79912">
        <ele>0.838833</ele>
        <time>2022-05-12T10:26:54.000Z</time>
      </trkpt>
      <trkpt lat="43.39247" lon="4.79919">
        <ele>0.84605</ele>
        <time>2022-05-12T10:26:56.000Z</time>
      </trkpt>
      <trkpt lat="43.39216" lon="4.79947">
        <ele>0.87439</ele>
        <time>2022-05-12T10:27:04.000Z</time>
      </trkpt>
      <trkpt lat="43.39212" lon="4.7995">
        <ele>0.877668</ele>
        <time>2022-05-12T10:27:05.000Z</time>
      </trkpt>
      <trkpt lat="43.39194" lon="4.79969">
        <ele>0.894797</ele>
        <time>2022-05-12T10:27:10.000Z</time>
      </trkpt>
      <trkpt lat="43.39191" lon="4.79972">
        <ele>0.898055</ele>
        <time>2022-05-12T10:27:11.000Z</time>
      </trkpt>
      <trkpt lat="43.39163" lon="4.79995">
        <ele>0.857775</ele>
        <time>2022-05-12T10:27:19.000Z</time>
      </trkpt>
      <trkpt lat="43.39136" lon="4.80021">
        <ele>0.804809</ele>
        <time>2022-05-12T10:27:27.000Z</time>
      </trkpt>
      <trkpt lat="43.39123" lon="4.80035">
        <ele>0.778152</ele>
        <time>2022-05-12T10:27:31.000Z</time>
      </trkpt>
      <trkpt lat="43.39116" lon="4.80041">
        <ele>0.76439</ele>
        <time>2022-05-12T10:27:33.000Z</time>
      </trkpt>
      <trkpt lat="43.39086" lon="4.8007">
        <ele>0.706781</ele>
        <time>2022-05-12T10:27:41.000Z</time>
      </trkpt>
      <trkpt lat="43.39056" lon="4.80099">
        <ele>0.647452</ele>
        <time>2022-05-12T10:27:49.000Z</time>
      </trkpt>
      <trkpt lat="43.39033" lon="4.80118">
        <ele>0.611837</ele>
        <time>2022-05-12T10:27:55.000Z</time>
      </trkpt>
      <trkpt lat="43.3903" lon="4.80121">
        <ele>0.611279</ele>
        <time>2022-05-12T10:27:56.000Z</time>
      </trkpt>
      <trkpt lat="43.39017" lon="4.80134">
        <ele>0.609044</ele>
        <time>2022-05-12T10:28:00.000Z</time>
      </trkpt>
      <trkpt lat="43.39013" lon="4.80137">
        <ele>0.608489</ele>
        <time>2022-05-12T10:28:01.000Z</time>
      </trkpt>
      <trkpt lat="43.39" lon="4.80149">
        <ele>0.606308</ele>
        <time>2022-05-12T10:28:05.000Z</time>
      </trkpt>
      <trkpt lat="43.38981" lon="4.80158">
        <ele>0.603623</ele>
        <time>2022-05-12T10:28:10.000Z</time>
      </trkpt>
      <trkpt lat="43.38956" lon="4.80177">
        <ele>0.599739</ele>
        <time>2022-05-12T10:28:18.000Z</time>
      </trkpt>
      <trkpt lat="43.38941" lon="4.80199">
        <ele>0.596758</ele>
        <time>2022-05-12T10:28:25.000Z</time>
      </trkpt>
      <trkpt lat="43.38922" lon="4.80223">
        <ele>0.59328</ele>
        <time>2022-05-12T10:28:33.000Z</time>
      </trkpt>
      <trkpt lat="43.389" lon="4.80242">
        <ele>0.58967</ele>
        <time>2022-05-12T10:28:41.000Z</time>
      </trkpt>
      <trkpt lat="43.38871" lon="4.80267">
        <ele>0.702544</ele>
        <time>2022-05-12T10:28:51.000Z</time>
      </trkpt>
      <trkpt lat="43.3885" lon="4.80288">
        <ele>0.836863</ele>
        <time>2022-05-12T10:28:58.000Z</time>
      </trkpt>
      <trkpt lat="43.38832" lon="4.80305">
        <ele>0.946762</ele>
        <time>2022-05-12T10:29:04.000Z</time>
      </trkpt>
      <trkpt lat="43.3881" lon="4.80324">
        <ele>1.084078</ele>
        <time>2022-05-12T10:29:11.000Z</time>
      </trkpt>
      <trkpt lat="43.38792" lon="4.80338">
        <ele>1.18992</ele>
        <time>2022-05-12T10:29:18.000Z</time>
      </trkpt>
      <trkpt lat="43.38789" lon="4.80341">
        <ele>1.210834</ele>
        <time>2022-05-12T10:29:23.000Z</time>
      </trkpt>
      <trkpt lat="43.38789" lon="4.80341">
        <ele>1.210834</ele>
        <time>2022-05-12T10:29:28.000Z</time>
      </trkpt>
      <trkpt lat="43.38789" lon="4.80341">
        <ele>1.210834</ele>
        <time>2022-05-12T10:29:37.000Z</time>
      </trkpt>
      <trkpt lat="43.38789" lon="4.80341">
        <ele>1.210834</ele>
        <time>2022-05-12T10:29:42.000Z</time>
      </trkpt>
      <trkpt lat="43.38789" lon="4.80342">
        <ele>1.212115</ele>
        <time>2022-05-12T10:29:57.000Z</time>
      </trkpt>
      <trkpt lat="43.38784" lon="4.80348">
        <ele>1.245472</ele>
        <time>2022-05-12T10:30:00.000Z</time>
      </trkpt>
      <trkpt lat="43.38775" lon="4.80354">
        <ele>1.297586</ele>
        <time>2022-05-12T10:30:03.000Z</time>
      </trkpt>
      <trkpt lat="43.38769" lon="4.80359">
        <ele>1.333224</ele>
        <time>2022-05-12T10:30:05.000Z</time>
      </trkpt>
      <trkpt lat="43.38757" lon="4.80371">
        <ele>1.411542</ele>
        <time>2022-05-12T10:30:09.000Z</time>
      </trkpt>
      <trkpt lat="43.38751" lon="4.80376">
        <ele>1.44718</ele>
        <time>2022-05-12T10:30:11.000Z</time>
      </trkpt>
      <trkpt lat="43.38747" lon="4.80381">
        <ele>1.476837</ele>
        <time>2022-05-12T10:30:13.000Z</time>
      </trkpt>
      <trkpt lat="43.3874" lon="4.80389">
        <ele>1.521922</ele>
        <time>2022-05-12T10:30:16.000Z</time>
      </trkpt>
      <trkpt lat="43.38729" lon="4.80399">
        <ele>1.557856</ele>
        <time>2022-05-12T10:30:20.000Z</time>
      </trkpt>
      <trkpt lat="43.38713" lon="4.80412">
        <ele>1.607341</ele>
        <time>2022-05-12T10:30:25.000Z</time>
      </trkpt>
      <trkpt lat="43.3871" lon="4.80415">
        <ele>1.618346</ele>
        <time>2022-05-12T10:30:26.000Z</time>
      </trkpt>
      <trkpt lat="43.38687" lon="4.80436">
        <ele>1.693361</ele>
        <time>2022-05-12T10:30:33.000Z</time>
      </trkpt>
      <trkpt lat="43.38671" lon="4.80449">
        <ele>1.744115</ele>
        <time>2022-05-12T10:30:39.000Z</time>
      </trkpt>
      <trkpt lat="43.38661" lon="4.80461">
        <ele>1.779098</ele>
        <time>2022-05-12T10:30:43.000Z</time>
      </trkpt>
      <trkpt lat="43.38654" lon="4.80469">
        <ele>1.805885</ele>
        <time>2022-05-12T10:30:46.000Z</time>
      </trkpt>
      <trkpt lat="43.38644" lon="4.80478">
        <ele>1.836321</ele>
        <time>2022-05-12T10:30:50.000Z</time>
      </trkpt>
      <trkpt lat="43.38631" lon="4.80492">
        <ele>1.883075</ele>
        <time>2022-05-12T10:30:56.000Z</time>
      </trkpt>
      <trkpt lat="43.38626" lon="4.80512">
        <ele>1.924615</ele>
        <time>2022-05-12T10:31:01.000Z</time>
      </trkpt>
      <trkpt lat="43.38628" lon="4.80524">
        <ele>1.94889</ele>
        <time>2022-05-12T10:31:04.000Z</time>
      </trkpt>
      <trkpt lat="43.38632" lon="4.80532">
        <ele>1.966848</ele>
        <time>2022-05-12T10:31:06.000Z</time>
      </trkpt>
      <trkpt lat="43.38648" lon="4.80562">
        <ele>1.989117</ele>
        <time>2022-05-12T10:31:15.000Z</time>
      </trkpt>
      <trkpt lat="43.38659" lon="4.80583">
        <ele>1.956348</ele>
        <time>2022-05-12T10:31:21.000Z</time>
      </trkpt>
      <trkpt lat="43.38664" lon="4.80593">
        <ele>1.941609</ele>
        <time>2022-05-12T10:31:24.000Z</time>
      </trkpt>
      <trkpt lat="43.38671" lon="4.80608">
        <ele>1.91846</ele>
        <time>2022-05-12T10:31:29.000Z</time>
      </trkpt>
      <trkpt lat="43.38677" lon="4.80618">
        <ele>1.901247</ele>
        <time>2022-05-12T10:31:33.000Z</time>
      </trkpt>
      <trkpt lat="43.38681" lon="4.80625">
        <ele>1.890359</ele>
        <time>2022-05-12T10:31:36.000Z</time>
      </trkpt>
      <trkpt lat="43.38685" lon="4.80632">
        <ele>1.879356</ele>
        <time>2022-05-12T10:31:41.000Z</time>
      </trkpt>
      <trkpt lat="43.38684" lon="4.80633">
        <ele>1.87851</ele>
        <time>2022-05-12T10:31:49.000Z</time>
      </trkpt>
      <trkpt lat="43.38686" lon="4.80636">
        <ele>1.873842</ele>
        <time>2022-05-12T10:31:54.000Z</time>
      </trkpt>
      <trkpt lat="43.38687" lon="4.8064">
        <ele>1.86738</ele>
        <time>2022-05-12T10:31:56.000Z</time>
      </trkpt>
      <trkpt lat="43.38695" lon="4.80654">
        <ele>1.844773</ele>
        <time>2022-05-12T10:32:01.000Z</time>
      </trkpt>
      <trkpt lat="43.38708" lon="4.8068">
        <ele>1.804438</ele>
        <time>2022-05-12T10:32:08.000Z</time>
      </trkpt>
      <trkpt lat="43.38719" lon="4.80703">
        <ele>1.769933</ele>
        <time>2022-05-12T10:32:13.000Z</time>
      </trkpt>
      <trkpt lat="43.38725" lon="4.80715">
        <ele>1.750435</ele>
        <time>2022-05-12T10:32:16.000Z</time>
      </trkpt>
      <trkpt lat="43.38734" lon="4.80731">
        <ele>1.725031</ele>
        <time>2022-05-12T10:32:20.000Z</time>
      </trkpt>
      <trkpt lat="43.38738" lon="4.80739">
        <ele>1.713107</ele>
        <time>2022-05-12T10:32:22.000Z</time>
      </trkpt>
      <trkpt lat="43.3874" lon="4.80742">
        <ele>1.707089</ele>
        <time>2022-05-12T10:32:23.000Z</time>
      </trkpt>
      <trkpt lat="43.38753" lon="4.80771">
        <ele>1.565613</ele>
        <time>2022-05-12T10:32:31.000Z</time>
      </trkpt>
      <trkpt lat="43.38759" lon="4.80782">
        <ele>1.48742</ele>
        <time>2022-05-12T10:32:37.000Z</time>
      </trkpt>
      <trkpt lat="43.38762" lon="4.80789">
        <ele>1.444913</ele>
        <time>2022-05-12T10:32:41.000Z</time>
      </trkpt>
      <trkpt lat="43.38763" lon="4.80793">
        <ele>1.422111</ele>
        <time>2022-05-12T10:32:43.000Z</time>
      </trkpt>
      <trkpt lat="43.38765" lon="4.80797">
        <ele>1.391141</ele>
        <time>2022-05-12T10:32:49.000Z</time>
      </trkpt>
      <trkpt lat="43.38768" lon="4.80796">
        <ele>1.3696</ele>
        <time>2022-05-12T10:32:56.000Z</time>
      </trkpt>
      <trkpt lat="43.38769" lon="4.80794">
        <ele>1.357595</ele>
        <time>2022-05-12T10:32:57.000Z</time>
      </trkpt>
      <trkpt lat="43.38767" lon="4.80785">
        <ele>1.308784</ele>
        <time>2022-05-12T10:33:01.000Z</time>
      </trkpt>
      <trkpt lat="43.38767" lon="4.80785">
        <ele>1.305455</ele>
        <time>2022-05-12T10:33:02.000Z</time>
      </trkpt>
      <trkpt lat="43.38767" lon="4.80784">
        <ele>1.303567</ele>
        <time>2022-05-12T10:33:05.000Z</time>
      </trkpt>
      <trkpt lat="43.38769" lon="4.80783">
        <ele>1.283443</ele>
        <time>2022-05-12T10:33:07.000Z</time>
      </trkpt>
      <trkpt lat="43.38771" lon="4.80782">
        <ele>1.266477</ele>
        <time>2022-05-12T10:33:12.000Z</time>
      </trkpt>
      <trkpt lat="43.38772" lon="4.80783">
        <ele>1.257287</ele>
        <time>2022-05-12T10:33:13.000Z</time>
      </trkpt>
      <trkpt lat="43.38776" lon="4.80789">
        <ele>1.215073</ele>
        <time>2022-05-12T10:33:20.000Z</time>
      </trkpt>
      <trkpt lat="43.38775" lon="4.80793">
        <ele>1.190983</ele>
        <time>2022-05-12T10:33:27.000Z</time>
      </trkpt>
      <trkpt lat="43.38775" lon="4.80793">
        <ele>1.190983</ele>
        <time>2022-05-12T10:33:35.000Z</time>
      </trkpt>
      <trkpt lat="43.38775" lon="4.80793">
        <ele>1.190983</ele>
        <time>2022-05-12T10:33:46.000Z</time>
      </trkpt>
      <trkpt lat="43.38775" lon="4.80793">
        <ele>1.190983</ele>
        <time>2022-05-12T10:33:53.000Z</time>
      </trkpt>
      <trkpt lat="43.38775" lon="4.80793">
        <ele>1.189873</ele>
        <time>2022-05-12T10:34:10.000Z</time>
      </trkpt>
      <trkpt lat="43.38775" lon="4.80793">
        <ele>1.189873</ele>
        <time>2022-05-12T10:34:12.000Z</time>
      </trkpt>
      <trkpt lat="43.38775" lon="4.80793">
        <ele>1.189873</ele>
        <time>2022-05-12T10:34:22.000Z</time>
      </trkpt>
      <trkpt lat="43.38775" lon="4.80793">
        <ele>1.189873</ele>
        <time>2022-05-12T10:34:23.000Z</time>
      </trkpt>
      <trkpt lat="43.38775" lon="4.80793">
        <ele>1.189873</ele>
        <time>2022-05-12T10:34:25.000Z</time>
      </trkpt>
      <trkpt lat="43.38775" lon="4.80793">
        <ele>1.189873</ele>
        <time>2022-05-12T10:34:27.000Z</time>
      </trkpt>
      <trkpt lat="43.38775" lon="4.80793">
        <ele>1.189873</ele>
        <time>2022-05-12T10:34:29.000Z</time>
      </trkpt>
      <trkpt lat="43.38775" lon="4.80793">
        <ele>1.189873</ele>
        <time>2022-05-12T10:34:46.000Z</time>
      </trkpt>
      <trkpt lat="43.38775" lon="4.80793">
        <ele>1.189873</ele>
        <time>2022-05-12T10:34:48.000Z</time>
      </trkpt>
      <trkpt lat="43.38775" lon="4.80793">
        <ele>1.189873</ele>
        <time>2022-05-12T10:34:49.000Z</time>
      </trkpt>
      <trkpt lat="43.38775" lon="4.80793">
        <ele>1.189873</ele>
        <time>2022-05-12T10:34:50.000Z</time>
      </trkpt>
      <trkpt lat="43.38775" lon="4.80793">
        <ele>1.189873</ele>
        <time>2022-05-12T10:34:52.000Z</time>
      </trkpt>
      <trkpt lat="43.38775" lon="4.80793">
        <ele>1.189873</ele>
        <time>2022-05-12T10:34:57.000Z</time>
      </trkpt>
      <trkpt lat="43.38775" lon="4.80793">
        <ele>1.189873</ele>
        <time>2022-05-12T10:34:58.000Z</time>
      </trkpt>
      <trkpt lat="43.38775" lon="4.80793">
        <ele>1.189873</ele>
        <time>2022-05-12T10:35:01.000Z</time>
      </trkpt>
      <trkpt lat="43.38775" lon="4.80793">
        <ele>1.189873</ele>
        <time>2022-05-12T10:35:03.000Z</time>
      </trkpt>
      <trkpt lat="43.38775" lon="4.80793">
        <ele>1.189873</ele>
        <time>2022-05-12T10:35:16.000Z</time>
      </trkpt>
      <trkpt lat="43.38775" lon="4.80793">
        <ele>1.189873</ele>
        <time>2022-05-12T10:35:18.000Z</time>
      </trkpt>
      <trkpt lat="43.38775" lon="4.80793">
        <ele>1.18911</ele>
        <time>2022-05-12T10:35:23.000Z</time>
      </trkpt>
      <trkpt lat="43.38774" lon="4.80793">
        <ele>1.186753</ele>
        <time>2022-05-12T10:35:44.000Z</time>
      </trkpt>
      <trkpt lat="43.38774" lon="4.80794">
        <ele>1.180998</ele>
        <time>2022-05-12T10:36:22.000Z</time>
      </trkpt>
      <trkpt lat="43.38775" lon="4.80796">
        <ele>1.170307</ele>
        <time>2022-05-12T10:36:33.000Z</time>
      </trkpt>
      <trkpt lat="43.38775" lon="4.80796">
        <ele>1.169543</ele>
        <time>2022-05-12T10:36:40.000Z</time>
      </trkpt>
      <trkpt lat="43.38776" lon="4.80798">
        <ele>1.155387</ele>
        <time>2022-05-12T10:37:35.000Z</time>
      </trkpt>
      <trkpt lat="43.38776" lon="4.80799">
        <ele>1.145935</ele>
        <time>2022-05-12T10:37:42.000Z</time>
      </trkpt>
      <trkpt lat="43.38782" lon="4.80804">
        <ele>1.089191</ele>
        <time>2022-05-12T10:37:49.000Z</time>
      </trkpt>
      <trkpt lat="43.38782" lon="4.80804">
        <ele>1.089191</ele>
        <time>2022-05-12T10:37:50.000Z</time>
      </trkpt>
      <trkpt lat="43.38782" lon="4.80804">
        <ele>1.089191</ele>
        <time>2022-05-12T10:37:59.000Z</time>
      </trkpt>
      <trkpt lat="43.38782" lon="4.80804">
        <ele>1.089191</ele>
        <time>2022-05-12T10:38:00.000Z</time>
      </trkpt>
      <trkpt lat="43.38782" lon="4.80804">
        <ele>1.089191</ele>
        <time>2022-05-12T10:38:02.000Z</time>
      </trkpt>
      <trkpt lat="43.38782" lon="4.80804">
        <ele>1.089191</ele>
        <time>2022-05-12T10:38:08.000Z</time>
      </trkpt>
      <trkpt lat="43.38782" lon="4.80804">
        <ele>1.089191</ele>
        <time>2022-05-12T10:38:15.000Z</time>
      </trkpt>
      <trkpt lat="43.38782" lon="4.80804">
        <ele>1.089191</ele>
        <time>2022-05-12T10:38:24.000Z</time>
      </trkpt>
      <trkpt lat="43.38782" lon="4.80804">
        <ele>1.089191</ele>
        <time>2022-05-12T10:38:42.000Z</time>
      </trkpt>
      <trkpt lat="43.38782" lon="4.80799">
        <ele>1.061408</ele>
        <time>2022-05-12T10:38:57.000Z</time>
      </trkpt>
      <trkpt lat="43.38782" lon="4.80799">
        <ele>1.061408</ele>
        <time>2022-05-12T10:38:59.000Z</time>
      </trkpt>
      <trkpt lat="43.38771" lon="4.80787">
        <ele>0.95402</ele>
        <time>2022-05-12T11:01:58.000Z</time>
      </trkpt>
      <trkpt lat="43.38779" lon="4.80793">
        <ele>0.879233</ele>
        <time>2022-05-12T11:02:01.000Z</time>
      </trkpt>
      <trkpt lat="43.3878" lon="4.80795">
        <ele>0.869243</ele>
        <time>2022-05-12T11:02:02.000Z</time>
      </trkpt>
      <trkpt lat="43.38779" lon="4.80796">
        <ele>0.855697</ele>
        <time>2022-05-12T11:02:07.000Z</time>
      </trkpt>
      <trkpt lat="43.38777" lon="4.80797">
        <ele>0.8427</ele>
        <time>2022-05-12T11:02:08.000Z</time>
      </trkpt>
      <trkpt lat="43.38772" lon="4.80801">
        <ele>0.800803</ele>
        <time>2022-05-12T11:02:11.000Z</time>
      </trkpt>
      <trkpt lat="43.38774" lon="4.80802">
        <ele>0.786965</ele>
        <time>2022-05-12T11:02:15.000Z</time>
      </trkpt>
      <trkpt lat="43.38773" lon="4.80802">
        <ele>0.785438</ele>
        <time>2022-05-12T11:02:16.000Z</time>
      </trkpt>
      <trkpt lat="43.38775" lon="4.80801">
        <ele>0.770168</ele>
        <time>2022-05-12T11:02:23.000Z</time>
      </trkpt>
      <trkpt lat="43.38774" lon="4.80798">
        <ele>0.749341</ele>
        <time>2022-05-12T11:02:33.000Z</time>
      </trkpt>
      <trkpt lat="43.38773" lon="4.80798">
        <ele>0.743986</ele>
        <time>2022-05-12T11:02:38.000Z</time>
      </trkpt>
      <trkpt lat="43.38773" lon="4.80798">
        <ele>0.743986</ele>
        <time>2022-05-12T11:02:49.000Z</time>
      </trkpt>
      <trkpt lat="43.38774" lon="4.80798">
        <ele>0.742459</ele>
        <time>2022-05-12T11:02:53.000Z</time>
      </trkpt>
      <trkpt lat="43.38774" lon="4.80798">
        <ele>0.741112</ele>
        <time>2022-05-12T11:02:58.000Z</time>
      </trkpt>
      <trkpt lat="43.38774" lon="4.80798">
        <ele>0.736498</ele>
        <time>2022-05-12T11:03:09.000Z</time>
      </trkpt>
      <trkpt lat="43.38774" lon="4.80798">
        <ele>0.736498</ele>
        <time>2022-05-12T11:03:13.000Z</time>
      </trkpt>
      <trkpt lat="43.38774" lon="4.80798">
        <ele>0.7329</ele>
        <time>2022-05-12T11:03:14.000Z</time>
      </trkpt>
      <trkpt lat="43.38769" lon="4.80791">
        <ele>0.680385</ele>
        <time>2022-05-12T11:03:17.000Z</time>
      </trkpt>
      <trkpt lat="43.38766" lon="4.80784">
        <ele>0.635197</ele>
        <time>2022-05-12T11:03:20.000Z</time>
      </trkpt>
      <trkpt lat="43.38764" lon="4.80783">
        <ele>0.620348</ele>
        <time>2022-05-12T11:03:22.000Z</time>
      </trkpt>
      <trkpt lat="43.38757" lon="4.80774">
        <ele>0.544982</ele>
        <time>2022-05-12T11:03:26.000Z</time>
      </trkpt>
      <trkpt lat="43.38745" lon="4.80753">
        <ele>0.395511</ele>
        <time>2022-05-12T11:03:31.000Z</time>
      </trkpt>
      <trkpt lat="43.38733" lon="4.80745">
        <ele>0.343752</ele>
        <time>2022-05-12T11:03:35.000Z</time>
      </trkpt>
      <trkpt lat="43.3872" lon="4.80739">
        <ele>0.456779</ele>
        <time>2022-05-12T11:03:40.000Z</time>
      </trkpt>
      <trkpt lat="43.38713" lon="4.8073">
        <ele>0.531738</ele>
        <time>2022-05-12T11:03:43.000Z</time>
      </trkpt>
      <trkpt lat="43.38703" lon="4.80716">
        <ele>0.642464</ele>
        <time>2022-05-12T11:03:47.000Z</time>
      </trkpt>
      <trkpt lat="43.38692" lon="4.80702">
        <ele>0.763235</ele>
        <time>2022-05-12T11:03:51.000Z</time>
      </trkpt>
      <trkpt lat="43.38682" lon="4.80691">
        <ele>0.869191</ele>
        <time>2022-05-12T11:03:55.000Z</time>
      </trkpt>
      <trkpt lat="43.38669" lon="4.80674">
        <ele>1.010371</ele>
        <time>2022-05-12T11:04:01.000Z</time>
      </trkpt>
      <trkpt lat="43.38663" lon="4.8066">
        <ele>1.102266</ele>
        <time>2022-05-12T11:04:05.000Z</time>
      </trkpt>
      <trkpt lat="43.38657" lon="4.80648">
        <ele>1.187574</ele>
        <time>2022-05-12T11:04:08.000Z</time>
      </trkpt>
      <trkpt lat="43.38651" lon="4.80635">
        <ele>1.273179</ele>
        <time>2022-05-12T11:04:11.000Z</time>
      </trkpt>
      <trkpt lat="43.38634" lon="4.80602">
        <ele>1.51264</ele>
        <time>2022-05-12T11:04:20.000Z</time>
      </trkpt>
      <trkpt lat="43.38624" lon="4.80579">
        <ele>1.664961</ele>
        <time>2022-05-12T11:04:26.000Z</time>
      </trkpt>
      <trkpt lat="43.38614" lon="4.80559">
        <ele>1.772691</ele>
        <time>2022-05-12T11:04:32.000Z</time>
      </trkpt>
      <trkpt lat="43.38611" lon="4.80553">
        <ele>1.790301</ele>
        <time>2022-05-12T11:04:34.000Z</time>
      </trkpt>
      <trkpt lat="43.38601" lon="4.80541">
        <ele>1.834948</ele>
        <time>2022-05-12T11:04:40.000Z</time>
      </trkpt>
      <trkpt lat="43.38595" lon="4.80539">
        <ele>1.856636</ele>
        <time>2022-05-12T11:04:45.000Z</time>
      </trkpt>
      <trkpt lat="43.38593" lon="4.80538">
        <ele>1.861459</ele>
        <time>2022-05-12T11:04:46.000Z</time>
      </trkpt>
      <trkpt lat="43.38586" lon="4.80533">
        <ele>1.887435</ele>
        <time>2022-05-12T11:04:51.000Z</time>
      </trkpt>
      <trkpt lat="43.38581" lon="4.80523">
        <ele>1.918634</ele>
        <time>2022-05-12T11:04:58.000Z</time>
      </trkpt>
      <trkpt lat="43.38581" lon="4.80515">
        <ele>1.93755</ele>
        <time>2022-05-12T11:05:01.000Z</time>
      </trkpt>
      <trkpt lat="43.38579" lon="4.8051">
        <ele>1.95181</ele>
        <time>2022-05-12T11:05:04.000Z</time>
      </trkpt>
      <trkpt lat="43.3858" lon="4.80507">
        <ele>1.960655</ele>
        <time>2022-05-12T11:05:06.000Z</time>
      </trkpt>
      <trkpt lat="43.38585" lon="4.80503">
        <ele>1.980643</ele>
        <time>2022-05-12T11:05:09.000Z</time>
      </trkpt>
      <trkpt lat="43.386" lon="4.8049">
        <ele>2.037684</ele>
        <time>2022-05-12T11:05:15.000Z</time>
      </trkpt>
      <trkpt lat="43.38604" lon="4.80481">
        <ele>2.06384</ele>
        <time>2022-05-12T11:05:20.000Z</time>
      </trkpt>
      <trkpt lat="43.38603" lon="4.8048">
        <ele>2.067582</ele>
        <time>2022-05-12T11:05:25.000Z</time>
      </trkpt>
      <trkpt lat="43.38603" lon="4.8048">
        <ele>2.067994</ele>
        <time>2022-05-12T11:05:27.000Z</time>
      </trkpt>
      <trkpt lat="43.38603" lon="4.8048">
        <ele>2.069723</ele>
        <time>2022-05-12T11:05:37.000Z</time>
      </trkpt>
      <trkpt lat="43.38603" lon="4.8048">
        <ele>2.069723</ele>
        <time>2022-05-12T11:05:39.000Z</time>
      </trkpt>
      <trkpt lat="43.38603" lon="4.8048">
        <ele>2.069723</ele>
        <time>2022-05-12T11:05:44.000Z</time>
      </trkpt>
      <trkpt lat="43.38602" lon="4.8048">
        <ele>2.071881</ele>
        <time>2022-05-12T11:06:02.000Z</time>
      </trkpt>
      <trkpt lat="43.38602" lon="4.80481">
        <ele>2.074105</ele>
        <time>2022-05-12T11:06:20.000Z</time>
      </trkpt>
      <trkpt lat="43.38601" lon="4.80482">
        <ele>2.077249</ele>
        <time>2022-05-12T11:06:34.000Z</time>
      </trkpt>
      <trkpt lat="43.38597" lon="4.80487">
        <ele>2.095613</ele>
        <time>2022-05-12T11:06:37.000Z</time>
      </trkpt>
      <trkpt lat="43.38581" lon="4.80502">
        <ele>2.161144</ele>
        <time>2022-05-12T11:06:43.000Z</time>
      </trkpt>
      <trkpt lat="43.38559" lon="4.80525">
        <ele>2.251142</ele>
        <time>2022-05-12T11:06:50.000Z</time>
      </trkpt>
      <trkpt lat="43.38553" lon="4.80531">
        <ele>2.276725</ele>
        <time>2022-05-12T11:06:52.000Z</time>
      </trkpt>
      <trkpt lat="43.38547" lon="4.80537">
        <ele>2.302277</ele>
        <time>2022-05-12T11:06:54.000Z</time>
      </trkpt>
      <trkpt lat="43.38525" lon="4.80554">
        <ele>2.362716</ele>
        <time>2022-05-12T11:07:00.000Z</time>
      </trkpt>
      <trkpt lat="43.38513" lon="4.80565">
        <ele>2.379311</ele>
        <time>2022-05-12T11:07:04.000Z</time>
      </trkpt>
      <trkpt lat="43.38501" lon="4.80578">
        <ele>2.397394</ele>
        <time>2022-05-12T11:07:08.000Z</time>
      </trkpt>
      <trkpt lat="43.38475" lon="4.80603">
        <ele>2.434422</ele>
        <time>2022-05-12T11:07:17.000Z</time>
      </trkpt>
      <trkpt lat="43.3847" lon="4.80608">
        <ele>2.441999</ele>
        <time>2022-05-12T11:07:19.000Z</time>
      </trkpt>
      <trkpt lat="43.38454" lon="4.80624">
        <ele>2.464463</ele>
        <time>2022-05-12T11:07:25.000Z</time>
      </trkpt>
      <trkpt lat="43.38447" lon="4.80631">
        <ele>2.475024</ele>
        <time>2022-05-12T11:07:28.000Z</time>
      </trkpt>
      <trkpt lat="43.38439" lon="4.80639">
        <ele>2.486343</ele>
        <time>2022-05-12T11:07:31.000Z</time>
      </trkpt>
      <trkpt lat="43.38435" lon="4.80642">
        <ele>2.491426</ele>
        <time>2022-05-12T11:07:32.000Z</time>
      </trkpt>
      <trkpt lat="43.3842" lon="4.80658">
        <ele>2.513337</ele>
        <time>2022-05-12T11:07:37.000Z</time>
      </trkpt>
      <trkpt lat="43.38418" lon="4.80661">
        <ele>2.517377</ele>
        <time>2022-05-12T11:07:38.000Z</time>
      </trkpt>
      <trkpt lat="43.38402" lon="4.80674">
        <ele>2.538421</ele>
        <time>2022-05-12T11:07:44.000Z</time>
      </trkpt>
      <trkpt lat="43.38382" lon="4.8069">
        <ele>2.554542</ele>
        <time>2022-05-12T11:07:52.000Z</time>
      </trkpt>
      <trkpt lat="43.38368" lon="4.80701">
        <ele>2.537366</ele>
        <time>2022-05-12T11:07:59.000Z</time>
      </trkpt>
      <trkpt lat="43.38365" lon="4.80702">
        <ele>2.533388</ele>
        <time>2022-05-12T11:08:02.000Z</time>
      </trkpt>
      <trkpt lat="43.38364" lon="4.80702">
        <ele>2.53232</ele>
        <time>2022-05-12T11:08:04.000Z</time>
      </trkpt>
      <trkpt lat="43.38365" lon="4.80701">
        <ele>2.530797</ele>
        <time>2022-05-12T11:08:13.000Z</time>
      </trkpt>
      <trkpt lat="43.38365" lon="4.80701">
        <ele>2.53069</ele>
        <time>2022-05-12T11:08:17.000Z</time>
      </trkpt>
      <trkpt lat="43.38365" lon="4.807">
        <ele>2.53038</ele>
        <time>2022-05-12T11:08:35.000Z</time>
      </trkpt>
      <trkpt lat="43.38365" lon="4.807">
        <ele>2.530052</ele>
        <time>2022-05-12T11:08:47.000Z</time>
      </trkpt>
      <trkpt lat="43.38363" lon="4.80702">
        <ele>2.527729</ele>
        <time>2022-05-12T11:08:48.000Z</time>
      </trkpt>
      <trkpt lat="43.38362" lon="4.80708">
        <ele>2.523189</ele>
        <time>2022-05-12T11:08:50.000Z</time>
      </trkpt>
      <trkpt lat="43.38357" lon="4.80727">
        <ele>2.507258</ele>
        <time>2022-05-12T11:08:55.000Z</time>
      </trkpt>
      <trkpt lat="43.38358" lon="4.80754">
        <ele>2.486366</ele>
        <time>2022-05-12T11:09:01.000Z</time>
      </trkpt>
      <trkpt lat="43.3836" lon="4.80764">
        <ele>2.478596</ele>
        <time>2022-05-12T11:09:03.000Z</time>
      </trkpt>
      <trkpt lat="43.38363" lon="4.80772">
        <ele>2.471374</ele>
        <time>2022-05-12T11:09:05.000Z</time>
      </trkpt>
      <trkpt lat="43.38366" lon="4.80786">
        <ele>2.460542</ele>
        <time>2022-05-12T11:09:08.000Z</time>
      </trkpt>
      <trkpt lat="43.38368" lon="4.80789">
        <ele>2.45751</ele>
        <time>2022-05-12T11:09:09.000Z</time>
      </trkpt>
      <trkpt lat="43.38373" lon="4.808">
        <ele>2.447275</ele>
        <time>2022-05-12T11:09:14.000Z</time>
      </trkpt>
      <trkpt lat="43.38383" lon="4.80819">
        <ele>2.428916</ele>
        <time>2022-05-12T11:09:22.000Z</time>
      </trkpt>
      <trkpt lat="43.38389" lon="4.80829">
        <ele>2.418773</ele>
        <time>2022-05-12T11:09:28.000Z</time>
      </trkpt>
      <trkpt lat="43.38393" lon="4.80835">
        <ele>2.412608</ele>
        <time>2022-05-12T11:09:31.000Z</time>
      </trkpt>
      <trkpt lat="43.38393" lon="4.80842">
        <ele>2.407381</ele>
        <time>2022-05-12T11:09:34.000Z</time>
      </trkpt>
      <trkpt lat="43.38394" lon="4.80845">
        <ele>2.404364</ele>
        <time>2022-05-12T11:09:37.000Z</time>
      </trkpt>
      <trkpt lat="43.38391" lon="4.80848">
        <ele>2.40079</ele>
        <time>2022-05-12T11:09:39.000Z</time>
      </trkpt>
      <trkpt lat="43.38386" lon="4.80852">
        <ele>2.393897</ele>
        <time>2022-05-12T11:09:42.000Z</time>
      </trkpt>
      <trkpt lat="43.38384" lon="4.80859">
        <ele>2.388189</ele>
        <time>2022-05-12T11:09:44.000Z</time>
      </trkpt>
      <trkpt lat="43.38381" lon="4.8087">
        <ele>2.379181</ele>
        <time>2022-05-12T11:09:47.000Z</time>
      </trkpt>
      <trkpt lat="43.38381" lon="4.80879">
        <ele>2.37253</ele>
        <time>2022-05-12T11:09:49.000Z</time>
      </trkpt>
      <trkpt lat="43.38378" lon="4.80898">
        <ele>2.366889</ele>
        <time>2022-05-12T11:09:53.000Z</time>
      </trkpt>
      <trkpt lat="43.38375" lon="4.80905">
        <ele>2.36647</ele>
        <time>2022-05-12T11:09:55.000Z</time>
      </trkpt>
      <trkpt lat="43.38356" lon="4.80924">
        <ele>2.364803</ele>
        <time>2022-05-12T11:10:01.000Z</time>
      </trkpt>
      <trkpt lat="43.38338" lon="4.80939">
        <ele>2.363274</ele>
        <time>2022-05-12T11:10:06.000Z</time>
      </trkpt>
      <trkpt lat="43.38334" lon="4.80943">
        <ele>2.362907</ele>
        <time>2022-05-12T11:10:08.000Z</time>
      </trkpt>
      <trkpt lat="43.3833" lon="4.80942">
        <ele>2.362616</ele>
        <time>2022-05-12T11:10:11.000Z</time>
      </trkpt>
      <trkpt lat="43.38329" lon="4.80941">
        <ele>2.362499</ele>
        <time>2022-05-12T11:10:12.000Z</time>
      </trkpt>
      <trkpt lat="43.38326" lon="4.8094">
        <ele>2.362319</ele>
        <time>2022-05-12T11:10:14.000Z</time>
      </trkpt>
      <trkpt lat="43.38323" lon="4.80943">
        <ele>2.362029</ele>
        <time>2022-05-12T11:10:16.000Z</time>
      </trkpt>
      <trkpt lat="43.38312" lon="4.80954">
        <ele>2.361018</ele>
        <time>2022-05-12T11:10:21.000Z</time>
      </trkpt>
      <trkpt lat="43.38294" lon="4.80969">
        <ele>2.359523</ele>
        <time>2022-05-12T11:10:27.000Z</time>
      </trkpt>
      <trkpt lat="43.38282" lon="4.80981">
        <ele>2.358467</ele>
        <time>2022-05-12T11:10:31.000Z</time>
      </trkpt>
      <trkpt lat="43.38269" lon="4.80993">
        <ele>2.357275</ele>
        <time>2022-05-12T11:10:35.000Z</time>
      </trkpt>
      <trkpt lat="43.38252" lon="4.81012">
        <ele>2.355688</ele>
        <time>2022-05-12T11:10:41.000Z</time>
      </trkpt>
      <trkpt lat="43.38236" lon="4.81024">
        <ele>2.357742</ele>
        <time>2022-05-12T11:10:46.000Z</time>
      </trkpt>
      <trkpt lat="43.38215" lon="4.81045">
        <ele>2.398871</ele>
        <time>2022-05-12T11:10:52.000Z</time>
      </trkpt>
      <trkpt lat="43.38181" lon="4.81076">
        <ele>2.461177</ele>
        <time>2022-05-12T11:11:01.000Z</time>
      </trkpt>
      <trkpt lat="43.38167" lon="4.8109">
        <ele>2.48773</ele>
        <time>2022-05-12T11:11:05.000Z</time>
      </trkpt>
      <trkpt lat="43.38158" lon="4.81098">
        <ele>2.503259</ele>
        <time>2022-05-12T11:11:08.000Z</time>
      </trkpt>
      <trkpt lat="43.38158" lon="4.81103">
        <ele>2.509392</ele>
        <time>2022-05-12T11:11:10.000Z</time>
      </trkpt>
      <trkpt lat="43.38158" lon="4.81106">
        <ele>2.512411</ele>
        <time>2022-05-12T11:11:11.000Z</time>
      </trkpt>
      <trkpt lat="43.3815" lon="4.81116">
        <ele>2.529309</ele>
        <time>2022-05-12T11:11:16.000Z</time>
      </trkpt>
      <trkpt lat="43.3813" lon="4.81133">
        <ele>2.564731</ele>
        <time>2022-05-12T11:11:23.000Z</time>
      </trkpt>
      <trkpt lat="43.38108" lon="4.81152">
        <ele>2.60557</ele>
        <time>2022-05-12T11:11:30.000Z</time>
      </trkpt>
      <trkpt lat="43.381" lon="4.8116">
        <ele>2.619643</ele>
        <time>2022-05-12T11:11:32.000Z</time>
      </trkpt>
      <trkpt lat="43.38086" lon="4.81175">
        <ele>2.65744</ele>
        <time>2022-05-12T11:11:37.000Z</time>
      </trkpt>
      <trkpt lat="43.38067" lon="4.81191">
        <ele>2.712135</ele>
        <time>2022-05-12T11:11:43.000Z</time>
      </trkpt>
      <trkpt lat="43.38048" lon="4.8121">
        <ele>2.771402</ele>
        <time>2022-05-12T11:11:49.000Z</time>
      </trkpt>
      <trkpt lat="43.38041" lon="4.81217">
        <ele>2.792279</ele>
        <time>2022-05-12T11:11:51.000Z</time>
      </trkpt>
      <trkpt lat="43.38016" lon="4.81241">
        <ele>2.867225</ele>
        <time>2022-05-12T11:11:58.000Z</time>
      </trkpt>
      <trkpt lat="43.38011" lon="4.81249">
        <ele>2.887011</ele>
        <time>2022-05-12T11:12:00.000Z</time>
      </trkpt>
      <trkpt lat="43.37999" lon="4.81274">
        <ele>2.940167</ele>
        <time>2022-05-12T11:12:05.000Z</time>
      </trkpt>
      <trkpt lat="43.37983" lon="4.81325">
        <ele>3.0399</ele>
        <time>2022-05-12T11:12:14.000Z</time>
      </trkpt>
      <trkpt lat="43.3798" lon="4.81337">
        <ele>3.063207</ele>
        <time>2022-05-12T11:12:16.000Z</time>
      </trkpt>
      <trkpt lat="43.37967" lon="4.81375">
        <ele>3.072761</ele>
        <time>2022-05-12T11:12:22.000Z</time>
      </trkpt>
      <trkpt lat="43.37957" lon="4.81413">
        <ele>3.069088</ele>
        <time>2022-05-12T11:12:28.000Z</time>
      </trkpt>
      <trkpt lat="43.37953" lon="4.81426">
        <ele>3.067871</ele>
        <time>2022-05-12T11:12:30.000Z</time>
      </trkpt>
      <trkpt lat="43.37949" lon="4.81438">
        <ele>3.066675</ele>
        <time>2022-05-12T11:12:32.000Z</time>
      </trkpt>
      <trkpt lat="43.37946" lon="4.8145">
        <ele>3.065525</ele>
        <time>2022-05-12T11:12:34.000Z</time>
      </trkpt>
      <trkpt lat="43.37938" lon="4.81466">
        <ele>3.063809</ele>
        <time>2022-05-12T11:12:37.000Z</time>
      </trkpt>
      <trkpt lat="43.37936" lon="4.81471">
        <ele>3.063263</ele>
        <time>2022-05-12T11:12:38.000Z</time>
      </trkpt>
      <trkpt lat="43.37929" lon="4.81494">
        <ele>3.061085</ele>
        <time>2022-05-12T11:12:42.000Z</time>
      </trkpt>
      <trkpt lat="43.37928" lon="4.81506">
        <ele>3.059984</ele>
        <time>2022-05-12T11:12:44.000Z</time>
      </trkpt>
      <trkpt lat="43.37928" lon="4.81512">
        <ele>3.059424</ele>
        <time>2022-05-12T11:12:45.000Z</time>
      </trkpt>
      <trkpt lat="43.37925" lon="4.81523">
        <ele>3.058395</ele>
        <time>2022-05-12T11:12:47.000Z</time>
      </trkpt>
      <trkpt lat="43.37922" lon="4.81534">
        <ele>3.057341</ele>
        <time>2022-05-12T11:12:49.000Z</time>
      </trkpt>
      <trkpt lat="43.37911" lon="4.81573">
        <ele>3.053726</ele>
        <time>2022-05-12T11:12:56.000Z</time>
      </trkpt>
      <trkpt lat="43.37908" lon="4.81583">
        <ele>3.056897</ele>
        <time>2022-05-12T11:12:58.000Z</time>
      </trkpt>
      <trkpt lat="43.37906" lon="4.8159">
        <ele>3.059038</ele>
        <time>2022-05-12T11:12:59.000Z</time>
      </trkpt>
      <trkpt lat="43.37901" lon="4.81608">
        <ele>3.064357</ele>
        <time>2022-05-12T11:13:02.000Z</time>
      </trkpt>
      <trkpt lat="43.37892" lon="4.81644">
        <ele>3.074928</ele>
        <time>2022-05-12T11:13:08.000Z</time>
      </trkpt>
      <trkpt lat="43.3788" lon="4.81685">
        <ele>3.087338</ele>
        <time>2022-05-12T11:13:15.000Z</time>
      </trkpt>
      <trkpt lat="43.37878" lon="4.81691">
        <ele>3.089094</ele>
        <time>2022-05-12T11:13:16.000Z</time>
      </trkpt>
      <trkpt lat="43.37875" lon="4.81703">
        <ele>3.092555</ele>
        <time>2022-05-12T11:13:18.000Z</time>
      </trkpt>
      <trkpt lat="43.37867" lon="4.81731">
        <ele>3.101031</ele>
        <time>2022-05-12T11:13:23.000Z</time>
      </trkpt>
      <trkpt lat="43.37853" lon="4.81775">
        <ele>3.114232</ele>
        <time>2022-05-12T11:13:31.000Z</time>
      </trkpt>
      <trkpt lat="43.37834" lon="4.81843">
        <ele>3.053682</ele>
        <time>2022-05-12T11:13:43.000Z</time>
      </trkpt>
      <trkpt lat="43.37819" lon="4.81894">
        <ele>2.967891</ele>
        <time>2022-05-12T11:13:52.000Z</time>
      </trkpt>
      <trkpt lat="43.37811" lon="4.8192">
        <ele>2.922735</ele>
        <time>2022-05-12T11:13:57.000Z</time>
      </trkpt>
      <trkpt lat="43.37808" lon="4.81932">
        <ele>2.902406</ele>
        <time>2022-05-12T11:13:59.000Z</time>
      </trkpt>
      <trkpt lat="43.37805" lon="4.81944">
        <ele>2.883558</ele>
        <time>2022-05-12T11:14:01.000Z</time>
      </trkpt>
      <trkpt lat="43.37792" lon="4.81994">
        <ele>2.798681</ele>
        <time>2022-05-12T11:14:10.000Z</time>
      </trkpt>
      <trkpt lat="43.37783" lon="4.82022">
        <ele>2.749879</ele>
        <time>2022-05-12T11:14:15.000Z</time>
      </trkpt>
      <trkpt lat="43.37778" lon="4.82039">
        <ele>2.723149</ele>
        <time>2022-05-12T11:14:18.000Z</time>
      </trkpt>
      <trkpt lat="43.37768" lon="4.82074">
        <ele>2.673992</ele>
        <time>2022-05-12T11:14:24.000Z</time>
      </trkpt>
      <trkpt lat="43.37761" lon="4.82097">
        <ele>2.641048</ele>
        <time>2022-05-12T11:14:28.000Z</time>
      </trkpt>
      <trkpt lat="43.37751" lon="4.82132">
        <ele>2.591282</ele>
        <time>2022-05-12T11:14:34.000Z</time>
      </trkpt>
      <trkpt lat="43.37745" lon="4.82155">
        <ele>2.559261</ele>
        <time>2022-05-12T11:14:38.000Z</time>
      </trkpt>
      <trkpt lat="43.37731" lon="4.822">
        <ele>2.494632</ele>
        <time>2022-05-12T11:14:46.000Z</time>
      </trkpt>
      <trkpt lat="43.3773" lon="4.82205">
        <ele>2.487834</ele>
        <time>2022-05-12T11:14:47.000Z</time>
      </trkpt>
      <trkpt lat="43.37715" lon="4.82257">
        <ele>2.415345</ele>
        <time>2022-05-12T11:14:56.000Z</time>
      </trkpt>
      <trkpt lat="43.37699" lon="4.82312">
        <ele>2.441309</ele>
        <time>2022-05-12T11:15:06.000Z</time>
      </trkpt>
      <trkpt lat="43.37685" lon="4.82361">
        <ele>2.476213</ele>
        <time>2022-05-12T11:15:15.000Z</time>
      </trkpt>
      <trkpt lat="43.37684" lon="4.82392">
        <ele>2.496567</ele>
        <time>2022-05-12T11:15:21.000Z</time>
      </trkpt>
      <trkpt lat="43.37684" lon="4.82396">
        <ele>2.499179</ele>
        <time>2022-05-12T11:15:23.000Z</time>
      </trkpt>
      <trkpt lat="43.37685" lon="4.82396">
        <ele>2.499659</ele>
        <time>2022-05-12T11:15:24.000Z</time>
      </trkpt>
      <trkpt lat="43.37685" lon="4.82397">
        <ele>2.500325</ele>
        <time>2022-05-12T11:15:28.000Z</time>
      </trkpt>
      <trkpt lat="43.37684" lon="4.82402">
        <ele>2.503035</ele>
        <time>2022-05-12T11:15:31.000Z</time>
      </trkpt>
      <trkpt lat="43.37679" lon="4.8242">
        <ele>2.5159</ele>
        <time>2022-05-12T11:15:37.000Z</time>
      </trkpt>
      <trkpt lat="43.3767" lon="4.82448">
        <ele>2.536056</ele>
        <time>2022-05-12T11:15:44.000Z</time>
      </trkpt>
      <trkpt lat="43.37656" lon="4.82493">
        <ele>2.568327</ele>
        <time>2022-05-12T11:15:54.000Z</time>
      </trkpt>
      <trkpt lat="43.37647" lon="4.82522">
        <ele>2.611449</ele>
        <time>2022-05-12T11:16:00.000Z</time>
      </trkpt>
      <trkpt lat="43.37646" lon="4.82527">
        <ele>2.618806</ele>
        <time>2022-05-12T11:16:01.000Z</time>
      </trkpt>
      <trkpt lat="43.37644" lon="4.82532">
        <ele>2.626313</ele>
        <time>2022-05-12T11:16:02.000Z</time>
      </trkpt>
      <trkpt lat="43.37643" lon="4.82537">
        <ele>2.634</ele>
        <time>2022-05-12T11:16:03.000Z</time>
      </trkpt>
      <trkpt lat="43.37631" lon="4.82579">
        <ele>2.696717</ele>
        <time>2022-05-12T11:16:11.000Z</time>
      </trkpt>
      <trkpt lat="43.37627" lon="4.82595">
        <ele>2.720951</ele>
        <time>2022-05-12T11:16:14.000Z</time>
      </trkpt>
      <trkpt lat="43.37621" lon="4.82618">
        <ele>2.754184</ele>
        <time>2022-05-12T11:16:18.000Z</time>
      </trkpt>
      <trkpt lat="43.37613" lon="4.82646">
        <ele>2.797069</ele>
        <time>2022-05-12T11:16:23.000Z</time>
      </trkpt>
      <trkpt lat="43.37609" lon="4.82658">
        <ele>2.814467</ele>
        <time>2022-05-12T11:16:25.000Z</time>
      </trkpt>
      <trkpt lat="43.376" lon="4.82693">
        <ele>2.866157</ele>
        <time>2022-05-12T11:16:31.000Z</time>
      </trkpt>
      <trkpt lat="43.37593" lon="4.82715">
        <ele>2.900872</ele>
        <time>2022-05-12T11:16:35.000Z</time>
      </trkpt>
      <trkpt lat="43.37583" lon="4.8275">
        <ele>2.926236</ele>
        <time>2022-05-12T11:16:41.000Z</time>
      </trkpt>
      <trkpt lat="43.37572" lon="4.8279">
        <ele>2.942937</ele>
        <time>2022-05-12T11:16:48.000Z</time>
      </trkpt>
      <trkpt lat="43.3757" lon="4.82796">
        <ele>2.945442</ele>
        <time>2022-05-12T11:16:49.000Z</time>
      </trkpt>
      <trkpt lat="43.37562" lon="4.82828">
        <ele>2.958804</ele>
        <time>2022-05-12T11:16:54.000Z</time>
      </trkpt>
      <trkpt lat="43.37556" lon="4.82847">
        <ele>2.966935</ele>
        <time>2022-05-12T11:16:57.000Z</time>
      </trkpt>
      <trkpt lat="43.37549" lon="4.82872">
        <ele>2.977726</ele>
        <time>2022-05-12T11:17:01.000Z</time>
      </trkpt>
      <trkpt lat="43.37538" lon="4.8291">
        <ele>2.993831</ele>
        <time>2022-05-12T11:17:07.000Z</time>
      </trkpt>
      <trkpt lat="43.37519" lon="4.82977">
        <ele>3.017976</ele>
        <time>2022-05-12T11:17:18.000Z</time>
      </trkpt>
      <trkpt lat="43.37499" lon="4.83045">
        <ele>3.033565</ele>
        <time>2022-05-12T11:17:29.000Z</time>
      </trkpt>
      <trkpt lat="43.37479" lon="4.83115">
        <ele>3.049486</ele>
        <time>2022-05-12T11:17:40.000Z</time>
      </trkpt>
      <trkpt lat="43.37473" lon="4.83133">
        <ele>3.053799</ele>
        <time>2022-05-12T11:17:43.000Z</time>
      </trkpt>
      <trkpt lat="43.37456" lon="4.83196">
        <ele>3.060831</ele>
        <time>2022-05-12T11:17:53.000Z</time>
      </trkpt>
      <trkpt lat="43.37446" lon="4.83233">
        <ele>3.042449</ele>
        <time>2022-05-12T11:17:59.000Z</time>
      </trkpt>
      <trkpt lat="43.37437" lon="4.83264">
        <ele>3.027383</ele>
        <time>2022-05-12T11:18:04.000Z</time>
      </trkpt>
      <trkpt lat="43.37419" lon="4.83329">
        <ele>2.995668</ele>
        <time>2022-05-12T11:18:14.000Z</time>
      </trkpt>
      <trkpt lat="43.37402" lon="4.83386">
        <ele>2.967338</ele>
        <time>2022-05-12T11:18:23.000Z</time>
      </trkpt>
      <trkpt lat="43.37397" lon="4.83405">
        <ele>2.95805</ele>
        <time>2022-05-12T11:18:26.000Z</time>
      </trkpt>
      <trkpt lat="43.3739" lon="4.83431">
        <ele>2.956871</ele>
        <time>2022-05-12T11:18:30.000Z</time>
      </trkpt>
      <trkpt lat="43.37386" lon="4.83443">
        <ele>2.960483</ele>
        <time>2022-05-12T11:18:32.000Z</time>
      </trkpt>
      <trkpt lat="43.3738" lon="4.83466">
        <ele>2.967471</ele>
        <time>2022-05-12T11:18:36.000Z</time>
      </trkpt>
      <trkpt lat="43.37369" lon="4.83503">
        <ele>2.978503</ele>
        <time>2022-05-12T11:18:42.000Z</time>
      </trkpt>
      <trkpt lat="43.37363" lon="4.83522">
        <ele>2.984198</ele>
        <time>2022-05-12T11:18:45.000Z</time>
      </trkpt>
      <trkpt lat="43.37359" lon="4.83535">
        <ele>2.988048</ele>
        <time>2022-05-12T11:18:47.000Z</time>
      </trkpt>
      <trkpt lat="43.37351" lon="4.83561">
        <ele>2.996017</ele>
        <time>2022-05-12T11:18:51.000Z</time>
      </trkpt>
      <trkpt lat="43.37341" lon="4.83592">
        <ele>3.00562</ele>
        <time>2022-05-12T11:18:56.000Z</time>
      </trkpt>
      <trkpt lat="43.37337" lon="4.83605">
        <ele>3.009537</ele>
        <time>2022-05-12T11:18:58.000Z</time>
      </trkpt>
      <trkpt lat="43.37317" lon="4.8366">
        <ele>3.000097</ele>
        <time>2022-05-12T11:19:07.000Z</time>
      </trkpt>
      <trkpt lat="43.373" lon="4.83705">
        <ele>2.941685</ele>
        <time>2022-05-12T11:19:15.000Z</time>
      </trkpt>
      <trkpt lat="43.37286" lon="4.83745">
        <ele>2.889168</ele>
        <time>2022-05-12T11:19:22.000Z</time>
      </trkpt>
      <trkpt lat="43.37279" lon="4.83763">
        <ele>2.866328</ele>
        <time>2022-05-12T11:19:25.000Z</time>
      </trkpt>
      <trkpt lat="43.37277" lon="4.83769">
        <ele>2.858412</ele>
        <time>2022-05-12T11:19:26.000Z</time>
      </trkpt>
      <trkpt lat="43.37253" lon="4.83834">
        <ele>2.773322</ele>
        <time>2022-05-12T11:19:37.000Z</time>
      </trkpt>
      <trkpt lat="43.37234" lon="4.83887">
        <ele>2.745806</ele>
        <time>2022-05-12T11:19:46.000Z</time>
      </trkpt>
      <trkpt lat="43.3723" lon="4.83898">
        <ele>2.752019</ele>
        <time>2022-05-12T11:19:48.000Z</time>
      </trkpt>
      <trkpt lat="43.37212" lon="4.83949">
        <ele>2.779596</ele>
        <time>2022-05-12T11:19:57.000Z</time>
      </trkpt>
      <trkpt lat="43.37203" lon="4.83973">
        <ele>2.792546</ele>
        <time>2022-05-12T11:20:01.000Z</time>
      </trkpt>
      <trkpt lat="43.37192" lon="4.84001">
        <ele>2.808304</ele>
        <time>2022-05-12T11:20:06.000Z</time>
      </trkpt>
      <trkpt lat="43.37175" lon="4.84049">
        <ele>2.834233</ele>
        <time>2022-05-12T11:20:14.000Z</time>
      </trkpt>
      <trkpt lat="43.37155" lon="4.84106">
        <ele>2.857563</ele>
        <time>2022-05-12T11:20:24.000Z</time>
      </trkpt>
      <trkpt lat="43.37132" lon="4.84166">
        <ele>2.866385</ele>
        <time>2022-05-12T11:20:34.000Z</time>
      </trkpt>
      <trkpt lat="43.3711" lon="4.84227">
        <ele>2.875256</ele>
        <time>2022-05-12T11:20:44.000Z</time>
      </trkpt>
      <trkpt lat="43.37087" lon="4.84288">
        <ele>2.88425</ele>
        <time>2022-05-12T11:20:54.000Z</time>
      </trkpt>
      <trkpt lat="43.37062" lon="4.84356">
        <ele>2.810134</ele>
        <time>2022-05-12T11:21:05.000Z</time>
      </trkpt>
      <trkpt lat="43.37037" lon="4.84426">
        <ele>2.701839</ele>
        <time>2022-05-12T11:21:17.000Z</time>
      </trkpt>
      <trkpt lat="43.37013" lon="4.84491">
        <ele>2.601556</ele>
        <time>2022-05-12T11:21:28.000Z</time>
      </trkpt>
      <trkpt lat="43.36995" lon="4.84543">
        <ele>2.542292</ele>
        <time>2022-05-12T11:21:38.000Z</time>
      </trkpt>
      <trkpt lat="43.36993" lon="4.84547">
        <ele>2.54176</ele>
        <time>2022-05-12T11:21:39.000Z</time>
      </trkpt>
      <trkpt lat="43.36976" lon="4.84595">
        <ele>2.536322</ele>
        <time>2022-05-12T11:21:49.000Z</time>
      </trkpt>
      <trkpt lat="43.36958" lon="4.84639">
        <ele>2.5311</ele>
        <time>2022-05-12T11:21:58.000Z</time>
      </trkpt>
      <trkpt lat="43.36942" lon="4.84676">
        <ele>2.526661</ele>
        <time>2022-05-12T11:22:05.000Z</time>
      </trkpt>
      <trkpt lat="43.36923" lon="4.84725">
        <ele>2.520914</ele>
        <time>2022-05-12T11:22:15.000Z</time>
      </trkpt>
      <trkpt lat="43.36905" lon="4.84774">
        <ele>2.529992</ele>
        <time>2022-05-12T11:22:25.000Z</time>
      </trkpt>
      <trkpt lat="43.36889" lon="4.84818">
        <ele>2.547955</ele>
        <time>2022-05-12T11:22:34.000Z</time>
      </trkpt>
      <trkpt lat="43.36871" lon="4.84867">
        <ele>2.568206</ele>
        <time>2022-05-12T11:22:44.000Z</time>
      </trkpt>
      <trkpt lat="43.36855" lon="4.84909">
        <ele>2.585622</ele>
        <time>2022-05-12T11:22:53.000Z</time>
      </trkpt>
      <trkpt lat="43.36839" lon="4.84954">
        <ele>2.604124</ele>
        <time>2022-05-12T11:23:02.000Z</time>
      </trkpt>
      <trkpt lat="43.36837" lon="4.84959">
        <ele>2.606162</ele>
        <time>2022-05-12T11:23:03.000Z</time>
      </trkpt>
      <trkpt lat="43.36819" lon="4.85013">
        <ele>2.349649</ele>
        <time>2022-05-12T11:23:13.000Z</time>
      </trkpt>
      <trkpt lat="43.36801" lon="4.85063">
        <ele>2.065169</ele>
        <time>2022-05-12T11:23:22.000Z</time>
      </trkpt>
      <trkpt lat="43.36795" lon="4.8508">
        <ele>1.96992</ele>
        <time>2022-05-12T11:23:25.000Z</time>
      </trkpt>
      <trkpt lat="43.36782" lon="4.85118">
        <ele>1.753024</ele>
        <time>2022-05-12T11:23:32.000Z</time>
      </trkpt>
      <trkpt lat="43.36757" lon="4.85186">
        <ele>1.363005</ele>
        <time>2022-05-12T11:23:44.000Z</time>
      </trkpt>
      <trkpt lat="43.3674" lon="4.85233">
        <ele>1.275517</ele>
        <time>2022-05-12T11:23:52.000Z</time>
      </trkpt>
      <trkpt lat="43.36722" lon="4.85285">
        <ele>1.194696</ele>
        <time>2022-05-12T11:24:01.000Z</time>
      </trkpt>
      <trkpt lat="43.36697" lon="4.85353">
        <ele>1.088908</ele>
        <time>2022-05-12T11:24:13.000Z</time>
      </trkpt>
      <trkpt lat="43.36695" lon="4.85358">
        <ele>1.081822</ele>
        <time>2022-05-12T11:24:14.000Z</time>
      </trkpt>
      <trkpt lat="43.36676" lon="4.85411">
        <ele>0.999501</ele>
        <time>2022-05-12T11:24:23.000Z</time>
      </trkpt>
      <trkpt lat="43.36675" lon="4.85416">
        <ele>1.006138</ele>
        <time>2022-05-12T11:24:24.000Z</time>
      </trkpt>
      <trkpt lat="43.36666" lon="4.8544">
        <ele>1.052486</ele>
        <time>2022-05-12T11:24:29.000Z</time>
      </trkpt>
      <trkpt lat="43.36652" lon="4.85478">
        <ele>1.125504</ele>
        <time>2022-05-12T11:24:37.000Z</time>
      </trkpt>
      <trkpt lat="43.36634" lon="4.85528">
        <ele>1.221417</ele>
        <time>2022-05-12T11:24:47.000Z</time>
      </trkpt>
      <trkpt lat="43.36631" lon="4.85533">
        <ele>1.231939</ele>
        <time>2022-05-12T11:24:48.000Z</time>
      </trkpt>
      <trkpt lat="43.36606" lon="4.85583">
        <ele>1.335735</ele>
        <time>2022-05-12T11:24:58.000Z</time>
      </trkpt>
      <trkpt lat="43.36596" lon="4.85604">
        <ele>1.377737</ele>
        <time>2022-05-12T11:25:02.000Z</time>
      </trkpt>
      <trkpt lat="43.36584" lon="4.85636">
        <ele>1.467495</ele>
        <time>2022-05-12T11:25:08.000Z</time>
      </trkpt>
      <trkpt lat="43.3658" lon="4.85654">
        <ele>1.549349</ele>
        <time>2022-05-12T11:25:11.000Z</time>
      </trkpt>
      <trkpt lat="43.36573" lon="4.85677">
        <ele>1.657928</ele>
        <time>2022-05-12T11:25:15.000Z</time>
      </trkpt>
      <trkpt lat="43.3657" lon="4.85695">
        <ele>1.738198</ele>
        <time>2022-05-12T11:25:18.000Z</time>
      </trkpt>
      <trkpt lat="43.36556" lon="4.85757">
        <ele>2.020381</ele>
        <time>2022-05-12T11:25:28.000Z</time>
      </trkpt>
      <trkpt lat="43.36547" lon="4.85793">
        <ele>2.186953</ele>
        <time>2022-05-12T11:25:34.000Z</time>
      </trkpt>
      <trkpt lat="43.36543" lon="4.85805">
        <ele>2.24459</ele>
        <time>2022-05-12T11:25:36.000Z</time>
      </trkpt>
      <trkpt lat="43.36529" lon="4.85852">
        <ele>2.46425</ele>
        <time>2022-05-12T11:25:44.000Z</time>
      </trkpt>
      <trkpt lat="43.36524" lon="4.85868">
        <ele>2.500641</ele>
        <time>2022-05-12T11:25:47.000Z</time>
      </trkpt>
      <trkpt lat="43.36523" lon="4.85873">
        <ele>2.501626</ele>
        <time>2022-05-12T11:25:48.000Z</time>
      </trkpt>
      <trkpt lat="43.36517" lon="4.85895">
        <ele>2.505441</ele>
        <time>2022-05-12T11:25:52.000Z</time>
      </trkpt>
      <trkpt lat="43.36509" lon="4.85922">
        <ele>2.510307</ele>
        <time>2022-05-12T11:25:57.000Z</time>
      </trkpt>
      <trkpt lat="43.36505" lon="4.85939">
        <ele>2.513262</ele>
        <time>2022-05-12T11:26:00.000Z</time>
      </trkpt>
      <trkpt lat="43.36495" lon="4.85979">
        <ele>2.520292</ele>
        <time>2022-05-12T11:26:07.000Z</time>
      </trkpt>
      <trkpt lat="43.36487" lon="4.86007">
        <ele>2.525295</ele>
        <time>2022-05-12T11:26:12.000Z</time>
      </trkpt>
      <trkpt lat="43.36481" lon="4.86036">
        <ele>2.530443</ele>
        <time>2022-05-12T11:26:17.000Z</time>
      </trkpt>
      <trkpt lat="43.36465" lon="4.8611">
        <ele>2.550331</ele>
        <time>2022-05-12T11:26:29.000Z</time>
      </trkpt>
      <trkpt lat="43.36451" lon="4.86176">
        <ele>2.588434</ele>
        <time>2022-05-12T11:26:40.000Z</time>
      </trkpt>
      <trkpt lat="43.3644" lon="4.86227">
        <ele>2.618194</ele>
        <time>2022-05-12T11:26:49.000Z</time>
      </trkpt>
      <trkpt lat="43.36428" lon="4.86282">
        <ele>2.650357</ele>
        <time>2022-05-12T11:26:59.000Z</time>
      </trkpt>
      <trkpt lat="43.36418" lon="4.86327">
        <ele>2.676723</ele>
        <time>2022-05-12T11:27:07.000Z</time>
      </trkpt>
      <trkpt lat="43.36417" lon="4.86333">
        <ele>2.660704</ele>
        <time>2022-05-12T11:27:08.000Z</time>
      </trkpt>
      <trkpt lat="43.36409" lon="4.86391">
        <ele>2.286824</ele>
        <time>2022-05-12T11:27:18.000Z</time>
      </trkpt>
      <trkpt lat="43.36399" lon="4.86449">
        <ele>1.909001</ele>
        <time>2022-05-12T11:27:28.000Z</time>
      </trkpt>
      <trkpt lat="43.36396" lon="4.8646">
        <ele>1.830792</ele>
        <time>2022-05-12T11:27:30.000Z</time>
      </trkpt>
      <trkpt lat="43.36382" lon="4.86498">
        <ele>1.5616</ele>
        <time>2022-05-12T11:27:37.000Z</time>
      </trkpt>
      <trkpt lat="43.36369" lon="4.8653">
        <ele>1.329627</ele>
        <time>2022-05-12T11:27:43.000Z</time>
      </trkpt>
      <trkpt lat="43.36359" lon="4.86557">
        <ele>1.137076</ele>
        <time>2022-05-12T11:27:48.000Z</time>
      </trkpt>
      <trkpt lat="43.36353" lon="4.86573">
        <ele>1.104299</ele>
        <time>2022-05-12T11:27:51.000Z</time>
      </trkpt>
      <trkpt lat="43.36343" lon="4.86601">
        <ele>1.084238</ele>
        <time>2022-05-12T11:27:56.000Z</time>
      </trkpt>
      <trkpt lat="43.36332" lon="4.86647">
        <ele>1.053245</ele>
        <time>2022-05-12T11:28:04.000Z</time>
      </trkpt>
      <trkpt lat="43.36324" lon="4.86694">
        <ele>1.022281</ele>
        <time>2022-05-12T11:28:12.000Z</time>
      </trkpt>
      <trkpt lat="43.36314" lon="4.86752">
        <ele>0.984046</ele>
        <time>2022-05-12T11:28:22.000Z</time>
      </trkpt>
      <trkpt lat="43.3631" lon="4.86775">
        <ele>0.969361</ele>
        <time>2022-05-12T11:28:26.000Z</time>
      </trkpt>
      <trkpt lat="43.36305" lon="4.86798">
        <ele>0.955133</ele>
        <time>2022-05-12T11:28:31.000Z</time>
      </trkpt>
      <trkpt lat="43.36298" lon="4.8684">
        <ele>0.968098</ele>
        <time>2022-05-12T11:28:39.000Z</time>
      </trkpt>
      <trkpt lat="43.36297" lon="4.86846">
        <ele>0.969773</ele>
        <time>2022-05-12T11:28:40.000Z</time>
      </trkpt>
      <trkpt lat="43.3629" lon="4.86883">
        <ele>0.981175</ele>
        <time>2022-05-12T11:28:48.000Z</time>
      </trkpt>
      <trkpt lat="43.36283" lon="4.86923">
        <ele>0.993295</ele>
        <time>2022-05-12T11:28:57.000Z</time>
      </trkpt>
      <trkpt lat="43.36275" lon="4.8697">
        <ele>1.007622</ele>
        <time>2022-05-12T11:29:06.000Z</time>
      </trkpt>
      <trkpt lat="43.36267" lon="4.87016">
        <ele>1.021631</ele>
        <time>2022-05-12T11:29:14.000Z</time>
      </trkpt>
      <trkpt lat="43.36258" lon="4.87064">
        <ele>1.069798</ele>
        <time>2022-05-12T11:29:22.000Z</time>
      </trkpt>
      <trkpt lat="43.36249" lon="4.87111">
        <ele>1.143298</ele>
        <time>2022-05-12T11:29:30.000Z</time>
      </trkpt>
      <trkpt lat="43.3624" lon="4.87166">
        <ele>1.227069</ele>
        <time>2022-05-12T11:29:39.000Z</time>
      </trkpt>
      <trkpt lat="43.36234" lon="4.87194">
        <ele>1.271283</ele>
        <time>2022-05-12T11:29:44.000Z</time>
      </trkpt>
      <trkpt lat="43.36232" lon="4.87205">
        <ele>1.288336</ele>
        <time>2022-05-12T11:29:46.000Z</time>
      </trkpt>
      <trkpt lat="43.36229" lon="4.87216">
        <ele>1.305101</ele>
        <time>2022-05-12T11:29:48.000Z</time>
      </trkpt>
      <trkpt lat="43.36217" lon="4.8725">
        <ele>1.36302</ele>
        <time>2022-05-12T11:29:55.000Z</time>
      </trkpt>
      <trkpt lat="43.36198" lon="4.87272">
        <ele>1.405255</ele>
        <time>2022-05-12T11:30:01.000Z</time>
      </trkpt>
      <trkpt lat="43.36157" lon="4.87298">
        <ele>1.441206</ele>
        <time>2022-05-12T11:30:12.000Z</time>
      </trkpt>
      <trkpt lat="43.36131" lon="4.87315">
        <ele>1.464062</ele>
        <time>2022-05-12T11:30:19.000Z</time>
      </trkpt>
      <trkpt lat="43.36126" lon="4.8732">
        <ele>1.469296</ele>
        <time>2022-05-12T11:30:21.000Z</time>
      </trkpt>
      <trkpt lat="43.36113" lon="4.87332">
        <ele>1.481525</ele>
        <time>2022-05-12T11:30:26.000Z</time>
      </trkpt>
      <trkpt lat="43.3611" lon="4.87334">
        <ele>1.484056</ele>
        <time>2022-05-12T11:30:30.000Z</time>
      </trkpt>
      <trkpt lat="43.3611" lon="4.87334">
        <ele>1.484056</ele>
        <time>2022-05-12T11:30:39.000Z</time>
      </trkpt>
      <trkpt lat="43.3611" lon="4.87334">
        <ele>1.484056</ele>
        <time>2022-05-12T11:30:44.000Z</time>
      </trkpt>
      <trkpt lat="43.3611" lon="4.87334">
        <ele>1.484056</ele>
        <time>2022-05-12T11:30:49.000Z</time>
      </trkpt>
      <trkpt lat="43.36105" lon="4.8734">
        <ele>1.489668</ele>
        <time>2022-05-12T11:31:05.000Z</time>
      </trkpt>
      <trkpt lat="43.36096" lon="4.87355">
        <ele>1.500798</ele>
        <time>2022-05-12T11:31:10.000Z</time>
      </trkpt>
      <trkpt lat="43.36094" lon="4.87358">
        <ele>1.503196</ele>
        <time>2022-05-12T11:31:11.000Z</time>
      </trkpt>
      <trkpt lat="43.36081" lon="4.87392">
        <ele>1.52572</ele>
        <time>2022-05-12T11:31:20.000Z</time>
      </trkpt>
      <trkpt lat="43.3607" lon="4.87433">
        <ele>1.527425</ele>
        <time>2022-05-12T11:31:29.000Z</time>
      </trkpt>
      <trkpt lat="43.36069" lon="4.87437">
        <ele>1.521385</ele>
        <time>2022-05-12T11:31:30.000Z</time>
      </trkpt>
      <trkpt lat="43.36065" lon="4.8745">
        <ele>1.503478</ele>
        <time>2022-05-12T11:31:33.000Z</time>
      </trkpt>
      <trkpt lat="43.36059" lon="4.87472">
        <ele>1.474512</ele>
        <time>2022-05-12T11:31:38.000Z</time>
      </trkpt>
      <trkpt lat="43.36057" lon="4.87481">
        <ele>1.462778</ele>
        <time>2022-05-12T11:31:40.000Z</time>
      </trkpt>
      <trkpt lat="43.36049" lon="4.87508">
        <ele>1.426687</ele>
        <time>2022-05-12T11:31:46.000Z</time>
      </trkpt>
      <trkpt lat="43.36047" lon="4.87513">
        <ele>1.4201</ele>
        <time>2022-05-12T11:31:47.000Z</time>
      </trkpt>
      <trkpt lat="43.36044" lon="4.87522">
        <ele>1.407143</ele>
        <time>2022-05-12T11:31:49.000Z</time>
      </trkpt>
      <trkpt lat="43.36034" lon="4.87556">
        <ele>1.361273</ele>
        <time>2022-05-12T11:31:56.000Z</time>
      </trkpt>
      <trkpt lat="43.36031" lon="4.87566">
        <ele>1.348399</ele>
        <time>2022-05-12T11:31:58.000Z</time>
      </trkpt>
      <trkpt lat="43.36024" lon="4.87583">
        <ele>1.323013</ele>
        <time>2022-05-12T11:32:02.000Z</time>
      </trkpt>
      <trkpt lat="43.36012" lon="4.87604">
        <ele>1.290219</ele>
        <time>2022-05-12T11:32:07.000Z</time>
      </trkpt>
      <trkpt lat="43.35989" lon="4.87633">
        <ele>1.236808</ele>
        <time>2022-05-12T11:32:15.000Z</time>
      </trkpt>
      <trkpt lat="43.35973" lon="4.87648">
        <ele>1.163966</ele>
        <time>2022-05-12T11:32:20.000Z</time>
      </trkpt>
      <trkpt lat="43.35955" lon="4.87661">
        <ele>1.083544</ele>
        <time>2022-05-12T11:32:25.000Z</time>
      </trkpt>
      <trkpt lat="43.35935" lon="4.87668">
        <ele>1.003753</ele>
        <time>2022-05-12T11:32:30.000Z</time>
      </trkpt>
      <trkpt lat="43.35919" lon="4.87672">
        <ele>0.937874</ele>
        <time>2022-05-12T11:32:34.000Z</time>
      </trkpt>
      <trkpt lat="43.35907" lon="4.87675">
        <ele>0.88879</ele>
        <time>2022-05-12T11:32:37.000Z</time>
      </trkpt>
      <trkpt lat="43.35898" lon="4.87677">
        <ele>0.855496</ele>
        <time>2022-05-12T11:32:39.000Z</time>
      </trkpt>
      <trkpt lat="43.35886" lon="4.8768">
        <ele>0.807235</ele>
        <time>2022-05-12T11:32:42.000Z</time>
      </trkpt>
      <trkpt lat="43.35882" lon="4.87681">
        <ele>0.791102</ele>
        <time>2022-05-12T11:32:43.000Z</time>
      </trkpt>
      <trkpt lat="43.35853" lon="4.87688">
        <ele>0.673761</ele>
        <time>2022-05-12T11:32:50.000Z</time>
      </trkpt>
      <trkpt lat="43.35845" lon="4.87691">
        <ele>0.640783</ele>
        <time>2022-05-12T11:32:52.000Z</time>
      </trkpt>
      <trkpt lat="43.35841" lon="4.87692">
        <ele>0.623878</ele>
        <time>2022-05-12T11:32:53.000Z</time>
      </trkpt>
      <trkpt lat="43.35832" lon="4.87694">
        <ele>0.58964</ele>
        <time>2022-05-12T11:32:55.000Z</time>
      </trkpt>
      <trkpt lat="43.35824" lon="4.87696">
        <ele>0.555658</ele>
        <time>2022-05-12T11:32:57.000Z</time>
      </trkpt>
      <trkpt lat="43.35812" lon="4.877">
        <ele>0.523518</ele>
        <time>2022-05-12T11:33:00.000Z</time>
      </trkpt>
      <trkpt lat="43.35788" lon="4.87705">
        <ele>0.512029</ele>
        <time>2022-05-12T11:33:06.000Z</time>
      </trkpt>
      <trkpt lat="43.35781" lon="4.87707">
        <ele>0.508283</ele>
        <time>2022-05-12T11:33:08.000Z</time>
      </trkpt>
      <trkpt lat="43.35736" lon="4.87719">
        <ele>0.485905</ele>
        <time>2022-05-12T11:33:20.000Z</time>
      </trkpt>
      <trkpt lat="43.35695" lon="4.8773">
        <ele>0.465573</ele>
        <time>2022-05-12T11:33:30.000Z</time>
      </trkpt>
      <trkpt lat="43.35675" lon="4.87735">
        <ele>0.45541</ele>
        <time>2022-05-12T11:33:35.000Z</time>
      </trkpt>
      <trkpt lat="43.35658" lon="4.87738">
        <ele>0.447301</ele>
        <time>2022-05-12T11:33:39.000Z</time>
      </trkpt>
      <trkpt lat="43.35607" lon="4.87752">
        <ele>0.438543</ele>
        <time>2022-05-12T11:33:51.000Z</time>
      </trkpt>
      <trkpt lat="43.35568" lon="4.87762">
        <ele>0.439436</ele>
        <time>2022-05-12T11:34:01.000Z</time>
      </trkpt>
      <trkpt lat="43.35551" lon="4.87767">
        <ele>0.439833</ele>
        <time>2022-05-12T11:34:05.000Z</time>
      </trkpt>
      <trkpt lat="43.35526" lon="4.87776">
        <ele>0.440393</ele>
        <time>2022-05-12T11:34:11.000Z</time>
      </trkpt>
      <trkpt lat="43.35484" lon="4.87794">
        <ele>0.441387</ele>
        <time>2022-05-12T11:34:22.000Z</time>
      </trkpt>
      <trkpt lat="43.3545" lon="4.87812">
        <ele>0.36495</ele>
        <time>2022-05-12T11:34:31.000Z</time>
      </trkpt>
      <trkpt lat="43.35439" lon="4.87819">
        <ele>0.307008</ele>
        <time>2022-05-12T11:34:34.000Z</time>
      </trkpt>
      <trkpt lat="43.35418" lon="4.87836">
        <ele>0.194988</ele>
        <time>2022-05-12T11:34:40.000Z</time>
      </trkpt>
      <trkpt lat="43.35388" lon="4.8786">
        <ele>0.035743</ele>
        <time>2022-05-12T11:34:49.000Z</time>
      </trkpt>
      <trkpt lat="43.35369" lon="4.87876">
        <ele>-0.068554</ele>
        <time>2022-05-12T11:34:56.000Z</time>
      </trkpt>
      <trkpt lat="43.35362" lon="4.87891">
        <ele>-0.129115</ele>
        <time>2022-05-12T11:35:00.000Z</time>
      </trkpt>
      <trkpt lat="43.35346" lon="4.87901">
        <ele>-0.210458</ele>
        <time>2022-05-12T11:35:06.000Z</time>
      </trkpt>
      <trkpt lat="43.35332" lon="4.87893">
        <ele>-0.280094</ele>
        <time>2022-05-12T11:35:11.000Z</time>
      </trkpt>
      <trkpt lat="43.35317" lon="4.87902">
        <ele>-0.358846</ele>
        <time>2022-05-12T11:35:16.000Z</time>
      </trkpt>
      <trkpt lat="43.35305" lon="4.87919">
        <ele>-0.402974</ele>
        <time>2022-05-12T11:35:22.000Z</time>
      </trkpt>
      <trkpt lat="43.35304" lon="4.87922">
        <ele>-0.405827</ele>
        <time>2022-05-12T11:35:26.000Z</time>
      </trkpt>
      <trkpt lat="43.35304" lon="4.87922">
        <ele>-0.405827</ele>
        <time>2022-05-12T11:35:36.000Z</time>
      </trkpt>
      <trkpt lat="43.35304" lon="4.87922">
        <ele>-0.405827</ele>
        <time>2022-05-12T11:35:40.000Z</time>
      </trkpt>
      <trkpt lat="43.35299" lon="4.87928">
        <ele>-0.412354</ele>
        <time>2022-05-12T11:36:11.000Z</time>
      </trkpt>
      <trkpt lat="43.35298" lon="4.87937">
        <ele>-0.420302</ele>
        <time>2022-05-12T11:36:16.000Z</time>
      </trkpt>
      <trkpt lat="43.35297" lon="4.87939">
        <ele>-0.42214</ele>
        <time>2022-05-12T11:36:17.000Z</time>
      </trkpt>
      <trkpt lat="43.35286" lon="4.87951">
        <ele>-0.43726</ele>
        <time>2022-05-12T11:36:23.000Z</time>
      </trkpt>
      <trkpt lat="43.35268" lon="4.87976">
        <ele>-0.464604</ele>
        <time>2022-05-12T11:36:33.000Z</time>
      </trkpt>
      <trkpt lat="43.35257" lon="4.87995">
        <ele>-0.483917</ele>
        <time>2022-05-12T11:36:42.000Z</time>
      </trkpt>
      <trkpt lat="43.35242" lon="4.8802">
        <ele>-0.509431</ele>
        <time>2022-05-12T11:36:53.000Z</time>
      </trkpt>
      <trkpt lat="43.35242" lon="4.88021">
        <ele>-0.50999</ele>
        <time>2022-05-12T11:36:54.000Z</time>
      </trkpt>
      <trkpt lat="43.3574" lon="4.87719">
        <ele>1.601832</ele>
        <time>2022-05-12T12:17:34.000Z</time>
      </trkpt>
      <trkpt lat="43.35737" lon="4.87704">
        <ele>1.624016</ele>
        <time>2022-05-12T12:17:35.000Z</time>
      </trkpt>
      <trkpt lat="43.35739" lon="4.87709">
        <ele>1.632512</ele>
        <time>2022-05-12T12:17:37.000Z</time>
      </trkpt>
      <trkpt lat="43.35749" lon="4.87711">
        <ele>1.653123</ele>
        <time>2022-05-12T12:17:39.000Z</time>
      </trkpt>
      <trkpt lat="43.35753" lon="4.8771">
        <ele>1.659648</ele>
        <time>2022-05-12T12:17:40.000Z</time>
      </trkpt>
      <trkpt lat="43.35756" lon="4.87709">
        <ele>1.666544</ele>
        <time>2022-05-12T12:17:41.000Z</time>
      </trkpt>
      <trkpt lat="43.35765" lon="4.87709">
        <ele>1.684212</ele>
        <time>2022-05-12T12:17:43.000Z</time>
      </trkpt>
      <trkpt lat="43.35781" lon="4.87706">
        <ele>1.716028</ele>
        <time>2022-05-12T12:17:47.000Z</time>
      </trkpt>
      <trkpt lat="43.35785" lon="4.87705">
        <ele>1.724802</ele>
        <time>2022-05-12T12:17:48.000Z</time>
      </trkpt>
      <trkpt lat="43.35793" lon="4.87702">
        <ele>1.724983</ele>
        <time>2022-05-12T12:17:50.000Z</time>
      </trkpt>
      <trkpt lat="43.35808" lon="4.877">
        <ele>1.689045</ele>
        <time>2022-05-12T12:17:53.000Z</time>
      </trkpt>
      <trkpt lat="43.35829" lon="4.87695">
        <ele>1.636935</ele>
        <time>2022-05-12T12:17:57.000Z</time>
      </trkpt>
      <trkpt lat="43.35853" lon="4.87688">
        <ele>1.574419</ele>
        <time>2022-05-12T12:18:02.000Z</time>
      </trkpt>
      <trkpt lat="43.3587" lon="4.87683">
        <ele>1.532011</ele>
        <time>2022-05-12T12:18:05.000Z</time>
      </trkpt>
      <trkpt lat="43.35881" lon="4.8768">
        <ele>1.505529</ele>
        <time>2022-05-12T12:18:07.000Z</time>
      </trkpt>
      <trkpt lat="43.35896" lon="4.87676">
        <ele>1.467765</ele>
        <time>2022-05-12T12:18:10.000Z</time>
      </trkpt>
      <trkpt lat="43.3594" lon="4.87665">
        <ele>1.355889</ele>
        <time>2022-05-12T12:18:18.000Z</time>
      </trkpt>
      <trkpt lat="43.35973" lon="4.87649">
        <ele>1.278052</ele>
        <time>2022-05-12T12:18:24.000Z</time>
      </trkpt>
      <trkpt lat="43.36002" lon="4.87622">
        <ele>1.223488</ele>
        <time>2022-05-12T12:18:30.000Z</time>
      </trkpt>
      <trkpt lat="43.36007" lon="4.87617">
        <ele>1.214056</ele>
        <time>2022-05-12T12:18:31.000Z</time>
      </trkpt>
      <trkpt lat="43.36018" lon="4.87602">
        <ele>1.190137</ele>
        <time>2022-05-12T12:18:34.000Z</time>
      </trkpt>
      <trkpt lat="43.36031" lon="4.87576">
        <ele>1.153941</ele>
        <time>2022-05-12T12:18:38.000Z</time>
      </trkpt>
      <trkpt lat="43.36042" lon="4.87548">
        <ele>1.117549</ele>
        <time>2022-05-12T12:18:42.000Z</time>
      </trkpt>
      <trkpt lat="43.36049" lon="4.87525">
        <ele>1.089953</ele>
        <time>2022-05-12T12:18:45.000Z</time>
      </trkpt>
      <trkpt lat="43.36068" lon="4.87453">
        <ele>1.019492</ele>
        <time>2022-05-12T12:18:55.000Z</time>
      </trkpt>
      <trkpt lat="43.36073" lon="4.87436">
        <ele>1.040382</ele>
        <time>2022-05-12T12:18:57.000Z</time>
      </trkpt>
      <trkpt lat="43.36079" lon="4.87415">
        <ele>1.067284</ele>
        <time>2022-05-12T12:19:00.000Z</time>
      </trkpt>
      <trkpt lat="43.36098" lon="4.87355">
        <ele>1.145742</ele>
        <time>2022-05-12T12:19:09.000Z</time>
      </trkpt>
      <trkpt lat="43.36104" lon="4.87343">
        <ele>1.163671</ele>
        <time>2022-05-12T12:19:11.000Z</time>
      </trkpt>
      <trkpt lat="43.36117" lon="4.87327">
        <ele>1.191223</ele>
        <time>2022-05-12T12:19:14.000Z</time>
      </trkpt>
      <trkpt lat="43.36146" lon="4.87304">
        <ele>1.246499</ele>
        <time>2022-05-12T12:19:20.000Z</time>
      </trkpt>
      <trkpt lat="43.36193" lon="4.87275">
        <ele>1.291144</ele>
        <time>2022-05-12T12:19:29.000Z</time>
      </trkpt>
      <trkpt lat="43.36207" lon="4.87264">
        <ele>1.274889</ele>
        <time>2022-05-12T12:19:32.000Z</time>
      </trkpt>
      <trkpt lat="43.36212" lon="4.87259">
        <ele>1.26933</ele>
        <time>2022-05-12T12:19:33.000Z</time>
      </trkpt>
      <trkpt lat="43.3622" lon="4.87248">
        <ele>1.258266</ele>
        <time>2022-05-12T12:19:35.000Z</time>
      </trkpt>
      <trkpt lat="43.36226" lon="4.87235">
        <ele>1.24718</ele>
        <time>2022-05-12T12:19:37.000Z</time>
      </trkpt>
      <trkpt lat="43.36229" lon="4.87228">
        <ele>1.241671</ele>
        <time>2022-05-12T12:19:38.000Z</time>
      </trkpt>
      <trkpt lat="43.36232" lon="4.87213">
        <ele>1.230235</ele>
        <time>2022-05-12T12:19:40.000Z</time>
      </trkpt>
      <trkpt lat="43.36241" lon="4.87167">
        <ele>1.197442</ele>
        <time>2022-05-12T12:19:46.000Z</time>
      </trkpt>
      <trkpt lat="43.36246" lon="4.87137">
        <ele>1.175753</ele>
        <time>2022-05-12T12:19:50.000Z</time>
      </trkpt>
      <trkpt lat="43.36259" lon="4.87063">
        <ele>1.142432</ele>
        <time>2022-05-12T12:20:00.000Z</time>
      </trkpt>
      <trkpt lat="43.36261" lon="4.87055">
        <ele>1.148471</ele>
        <time>2022-05-12T12:20:01.000Z</time>
      </trkpt>
      <trkpt lat="43.36271" lon="4.86998">
        <ele>1.195955</ele>
        <time>2022-05-12T12:20:09.000Z</time>
      </trkpt>
      <trkpt lat="43.36274" lon="4.86983">
        <ele>1.208313</ele>
        <time>2022-05-12T12:20:11.000Z</time>
      </trkpt>
      <trkpt lat="43.36278" lon="4.86961">
        <ele>1.226836</ele>
        <time>2022-05-12T12:20:14.000Z</time>
      </trkpt>
      <trkpt lat="43.36279" lon="4.86954">
        <ele>1.232895</ele>
        <time>2022-05-12T12:20:15.000Z</time>
      </trkpt>
      <trkpt lat="43.36292" lon="4.86881">
        <ele>1.293126</ele>
        <time>2022-05-12T12:20:25.000Z</time>
      </trkpt>
      <trkpt lat="43.36295" lon="4.86867">
        <ele>1.305351</ele>
        <time>2022-05-12T12:20:27.000Z</time>
      </trkpt>
      <trkpt lat="43.36307" lon="4.86798">
        <ele>1.280613</ele>
        <time>2022-05-12T12:20:36.000Z</time>
      </trkpt>
      <trkpt lat="43.36321" lon="4.86723">
        <ele>1.18165</ele>
        <time>2022-05-12T12:20:46.000Z</time>
      </trkpt>
      <trkpt lat="43.36324" lon="4.86706">
        <ele>1.159253</ele>
        <time>2022-05-12T12:20:48.000Z</time>
      </trkpt>
      <trkpt lat="43.36332" lon="4.8666">
        <ele>1.098772</ele>
        <time>2022-05-12T12:20:54.000Z</time>
      </trkpt>
      <trkpt lat="43.36342" lon="4.86607">
        <ele>1.02759</ele>
        <time>2022-05-12T12:21:01.000Z</time>
      </trkpt>
      <trkpt lat="43.36362" lon="4.8655">
        <ele>0.870925</ele>
        <time>2022-05-12T12:21:09.000Z</time>
      </trkpt>
      <trkpt lat="43.3639" lon="4.86481">
        <ele>0.655609</ele>
        <time>2022-05-12T12:21:19.000Z</time>
      </trkpt>
      <trkpt lat="43.36396" lon="4.86467">
        <ele>0.611162</ele>
        <time>2022-05-12T12:21:21.000Z</time>
      </trkpt>
      <trkpt lat="43.36411" lon="4.86407">
        <ele>0.439359</ele>
        <time>2022-05-12T12:21:29.000Z</time>
      </trkpt>
      <trkpt lat="43.36418" lon="4.86353">
        <ele>0.354732</ele>
        <time>2022-05-12T12:21:36.000Z</time>
      </trkpt>
      <trkpt lat="43.36418" lon="4.86345">
        <ele>0.361926</ele>
        <time>2022-05-12T12:21:37.000Z</time>
      </trkpt>
      <trkpt lat="43.36432" lon="4.86279">
        <ele>0.426146</ele>
        <time>2022-05-12T12:21:46.000Z</time>
      </trkpt>
      <trkpt lat="43.36447" lon="4.86207">
        <ele>0.497142</ele>
        <time>2022-05-12T12:21:56.000Z</time>
      </trkpt>
      <trkpt lat="43.36452" lon="4.86184">
        <ele>0.519542</ele>
        <time>2022-05-12T12:21:59.000Z</time>
      </trkpt>
      <trkpt lat="43.36468" lon="4.86108">
        <ele>0.609494</ele>
        <time>2022-05-12T12:22:09.000Z</time>
      </trkpt>
      <trkpt lat="43.36472" lon="4.86093">
        <ele>0.6338</ele>
        <time>2022-05-12T12:22:11.000Z</time>
      </trkpt>
      <trkpt lat="43.36475" lon="4.86078">
        <ele>0.657919</ele>
        <time>2022-05-12T12:22:13.000Z</time>
      </trkpt>
      <trkpt lat="43.36486" lon="4.86027">
        <ele>0.741586</ele>
        <time>2022-05-12T12:22:20.000Z</time>
      </trkpt>
      <trkpt lat="43.36489" lon="4.86013">
        <ele>0.765679</ele>
        <time>2022-05-12T12:22:22.000Z</time>
      </trkpt>
      <trkpt lat="43.36495" lon="4.8599">
        <ele>0.803378</ele>
        <time>2022-05-12T12:22:25.000Z</time>
      </trkpt>
      <trkpt lat="43.36498" lon="4.85974">
        <ele>0.82867</ele>
        <time>2022-05-12T12:22:27.000Z</time>
      </trkpt>
      <trkpt lat="43.36508" lon="4.85938">
        <ele>0.889682</ele>
        <time>2022-05-12T12:22:32.000Z</time>
      </trkpt>
      <trkpt lat="43.3651" lon="4.8593">
        <ele>0.902202</ele>
        <time>2022-05-12T12:22:33.000Z</time>
      </trkpt>
      <trkpt lat="43.36523" lon="4.85886">
        <ele>0.939833</ele>
        <time>2022-05-12T12:22:39.000Z</time>
      </trkpt>
      <trkpt lat="43.36544" lon="4.85812">
        <ele>0.830368</ele>
        <time>2022-05-12T12:22:49.000Z</time>
      </trkpt>
      <trkpt lat="43.36551" lon="4.8579">
        <ele>0.798748</ele>
        <time>2022-05-12T12:22:52.000Z</time>
      </trkpt>
      <trkpt lat="43.3657" lon="4.85718">
        <ele>0.693707</ele>
        <time>2022-05-12T12:23:02.000Z</time>
      </trkpt>
      <trkpt lat="43.36572" lon="4.85711">
        <ele>0.682954</ele>
        <time>2022-05-12T12:23:03.000Z</time>
      </trkpt>
      <trkpt lat="43.36584" lon="4.8565">
        <ele>0.651122</ele>
        <time>2022-05-12T12:23:11.000Z</time>
      </trkpt>
      <trkpt lat="43.36588" lon="4.85636">
        <ele>0.682213</ele>
        <time>2022-05-12T12:23:13.000Z</time>
      </trkpt>
      <trkpt lat="43.36602" lon="4.85595">
        <ele>0.774739</ele>
        <time>2022-05-12T12:23:19.000Z</time>
      </trkpt>
      <trkpt lat="43.3663" lon="4.85537">
        <ele>0.917314</ele>
        <time>2022-05-12T12:23:28.000Z</time>
      </trkpt>
      <trkpt lat="43.36651" lon="4.85489">
        <ele>1.031762</ele>
        <time>2022-05-12T12:23:35.000Z</time>
      </trkpt>
      <trkpt lat="43.36656" lon="4.85474">
        <ele>1.065442</ele>
        <time>2022-05-12T12:23:37.000Z</time>
      </trkpt>
      <trkpt lat="43.36679" lon="4.85408">
        <ele>1.117187</ele>
        <time>2022-05-12T12:23:47.000Z</time>
      </trkpt>
      <trkpt lat="43.36689" lon="4.85381">
        <ele>1.11165</ele>
        <time>2022-05-12T12:23:51.000Z</time>
      </trkpt>
      <trkpt lat="43.36697" lon="4.85361">
        <ele>1.10751</ele>
        <time>2022-05-12T12:23:54.000Z</time>
      </trkpt>
      <trkpt lat="43.36702" lon="4.85347">
        <ele>1.104619</ele>
        <time>2022-05-12T12:23:56.000Z</time>
      </trkpt>
      <trkpt lat="43.36709" lon="4.85325">
        <ele>1.100224</ele>
        <time>2022-05-12T12:23:59.000Z</time>
      </trkpt>
      <trkpt lat="43.3673" lon="4.8527">
        <ele>1.088903</ele>
        <time>2022-05-12T12:24:07.000Z</time>
      </trkpt>
      <trkpt lat="43.36738" lon="4.85249">
        <ele>1.084679</ele>
        <time>2022-05-12T12:24:10.000Z</time>
      </trkpt>
      <trkpt lat="43.36759" lon="4.85187">
        <ele>1.107266</ele>
        <time>2022-05-12T12:24:19.000Z</time>
      </trkpt>
      <trkpt lat="43.36775" lon="4.85143">
        <ele>1.137794</ele>
        <time>2022-05-12T12:24:25.000Z</time>
      </trkpt>
      <trkpt lat="43.36783" lon="4.8512">
        <ele>1.153642</ele>
        <time>2022-05-12T12:24:28.000Z</time>
      </trkpt>
      <trkpt lat="43.36808" lon="4.85051">
        <ele>1.201333</ele>
        <time>2022-05-12T12:24:37.000Z</time>
      </trkpt>
      <trkpt lat="43.36811" lon="4.85042">
        <ele>1.207839</ele>
        <time>2022-05-12T12:24:38.000Z</time>
      </trkpt>
      <trkpt lat="43.36831" lon="4.84983">
        <ele>1.244142</ele>
        <time>2022-05-12T12:24:46.000Z</time>
      </trkpt>
      <trkpt lat="43.36834" lon="4.84976">
        <ele>1.247866</ele>
        <time>2022-05-12T12:24:47.000Z</time>
      </trkpt>
      <trkpt lat="43.3684" lon="4.8496">
        <ele>1.255512</ele>
        <time>2022-05-12T12:24:49.000Z</time>
      </trkpt>
      <trkpt lat="43.36845" lon="4.84946">
        <ele>1.262999</ele>
        <time>2022-05-12T12:24:51.000Z</time>
      </trkpt>
      <trkpt lat="43.3685" lon="4.8493">
        <ele>1.270666</ele>
        <time>2022-05-12T12:24:53.000Z</time>
      </trkpt>
      <trkpt lat="43.36858" lon="4.84906">
        <ele>1.282382</ele>
        <time>2022-05-12T12:24:56.000Z</time>
      </trkpt>
      <trkpt lat="43.36864" lon="4.84889">
        <ele>1.290551</ele>
        <time>2022-05-12T12:24:58.000Z</time>
      </trkpt>
      <trkpt lat="43.36873" lon="4.84865">
        <ele>1.302736</ele>
        <time>2022-05-12T12:25:01.000Z</time>
      </trkpt>
      <trkpt lat="43.3689" lon="4.84818">
        <ele>1.326438</ele>
        <time>2022-05-12T12:25:07.000Z</time>
      </trkpt>
      <trkpt lat="43.36896" lon="4.84802">
        <ele>1.334284</ele>
        <time>2022-05-12T12:25:09.000Z</time>
      </trkpt>
      <trkpt lat="43.36904" lon="4.84779">
        <ele>1.349433</ele>
        <time>2022-05-12T12:25:12.000Z</time>
      </trkpt>
      <trkpt lat="43.3693" lon="4.84712">
        <ele>1.478258</ele>
        <time>2022-05-12T12:25:21.000Z</time>
      </trkpt>
      <trkpt lat="43.36958" lon="4.8464">
        <ele>1.61571</ele>
        <time>2022-05-12T12:25:31.000Z</time>
      </trkpt>
      <trkpt lat="43.36986" lon="4.8457">
        <ele>1.750431</ele>
        <time>2022-05-12T12:25:41.000Z</time>
      </trkpt>
      <trkpt lat="43.36992" lon="4.84554">
        <ele>1.76577</ele>
        <time>2022-05-12T12:25:43.000Z</time>
      </trkpt>
      <trkpt lat="43.37017" lon="4.84483">
        <ele>1.794661</ele>
        <time>2022-05-12T12:25:53.000Z</time>
      </trkpt>
      <trkpt lat="43.37022" lon="4.84468">
        <ele>1.800586</ele>
        <time>2022-05-12T12:25:55.000Z</time>
      </trkpt>
      <trkpt lat="43.37041" lon="4.84418">
        <ele>1.82127</ele>
        <time>2022-05-12T12:26:02.000Z</time>
      </trkpt>
      <trkpt lat="43.37046" lon="4.84405">
        <ele>1.826845</ele>
        <time>2022-05-12T12:26:04.000Z</time>
      </trkpt>
      <trkpt lat="43.37068" lon="4.84344">
        <ele>1.851722</ele>
        <time>2022-05-12T12:26:13.000Z</time>
      </trkpt>
      <trkpt lat="43.37076" lon="4.84324">
        <ele>1.834802</ele>
        <time>2022-05-12T12:26:16.000Z</time>
      </trkpt>
      <trkpt lat="43.37097" lon="4.84267">
        <ele>1.783599</ele>
        <time>2022-05-12T12:26:24.000Z</time>
      </trkpt>
      <trkpt lat="43.37112" lon="4.84228">
        <ele>1.747428</ele>
        <time>2022-05-12T12:26:30.000Z</time>
      </trkpt>
      <trkpt lat="43.37122" lon="4.84199">
        <ele>1.721016</ele>
        <time>2022-05-12T12:26:34.000Z</time>
      </trkpt>
      <trkpt lat="43.37124" lon="4.84193">
        <ele>1.715845</ele>
        <time>2022-05-12T12:26:35.000Z</time>
      </trkpt>
      <trkpt lat="43.37145" lon="4.84138">
        <ele>1.665101</ele>
        <time>2022-05-12T12:26:43.000Z</time>
      </trkpt>
      <trkpt lat="43.37167" lon="4.84075">
        <ele>1.66652</ele>
        <time>2022-05-12T12:26:52.000Z</time>
      </trkpt>
      <trkpt lat="43.37179" lon="4.84042">
        <ele>1.677624</ele>
        <time>2022-05-12T12:26:57.000Z</time>
      </trkpt>
      <trkpt lat="43.3719" lon="4.84014">
        <ele>1.686659</ele>
        <time>2022-05-12T12:27:01.000Z</time>
      </trkpt>
      <trkpt lat="43.37215" lon="4.83946">
        <ele>1.709188</ele>
        <time>2022-05-12T12:27:11.000Z</time>
      </trkpt>
      <trkpt lat="43.37221" lon="4.83931">
        <ele>1.714174</ele>
        <time>2022-05-12T12:27:13.000Z</time>
      </trkpt>
      <trkpt lat="43.37247" lon="4.8386">
        <ele>1.757685</ele>
        <time>2022-05-12T12:27:23.000Z</time>
      </trkpt>
      <trkpt lat="43.37272" lon="4.83795">
        <ele>1.811046</ele>
        <time>2022-05-12T12:27:32.000Z</time>
      </trkpt>
      <trkpt lat="43.37297" lon="4.83723">
        <ele>1.868791</ele>
        <time>2022-05-12T12:27:42.000Z</time>
      </trkpt>
      <trkpt lat="43.37302" lon="4.83709">
        <ele>1.880267</ele>
        <time>2022-05-12T12:27:44.000Z</time>
      </trkpt>
      <trkpt lat="43.37312" lon="4.83679">
        <ele>1.90389</ele>
        <time>2022-05-12T12:27:48.000Z</time>
      </trkpt>
      <trkpt lat="43.3732" lon="4.83661">
        <ele>1.909448</ele>
        <time>2022-05-12T12:27:51.000Z</time>
      </trkpt>
      <trkpt lat="43.37339" lon="4.83607">
        <ele>1.924792</ele>
        <time>2022-05-12T12:27:59.000Z</time>
      </trkpt>
      <trkpt lat="43.3736" lon="4.83539">
        <ele>1.943783</ele>
        <time>2022-05-12T12:28:09.000Z</time>
      </trkpt>
      <trkpt lat="43.3738" lon="4.83468">
        <ele>1.963276</ele>
        <time>2022-05-12T12:28:19.000Z</time>
      </trkpt>
      <trkpt lat="43.37382" lon="4.83461">
        <ele>1.96515</ele>
        <time>2022-05-12T12:28:20.000Z</time>
      </trkpt>
      <trkpt lat="43.37398" lon="4.83407">
        <ele>1.928994</ele>
        <time>2022-05-12T12:28:28.000Z</time>
      </trkpt>
      <trkpt lat="43.37415" lon="4.83348">
        <ele>1.880719</ele>
        <time>2022-05-12T12:28:37.000Z</time>
      </trkpt>
      <trkpt lat="43.37431" lon="4.83293">
        <ele>1.836099</ele>
        <time>2022-05-12T12:28:45.000Z</time>
      </trkpt>
      <trkpt lat="43.37452" lon="4.83218">
        <ele>1.771512</ele>
        <time>2022-05-12T12:28:56.000Z</time>
      </trkpt>
      <trkpt lat="43.37472" lon="4.83147">
        <ele>1.663822</ele>
        <time>2022-05-12T12:29:06.000Z</time>
      </trkpt>
      <trkpt lat="43.37491" lon="4.8308">
        <ele>1.561908</ele>
        <time>2022-05-12T12:29:16.000Z</time>
      </trkpt>
      <trkpt lat="43.37511" lon="4.83011">
        <ele>1.456457</ele>
        <time>2022-05-12T12:29:26.000Z</time>
      </trkpt>
      <trkpt lat="43.37513" lon="4.83004">
        <ele>1.445671</ele>
        <time>2022-05-12T12:29:27.000Z</time>
      </trkpt>
      <trkpt lat="43.37528" lon="4.82954">
        <ele>1.442092</ele>
        <time>2022-05-12T12:29:34.000Z</time>
      </trkpt>
      <trkpt lat="43.37534" lon="4.82933">
        <ele>1.448454</ele>
        <time>2022-05-12T12:29:37.000Z</time>
      </trkpt>
      <trkpt lat="43.37554" lon="4.82861">
        <ele>1.469898</ele>
        <time>2022-05-12T12:29:47.000Z</time>
      </trkpt>
      <trkpt lat="43.37557" lon="4.82853">
        <ele>1.472472</ele>
        <time>2022-05-12T12:29:48.000Z</time>
      </trkpt>
      <trkpt lat="43.37575" lon="4.82789">
        <ele>1.491644</ele>
        <time>2022-05-12T12:29:57.000Z</time>
      </trkpt>
      <trkpt lat="43.37595" lon="4.82724">
        <ele>1.514696</ele>
        <time>2022-05-12T12:30:06.000Z</time>
      </trkpt>
      <trkpt lat="43.37613" lon="4.8266">
        <ele>1.539229</ele>
        <time>2022-05-12T12:30:15.000Z</time>
      </trkpt>
      <trkpt lat="43.37629" lon="4.82603">
        <ele>1.561523</ele>
        <time>2022-05-12T12:30:23.000Z</time>
      </trkpt>
      <trkpt lat="43.37647" lon="4.82537">
        <ele>1.586691</ele>
        <time>2022-05-12T12:30:32.000Z</time>
      </trkpt>
      <trkpt lat="43.37651" lon="4.82522">
        <ele>1.597078</ele>
        <time>2022-05-12T12:30:34.000Z</time>
      </trkpt>
      <trkpt lat="43.37665" lon="4.82472">
        <ele>1.639405</ele>
        <time>2022-05-12T12:30:41.000Z</time>
      </trkpt>
      <trkpt lat="43.37682" lon="4.82415">
        <ele>1.686438</ele>
        <time>2022-05-12T12:30:49.000Z</time>
      </trkpt>
      <trkpt lat="43.37693" lon="4.82377">
        <ele>1.718393</ele>
        <time>2022-05-12T12:30:56.000Z</time>
      </trkpt>
      <trkpt lat="43.37694" lon="4.82375">
        <ele>1.720407</ele>
        <time>2022-05-12T12:30:57.000Z</time>
      </trkpt>
      <trkpt lat="43.37694" lon="4.82374">
        <ele>1.721262</ele>
        <time>2022-05-12T12:30:59.000Z</time>
      </trkpt>
      <trkpt lat="43.37693" lon="4.82374">
        <ele>1.722045</ele>
        <time>2022-05-12T12:31:01.000Z</time>
      </trkpt>
      <trkpt lat="43.37692" lon="4.82373">
        <ele>1.723794</ele>
        <time>2022-05-12T12:31:02.000Z</time>
      </trkpt>
      <trkpt lat="43.37689" lon="4.8237">
        <ele>1.727803</ele>
        <time>2022-05-12T12:31:04.000Z</time>
      </trkpt>
      <trkpt lat="43.37689" lon="4.82355">
        <ele>1.738781</ele>
        <time>2022-05-12T12:31:09.000Z</time>
      </trkpt>
      <trkpt lat="43.37696" lon="4.82328">
        <ele>1.76103</ele>
        <time>2022-05-12T12:31:15.000Z</time>
      </trkpt>
      <trkpt lat="43.37706" lon="4.82299">
        <ele>1.770821</ele>
        <time>2022-05-12T12:31:21.000Z</time>
      </trkpt>
      <trkpt lat="43.3771" lon="4.82288">
        <ele>1.755828</ele>
        <time>2022-05-12T12:31:23.000Z</time>
      </trkpt>
      <trkpt lat="43.37723" lon="4.8224">
        <ele>1.691484</ele>
        <time>2022-05-12T12:31:31.000Z</time>
      </trkpt>
      <trkpt lat="43.37739" lon="4.82188">
        <ele>1.620641</ele>
        <time>2022-05-12T12:31:40.000Z</time>
      </trkpt>
      <trkpt lat="43.37751" lon="4.82143">
        <ele>1.561126</ele>
        <time>2022-05-12T12:31:48.000Z</time>
      </trkpt>
      <trkpt lat="43.37754" lon="4.82132">
        <ele>1.545909</ele>
        <time>2022-05-12T12:31:50.000Z</time>
      </trkpt>
      <trkpt lat="43.37772" lon="4.82071">
        <ele>1.474339</ele>
        <time>2022-05-12T12:32:00.000Z</time>
      </trkpt>
      <trkpt lat="43.3779" lon="4.82007">
        <ele>1.520713</ele>
        <time>2022-05-12T12:32:11.000Z</time>
      </trkpt>
      <trkpt lat="43.37806" lon="4.81952">
        <ele>1.559887</ele>
        <time>2022-05-12T12:32:20.000Z</time>
      </trkpt>
      <trkpt lat="43.37815" lon="4.81919">
        <ele>1.583164</ele>
        <time>2022-05-12T12:32:25.000Z</time>
      </trkpt>
      <trkpt lat="43.37821" lon="4.81899">
        <ele>1.597168</ele>
        <time>2022-05-12T12:32:28.000Z</time>
      </trkpt>
      <trkpt lat="43.37837" lon="4.81848">
        <ele>1.634077</ele>
        <time>2022-05-12T12:32:36.000Z</time>
      </trkpt>
      <trkpt lat="43.37844" lon="4.81822">
        <ele>1.629786</ele>
        <time>2022-05-12T12:32:40.000Z</time>
      </trkpt>
      <trkpt lat="43.37858" lon="4.81775">
        <ele>1.618622</ele>
        <time>2022-05-12T12:32:47.000Z</time>
      </trkpt>
      <trkpt lat="43.37872" lon="4.81729">
        <ele>1.607788</ele>
        <time>2022-05-12T12:32:54.000Z</time>
      </trkpt>
      <trkpt lat="43.37887" lon="4.81674">
        <ele>1.595115</ele>
        <time>2022-05-12T12:33:02.000Z</time>
      </trkpt>
      <trkpt lat="43.37893" lon="4.81654">
        <ele>1.590358</ele>
        <time>2022-05-12T12:33:05.000Z</time>
      </trkpt>
      <trkpt lat="43.37905" lon="4.81614">
        <ele>1.587838</ele>
        <time>2022-05-12T12:33:11.000Z</time>
      </trkpt>
      <trkpt lat="43.37923" lon="4.81548">
        <ele>1.735299</ele>
        <time>2022-05-12T12:33:21.000Z</time>
      </trkpt>
      <trkpt lat="43.37933" lon="4.81507">
        <ele>1.823762</ele>
        <time>2022-05-12T12:33:27.000Z</time>
      </trkpt>
      <trkpt lat="43.37936" lon="4.81488">
        <ele>1.864595</ele>
        <time>2022-05-12T12:33:30.000Z</time>
      </trkpt>
      <trkpt lat="43.37937" lon="4.81481">
        <ele>1.878264</ele>
        <time>2022-05-12T12:33:31.000Z</time>
      </trkpt>
      <trkpt lat="43.37941" lon="4.81469">
        <ele>1.90554</ele>
        <time>2022-05-12T12:33:33.000Z</time>
      </trkpt>
      <trkpt lat="43.37943" lon="4.81464">
        <ele>1.919029</ele>
        <time>2022-05-12T12:33:34.000Z</time>
      </trkpt>
      <trkpt lat="43.37946" lon="4.81458">
        <ele>1.933466</ele>
        <time>2022-05-12T12:33:35.000Z</time>
      </trkpt>
      <trkpt lat="43.37949" lon="4.81452">
        <ele>1.948417</ele>
        <time>2022-05-12T12:33:36.000Z</time>
      </trkpt>
      <trkpt lat="43.37954" lon="4.81439">
        <ele>1.978857</ele>
        <time>2022-05-12T12:33:38.000Z</time>
      </trkpt>
      <trkpt lat="43.3796" lon="4.81419">
        <ele>2.024276</ele>
        <time>2022-05-12T12:33:41.000Z</time>
      </trkpt>
      <trkpt lat="43.37981" lon="4.81349">
        <ele>2.144949</ele>
        <time>2022-05-12T12:33:52.000Z</time>
      </trkpt>
      <trkpt lat="43.37987" lon="4.81324">
        <ele>2.177769</ele>
        <time>2022-05-12T12:33:56.000Z</time>
      </trkpt>
      <trkpt lat="43.37992" lon="4.81305">
        <ele>2.201575</ele>
        <time>2022-05-12T12:33:59.000Z</time>
      </trkpt>
      <trkpt lat="43.38006" lon="4.81262">
        <ele>2.258805</ele>
        <time>2022-05-12T12:34:06.000Z</time>
      </trkpt>
      <trkpt lat="43.38011" lon="4.81251">
        <ele>2.274756</ele>
        <time>2022-05-12T12:34:08.000Z</time>
      </trkpt>
      <trkpt lat="43.38024" lon="4.81231">
        <ele>2.307875</ele>
        <time>2022-05-12T12:34:13.000Z</time>
      </trkpt>
      <trkpt lat="43.3804" lon="4.81221">
        <ele>2.336643</ele>
        <time>2022-05-12T12:34:18.000Z</time>
      </trkpt>
      <trkpt lat="43.38062" lon="4.81206">
        <ele>2.377281</ele>
        <time>2022-05-12T12:34:24.000Z</time>
      </trkpt>
      <trkpt lat="43.38092" lon="4.81178">
        <ele>2.386037</ele>
        <time>2022-05-12T12:34:32.000Z</time>
      </trkpt>
      <trkpt lat="43.38108" lon="4.81161">
        <ele>2.37843</ele>
        <time>2022-05-12T12:34:36.000Z</time>
      </trkpt>
      <trkpt lat="43.38121" lon="4.81149">
        <ele>2.372619</ele>
        <time>2022-05-12T12:34:39.000Z</time>
      </trkpt>
      <trkpt lat="43.38135" lon="4.81138">
        <ele>2.366656</ele>
        <time>2022-05-12T12:34:42.000Z</time>
      </trkpt>
      <trkpt lat="43.38168" lon="4.81108">
        <ele>2.351864</ele>
        <time>2022-05-12T12:34:50.000Z</time>
      </trkpt>
      <trkpt lat="43.38187" lon="4.8109">
        <ele>2.34301</ele>
        <time>2022-05-12T12:34:55.000Z</time>
      </trkpt>
      <trkpt lat="43.38199" lon="4.81079">
        <ele>2.337736</ele>
        <time>2022-05-12T12:34:58.000Z</time>
      </trkpt>
      <trkpt lat="43.3822" lon="4.81061">
        <ele>2.328461</ele>
        <time>2022-05-12T12:35:03.000Z</time>
      </trkpt>
      <trkpt lat="43.38232" lon="4.8105">
        <ele>2.38051</ele>
        <time>2022-05-12T12:35:06.000Z</time>
      </trkpt>
      <trkpt lat="43.38244" lon="4.81038">
        <ele>2.43694</ele>
        <time>2022-05-12T12:35:09.000Z</time>
      </trkpt>
      <trkpt lat="43.38253" lon="4.81031">
        <ele>2.475726</ele>
        <time>2022-05-12T12:35:11.000Z</time>
      </trkpt>
      <trkpt lat="43.38261" lon="4.81023">
        <ele>2.51597</ele>
        <time>2022-05-12T12:35:13.000Z</time>
      </trkpt>
      <trkpt lat="43.38278" lon="4.81007">
        <ele>2.592203</ele>
        <time>2022-05-12T12:35:17.000Z</time>
      </trkpt>
      <trkpt lat="43.38285" lon="4.81001">
        <ele>2.624562</ele>
        <time>2022-05-12T12:35:19.000Z</time>
      </trkpt>
      <trkpt lat="43.38292" lon="4.80994">
        <ele>2.65789</ele>
        <time>2022-05-12T12:35:21.000Z</time>
      </trkpt>
      <trkpt lat="43.38298" lon="4.80986">
        <ele>2.690354</ele>
        <time>2022-05-12T12:35:23.000Z</time>
      </trkpt>
      <trkpt lat="43.38301" lon="4.80982">
        <ele>2.706826</ele>
        <time>2022-05-12T12:35:24.000Z</time>
      </trkpt>
      <trkpt lat="43.38304" lon="4.80978">
        <ele>2.722854</ele>
        <time>2022-05-12T12:35:25.000Z</time>
      </trkpt>
      <trkpt lat="43.38312" lon="4.80972">
        <ele>2.756816</ele>
        <time>2022-05-12T12:35:27.000Z</time>
      </trkpt>
      <trkpt lat="43.38317" lon="4.80969">
        <ele>2.775661</ele>
        <time>2022-05-12T12:35:28.000Z</time>
      </trkpt>
      <trkpt lat="43.3832" lon="4.80965">
        <ele>2.793963</ele>
        <time>2022-05-12T12:35:29.000Z</time>
      </trkpt>
      <trkpt lat="43.38331" lon="4.80953">
        <ele>2.847998</ele>
        <time>2022-05-12T12:35:32.000Z</time>
      </trkpt>
      <trkpt lat="43.38345" lon="4.80942">
        <ele>2.906738</ele>
        <time>2022-05-12T12:35:35.000Z</time>
      </trkpt>
      <trkpt lat="43.38368" lon="4.80921">
        <ele>3.013323</ele>
        <time>2022-05-12T12:35:41.000Z</time>
      </trkpt>
      <trkpt lat="43.38372" lon="4.80918">
        <ele>3.015114</ele>
        <time>2022-05-12T12:35:42.000Z</time>
      </trkpt>
      <trkpt lat="43.38396" lon="4.80895">
        <ele>3.019671</ele>
        <time>2022-05-12T12:35:49.000Z</time>
      </trkpt>
      <trkpt lat="43.38406" lon="4.80885">
        <ele>3.021565</ele>
        <time>2022-05-12T12:35:52.000Z</time>
      </trkpt>
      <trkpt lat="43.38408" lon="4.80876">
        <ele>3.022623</ele>
        <time>2022-05-12T12:35:54.000Z</time>
      </trkpt>
      <trkpt lat="43.38405" lon="4.80862">
        <ele>3.024321</ele>
        <time>2022-05-12T12:35:57.000Z</time>
      </trkpt>
      <trkpt lat="43.38398" lon="4.80849">
        <ele>3.026133</ele>
        <time>2022-05-12T12:36:02.000Z</time>
      </trkpt>
      <trkpt lat="43.38387" lon="4.80829">
        <ele>3.028969</ele>
        <time>2022-05-12T12:36:08.000Z</time>
      </trkpt>
      <trkpt lat="43.38383" lon="4.80821">
        <ele>3.03003</ele>
        <time>2022-05-12T12:36:10.000Z</time>
      </trkpt>
      <trkpt lat="43.38377" lon="4.80808">
        <ele>3.031897</ele>
        <time>2022-05-12T12:36:13.000Z</time>
      </trkpt>
      <trkpt lat="43.38369" lon="4.80784">
        <ele>3.034887</ele>
        <time>2022-05-12T12:36:18.000Z</time>
      </trkpt>
      <trkpt lat="43.38359" lon="4.80736">
        <ele>3.040437</ele>
        <time>2022-05-12T12:36:27.000Z</time>
      </trkpt>
      <trkpt lat="43.38362" lon="4.80711">
        <ele>3.041181</ele>
        <time>2022-05-12T12:36:32.000Z</time>
      </trkpt>
      <trkpt lat="43.38383" lon="4.8069">
        <ele>3.035123</ele>
        <time>2022-05-12T12:36:39.000Z</time>
      </trkpt>
      <trkpt lat="43.38407" lon="4.80667">
        <ele>3.02831</ele>
        <time>2022-05-12T12:36:46.000Z</time>
      </trkpt>
      <trkpt lat="43.38439" lon="4.80641">
        <ele>3.019801</ele>
        <time>2022-05-12T12:36:54.000Z</time>
      </trkpt>
      <trkpt lat="43.38458" lon="4.80623">
        <ele>3.014358</ele>
        <time>2022-05-12T12:36:59.000Z</time>
      </trkpt>
      <trkpt lat="43.3847" lon="4.8061">
        <ele>3.010912</ele>
        <time>2022-05-12T12:37:02.000Z</time>
      </trkpt>
      <trkpt lat="43.38504" lon="4.80578">
        <ele>3.001186</ele>
        <time>2022-05-12T12:37:11.000Z</time>
      </trkpt>
      <trkpt lat="43.38528" lon="4.80558">
        <ele>2.980385</ele>
        <time>2022-05-12T12:37:18.000Z</time>
      </trkpt>
      <trkpt lat="43.38531" lon="4.80558">
        <ele>2.978035</ele>
        <time>2022-05-12T12:37:19.000Z</time>
      </trkpt>
      <trkpt lat="43.38536" lon="4.80562">
        <ele>2.97391</ele>
        <time>2022-05-12T12:37:21.000Z</time>
      </trkpt>
      <trkpt lat="43.38544" lon="4.80574">
        <ele>2.964379</ele>
        <time>2022-05-12T12:37:25.000Z</time>
      </trkpt>
      <trkpt lat="43.38548" lon="4.80574">
        <ele>2.961801</ele>
        <time>2022-05-12T12:37:26.000Z</time>
      </trkpt>
      <trkpt lat="43.38564" lon="4.80563">
        <ele>2.94724</ele>
        <time>2022-05-12T12:37:31.000Z</time>
      </trkpt>
      <trkpt lat="43.38592" lon="4.80538">
        <ele>2.921615</ele>
        <time>2022-05-12T12:37:39.000Z</time>
      </trkpt>
      <trkpt lat="43.38608" lon="4.80522">
        <ele>2.905843</ele>
        <time>2022-05-12T12:37:45.000Z</time>
      </trkpt>
      <trkpt lat="43.3862" lon="4.80515">
        <ele>2.895919</ele>
        <time>2022-05-12T12:37:49.000Z</time>
      </trkpt>
      <trkpt lat="43.38623" lon="4.80516">
        <ele>2.893417</ele>
        <time>2022-05-12T12:37:50.000Z</time>
      </trkpt>
      <trkpt lat="43.38633" lon="4.80528">
        <ele>2.8833</ele>
        <time>2022-05-12T12:37:54.000Z</time>
      </trkpt>
      <trkpt lat="43.38646" lon="4.80549">
        <ele>2.866916</ele>
        <time>2022-05-12T12:38:00.000Z</time>
      </trkpt>
      <trkpt lat="43.38667" lon="4.80589">
        <ele>2.816659</ele>
        <time>2022-05-12T12:38:09.000Z</time>
      </trkpt>
      <trkpt lat="43.38675" lon="4.80605">
        <ele>2.794711</ele>
        <time>2022-05-12T12:38:12.000Z</time>
      </trkpt>
      <trkpt lat="43.3868" lon="4.80615">
        <ele>2.780324</ele>
        <time>2022-05-12T12:38:14.000Z</time>
      </trkpt>
      <trkpt lat="43.38691" lon="4.8064">
        <ele>2.746227</ele>
        <time>2022-05-12T12:38:19.000Z</time>
      </trkpt>
      <trkpt lat="43.38713" lon="4.80686">
        <ele>2.68172</ele>
        <time>2022-05-12T12:38:28.000Z</time>
      </trkpt>
      <trkpt lat="43.38727" lon="4.80714">
        <ele>2.641995</ele>
        <time>2022-05-12T12:38:33.000Z</time>
      </trkpt>
      <trkpt lat="43.38734" lon="4.80731">
        <ele>2.619202</ele>
        <time>2022-05-12T12:38:36.000Z</time>
      </trkpt>
      <trkpt lat="43.38741" lon="4.80747">
        <ele>2.597591</ele>
        <time>2022-05-12T12:38:39.000Z</time>
      </trkpt>
      <trkpt lat="43.38751" lon="4.80766">
        <ele>2.565484</ele>
        <time>2022-05-12T12:38:43.000Z</time>
      </trkpt>
      <trkpt lat="43.38754" lon="4.8077">
        <ele>2.518602</ele>
        <time>2022-05-12T12:38:44.000Z</time>
      </trkpt>
      <trkpt lat="43.38757" lon="4.80773">
        <ele>2.47702</ele>
        <time>2022-05-12T12:38:45.000Z</time>
      </trkpt>
      <trkpt lat="43.38764" lon="4.80781">
        <ele>2.374655</ele>
        <time>2022-05-12T12:38:48.000Z</time>
      </trkpt>
      <trkpt lat="43.3877" lon="4.80792">
        <ele>2.269093</ele>
        <time>2022-05-12T12:38:53.000Z</time>
      </trkpt>
      <trkpt lat="43.38771" lon="4.80794">
        <ele>2.248145</ele>
        <time>2022-05-12T12:38:54.000Z</time>
      </trkpt>
      <trkpt lat="43.38773" lon="4.80801">
        <ele>2.185364</ele>
        <time>2022-05-12T12:38:59.000Z</time>
      </trkpt>
      <trkpt lat="43.38775" lon="4.80802">
        <ele>2.162341</ele>
        <time>2022-05-12T12:39:04.000Z</time>
      </trkpt>
      <trkpt lat="43.38776" lon="4.80803">
        <ele>2.152706</ele>
        <time>2022-05-12T12:39:05.000Z</time>
      </trkpt>
      <trkpt lat="43.38776" lon="4.80804">
        <ele>2.140874</ele>
        <time>2022-05-12T12:39:12.000Z</time>
      </trkpt>
      <trkpt lat="43.38776" lon="4.80804">
        <ele>2.140874</ele>
        <time>2022-05-12T12:39:15.000Z</time>
      </trkpt>
      <trkpt lat="43.38776" lon="4.80804">
        <ele>2.140874</ele>
        <time>2022-05-12T12:39:16.000Z</time>
      </trkpt>
      <trkpt lat="43.38782" lon="4.80807">
        <ele>2.06901</ele>
        <time>2022-05-12T13:07:18.000Z</time>
      </trkpt>
      <trkpt lat="43.38775" lon="4.80809">
        <ele>1.9845</ele>
        <time>2022-05-12T13:07:22.000Z</time>
      </trkpt>
      <trkpt lat="43.38776" lon="4.80809">
        <ele>1.969822</ele>
        <time>2022-05-12T13:07:27.000Z</time>
      </trkpt>
      <trkpt lat="43.38775" lon="4.80809">
        <ele>1.960877</ele>
        <time>2022-05-12T13:07:30.000Z</time>
      </trkpt>
      <trkpt lat="43.38776" lon="4.80804">
        <ele>1.920355</ele>
        <time>2022-05-12T13:07:40.000Z</time>
      </trkpt>
      <trkpt lat="43.38775" lon="4.80801">
        <ele>1.896318</ele>
        <time>2022-05-12T13:07:43.000Z</time>
      </trkpt>
      <trkpt lat="43.38771" lon="4.80794">
        <ele>1.824311</ele>
        <time>2022-05-12T13:07:46.000Z</time>
      </trkpt>
      <trkpt lat="43.3876" lon="4.80775">
        <ele>1.629159</ele>
        <time>2022-05-12T13:07:51.000Z</time>
      </trkpt>
      <trkpt lat="43.38745" lon="4.80743">
        <ele>1.321322</ele>
        <time>2022-05-12T13:07:57.000Z</time>
      </trkpt>
      <trkpt lat="43.38736" lon="4.80725">
        <ele>1.145849</ele>
        <time>2022-05-12T13:08:01.000Z</time>
      </trkpt>
      <trkpt lat="43.38721" lon="4.80695">
        <ele>0.853004</ele>
        <time>2022-05-12T13:08:07.000Z</time>
      </trkpt>
      <trkpt lat="43.38718" lon="4.80689">
        <ele>0.793339</ele>
        <time>2022-05-12T13:08:08.000Z</time>
      </trkpt>
      <trkpt lat="43.38704" lon="4.80659">
        <ele>0.563083</ele>
        <time>2022-05-12T13:08:14.000Z</time>
      </trkpt>
      <trkpt lat="43.38696" lon="4.80642">
        <ele>0.550173</ele>
        <time>2022-05-12T13:08:18.000Z</time>
      </trkpt>
      <trkpt lat="43.38691" lon="4.80632">
        <ele>0.543069</ele>
        <time>2022-05-12T13:08:20.000Z</time>
      </trkpt>
      <trkpt lat="43.38673" lon="4.80597">
        <ele>0.516425</ele>
        <time>2022-05-12T13:08:27.000Z</time>
      </trkpt>
      <trkpt lat="43.38663" lon="4.80576">
        <ele>0.500725</ele>
        <time>2022-05-12T13:08:31.000Z</time>
      </trkpt>
      <trkpt lat="43.38655" lon="4.8056">
        <ele>0.489029</ele>
        <time>2022-05-12T13:08:34.000Z</time>
      </trkpt>
      <trkpt lat="43.38649" lon="4.80549">
        <ele>0.480881</ele>
        <time>2022-05-12T13:08:36.000Z</time>
      </trkpt>
      <trkpt lat="43.38644" lon="4.8054">
        <ele>0.473179</ele>
        <time>2022-05-12T13:08:38.000Z</time>
      </trkpt>
      <trkpt lat="43.38631" lon="4.80507">
        <ele>0.450094</ele>
        <time>2022-05-12T13:08:45.000Z</time>
      </trkpt>
      <trkpt lat="43.38634" lon="4.80498">
        <ele>0.444011</ele>
        <time>2022-05-12T13:08:47.000Z</time>
      </trkpt>
      <trkpt lat="43.38637" lon="4.80494">
        <ele>0.440668</ele>
        <time>2022-05-12T13:08:48.000Z</time>
      </trkpt>
      <trkpt lat="43.38667" lon="4.80469">
        <ele>0.426775</ele>
        <time>2022-05-12T13:08:56.000Z</time>
      </trkpt>
      <trkpt lat="43.38682" lon="4.80455">
        <ele>0.472356</ele>
        <time>2022-05-12T13:09:00.000Z</time>
      </trkpt>
      <trkpt lat="43.38694" lon="4.80443">
        <ele>0.508078</ele>
        <time>2022-05-12T13:09:03.000Z</time>
      </trkpt>
      <trkpt lat="43.38727" lon="4.80412">
        <ele>0.605133</ele>
        <time>2022-05-12T13:09:11.000Z</time>
      </trkpt>
      <trkpt lat="43.3874" lon="4.80401">
        <ele>0.642774</ele>
        <time>2022-05-12T13:09:14.000Z</time>
      </trkpt>
      <trkpt lat="43.38756" lon="4.80384">
        <ele>0.692797</ele>
        <time>2022-05-12T13:09:18.000Z</time>
      </trkpt>
      <trkpt lat="43.38764" lon="4.80375">
        <ele>0.71827</ele>
        <time>2022-05-12T13:09:20.000Z</time>
      </trkpt>
      <trkpt lat="43.38791" lon="4.8035">
        <ele>0.797789</ele>
        <time>2022-05-12T13:09:27.000Z</time>
      </trkpt>
      <trkpt lat="43.38811" lon="4.80335">
        <ele>0.853368</ele>
        <time>2022-05-12T13:09:33.000Z</time>
      </trkpt>
      <trkpt lat="43.38837" lon="4.8031">
        <ele>0.861517</ele>
        <time>2022-05-12T13:09:40.000Z</time>
      </trkpt>
      <trkpt lat="43.38856" lon="4.80289">
        <ele>0.866566</ele>
        <time>2022-05-12T13:09:45.000Z</time>
      </trkpt>
      <trkpt lat="43.38865" lon="4.80283">
        <ele>0.868625</ele>
        <time>2022-05-12T13:09:47.000Z</time>
      </trkpt>
      <trkpt lat="43.38874" lon="4.80275">
        <ele>0.870689</ele>
        <time>2022-05-12T13:09:49.000Z</time>
      </trkpt>
      <trkpt lat="43.38886" lon="4.80262">
        <ele>0.873869</ele>
        <time>2022-05-12T13:09:52.000Z</time>
      </trkpt>
      <trkpt lat="43.38916" lon="4.80235">
        <ele>0.881171</ele>
        <time>2022-05-12T13:09:59.000Z</time>
      </trkpt>
      <trkpt lat="43.38921" lon="4.80231">
        <ele>0.882244</ele>
        <time>2022-05-12T13:10:00.000Z</time>
      </trkpt>
      <trkpt lat="43.38933" lon="4.80221">
        <ele>0.885239</ele>
        <time>2022-05-12T13:10:03.000Z</time>
      </trkpt>
      <trkpt lat="43.38944" lon="4.80207">
        <ele>0.888211</ele>
        <time>2022-05-12T13:10:06.000Z</time>
      </trkpt>
      <trkpt lat="43.38969" lon="4.80174">
        <ele>0.950705</ele>
        <time>2022-05-12T13:10:13.000Z</time>
      </trkpt>
      <trkpt lat="43.38974" lon="4.80171">
        <ele>0.968417</ele>
        <time>2022-05-12T13:10:14.000Z</time>
      </trkpt>
      <trkpt lat="43.38983" lon="4.80164">
        <ele>1.003644</ele>
        <time>2022-05-12T13:10:16.000Z</time>
      </trkpt>
      <trkpt lat="43.38993" lon="4.8016">
        <ele>1.039123</ele>
        <time>2022-05-12T13:10:18.000Z</time>
      </trkpt>
      <trkpt lat="43.38998" lon="4.80157">
        <ele>1.058432</ele>
        <time>2022-05-12T13:10:19.000Z</time>
      </trkpt>
      <trkpt lat="43.39021" lon="4.80141">
        <ele>1.149241</ele>
        <time>2022-05-12T13:10:24.000Z</time>
      </trkpt>
      <trkpt lat="43.39054" lon="4.8011">
        <ele>1.285133</ele>
        <time>2022-05-12T13:10:32.000Z</time>
      </trkpt>
      <trkpt lat="43.39075" lon="4.80092">
        <ele>1.3721</ele>
        <time>2022-05-12T13:10:37.000Z</time>
      </trkpt>
      <trkpt lat="43.39083" lon="4.80084">
        <ele>1.407714</ele>
        <time>2022-05-12T13:10:39.000Z</time>
      </trkpt>
      <trkpt lat="43.39099" lon="4.80067">
        <ele>1.477188</ele>
        <time>2022-05-12T13:10:43.000Z</time>
      </trkpt>
      <trkpt lat="43.39113" lon="4.80055">
        <ele>1.516101</ele>
        <time>2022-05-12T13:10:46.000Z</time>
      </trkpt>
      <trkpt lat="43.39145" lon="4.80024">
        <ele>1.532641</ele>
        <time>2022-05-12T13:10:54.000Z</time>
      </trkpt>
      <trkpt lat="43.39174" lon="4.79997">
        <ele>1.547264</ele>
        <time>2022-05-12T13:11:01.000Z</time>
      </trkpt>
      <trkpt lat="43.39187" lon="4.79986">
        <ele>1.553709</ele>
        <time>2022-05-12T13:11:04.000Z</time>
      </trkpt>
      <trkpt lat="43.392" lon="4.79975">
        <ele>1.560054</ele>
        <time>2022-05-12T13:11:07.000Z</time>
      </trkpt>
      <trkpt lat="43.39208" lon="4.79966">
        <ele>1.564531</ele>
        <time>2022-05-12T13:11:09.000Z</time>
      </trkpt>
      <trkpt lat="43.3923" lon="4.79945">
        <ele>1.575615</ele>
        <time>2022-05-12T13:11:14.000Z</time>
      </trkpt>
      <trkpt lat="43.39253" lon="4.79925">
        <ele>1.587034</ele>
        <time>2022-05-12T13:11:19.000Z</time>
      </trkpt>
      <trkpt lat="43.39257" lon="4.7992">
        <ele>1.589416</ele>
        <time>2022-05-12T13:11:20.000Z</time>
      </trkpt>
      <trkpt lat="43.39285" lon="4.79894">
        <ele>1.614505</ele>
        <time>2022-05-12T13:11:26.000Z</time>
      </trkpt>
      <trkpt lat="43.3933" lon="4.79854">
        <ele>1.654828</ele>
        <time>2022-05-12T13:11:36.000Z</time>
      </trkpt>
      <trkpt lat="43.39361" lon="4.79827">
        <ele>1.682406</ele>
        <time>2022-05-12T13:11:43.000Z</time>
      </trkpt>
      <trkpt lat="43.39373" lon="4.79815">
        <ele>1.693481</ele>
        <time>2022-05-12T13:11:46.000Z</time>
      </trkpt>
      <trkpt lat="43.39402" lon="4.79789">
        <ele>1.719224</ele>
        <time>2022-05-12T13:11:53.000Z</time>
      </trkpt>
      <trkpt lat="43.39413" lon="4.7978">
        <ele>1.725885</ele>
        <time>2022-05-12T13:11:56.000Z</time>
      </trkpt>
      <trkpt lat="43.39429" lon="4.79764">
        <ele>1.730211</ele>
        <time>2022-05-12T13:12:00.000Z</time>
      </trkpt>
      <trkpt lat="43.39443" lon="4.79753">
        <ele>1.733823</ele>
        <time>2022-05-12T13:12:03.000Z</time>
      </trkpt>
      <trkpt lat="43.39459" lon="4.79738">
        <ele>1.7382</ele>
        <time>2022-05-12T13:12:07.000Z</time>
      </trkpt>
      <trkpt lat="43.39463" lon="4.79735">
        <ele>1.739223</ele>
        <time>2022-05-12T13:12:08.000Z</time>
      </trkpt>
      <trkpt lat="43.39482" lon="4.79717">
        <ele>1.744482</ele>
        <time>2022-05-12T13:12:13.000Z</time>
      </trkpt>
      <trkpt lat="43.39507" lon="4.79692">
        <ele>1.751519</ele>
        <time>2022-05-12T13:12:19.000Z</time>
      </trkpt>
      <trkpt lat="43.39521" lon="4.7968">
        <ele>1.755163</ele>
        <time>2022-05-12T13:12:22.000Z</time>
      </trkpt>
      <trkpt lat="43.39534" lon="4.79666">
        <ele>1.758856</ele>
        <time>2022-05-12T13:12:25.000Z</time>
      </trkpt>
      <trkpt lat="43.39548" lon="4.79652">
        <ele>1.762713</ele>
        <time>2022-05-12T13:12:28.000Z</time>
      </trkpt>
      <trkpt lat="43.39552" lon="4.79648">
        <ele>1.763912</ele>
        <time>2022-05-12T13:12:29.000Z</time>
      </trkpt>
      <trkpt lat="43.39563" lon="4.79639">
        <ele>1.765643</ele>
        <time>2022-05-12T13:12:32.000Z</time>
      </trkpt>
      <trkpt lat="43.39574" lon="4.79628">
        <ele>1.766776</ele>
        <time>2022-05-12T13:12:37.000Z</time>
      </trkpt>
      <trkpt lat="43.39587" lon="4.79618">
        <ele>1.768047</ele>
        <time>2022-05-12T13:12:43.000Z</time>
      </trkpt>
      <trkpt lat="43.3959" lon="4.79615">
        <ele>1.768428</ele>
        <time>2022-05-12T13:12:45.000Z</time>
      </trkpt>
      <trkpt lat="43.396" lon="4.79602">
        <ele>1.769591</ele>
        <time>2022-05-12T13:12:50.000Z</time>
      </trkpt>
      <trkpt lat="43.39619" lon="4.79586">
        <ele>1.771491</ele>
        <time>2022-05-12T13:12:56.000Z</time>
      </trkpt>
      <trkpt lat="43.39639" lon="4.79563">
        <ele>1.773692</ele>
        <time>2022-05-12T13:13:03.000Z</time>
      </trkpt>
      <trkpt lat="43.39651" lon="4.7955">
        <ele>1.774986</ele>
        <time>2022-05-12T13:13:07.000Z</time>
      </trkpt>
      <trkpt lat="43.39675" lon="4.79526">
        <ele>1.777582</ele>
        <time>2022-05-12T13:13:14.000Z</time>
      </trkpt>
      <trkpt lat="43.39705" lon="4.79496">
        <ele>1.798218</ele>
        <time>2022-05-12T13:13:22.000Z</time>
      </trkpt>
      <trkpt lat="43.39714" lon="4.79488">
        <ele>1.833335</ele>
        <time>2022-05-12T13:13:24.000Z</time>
      </trkpt>
      <trkpt lat="43.39725" lon="4.79477">
        <ele>1.879702</ele>
        <time>2022-05-12T13:13:27.000Z</time>
      </trkpt>
      <trkpt lat="43.39745" lon="4.79456">
        <ele>1.96426</ele>
        <time>2022-05-12T13:13:33.000Z</time>
      </trkpt>
      <trkpt lat="43.39762" lon="4.79444">
        <ele>2.032179</ele>
        <time>2022-05-12T13:13:38.000Z</time>
      </trkpt>
      <trkpt lat="43.39787" lon="4.79421">
        <ele>2.134103</ele>
        <time>2022-05-12T13:13:45.000Z</time>
      </trkpt>
      <trkpt lat="43.39807" lon="4.79392">
        <ele>2.232734</ele>
        <time>2022-05-12T13:13:52.000Z</time>
      </trkpt>
      <trkpt lat="43.39811" lon="4.7937">
        <ele>2.288103</ele>
        <time>2022-05-12T13:13:59.000Z</time>
      </trkpt>
      <trkpt lat="43.39814" lon="4.79364">
        <ele>2.307797</ele>
        <time>2022-05-12T13:14:01.000Z</time>
      </trkpt>
      <trkpt lat="43.39821" lon="4.79356">
        <ele>2.339653</ele>
        <time>2022-05-12T13:14:04.000Z</time>
      </trkpt>
      <trkpt lat="43.3984" lon="4.79335">
        <ele>2.404497</ele>
        <time>2022-05-12T13:14:11.000Z</time>
      </trkpt>
      <trkpt lat="43.39851" lon="4.79323">
        <ele>2.42032</ele>
        <time>2022-05-12T13:14:16.000Z</time>
      </trkpt>
      <trkpt lat="43.39858" lon="4.79313">
        <ele>2.432042</ele>
        <time>2022-05-12T13:14:21.000Z</time>
      </trkpt>
      <trkpt lat="43.39859" lon="4.79311">
        <ele>2.434559</ele>
        <time>2022-05-12T13:14:22.000Z</time>
      </trkpt>
      <trkpt lat="43.39862" lon="4.79306">
        <ele>2.440294</ele>
        <time>2022-05-12T13:14:24.000Z</time>
      </trkpt>
      <trkpt lat="43.39866" lon="4.79301">
        <ele>2.446285</ele>
        <time>2022-05-12T13:14:26.000Z</time>
      </trkpt>
      <trkpt lat="43.39871" lon="4.79293">
        <ele>2.454438</ele>
        <time>2022-05-12T13:14:29.000Z</time>
      </trkpt>
      <trkpt lat="43.39877" lon="4.79286">
        <ele>2.464447</ele>
        <time>2022-05-12T13:14:33.000Z</time>
      </trkpt>
      <trkpt lat="43.39879" lon="4.79285">
        <ele>2.466068</ele>
        <time>2022-05-12T13:14:34.000Z</time>
      </trkpt>
      <trkpt lat="43.39883" lon="4.7928">
        <ele>2.472467</ele>
        <time>2022-05-12T13:14:37.000Z</time>
      </trkpt>
      <trkpt lat="43.39884" lon="4.79277">
        <ele>2.474962</ele>
        <time>2022-05-12T13:14:38.000Z</time>
      </trkpt>
      <trkpt lat="43.39884" lon="4.79274">
        <ele>2.4779</ele>
        <time>2022-05-12T13:14:39.000Z</time>
      </trkpt>
      <trkpt lat="43.39886" lon="4.79264">
        <ele>2.486123</ele>
        <time>2022-05-12T13:14:42.000Z</time>
      </trkpt>
      <trkpt lat="43.39884" lon="4.79259">
        <ele>2.491308</ele>
        <time>2022-05-12T13:14:44.000Z</time>
      </trkpt>
      <trkpt lat="43.39881" lon="4.79249">
        <ele>2.500229</ele>
        <time>2022-05-12T13:14:47.000Z</time>
      </trkpt>
      <trkpt lat="43.39883" lon="4.79237">
        <ele>2.510439</ele>
        <time>2022-05-12T13:14:50.000Z</time>
      </trkpt>
      <trkpt lat="43.39885" lon="4.79233">
        <ele>2.514422</ele>
        <time>2022-05-12T13:14:51.000Z</time>
      </trkpt>
      <trkpt lat="43.39898" lon="4.79217">
        <ele>2.535088</ele>
        <time>2022-05-12T13:14:56.000Z</time>
      </trkpt>
      <trkpt lat="43.39903" lon="4.79202">
        <ele>2.548391</ele>
        <time>2022-05-12T13:14:59.000Z</time>
      </trkpt>
      <trkpt lat="43.39903" lon="4.79197">
        <ele>2.552699</ele>
        <time>2022-05-12T13:15:00.000Z</time>
      </trkpt>
      <trkpt lat="43.399" lon="4.79169">
        <ele>2.57678</ele>
        <time>2022-05-12T13:15:06.000Z</time>
      </trkpt>
      <trkpt lat="43.39906" lon="4.79153">
        <ele>2.592074</ele>
        <time>2022-05-12T13:15:10.000Z</time>
      </trkpt>
      <trkpt lat="43.3991" lon="4.79149">
        <ele>2.596941</ele>
        <time>2022-05-12T13:15:11.000Z</time>
      </trkpt>
      <trkpt lat="43.39933" lon="4.79135">
        <ele>2.573884</ele>
        <time>2022-05-12T13:15:17.000Z</time>
      </trkpt>
      <trkpt lat="43.39951" lon="4.79128">
        <ele>2.547388</ele>
        <time>2022-05-12T13:15:21.000Z</time>
      </trkpt>
      <trkpt lat="43.39959" lon="4.79123">
        <ele>2.534341</ele>
        <time>2022-05-12T13:15:23.000Z</time>
      </trkpt>
      <trkpt lat="43.39963" lon="4.79119">
        <ele>2.527273</ele>
        <time>2022-05-12T13:15:24.000Z</time>
      </trkpt>
      <trkpt lat="43.39967" lon="4.79115">
        <ele>2.520503</ele>
        <time>2022-05-12T13:15:25.000Z</time>
      </trkpt>
      <trkpt lat="43.39983" lon="4.79089">
        <ele>2.485415</ele>
        <time>2022-05-12T13:15:30.000Z</time>
      </trkpt>
      <trkpt lat="43.40014" lon="4.79054">
        <ele>2.42752</ele>
        <time>2022-05-12T13:15:38.000Z</time>
      </trkpt>
      <trkpt lat="43.40036" lon="4.79033">
        <ele>2.390302</ele>
        <time>2022-05-12T13:15:43.000Z</time>
      </trkpt>
      <trkpt lat="43.40045" lon="4.79024">
        <ele>2.374489</ele>
        <time>2022-05-12T13:15:45.000Z</time>
      </trkpt>
      <trkpt lat="43.40074" lon="4.78994">
        <ele>2.340607</ele>
        <time>2022-05-12T13:15:52.000Z</time>
      </trkpt>
      <trkpt lat="43.40097" lon="4.78973">
        <ele>2.331035</ele>
        <time>2022-05-12T13:15:57.000Z</time>
      </trkpt>
      <trkpt lat="43.40137" lon="4.78935">
        <ele>2.314362</ele>
        <time>2022-05-12T13:16:06.000Z</time>
      </trkpt>
      <trkpt lat="43.40149" lon="4.78923">
        <ele>2.309278</ele>
        <time>2022-05-12T13:16:09.000Z</time>
      </trkpt>
      <trkpt lat="43.40158" lon="4.78914">
        <ele>2.305385</ele>
        <time>2022-05-12T13:16:11.000Z</time>
      </trkpt>
      <trkpt lat="43.40176" lon="4.78896">
        <ele>2.297728</ele>
        <time>2022-05-12T13:16:15.000Z</time>
      </trkpt>
      <trkpt lat="43.40216" lon="4.78859">
        <ele>2.273978</ele>
        <time>2022-05-12T13:16:24.000Z</time>
      </trkpt>
      <trkpt lat="43.40246" lon="4.7884">
        <ele>2.239552</ele>
        <time>2022-05-12T13:16:30.000Z</time>
      </trkpt>
      <trkpt lat="43.40257" lon="4.78835">
        <ele>2.227402</ele>
        <time>2022-05-12T13:16:32.000Z</time>
      </trkpt>
      <trkpt lat="43.40263" lon="4.78831">
        <ele>2.221241</ele>
        <time>2022-05-12T13:16:33.000Z</time>
      </trkpt>
      <trkpt lat="43.40273" lon="4.78823">
        <ele>2.209168</ele>
        <time>2022-05-12T13:16:35.000Z</time>
      </trkpt>
      <trkpt lat="43.40284" lon="4.78818">
        <ele>2.19718</ele>
        <time>2022-05-12T13:16:37.000Z</time>
      </trkpt>
      <trkpt lat="43.40294" lon="4.78814">
        <ele>2.186138</ele>
        <time>2022-05-12T13:16:39.000Z</time>
      </trkpt>
      <trkpt lat="43.40309" lon="4.78812">
        <ele>2.170442</ele>
        <time>2022-05-12T13:16:42.000Z</time>
      </trkpt>
      <trkpt lat="43.40314" lon="4.78812">
        <ele>2.165513</ele>
        <time>2022-05-12T13:16:43.000Z</time>
      </trkpt>
      <trkpt lat="43.40322" lon="4.78808">
        <ele>2.155902</ele>
        <time>2022-05-12T13:16:45.000Z</time>
      </trkpt>
      <trkpt lat="43.40326" lon="4.78804">
        <ele>2.151126</ele>
        <time>2022-05-12T13:16:46.000Z</time>
      </trkpt>
      <trkpt lat="43.40329" lon="4.78799">
        <ele>2.146319</ele>
        <time>2022-05-12T13:16:47.000Z</time>
      </trkpt>
      <trkpt lat="43.40332" lon="4.78787">
        <ele>2.136601</ele>
        <time>2022-05-12T13:16:49.000Z</time>
      </trkpt>
      <trkpt lat="43.40335" lon="4.78767">
        <ele>2.121386</ele>
        <time>2022-05-12T13:16:52.000Z</time>
      </trkpt>
      <trkpt lat="43.40341" lon="4.78749">
        <ele>2.106137</ele>
        <time>2022-05-12T13:16:55.000Z</time>
      </trkpt>
      <trkpt lat="43.40361" lon="4.78718">
        <ele>2.026939</ele>
        <time>2022-05-12T13:17:01.000Z</time>
      </trkpt>
      <trkpt lat="43.40392" lon="4.7869">
        <ele>1.902688</ele>
        <time>2022-05-12T13:17:08.000Z</time>
      </trkpt>
      <trkpt lat="43.40432" lon="4.78649">
        <ele>1.739009</ele>
        <time>2022-05-12T13:17:17.000Z</time>
      </trkpt>
      <trkpt lat="43.40471" lon="4.78608">
        <ele>1.574613</ele>
        <time>2022-05-12T13:17:26.000Z</time>
      </trkpt>
      <trkpt lat="43.40511" lon="4.78567">
        <ele>1.541359</ele>
        <time>2022-05-12T13:17:35.000Z</time>
      </trkpt>
      <trkpt lat="43.40538" lon="4.78543">
        <ele>1.589868</ele>
        <time>2022-05-12T13:17:41.000Z</time>
      </trkpt>
      <trkpt lat="43.40542" lon="4.78538">
        <ele>1.598665</ele>
        <time>2022-05-12T13:17:42.000Z</time>
      </trkpt>
      <trkpt lat="43.4058" lon="4.78502">
        <ele>1.66961</ele>
        <time>2022-05-12T13:17:50.000Z</time>
      </trkpt>
      <trkpt lat="43.4059" lon="4.78492">
        <ele>1.687141</ele>
        <time>2022-05-12T13:17:52.000Z</time>
      </trkpt>
      <trkpt lat="43.40633" lon="4.7845">
        <ele>1.768653</ele>
        <time>2022-05-12T13:18:01.000Z</time>
      </trkpt>
      <trkpt lat="43.40678" lon="4.78406">
        <ele>1.706054</ele>
        <time>2022-05-12T13:18:10.000Z</time>
      </trkpt>
      <trkpt lat="43.40692" lon="4.78392">
        <ele>1.682225</ele>
        <time>2022-05-12T13:18:13.000Z</time>
      </trkpt>
      <trkpt lat="43.40741" lon="4.78346">
        <ele>1.603528</ele>
        <time>2022-05-12T13:18:23.000Z</time>
      </trkpt>
      <trkpt lat="43.40787" lon="4.783">
        <ele>1.537777</ele>
        <time>2022-05-12T13:18:33.000Z</time>
      </trkpt>
      <trkpt lat="43.40828" lon="4.78259">
        <ele>1.580426</ele>
        <time>2022-05-12T13:18:42.000Z</time>
      </trkpt>
      <trkpt lat="43.40872" lon="4.78217">
        <ele>1.624571</ele>
        <time>2022-05-12T13:18:51.000Z</time>
      </trkpt>
      <trkpt lat="43.40914" lon="4.78175">
        <ele>1.668519</ele>
        <time>2022-05-12T13:19:00.000Z</time>
      </trkpt>
      <trkpt lat="43.40964" lon="4.78126">
        <ele>1.689362</ele>
        <time>2022-05-12T13:19:10.000Z</time>
      </trkpt>
      <trkpt lat="43.40969" lon="4.78121">
        <ele>1.690133</ele>
        <time>2022-05-12T13:19:11.000Z</time>
      </trkpt>
      <trkpt lat="43.41018" lon="4.78074">
        <ele>1.697596</ele>
        <time>2022-05-12T13:19:21.000Z</time>
      </trkpt>
      <trkpt lat="43.41025" lon="4.78068">
        <ele>1.698536</ele>
        <time>2022-05-12T13:19:22.000Z</time>
      </trkpt>
      <trkpt lat="43.41071" lon="4.78025">
        <ele>1.70551</ele>
        <time>2022-05-12T13:19:31.000Z</time>
      </trkpt>
      <trkpt lat="43.41076" lon="4.7802">
        <ele>1.706286</ele>
        <time>2022-05-12T13:19:32.000Z</time>
      </trkpt>
      <trkpt lat="43.4112" lon="4.77975">
        <ele>1.72252</ele>
        <time>2022-05-12T13:19:41.000Z</time>
      </trkpt>
      <trkpt lat="43.41165" lon="4.77933">
        <ele>1.738706</ele>
        <time>2022-05-12T13:19:50.000Z</time>
      </trkpt>
      <trkpt lat="43.4117" lon="4.77928">
        <ele>1.740504</ele>
        <time>2022-05-12T13:19:51.000Z</time>
      </trkpt>
      <trkpt lat="43.41209" lon="4.77888">
        <ele>1.755141</ele>
        <time>2022-05-12T13:19:59.000Z</time>
      </trkpt>
      <trkpt lat="43.41258" lon="4.77842">
        <ele>1.656888</ele>
        <time>2022-05-12T13:20:09.000Z</time>
      </trkpt>
      <trkpt lat="43.41263" lon="4.77837">
        <ele>1.641275</ele>
        <time>2022-05-12T13:20:10.000Z</time>
      </trkpt>
      <trkpt lat="43.4131" lon="4.77791">
        <ele>1.499007</ele>
        <time>2022-05-12T13:20:19.000Z</time>
      </trkpt>
      <trkpt lat="43.41357" lon="4.77745">
        <ele>1.357543</ele>
        <time>2022-05-12T13:20:28.000Z</time>
      </trkpt>
      <trkpt lat="43.41367" lon="4.77736">
        <ele>1.329881</ele>
        <time>2022-05-12T13:20:30.000Z</time>
      </trkpt>
      <trkpt lat="43.41387" lon="4.77716">
        <ele>1.31608</ele>
        <time>2022-05-12T13:20:34.000Z</time>
      </trkpt>
      <trkpt lat="43.41409" lon="4.77695">
        <ele>1.313925</ele>
        <time>2022-05-12T13:20:38.000Z</time>
      </trkpt>
      <trkpt lat="43.41453" lon="4.77651">
        <ele>1.309334</ele>
        <time>2022-05-12T13:20:47.000Z</time>
      </trkpt>
      <trkpt lat="43.41496" lon="4.77611">
        <ele>1.305052</ele>
        <time>2022-05-12T13:20:55.000Z</time>
      </trkpt>
      <trkpt lat="43.41504" lon="4.77602">
        <ele>1.304164</ele>
        <time>2022-05-12T13:20:57.000Z</time>
      </trkpt>
      <trkpt lat="43.41529" lon="4.77578">
        <ele>1.393047</ele>
        <time>2022-05-12T13:21:02.000Z</time>
      </trkpt>
      <trkpt lat="43.41558" lon="4.77549">
        <ele>1.628568</ele>
        <time>2022-05-12T13:21:08.000Z</time>
      </trkpt>
      <trkpt lat="43.41605" lon="4.77503">
        <ele>1.997819</ele>
        <time>2022-05-12T13:21:17.000Z</time>
      </trkpt>
      <trkpt lat="43.41649" lon="4.7746">
        <ele>2.348213</ele>
        <time>2022-05-12T13:21:26.000Z</time>
      </trkpt>
      <trkpt lat="43.41695" lon="4.77416">
        <ele>2.282856</ele>
        <time>2022-05-12T13:21:35.000Z</time>
      </trkpt>
      <trkpt lat="43.417" lon="4.77411">
        <ele>2.253766</ele>
        <time>2022-05-12T13:21:36.000Z</time>
      </trkpt>
      <trkpt lat="43.41739" lon="4.77374">
        <ele>2.027853</ele>
        <time>2022-05-12T13:21:44.000Z</time>
      </trkpt>
      <trkpt lat="43.41749" lon="4.77364">
        <ele>1.970688</ele>
        <time>2022-05-12T13:21:46.000Z</time>
      </trkpt>
      <trkpt lat="43.41769" lon="4.77345">
        <ele>1.853016</ele>
        <time>2022-05-12T13:21:50.000Z</time>
      </trkpt>
      <trkpt lat="43.41798" lon="4.77319">
        <ele>1.687415</ele>
        <time>2022-05-12T13:21:56.000Z</time>
      </trkpt>
      <trkpt lat="43.41846" lon="4.77271">
        <ele>1.662333</ele>
        <time>2022-05-12T13:22:06.000Z</time>
      </trkpt>
      <trkpt lat="43.41852" lon="4.77265">
        <ele>1.672363</ele>
        <time>2022-05-12T13:22:07.000Z</time>
      </trkpt>
      <trkpt lat="43.41896" lon="4.77222">
        <ele>1.745695</ele>
        <time>2022-05-12T13:22:16.000Z</time>
      </trkpt>
      <trkpt lat="43.41944" lon="4.77173">
        <ele>1.825553</ele>
        <time>2022-05-12T13:22:26.000Z</time>
      </trkpt>
      <trkpt lat="43.41993" lon="4.77126">
        <ele>1.920855</ele>
        <time>2022-05-12T13:22:36.000Z</time>
      </trkpt>
      <trkpt lat="43.41998" lon="4.77121">
        <ele>1.931076</ele>
        <time>2022-05-12T13:22:37.000Z</time>
      </trkpt>
      <trkpt lat="43.42045" lon="4.77076">
        <ele>2.027168</ele>
        <time>2022-05-12T13:22:46.000Z</time>
      </trkpt>
      <trkpt lat="43.42055" lon="4.77068">
        <ele>2.046646</ele>
        <time>2022-05-12T13:22:48.000Z</time>
      </trkpt>
      <trkpt lat="43.42102" lon="4.77022">
        <ele>2.144071</ele>
        <time>2022-05-12T13:22:57.000Z</time>
      </trkpt>
      <trkpt lat="43.42112" lon="4.77012">
        <ele>2.167586</ele>
        <time>2022-05-12T13:22:59.000Z</time>
      </trkpt>
      <trkpt lat="43.42159" lon="4.76964">
        <ele>2.276795</ele>
        <time>2022-05-12T13:23:08.000Z</time>
      </trkpt>
      <trkpt lat="43.42166" lon="4.76958">
        <ele>2.291081</ele>
        <time>2022-05-12T13:23:09.000Z</time>
      </trkpt>
      <trkpt lat="43.42213" lon="4.76911">
        <ele>2.400593</ele>
        <time>2022-05-12T13:23:18.000Z</time>
      </trkpt>
      <trkpt lat="43.42222" lon="4.76901">
        <ele>2.422188</ele>
        <time>2022-05-12T13:23:20.000Z</time>
      </trkpt>
      <trkpt lat="43.42259" lon="4.76865">
        <ele>2.722983</ele>
        <time>2022-05-12T13:23:27.000Z</time>
      </trkpt>
      <trkpt lat="43.42291" lon="4.76835">
        <ele>3.624615</ele>
        <time>2022-05-12T13:23:34.000Z</time>
      </trkpt>
      <trkpt lat="43.42296" lon="4.7683">
        <ele>3.766052</ele>
        <time>2022-05-12T13:23:35.000Z</time>
      </trkpt>
      <trkpt lat="43.42314" lon="4.76812">
        <ele>4.286577</ele>
        <time>2022-05-12T13:23:40.000Z</time>
      </trkpt>
      <trkpt lat="43.42322" lon="4.76805">
        <ele>4.486186</ele>
        <time>2022-05-12T13:23:42.000Z</time>
      </trkpt>
      <trkpt lat="43.42332" lon="4.76795">
        <ele>4.787069</ele>
        <time>2022-05-12T13:23:45.000Z</time>
      </trkpt>
      <trkpt lat="43.42348" lon="4.76781">
        <ele>5.214939</ele>
        <time>2022-05-12T13:23:50.000Z</time>
      </trkpt>
      <trkpt lat="43.42361" lon="4.76768">
        <ele>5.58843</ele>
        <time>2022-05-12T13:23:54.000Z</time>
      </trkpt>
      <trkpt lat="43.42387" lon="4.76743">
        <ele>6.325835</ele>
        <time>2022-05-12T13:24:02.000Z</time>
      </trkpt>
      <trkpt lat="43.42421" lon="4.7671">
        <ele>6.824597</ele>
        <time>2022-05-12T13:24:12.000Z</time>
      </trkpt>
      <trkpt lat="43.42461" lon="4.76674">
        <ele>7.110828</ele>
        <time>2022-05-12T13:24:22.000Z</time>
      </trkpt>
      <trkpt lat="43.425" lon="4.76639">
        <ele>7.387804</ele>
        <time>2022-05-12T13:24:31.000Z</time>
      </trkpt>
      <trkpt lat="43.42527" lon="4.76614">
        <ele>7.580706</ele>
        <time>2022-05-12T13:24:37.000Z</time>
      </trkpt>
      <trkpt lat="43.42536" lon="4.76606">
        <ele>7.64742</ele>
        <time>2022-05-12T13:24:39.000Z</time>
      </trkpt>
      <trkpt lat="43.42544" lon="4.76599">
        <ele>7.702315</ele>
        <time>2022-05-12T13:24:41.000Z</time>
      </trkpt>
      <trkpt lat="43.42578" lon="4.76564">
        <ele>8.36358</ele>
        <time>2022-05-12T13:24:50.000Z</time>
      </trkpt>
      <trkpt lat="43.42585" lon="4.76558">
        <ele>8.501517</ele>
        <time>2022-05-12T13:24:52.000Z</time>
      </trkpt>
      <trkpt lat="43.42613" lon="4.7653">
        <ele>9.083894</ele>
        <time>2022-05-12T13:25:00.000Z</time>
      </trkpt>
      <trkpt lat="43.42633" lon="4.76511">
        <ele>9.493418</ele>
        <time>2022-05-12T13:25:06.000Z</time>
      </trkpt>
      <trkpt lat="43.42649" lon="4.76494">
        <ele>9.83617</ele>
        <time>2022-05-12T13:25:11.000Z</time>
      </trkpt>
      <trkpt lat="43.42678" lon="4.76465">
        <ele>10.449174</ele>
        <time>2022-05-12T13:25:20.000Z</time>
      </trkpt>
      <trkpt lat="43.42682" lon="4.76462">
        <ele>10.516728</ele>
        <time>2022-05-12T13:25:21.000Z</time>
      </trkpt>
      <trkpt lat="43.42716" lon="4.76424">
        <ele>10.85363</ele>
        <time>2022-05-12T13:25:32.000Z</time>
      </trkpt>
      <trkpt lat="43.42719" lon="4.76421">
        <ele>10.862297</ele>
        <time>2022-05-12T13:25:33.000Z</time>
      </trkpt>
      <trkpt lat="43.42755" lon="4.76381">
        <ele>10.987396</ele>
        <time>2022-05-12T13:25:44.000Z</time>
      </trkpt>
      <trkpt lat="43.42797" lon="4.7634">
        <ele>11.126157</ele>
        <time>2022-05-12T13:25:55.000Z</time>
      </trkpt>
      <trkpt lat="43.42832" lon="4.76304">
        <ele>11.245376</ele>
        <time>2022-05-12T13:26:04.000Z</time>
      </trkpt>
      <trkpt lat="43.4284" lon="4.76297">
        <ele>11.130873</ele>
        <time>2022-05-12T13:26:06.000Z</time>
      </trkpt>
      <trkpt lat="43.42872" lon="4.76266">
        <ele>9.828878</ele>
        <time>2022-05-12T13:26:14.000Z</time>
      </trkpt>
      <trkpt lat="43.42877" lon="4.76262">
        <ele>9.646819</ele>
        <time>2022-05-12T13:26:17.000Z</time>
      </trkpt>
      <trkpt lat="43.42877" lon="4.76262">
        <ele>9.635573</ele>
        <time>2022-05-12T13:26:18.000Z</time>
      </trkpt>
      <trkpt lat="43.42877" lon="4.76262">
        <ele>9.635573</ele>
        <time>2022-05-12T13:26:23.000Z</time>
      </trkpt>
      <trkpt lat="43.42877" lon="4.76262">
        <ele>9.635573</ele>
        <time>2022-05-12T13:26:24.000Z</time>
      </trkpt>
      <trkpt lat="43.42877" lon="4.76262">
        <ele>9.635573</ele>
        <time>2022-05-12T13:26:31.000Z</time>
      </trkpt>
      <trkpt lat="43.42878" lon="4.7626">
        <ele>9.565125</ele>
        <time>2022-05-12T13:26:41.000Z</time>
      </trkpt>
      <trkpt lat="43.42883" lon="4.76254">
        <ele>9.340598</ele>
        <time>2022-05-12T13:26:44.000Z</time>
      </trkpt>
      <trkpt lat="43.42889" lon="4.76249">
        <ele>9.114099</ele>
        <time>2022-05-12T13:26:46.000Z</time>
      </trkpt>
      <trkpt lat="43.42892" lon="4.76245">
        <ele>8.984546</ele>
        <time>2022-05-12T13:26:47.000Z</time>
      </trkpt>
      <trkpt lat="43.42903" lon="4.76234">
        <ele>8.508992</ele>
        <time>2022-05-12T13:26:50.000Z</time>
      </trkpt>
      <trkpt lat="43.42906" lon="4.7623">
        <ele>8.380954</ele>
        <time>2022-05-12T13:26:51.000Z</time>
      </trkpt>
      <trkpt lat="43.42914" lon="4.76222">
        <ele>8.042274</ele>
        <time>2022-05-12T13:26:53.000Z</time>
      </trkpt>
      <trkpt lat="43.42925" lon="4.76209">
        <ele>7.550963</ele>
        <time>2022-05-12T13:26:56.000Z</time>
      </trkpt>
      <trkpt lat="43.42939" lon="4.76195">
        <ele>6.987298</ele>
        <time>2022-05-12T13:26:59.000Z</time>
      </trkpt>
      <trkpt lat="43.42947" lon="4.76187">
        <ele>6.643349</ele>
        <time>2022-05-12T13:27:01.000Z</time>
      </trkpt>
      <trkpt lat="43.42952" lon="4.76181">
        <ele>6.412281</ele>
        <time>2022-05-12T13:27:02.000Z</time>
      </trkpt>
      <trkpt lat="43.4296" lon="4.76172">
        <ele>6.049008</ele>
        <time>2022-05-12T13:27:04.000Z</time>
      </trkpt>
      <trkpt lat="43.42976" lon="4.76154">
        <ele>5.360696</ele>
        <time>2022-05-12T13:27:07.000Z</time>
      </trkpt>
      <trkpt lat="43.42985" lon="4.76144">
        <ele>5.098102</ele>
        <time>2022-05-12T13:27:09.000Z</time>
      </trkpt>
      <trkpt lat="43.43001" lon="4.76127">
        <ele>4.814174</ele>
        <time>2022-05-12T13:27:12.000Z</time>
      </trkpt>
      <trkpt lat="43.43018" lon="4.76109">
        <ele>4.510879</ele>
        <time>2022-05-12T13:27:15.000Z</time>
      </trkpt>
      <trkpt lat="43.43047" lon="4.76077">
        <ele>3.987918</ele>
        <time>2022-05-12T13:27:20.000Z</time>
      </trkpt>
      <trkpt lat="43.43051" lon="4.76073">
        <ele>3.913345</ele>
        <time>2022-05-12T13:27:21.000Z</time>
      </trkpt>
      <trkpt lat="43.43063" lon="4.7606">
        <ele>3.693435</ele>
        <time>2022-05-12T13:27:24.000Z</time>
      </trkpt>
      <trkpt lat="43.43068" lon="4.76057">
        <ele>3.621771</ele>
        <time>2022-05-12T13:27:25.000Z</time>
      </trkpt>
      <trkpt lat="43.43071" lon="4.76058">
        <ele>3.571606</ele>
        <time>2022-05-12T13:27:26.000Z</time>
      </trkpt>
      <trkpt lat="43.43076" lon="4.76064">
        <ele>3.471343</ele>
        <time>2022-05-12T13:27:28.000Z</time>
      </trkpt>
      <trkpt lat="43.43077" lon="4.76075">
        <ele>3.365374</ele>
        <time>2022-05-12T13:27:30.000Z</time>
      </trkpt>
      <trkpt lat="43.43076" lon="4.7608">
        <ele>3.30662</ele>
        <time>2022-05-12T13:27:31.000Z</time>
      </trkpt>
      <trkpt lat="43.43064" lon="4.76097">
        <ele>3.067047</ele>
        <time>2022-05-12T13:27:35.000Z</time>
      </trkpt>
      <trkpt lat="43.43044" lon="4.7612">
        <ele>2.697509</ele>
        <time>2022-05-12T13:27:41.000Z</time>
      </trkpt>
      <trkpt lat="43.4304" lon="4.76124">
        <ele>2.634489</ele>
        <time>2022-05-12T13:27:42.000Z</time>
      </trkpt>
      <trkpt lat="43.43029" lon="4.76137">
        <ele>2.647017</ele>
        <time>2022-05-12T13:27:46.000Z</time>
      </trkpt>
      <trkpt lat="43.43023" lon="4.76142">
        <ele>2.653068</ele>
        <time>2022-05-12T13:27:48.000Z</time>
      </trkpt>
      <trkpt lat="43.43008" lon="4.76157">
        <ele>2.669482</ele>
        <time>2022-05-12T13:27:54.000Z</time>
      </trkpt>
      <trkpt lat="43.43001" lon="4.76165">
        <ele>2.677361</ele>
        <time>2022-05-12T13:27:57.000Z</time>
      </trkpt>
      <trkpt lat="43.42983" lon="4.76183">
        <ele>2.69611</ele>
        <time>2022-05-12T13:28:03.000Z</time>
      </trkpt>
      <trkpt lat="43.42973" lon="4.76202">
        <ele>2.710889</ele>
        <time>2022-05-12T13:28:08.000Z</time>
      </trkpt>
      <trkpt lat="43.42977" lon="4.76222">
        <ele>2.723763</ele>
        <time>2022-05-12T13:28:12.000Z</time>
      </trkpt>
      <trkpt lat="43.42982" lon="4.76233">
        <ele>2.73199</ele>
        <time>2022-05-12T13:28:14.000Z</time>
      </trkpt>
      <trkpt lat="43.42994" lon="4.76251">
        <ele>2.746934</ele>
        <time>2022-05-12T13:28:18.000Z</time>
      </trkpt>
      <trkpt lat="43.43028" lon="4.76302">
        <ele>2.792851</ele>
        <time>2022-05-12T13:28:28.000Z</time>
      </trkpt>
      <trkpt lat="43.4306" lon="4.76352">
        <ele>2.88145</ele>
        <time>2022-05-12T13:28:37.000Z</time>
      </trkpt>
      <trkpt lat="43.43096" lon="4.7641">
        <ele>2.98429</ele>
        <time>2022-05-12T13:28:47.000Z</time>
      </trkpt>
      <trkpt lat="43.43111" lon="4.76434">
        <ele>3.02645</ele>
        <time>2022-05-12T13:28:51.000Z</time>
      </trkpt>
      <trkpt lat="43.43135" lon="4.76473">
        <ele>3.096231</ele>
        <time>2022-05-12T13:28:58.000Z</time>
      </trkpt>
      <trkpt lat="43.43172" lon="4.76535">
        <ele>3.038173</ele>
        <time>2022-05-12T13:29:08.000Z</time>
      </trkpt>
      <trkpt lat="43.43175" lon="4.76541">
        <ele>3.02719</ele>
        <time>2022-05-12T13:29:09.000Z</time>
      </trkpt>
      <trkpt lat="43.43196" lon="4.76577">
        <ele>2.9627</ele>
        <time>2022-05-12T13:29:15.000Z</time>
      </trkpt>
      <trkpt lat="43.4321" lon="4.76602">
        <ele>2.918729</ele>
        <time>2022-05-12T13:29:19.000Z</time>
      </trkpt>
      <trkpt lat="43.43239" lon="4.76649">
        <ele>2.832254</ele>
        <time>2022-05-12T13:29:27.000Z</time>
      </trkpt>
      <trkpt lat="43.43247" lon="4.76662">
        <ele>2.809105</ele>
        <time>2022-05-12T13:29:29.000Z</time>
      </trkpt>
      <trkpt lat="43.43263" lon="4.76687">
        <ele>2.765859</ele>
        <time>2022-05-12T13:29:33.000Z</time>
      </trkpt>
      <trkpt lat="43.43285" lon="4.76726">
        <ele>2.713672</ele>
        <time>2022-05-12T13:29:39.000Z</time>
      </trkpt>
      <trkpt lat="43.43303" lon="4.76756">
        <ele>2.671249</ele>
        <time>2022-05-12T13:29:45.000Z</time>
      </trkpt>
      <trkpt lat="43.43314" lon="4.76778">
        <ele>2.644027</ele>
        <time>2022-05-12T13:29:50.000Z</time>
      </trkpt>
      <trkpt lat="43.43317" lon="4.76783">
        <ele>2.63582</ele>
        <time>2022-05-12T13:29:55.000Z</time>
      </trkpt>
      <trkpt lat="43.43317" lon="4.76783">
        <ele>2.63582</ele>
        <time>2022-05-12T13:30:04.000Z</time>
      </trkpt>
      <trkpt lat="43.43317" lon="4.76783">
        <ele>2.63582</ele>
        <time>2022-05-12T13:30:07.000Z</time>
      </trkpt>
      <trkpt lat="43.43317" lon="4.76783">
        <ele>2.63582</ele>
        <time>2022-05-12T13:30:08.000Z</time>
      </trkpt>
      <trkpt lat="43.4332" lon="4.76788">
        <ele>2.629349</ele>
        <time>2022-05-12T13:30:29.000Z</time>
      </trkpt>
      <trkpt lat="43.43331" lon="4.76806">
        <ele>2.604187</ele>
        <time>2022-05-12T13:30:35.000Z</time>
      </trkpt>
      <trkpt lat="43.43348" lon="4.76835">
        <ele>2.56495</ele>
        <time>2022-05-12T13:30:42.000Z</time>
      </trkpt>
      <trkpt lat="43.43358" lon="4.76854">
        <ele>2.539299</ele>
        <time>2022-05-12T13:30:46.000Z</time>
      </trkpt>
      <trkpt lat="43.43368" lon="4.7687">
        <ele>2.518192</ele>
        <time>2022-05-12T13:30:49.000Z</time>
      </trkpt>
      <trkpt lat="43.43378" lon="4.7689">
        <ele>2.526646</ele>
        <time>2022-05-12T13:30:53.000Z</time>
      </trkpt>
      <trkpt lat="43.43379" lon="4.76894">
        <ele>2.529864</ele>
        <time>2022-05-12T13:30:54.000Z</time>
      </trkpt>
      <trkpt lat="43.4338" lon="4.76897">
        <ele>2.532009</ele>
        <time>2022-05-12T13:30:57.000Z</time>
      </trkpt>
      <trkpt lat="43.43387" lon="4.76907">
        <ele>2.541621</ele>
        <time>2022-05-12T13:31:02.000Z</time>
      </trkpt>
      <trkpt lat="43.43395" lon="4.76923">
        <ele>2.555724</ele>
        <time>2022-05-12T13:31:06.000Z</time>
      </trkpt>
      <trkpt lat="43.434" lon="4.76933">
        <ele>2.564092</ele>
        <time>2022-05-12T13:31:08.000Z</time>
      </trkpt>
      <trkpt lat="43.43418" lon="4.76968">
        <ele>2.595185</ele>
        <time>2022-05-12T13:31:15.000Z</time>
      </trkpt>
      <trkpt lat="43.43434" lon="4.76997">
        <ele>2.620739</ele>
        <time>2022-05-12T13:31:20.000Z</time>
      </trkpt>
      <trkpt lat="43.43443" lon="4.77015">
        <ele>2.63643</ele>
        <time>2022-05-12T13:31:23.000Z</time>
      </trkpt>
      <trkpt lat="43.43467" lon="4.7706">
        <ele>2.676869</ele>
        <time>2022-05-12T13:31:31.000Z</time>
      </trkpt>
      <trkpt lat="43.43491" lon="4.77105">
        <ele>2.707353</ele>
        <time>2022-05-12T13:31:38.000Z</time>
      </trkpt>
      <trkpt lat="43.43517" lon="4.77154">
        <ele>2.736105</ele>
        <time>2022-05-12T13:31:46.000Z</time>
      </trkpt>
      <trkpt lat="43.43549" lon="4.77216">
        <ele>2.771758</ele>
        <time>2022-05-12T13:31:56.000Z</time>
      </trkpt>
      <trkpt lat="43.43583" lon="4.77281">
        <ele>2.819209</ele>
        <time>2022-05-12T13:32:06.000Z</time>
      </trkpt>
      <trkpt lat="43.43587" lon="4.77288">
        <ele>2.832813</ele>
        <time>2022-05-12T13:32:07.000Z</time>
      </trkpt>
      <trkpt lat="43.43622" lon="4.77351">
        <ele>2.960961</ele>
        <time>2022-05-12T13:32:17.000Z</time>
      </trkpt>
      <trkpt lat="43.43655" lon="4.77415">
        <ele>3.09053</ele>
        <time>2022-05-12T13:32:27.000Z</time>
      </trkpt>
      <trkpt lat="43.43665" lon="4.7743">
        <ele>3.123806</ele>
        <time>2022-05-12T13:32:30.000Z</time>
      </trkpt>
      <trkpt lat="43.43673" lon="4.77442">
        <ele>3.150822</ele>
        <time>2022-05-12T13:32:32.000Z</time>
      </trkpt>
      <trkpt lat="43.43684" lon="4.77458">
        <ele>3.185359</ele>
        <time>2022-05-12T13:32:35.000Z</time>
      </trkpt>
      <trkpt lat="43.43704" lon="4.77487">
        <ele>3.169258</ele>
        <time>2022-05-12T13:32:40.000Z</time>
      </trkpt>
      <trkpt lat="43.43712" lon="4.77498">
        <ele>3.142399</ele>
        <time>2022-05-12T13:32:42.000Z</time>
      </trkpt>
      <trkpt lat="43.43742" lon="4.77549">
        <ele>3.032836</ele>
        <time>2022-05-12T13:32:50.000Z</time>
      </trkpt>
      <trkpt lat="43.43772" lon="4.77599">
        <ele>2.923729</ele>
        <time>2022-05-12T13:32:58.000Z</time>
      </trkpt>
      <trkpt lat="43.43778" lon="4.77612">
        <ele>2.898249</ele>
        <time>2022-05-12T13:33:00.000Z</time>
      </trkpt>
      <trkpt lat="43.43779" lon="4.77624">
        <ele>2.876758</ele>
        <time>2022-05-12T13:33:02.000Z</time>
      </trkpt>
      <trkpt lat="43.43776" lon="4.77633">
        <ele>2.860365</ele>
        <time>2022-05-12T13:33:04.000Z</time>
      </trkpt>
      <trkpt lat="43.43773" lon="4.77633">
        <ele>2.853624</ele>
        <time>2022-05-12T13:33:05.000Z</time>
      </trkpt>
      <trkpt lat="43.43767" lon="4.77628">
        <ele>2.837851</ele>
        <time>2022-05-12T13:33:07.000Z</time>
      </trkpt>
      <trkpt lat="43.43764" lon="4.77624">
        <ele>2.829063</ele>
        <time>2022-05-12T13:33:08.000Z</time>
      </trkpt>
      <trkpt lat="43.43762" lon="4.7762">
        <ele>2.819922</ele>
        <time>2022-05-12T13:33:09.000Z</time>
      </trkpt>
      <trkpt lat="43.43733" lon="4.77568">
        <ele>2.923809</ele>
        <time>2022-05-12T13:33:19.000Z</time>
      </trkpt>
      <trkpt lat="43.43728" lon="4.77559">
        <ele>2.953346</ele>
        <time>2022-05-12T13:33:21.000Z</time>
      </trkpt>
      <trkpt lat="43.43716" lon="4.77549">
        <ele>3.002163</ele>
        <time>2022-05-12T13:33:24.000Z</time>
      </trkpt>
      <trkpt lat="43.43696" lon="4.77543">
        <ele>3.076977</ele>
        <time>2022-05-12T13:33:29.000Z</time>
      </trkpt>
      <trkpt lat="43.43692" lon="4.77543">
        <ele>3.090176</ele>
        <time>2022-05-12T13:33:30.000Z</time>
      </trkpt>
      <trkpt lat="43.43673" lon="4.77547">
        <ele>3.159917</ele>
        <time>2022-05-12T13:33:35.000Z</time>
      </trkpt>
      <trkpt lat="43.43668" lon="4.7755">
        <ele>3.177318</ele>
        <time>2022-05-12T13:33:36.000Z</time>
      </trkpt>
      <trkpt lat="43.43659" lon="4.77567">
        <ele>3.230764</ele>
        <time>2022-05-12T13:33:40.000Z</time>
      </trkpt>
      <trkpt lat="43.43661" lon="4.77581">
        <ele>3.26651</ele>
        <time>2022-05-12T13:33:43.000Z</time>
      </trkpt>
      <trkpt lat="43.43671" lon="4.77598">
        <ele>3.321857</ele>
        <time>2022-05-12T13:33:49.000Z</time>
      </trkpt>
      <trkpt lat="43.43686" lon="4.77619">
        <ele>3.400837</ele>
        <time>2022-05-12T13:33:56.000Z</time>
      </trkpt>
      <trkpt lat="43.43697" lon="4.77617">
        <ele>3.430115</ele>
        <time>2022-05-12T13:33:59.000Z</time>
      </trkpt>
      <trkpt lat="43.43709" lon="4.77607">
        <ele>3.356612</ele>
        <time>2022-05-12T13:34:02.000Z</time>
      </trkpt>
      <trkpt lat="43.43713" lon="4.77606">
        <ele>3.330627</ele>
        <time>2022-05-12T13:34:03.000Z</time>
      </trkpt>
      <trkpt lat="43.43718" lon="4.77606">
        <ele>3.305442</ele>
        <time>2022-05-12T13:34:04.000Z</time>
      </trkpt>
      <trkpt lat="43.43726" lon="4.77613">
        <ele>3.254048</ele>
        <time>2022-05-12T13:34:06.000Z</time>
      </trkpt>
      <trkpt lat="43.43748" lon="4.77648">
        <ele>3.073714</ele>
        <time>2022-05-12T13:34:12.000Z</time>
      </trkpt>
      <trkpt lat="43.43761" lon="4.77663">
        <ele>2.985223</ele>
        <time>2022-05-12T13:34:15.000Z</time>
      </trkpt>
      <trkpt lat="43.4377" lon="4.77668">
        <ele>2.930005</ele>
        <time>2022-05-12T13:34:17.000Z</time>
      </trkpt>
      <trkpt lat="43.4378" lon="4.77668">
        <ele>2.879153</ele>
        <time>2022-05-12T13:34:19.000Z</time>
      </trkpt>
      <trkpt lat="43.43784" lon="4.77666">
        <ele>2.853594</ele>
        <time>2022-05-12T13:34:20.000Z</time>
      </trkpt>
      <trkpt lat="43.43789" lon="4.77664">
        <ele>2.830041</ele>
        <time>2022-05-12T13:34:21.000Z</time>
      </trkpt>
      <trkpt lat="43.43806" lon="4.77661">
        <ele>2.73388</ele>
        <time>2022-05-12T13:34:25.000Z</time>
      </trkpt>
      <trkpt lat="43.43846" lon="4.7765">
        <ele>2.515994</ele>
        <time>2022-05-12T13:34:33.000Z</time>
      </trkpt>
      <trkpt lat="43.43876" lon="4.77642">
        <ele>2.557426</ele>
        <time>2022-05-12T13:34:39.000Z</time>
      </trkpt>
      <trkpt lat="43.43886" lon="4.77638">
        <ele>2.597234</ele>
        <time>2022-05-12T13:34:41.000Z</time>
      </trkpt>
      <trkpt lat="43.43928" lon="4.77628">
        <ele>2.754494</ele>
        <time>2022-05-12T13:34:49.000Z</time>
      </trkpt>
      <trkpt lat="43.4397" lon="4.77618">
        <ele>2.914622</ele>
        <time>2022-05-12T13:34:57.000Z</time>
      </trkpt>
      <trkpt lat="43.43975" lon="4.77617">
        <ele>2.935177</ele>
        <time>2022-05-12T13:34:58.000Z</time>
      </trkpt>
      <trkpt lat="43.44018" lon="4.77604">
        <ele>3.098745</ele>
        <time>2022-05-12T13:35:06.000Z</time>
      </trkpt>
      <trkpt lat="43.44071" lon="4.77589">
        <ele>3.070809</ele>
        <time>2022-05-12T13:35:16.000Z</time>
      </trkpt>
      <trkpt lat="43.44123" lon="4.77573">
        <ele>2.970065</ele>
        <time>2022-05-12T13:35:25.000Z</time>
      </trkpt>
      <trkpt lat="43.44128" lon="4.77571">
        <ele>2.959284</ele>
        <time>2022-05-12T13:35:26.000Z</time>
      </trkpt>
      <trkpt lat="43.44155" lon="4.77563">
        <ele>2.906509</ele>
        <time>2022-05-12T13:35:31.000Z</time>
      </trkpt>
      <trkpt lat="43.4421" lon="4.77546">
        <ele>2.80942</ele>
        <time>2022-05-12T13:35:41.000Z</time>
      </trkpt>
      <trkpt lat="43.44257" lon="4.77534">
        <ele>2.827035</ele>
        <time>2022-05-12T13:35:50.000Z</time>
      </trkpt>
      <trkpt lat="43.44261" lon="4.77533">
        <ele>2.82879</ele>
        <time>2022-05-12T13:35:51.000Z</time>
      </trkpt>
      <trkpt lat="43.4427" lon="4.77524">
        <ele>2.832946</ele>
        <time>2022-05-12T13:35:54.000Z</time>
      </trkpt>
      <trkpt lat="43.4428" lon="4.77509">
        <ele>2.838482</ele>
        <time>2022-05-12T13:35:59.000Z</time>
      </trkpt>
      <trkpt lat="43.44283" lon="4.77508">
        <ele>2.839689</ele>
        <time>2022-05-12T13:36:00.000Z</time>
      </trkpt>
      <trkpt lat="43.44306" lon="4.77512">
        <ele>2.848113</ele>
        <time>2022-05-12T13:36:06.000Z</time>
      </trkpt>
      <trkpt lat="43.44333" lon="4.77507">
        <ele>2.858481</ele>
        <time>2022-05-12T13:36:12.000Z</time>
      </trkpt>
      <trkpt lat="43.44381" lon="4.77493">
        <ele>2.881235</ele>
        <time>2022-05-12T13:36:22.000Z</time>
      </trkpt>
      <trkpt lat="43.4442" lon="4.77482">
        <ele>2.939179</ele>
        <time>2022-05-12T13:36:30.000Z</time>
      </trkpt>
      <trkpt lat="43.44477" lon="4.77464">
        <ele>3.022703</ele>
        <time>2022-05-12T13:36:41.000Z</time>
      </trkpt>
      <trkpt lat="43.44525" lon="4.7745">
        <ele>3.092515</ele>
        <time>2022-05-12T13:36:50.000Z</time>
      </trkpt>
      <trkpt lat="43.44573" lon="4.77436">
        <ele>3.083619</ele>
        <time>2022-05-12T13:36:59.000Z</time>
      </trkpt>
      <trkpt lat="43.44613" lon="4.77423">
        <ele>2.985304</ele>
        <time>2022-05-12T13:37:07.000Z</time>
      </trkpt>
      <trkpt lat="43.44644" lon="4.77414">
        <ele>2.909869</ele>
        <time>2022-05-12T13:37:13.000Z</time>
      </trkpt>
      <trkpt lat="43.44654" lon="4.7741">
        <ele>2.885192</ele>
        <time>2022-05-12T13:37:15.000Z</time>
      </trkpt>
      <trkpt lat="43.44696" lon="4.77397">
        <ele>2.783259</ele>
        <time>2022-05-12T13:37:23.000Z</time>
      </trkpt>
      <trkpt lat="43.44733" lon="4.77387">
        <ele>2.696355</ele>
        <time>2022-05-12T13:37:30.000Z</time>
      </trkpt>
      <trkpt lat="43.44782" lon="4.77372">
        <ele>2.600861</ele>
        <time>2022-05-12T13:37:39.000Z</time>
      </trkpt>
      <trkpt lat="43.44838" lon="4.77354">
        <ele>2.490192</ele>
        <time>2022-05-12T13:37:49.000Z</time>
      </trkpt>
      <trkpt lat="43.44883" lon="4.7734">
        <ele>2.402622</ele>
        <time>2022-05-12T13:37:57.000Z</time>
      </trkpt>
      <trkpt lat="43.44939" lon="4.77324">
        <ele>2.39777</ele>
        <time>2022-05-12T13:38:07.000Z</time>
      </trkpt>
      <trkpt lat="43.44988" lon="4.77309">
        <ele>2.446943</ele>
        <time>2022-05-12T13:38:16.000Z</time>
      </trkpt>
      <trkpt lat="43.45047" lon="4.7729">
        <ele>2.504772</ele>
        <time>2022-05-12T13:38:26.000Z</time>
      </trkpt>
      <trkpt lat="43.45087" lon="4.77278">
        <ele>2.516014</ele>
        <time>2022-05-12T13:38:33.000Z</time>
      </trkpt>
      <trkpt lat="43.45136" lon="4.77263">
        <ele>2.386817</ele>
        <time>2022-05-12T13:38:42.000Z</time>
      </trkpt>
      <trkpt lat="43.45141" lon="4.77261">
        <ele>2.372977</ele>
        <time>2022-05-12T13:38:43.000Z</time>
      </trkpt>
      <trkpt lat="43.45158" lon="4.7725">
        <ele>2.324612</ele>
        <time>2022-05-12T13:38:47.000Z</time>
      </trkpt>
      <trkpt lat="43.45166" lon="4.77247">
        <ele>2.302912</ele>
        <time>2022-05-12T13:38:49.000Z</time>
      </trkpt>
      <trkpt lat="43.4518" lon="4.77243">
        <ele>2.265084</ele>
        <time>2022-05-12T13:38:52.000Z</time>
      </trkpt>
      <trkpt lat="43.45221" lon="4.7723">
        <ele>2.158634</ele>
        <time>2022-05-12T13:39:00.000Z</time>
      </trkpt>
      <trkpt lat="43.45231" lon="4.77227">
        <ele>2.130039</ele>
        <time>2022-05-12T13:39:02.000Z</time>
      </trkpt>
      <trkpt lat="43.45287" lon="4.77209">
        <ele>2.117856</ele>
        <time>2022-05-12T13:39:12.000Z</time>
      </trkpt>
      <trkpt lat="43.4531" lon="4.77202">
        <ele>2.148202</ele>
        <time>2022-05-12T13:39:16.000Z</time>
      </trkpt>
      <trkpt lat="43.45344" lon="4.77191">
        <ele>2.193406</ele>
        <time>2022-05-12T13:39:22.000Z</time>
      </trkpt>
      <trkpt lat="43.454" lon="4.77174">
        <ele>2.267111</ele>
        <time>2022-05-12T13:39:32.000Z</time>
      </trkpt>
      <trkpt lat="43.45405" lon="4.77173">
        <ele>2.274393</ele>
        <time>2022-05-12T13:39:33.000Z</time>
      </trkpt>
      <trkpt lat="43.45461" lon="4.77155">
        <ele>2.219333</ele>
        <time>2022-05-12T13:39:43.000Z</time>
      </trkpt>
      <trkpt lat="43.45472" lon="4.77151">
        <ele>2.189848</ele>
        <time>2022-05-12T13:39:45.000Z</time>
      </trkpt>
      <trkpt lat="43.45529" lon="4.77136">
        <ele>2.041046</ele>
        <time>2022-05-12T13:39:55.000Z</time>
      </trkpt>
      <trkpt lat="43.45546" lon="4.77132">
        <ele>1.997433</ele>
        <time>2022-05-12T13:39:58.000Z</time>
      </trkpt>
      <trkpt lat="43.45591" lon="4.77116">
        <ele>1.8799</ele>
        <time>2022-05-12T13:40:06.000Z</time>
      </trkpt>
      <trkpt lat="43.4563" lon="4.77104">
        <ele>1.852601</ele>
        <time>2022-05-12T13:40:13.000Z</time>
      </trkpt>
      <trkpt lat="43.45654" lon="4.77098">
        <ele>1.859079</ele>
        <time>2022-05-12T13:40:17.000Z</time>
      </trkpt>
      <trkpt lat="43.4571" lon="4.77082">
        <ele>1.87463</ele>
        <time>2022-05-12T13:40:27.000Z</time>
      </trkpt>
      <trkpt lat="43.45715" lon="4.7708">
        <ele>1.876113</ele>
        <time>2022-05-12T13:40:28.000Z</time>
      </trkpt>
      <trkpt lat="43.45731" lon="4.77075">
        <ele>1.880547</ele>
        <time>2022-05-12T13:40:31.000Z</time>
      </trkpt>
      <trkpt lat="43.4577" lon="4.77064">
        <ele>1.891354</ele>
        <time>2022-05-12T13:40:38.000Z</time>
      </trkpt>
      <trkpt lat="43.45826" lon="4.77048">
        <ele>1.833249</ele>
        <time>2022-05-12T13:40:48.000Z</time>
      </trkpt>
      <trkpt lat="43.45837" lon="4.77044">
        <ele>1.818226</ele>
        <time>2022-05-12T13:40:50.000Z</time>
      </trkpt>
      <trkpt lat="43.45883" lon="4.7703">
        <ele>1.757736</ele>
        <time>2022-05-12T13:40:58.000Z</time>
      </trkpt>
      <trkpt lat="43.45888" lon="4.77029">
        <ele>1.750318</ele>
        <time>2022-05-12T13:40:59.000Z</time>
      </trkpt>
      <trkpt lat="43.45945" lon="4.77011">
        <ele>1.675079</ele>
        <time>2022-05-12T13:41:09.000Z</time>
      </trkpt>
      <trkpt lat="43.45957" lon="4.77008">
        <ele>1.661405</ele>
        <time>2022-05-12T13:41:11.000Z</time>
      </trkpt>
      <trkpt lat="43.4601" lon="4.76995">
        <ele>1.689395</ele>
        <time>2022-05-12T13:41:20.000Z</time>
      </trkpt>
      <trkpt lat="43.46023" lon="4.76991">
        <ele>1.695884</ele>
        <time>2022-05-12T13:41:22.000Z</time>
      </trkpt>
      <trkpt lat="43.46072" lon="4.7698">
        <ele>1.721385</ele>
        <time>2022-05-12T13:41:30.000Z</time>
      </trkpt>
      <trkpt lat="43.46091" lon="4.76976">
        <ele>1.731148</ele>
        <time>2022-05-12T13:41:33.000Z</time>
      </trkpt>
      <trkpt lat="43.46136" lon="4.76968">
        <ele>1.757646</ele>
        <time>2022-05-12T13:41:40.000Z</time>
      </trkpt>
      <trkpt lat="43.46193" lon="4.76958">
        <ele>1.857958</ele>
        <time>2022-05-12T13:41:49.000Z</time>
      </trkpt>
      <trkpt lat="43.46252" lon="4.76952">
        <ele>1.959151</ele>
        <time>2022-05-12T13:41:58.000Z</time>
      </trkpt>
      <trkpt lat="43.46264" lon="4.76951">
        <ele>1.980864</ele>
        <time>2022-05-12T13:42:00.000Z</time>
      </trkpt>
      <trkpt lat="43.46283" lon="4.76949">
        <ele>2.013511</ele>
        <time>2022-05-12T13:42:03.000Z</time>
      </trkpt>
      <trkpt lat="43.46309" lon="4.76945">
        <ele>2.058372</ele>
        <time>2022-05-12T13:42:07.000Z</time>
      </trkpt>
      <trkpt lat="43.46356" lon="4.76941">
        <ele>2.160678</ele>
        <time>2022-05-12T13:42:15.000Z</time>
      </trkpt>
      <trkpt lat="43.46412" lon="4.76938">
        <ele>2.283075</ele>
        <time>2022-05-12T13:42:24.000Z</time>
      </trkpt>
      <trkpt lat="43.4642" lon="4.76938">
        <ele>2.299216</ele>
        <time>2022-05-12T13:42:25.000Z</time>
      </trkpt>
      <trkpt lat="43.46431" lon="4.76937">
        <ele>2.323204</ele>
        <time>2022-05-12T13:42:27.000Z</time>
      </trkpt>
      <trkpt lat="43.46476" lon="4.76934">
        <ele>2.421158</ele>
        <time>2022-05-12T13:42:34.000Z</time>
      </trkpt>
      <trkpt lat="43.4648" lon="4.76934">
        <ele>2.431446</ele>
        <time>2022-05-12T13:42:35.000Z</time>
      </trkpt>
      <trkpt lat="43.46521" lon="4.76932">
        <ele>2.506419</ele>
        <time>2022-05-12T13:42:42.000Z</time>
      </trkpt>
      <trkpt lat="43.46533" lon="4.76931">
        <ele>2.526148</ele>
        <time>2022-05-12T13:42:44.000Z</time>
      </trkpt>
      <trkpt lat="43.4655" lon="4.7693">
        <ele>2.555149</ele>
        <time>2022-05-12T13:42:47.000Z</time>
      </trkpt>
      <trkpt lat="43.46566" lon="4.76929">
        <ele>2.581441</ele>
        <time>2022-05-12T13:42:50.000Z</time>
      </trkpt>
      <trkpt lat="43.46581" lon="4.76934">
        <ele>2.608136</ele>
        <time>2022-05-12T13:42:54.000Z</time>
      </trkpt>
      <trkpt lat="43.46608" lon="4.76933">
        <ele>2.652611</ele>
        <time>2022-05-12T13:43:00.000Z</time>
      </trkpt>
      <trkpt lat="43.46637" lon="4.76931">
        <ele>2.702686</ele>
        <time>2022-05-12T13:43:06.000Z</time>
      </trkpt>
      <trkpt lat="43.46647" lon="4.7693">
        <ele>2.719543</ele>
        <time>2022-05-12T13:43:08.000Z</time>
      </trkpt>
      <trkpt lat="43.46652" lon="4.76929">
        <ele>2.727993</ele>
        <time>2022-05-12T13:43:09.000Z</time>
      </trkpt>
      <trkpt lat="43.46708" lon="4.76925">
        <ele>2.808176</ele>
        <time>2022-05-12T13:43:19.000Z</time>
      </trkpt>
      <trkpt lat="43.46713" lon="4.76925">
        <ele>2.815806</ele>
        <time>2022-05-12T13:43:20.000Z</time>
      </trkpt>
      <trkpt lat="43.46767" lon="4.7692">
        <ele>2.887997</ele>
        <time>2022-05-12T13:43:29.000Z</time>
      </trkpt>
      <trkpt lat="43.46811" lon="4.76917">
        <ele>2.946151</ele>
        <time>2022-05-12T13:43:36.000Z</time>
      </trkpt>
      <trkpt lat="43.46825" lon="4.76916">
        <ele>2.965134</ele>
        <time>2022-05-12T13:43:38.000Z</time>
      </trkpt>
      <trkpt lat="43.46882" lon="4.76912">
        <ele>3.040504</ele>
        <time>2022-05-12T13:43:47.000Z</time>
      </trkpt>
      <trkpt lat="43.46902" lon="4.76911">
        <ele>3.066036</ele>
        <time>2022-05-12T13:43:50.000Z</time>
      </trkpt>
      <trkpt lat="43.46947" lon="4.76908">
        <ele>3.125009</ele>
        <time>2022-05-12T13:43:57.000Z</time>
      </trkpt>
      <trkpt lat="43.46978" lon="4.76907">
        <ele>3.165358</ele>
        <time>2022-05-12T13:44:02.000Z</time>
      </trkpt>
      <trkpt lat="43.47033" lon="4.76903">
        <ele>3.23542</ele>
        <time>2022-05-12T13:44:11.000Z</time>
      </trkpt>
      <trkpt lat="43.47086" lon="4.769">
        <ele>3.274217</ele>
        <time>2022-05-12T13:44:20.000Z</time>
      </trkpt>
      <trkpt lat="43.47091" lon="4.76899">
        <ele>3.277889</ele>
        <time>2022-05-12T13:44:21.000Z</time>
      </trkpt>
      <trkpt lat="43.47103" lon="4.76897">
        <ele>3.286625</ele>
        <time>2022-05-12T13:44:24.000Z</time>
      </trkpt>
      <trkpt lat="43.47124" lon="4.76894">
        <ele>3.302313</ele>
        <time>2022-05-12T13:44:30.000Z</time>
      </trkpt>
      <trkpt lat="43.47132" lon="4.76893">
        <ele>3.308248</ele>
        <time>2022-05-12T13:44:32.000Z</time>
      </trkpt>
      <trkpt lat="43.47162" lon="4.76897">
        <ele>3.32995</ele>
        <time>2022-05-12T13:44:39.000Z</time>
      </trkpt>
      <trkpt lat="43.47166" lon="4.76897">
        <ele>3.333176</ele>
        <time>2022-05-12T13:44:40.000Z</time>
      </trkpt>
      <trkpt lat="43.47187" lon="4.76897">
        <ele>3.34871</ele>
        <time>2022-05-12T13:44:44.000Z</time>
      </trkpt>
      <trkpt lat="43.47231" lon="4.76893">
        <ele>3.347148</ele>
        <time>2022-05-12T13:44:52.000Z</time>
      </trkpt>
      <trkpt lat="43.47288" lon="4.76884">
        <ele>3.297733</ele>
        <time>2022-05-12T13:45:02.000Z</time>
      </trkpt>
      <trkpt lat="43.47294" lon="4.76883">
        <ele>3.292729</ele>
        <time>2022-05-12T13:45:03.000Z</time>
      </trkpt>
      <trkpt lat="43.47335" lon="4.7688">
        <ele>3.257823</ele>
        <time>2022-05-12T13:45:10.000Z</time>
      </trkpt>
      <trkpt lat="43.47393" lon="4.76873">
        <ele>3.212074</ele>
        <time>2022-05-12T13:45:20.000Z</time>
      </trkpt>
      <trkpt lat="43.47447" lon="4.76865">
        <ele>3.223071</ele>
        <time>2022-05-12T13:45:29.000Z</time>
      </trkpt>
      <trkpt lat="43.47505" lon="4.76852">
        <ele>3.235052</ele>
        <time>2022-05-12T13:45:39.000Z</time>
      </trkpt>
      <trkpt lat="43.47516" lon="4.7685">
        <ele>3.237387</ele>
        <time>2022-05-12T13:45:41.000Z</time>
      </trkpt>
      <trkpt lat="43.47571" lon="4.76839">
        <ele>3.247195</ele>
        <time>2022-05-12T13:45:51.000Z</time>
      </trkpt>
      <trkpt lat="43.47576" lon="4.76837">
        <ele>3.246455</ele>
        <time>2022-05-12T13:45:52.000Z</time>
      </trkpt>
      <trkpt lat="43.47631" lon="4.76825">
        <ele>3.238811</ele>
        <time>2022-05-12T13:46:02.000Z</time>
      </trkpt>
      <trkpt lat="43.47643" lon="4.76822">
        <ele>3.237184</ele>
        <time>2022-05-12T13:46:04.000Z</time>
      </trkpt>
      <trkpt lat="43.47671" lon="4.76814">
        <ele>3.233269</ele>
        <time>2022-05-12T13:46:10.000Z</time>
      </trkpt>
      <trkpt lat="43.47686" lon="4.7681">
        <ele>3.2312</ele>
        <time>2022-05-12T13:46:13.000Z</time>
      </trkpt>
      <trkpt lat="43.47718" lon="4.76799">
        <ele>3.226646</ele>
        <time>2022-05-12T13:46:20.000Z</time>
      </trkpt>
      <trkpt lat="43.47735" lon="4.76793">
        <ele>3.224241</ele>
        <time>2022-05-12T13:46:24.000Z</time>
      </trkpt>
      <trkpt lat="43.47744" lon="4.7679">
        <ele>3.22102</ele>
        <time>2022-05-12T13:46:26.000Z</time>
      </trkpt>
      <trkpt lat="43.47758" lon="4.76785">
        <ele>3.175628</ele>
        <time>2022-05-12T13:46:29.000Z</time>
      </trkpt>
      <trkpt lat="43.47802" lon="4.76771">
        <ele>3.033393</ele>
        <time>2022-05-12T13:46:38.000Z</time>
      </trkpt>
      <trkpt lat="43.47848" lon="4.76759">
        <ele>2.885476</ele>
        <time>2022-05-12T13:46:47.000Z</time>
      </trkpt>
      <trkpt lat="43.47895" lon="4.76744">
        <ele>2.733323</ele>
        <time>2022-05-12T13:46:56.000Z</time>
      </trkpt>
      <trkpt lat="43.47928" lon="4.76735">
        <ele>2.653256</ele>
        <time>2022-05-12T13:47:02.000Z</time>
      </trkpt>
      <trkpt lat="43.47956" lon="4.76725">
        <ele>2.640482</ele>
        <time>2022-05-12T13:47:07.000Z</time>
      </trkpt>
      <trkpt lat="43.48009" lon="4.76709">
        <ele>2.61616</ele>
        <time>2022-05-12T13:47:16.000Z</time>
      </trkpt>
      <trkpt lat="43.48015" lon="4.76707">
        <ele>2.613517</ele>
        <time>2022-05-12T13:47:17.000Z</time>
      </trkpt>
      <trkpt lat="43.48069" lon="4.76691">
        <ele>2.589172</ele>
        <time>2022-05-12T13:47:26.000Z</time>
      </trkpt>
      <trkpt lat="43.48082" lon="4.76687">
        <ele>2.583094</ele>
        <time>2022-05-12T13:47:28.000Z</time>
      </trkpt>
      <trkpt lat="43.48138" lon="4.76672">
        <ele>2.614746</ele>
        <time>2022-05-12T13:47:37.000Z</time>
      </trkpt>
      <trkpt lat="43.48193" lon="4.76656">
        <ele>2.663229</ele>
        <time>2022-05-12T13:47:46.000Z</time>
      </trkpt>
      <trkpt lat="43.48206" lon="4.76653">
        <ele>2.674029</ele>
        <time>2022-05-12T13:47:48.000Z</time>
      </trkpt>
      <trkpt lat="43.4821" lon="4.76651">
        <ele>2.678136</ele>
        <time>2022-05-12T13:47:49.000Z</time>
      </trkpt>
      <trkpt lat="43.48267" lon="4.76634">
        <ele>2.727644</ele>
        <time>2022-05-12T13:47:58.000Z</time>
      </trkpt>
      <trkpt lat="43.483" lon="4.76624">
        <ele>2.620441</ele>
        <time>2022-05-12T13:48:03.000Z</time>
      </trkpt>
      <trkpt lat="43.48357" lon="4.76606">
        <ele>2.402313</ele>
        <time>2022-05-12T13:48:13.000Z</time>
      </trkpt>
      <trkpt lat="43.48393" lon="4.76595">
        <ele>2.267182</ele>
        <time>2022-05-12T13:48:20.000Z</time>
      </trkpt>
      <trkpt lat="43.48408" lon="4.7659">
        <ele>2.208512</ele>
        <time>2022-05-12T13:48:23.000Z</time>
      </trkpt>
      <trkpt lat="43.48451" lon="4.76578">
        <ele>2.057639</ele>
        <time>2022-05-12T13:48:31.000Z</time>
      </trkpt>
      <trkpt lat="43.48505" lon="4.76562">
        <ele>1.981582</ele>
        <time>2022-05-12T13:48:41.000Z</time>
      </trkpt>
      <trkpt lat="43.48521" lon="4.76557">
        <ele>1.958347</ele>
        <time>2022-05-12T13:48:44.000Z</time>
      </trkpt>
      <trkpt lat="43.48569" lon="4.76541">
        <ele>1.889166</ele>
        <time>2022-05-12T13:48:53.000Z</time>
      </trkpt>
      <trkpt lat="43.48621" lon="4.76525">
        <ele>1.815592</ele>
        <time>2022-05-12T13:49:02.000Z</time>
      </trkpt>
      <trkpt lat="43.48671" lon="4.7651">
        <ele>1.745292</ele>
        <time>2022-05-12T13:49:11.000Z</time>
      </trkpt>
      <trkpt lat="43.48703" lon="4.765">
        <ele>1.700453</ele>
        <time>2022-05-12T13:49:17.000Z</time>
      </trkpt>
      <trkpt lat="43.48758" lon="4.76485">
        <ele>1.624714</ele>
        <time>2022-05-12T13:49:27.000Z</time>
      </trkpt>
      <trkpt lat="43.48774" lon="4.7648">
        <ele>1.601335</ele>
        <time>2022-05-12T13:49:30.000Z</time>
      </trkpt>
      <trkpt lat="43.48827" lon="4.76461">
        <ele>1.564842</ele>
        <time>2022-05-12T13:49:40.000Z</time>
      </trkpt>
      <trkpt lat="43.48844" lon="4.76456">
        <ele>1.562621</ele>
        <time>2022-05-12T13:49:43.000Z</time>
      </trkpt>
      <trkpt lat="43.48882" lon="4.76444">
        <ele>1.557356</ele>
        <time>2022-05-12T13:49:51.000Z</time>
      </trkpt>
      <trkpt lat="43.48928" lon="4.76428">
        <ele>1.551087</ele>
        <time>2022-05-12T13:50:00.000Z</time>
      </trkpt>
      <trkpt lat="43.48984" lon="4.76413">
        <ele>1.538083</ele>
        <time>2022-05-12T13:50:10.000Z</time>
      </trkpt>
      <trkpt lat="43.49033" lon="4.764">
        <ele>1.509429</ele>
        <time>2022-05-12T13:50:19.000Z</time>
      </trkpt>
      <trkpt lat="43.49076" lon="4.76387">
        <ele>1.483649</ele>
        <time>2022-05-12T13:50:27.000Z</time>
      </trkpt>
      <trkpt lat="43.49121" lon="4.76374">
        <ele>1.456856</ele>
        <time>2022-05-12T13:50:35.000Z</time>
      </trkpt>
      <trkpt lat="43.49148" lon="4.76366">
        <ele>1.440961</ele>
        <time>2022-05-12T13:50:40.000Z</time>
      </trkpt>
      <trkpt lat="43.49181" lon="4.76355">
        <ele>1.433048</ele>
        <time>2022-05-12T13:50:46.000Z</time>
      </trkpt>
      <trkpt lat="43.49231" lon="4.7634">
        <ele>1.42137</ele>
        <time>2022-05-12T13:50:55.000Z</time>
      </trkpt>
      <trkpt lat="43.49278" lon="4.76325">
        <ele>1.410477</ele>
        <time>2022-05-12T13:51:03.000Z</time>
      </trkpt>
      <trkpt lat="43.49335" lon="4.76309">
        <ele>1.393004</ele>
        <time>2022-05-12T13:51:12.000Z</time>
      </trkpt>
      <trkpt lat="43.49347" lon="4.76305">
        <ele>1.384757</ele>
        <time>2022-05-12T13:51:14.000Z</time>
      </trkpt>
      <trkpt lat="43.49406" lon="4.76288">
        <ele>1.346638</ele>
        <time>2022-05-12T13:51:23.000Z</time>
      </trkpt>
      <trkpt lat="43.49413" lon="4.76286">
        <ele>1.342293</ele>
        <time>2022-05-12T13:51:24.000Z</time>
      </trkpt>
      <trkpt lat="43.49467" lon="4.7627">
        <ele>1.306975</ele>
        <time>2022-05-12T13:51:32.000Z</time>
      </trkpt>
      <trkpt lat="43.49495" lon="4.76262">
        <ele>1.289275</ele>
        <time>2022-05-12T13:51:36.000Z</time>
      </trkpt>
      <trkpt lat="43.49541" lon="4.76248">
        <ele>1.395358</ele>
        <time>2022-05-12T13:51:43.000Z</time>
      </trkpt>
      <trkpt lat="43.4956" lon="4.76242">
        <ele>1.446873</ele>
        <time>2022-05-12T13:51:46.000Z</time>
      </trkpt>
      <trkpt lat="43.49604" lon="4.76228">
        <ele>1.568378</ele>
        <time>2022-05-12T13:51:53.000Z</time>
      </trkpt>
      <trkpt lat="43.49631" lon="4.7622">
        <ele>1.639534</ele>
        <time>2022-05-12T13:51:57.000Z</time>
      </trkpt>
      <trkpt lat="43.49685" lon="4.76203">
        <ele>1.776144</ele>
        <time>2022-05-12T13:52:05.000Z</time>
      </trkpt>
      <trkpt lat="43.49699" lon="4.76199">
        <ele>1.797718</ele>
        <time>2022-05-12T13:52:07.000Z</time>
      </trkpt>
      <trkpt lat="43.4975" lon="4.76184">
        <ele>1.876899</ele>
        <time>2022-05-12T13:52:15.000Z</time>
      </trkpt>
      <trkpt lat="43.49758" lon="4.76182">
        <ele>1.889372</ele>
        <time>2022-05-12T13:52:16.000Z</time>
      </trkpt>
      <trkpt lat="43.49817" lon="4.76165">
        <ele>1.980247</ele>
        <time>2022-05-12T13:52:25.000Z</time>
      </trkpt>
      <trkpt lat="43.49824" lon="4.76163">
        <ele>1.990629</ele>
        <time>2022-05-12T13:52:26.000Z</time>
      </trkpt>
      <trkpt lat="43.4988" lon="4.76146">
        <ele>1.967282</ele>
        <time>2022-05-12T13:52:34.000Z</time>
      </trkpt>
      <trkpt lat="43.49939" lon="4.76129">
        <ele>1.829601</ele>
        <time>2022-05-12T13:52:42.000Z</time>
      </trkpt>
      <trkpt lat="43.49954" lon="4.76124">
        <ele>1.79384</ele>
        <time>2022-05-12T13:52:44.000Z</time>
      </trkpt>
      <trkpt lat="43.5" lon="4.76112">
        <ele>1.688765</ele>
        <time>2022-05-12T13:52:50.000Z</time>
      </trkpt>
      <trkpt lat="43.50028" lon="4.76103">
        <ele>1.623754</ele>
        <time>2022-05-12T13:52:54.000Z</time>
      </trkpt>
      <trkpt lat="43.50042" lon="4.76099">
        <ele>1.627752</ele>
        <time>2022-05-12T13:52:56.000Z</time>
      </trkpt>
      <trkpt lat="43.50096" lon="4.76082">
        <ele>1.643252</ele>
        <time>2022-05-12T13:53:04.000Z</time>
      </trkpt>
      <trkpt lat="43.50102" lon="4.7608">
        <ele>1.645206</ele>
        <time>2022-05-12T13:53:05.000Z</time>
      </trkpt>
      <trkpt lat="43.50155" lon="4.76064">
        <ele>1.660428</ele>
        <time>2022-05-12T13:53:13.000Z</time>
      </trkpt>
      <trkpt lat="43.5018" lon="4.76057">
        <ele>1.667718</ele>
        <time>2022-05-12T13:53:17.000Z</time>
      </trkpt>
      <trkpt lat="43.5021" lon="4.76046">
        <ele>1.671761</ele>
        <time>2022-05-12T13:53:22.000Z</time>
      </trkpt>
      <trkpt lat="43.50222" lon="4.76043">
        <ele>1.667595</ele>
        <time>2022-05-12T13:53:24.000Z</time>
      </trkpt>
      <trkpt lat="43.50277" lon="4.76026">
        <ele>1.648508</ele>
        <time>2022-05-12T13:53:33.000Z</time>
      </trkpt>
      <trkpt lat="43.50283" lon="4.76024">
        <ele>1.646447</ele>
        <time>2022-05-12T13:53:34.000Z</time>
      </trkpt>
      <trkpt lat="43.50313" lon="4.76015">
        <ele>1.636026</ele>
        <time>2022-05-12T13:53:39.000Z</time>
      </trkpt>
      <trkpt lat="43.50342" lon="4.76007">
        <ele>1.62596</ele>
        <time>2022-05-12T13:53:44.000Z</time>
      </trkpt>
      <trkpt lat="43.50385" lon="4.75993">
        <ele>1.604754</ele>
        <time>2022-05-12T13:53:52.000Z</time>
      </trkpt>
      <trkpt lat="43.50397" lon="4.7599">
        <ele>1.591264</ele>
        <time>2022-05-12T13:53:54.000Z</time>
      </trkpt>
      <trkpt lat="43.50414" lon="4.75985">
        <ele>1.570523</ele>
        <time>2022-05-12T13:53:57.000Z</time>
      </trkpt>
      <trkpt lat="43.50436" lon="4.7598">
        <ele>1.544135</ele>
        <time>2022-05-12T13:54:01.000Z</time>
      </trkpt>
      <trkpt lat="43.50488" lon="4.75964">
        <ele>1.480215</ele>
        <time>2022-05-12T13:54:10.000Z</time>
      </trkpt>
      <trkpt lat="43.50494" lon="4.75962">
        <ele>1.472921</ele>
        <time>2022-05-12T13:54:11.000Z</time>
      </trkpt>
      <trkpt lat="43.50531" lon="4.7595">
        <ele>1.42814</ele>
        <time>2022-05-12T13:54:17.000Z</time>
      </trkpt>
      <trkpt lat="43.50557" lon="4.75944">
        <ele>1.399004</ele>
        <time>2022-05-12T13:54:21.000Z</time>
      </trkpt>
      <trkpt lat="43.5061" lon="4.75928">
        <ele>1.377637</ele>
        <time>2022-05-12T13:54:29.000Z</time>
      </trkpt>
      <trkpt lat="43.50642" lon="4.75919">
        <ele>1.364963</ele>
        <time>2022-05-12T13:54:34.000Z</time>
      </trkpt>
      <trkpt lat="43.50691" lon="4.75904">
        <ele>1.345216</ele>
        <time>2022-05-12T13:54:42.000Z</time>
      </trkpt>
      <trkpt lat="43.50749" lon="4.75887">
        <ele>1.312773</ele>
        <time>2022-05-12T13:54:52.000Z</time>
      </trkpt>
      <trkpt lat="43.50755" lon="4.75885">
        <ele>1.307906</ele>
        <time>2022-05-12T13:54:53.000Z</time>
      </trkpt>
      <trkpt lat="43.50771" lon="4.7588">
        <ele>1.293518</ele>
        <time>2022-05-12T13:54:56.000Z</time>
      </trkpt>
      <trkpt lat="43.50803" lon="4.7587">
        <ele>1.264825</ele>
        <time>2022-05-12T13:55:02.000Z</time>
      </trkpt>
      <trkpt lat="43.50835" lon="4.7586">
        <ele>1.236659</ele>
        <time>2022-05-12T13:55:08.000Z</time>
      </trkpt>
      <trkpt lat="43.50846" lon="4.75857">
        <ele>1.227115</ele>
        <time>2022-05-12T13:55:10.000Z</time>
      </trkpt>
      <trkpt lat="43.50897" lon="4.75842">
        <ele>1.182645</ele>
        <time>2022-05-12T13:55:19.000Z</time>
      </trkpt>
      <trkpt lat="43.50903" lon="4.75841">
        <ele>1.177359</ele>
        <time>2022-05-12T13:55:20.000Z</time>
      </trkpt>
      <trkpt lat="43.50948" lon="4.75826">
        <ele>1.215944</ele>
        <time>2022-05-12T13:55:28.000Z</time>
      </trkpt>
      <trkpt lat="43.50959" lon="4.75823">
        <ele>1.226796</ele>
        <time>2022-05-12T13:55:30.000Z</time>
      </trkpt>
      <trkpt lat="43.51005" lon="4.75809">
        <ele>1.273379</ele>
        <time>2022-05-12T13:55:38.000Z</time>
      </trkpt>
      <trkpt lat="43.51035" lon="4.75799">
        <ele>1.303473</ele>
        <time>2022-05-12T13:55:43.000Z</time>
      </trkpt>
      <trkpt lat="43.51089" lon="4.75781">
        <ele>1.331419</ele>
        <time>2022-05-12T13:55:53.000Z</time>
      </trkpt>
      <trkpt lat="43.51142" lon="4.75767">
        <ele>1.212609</ele>
        <time>2022-05-12T13:56:02.000Z</time>
      </trkpt>
      <trkpt lat="43.51148" lon="4.75765">
        <ele>1.199389</ele>
        <time>2022-05-12T13:56:03.000Z</time>
      </trkpt>
      <trkpt lat="43.51201" lon="4.75748">
        <ele>1.078317</ele>
        <time>2022-05-12T13:56:12.000Z</time>
      </trkpt>
      <trkpt lat="43.51212" lon="4.75745">
        <ele>1.052916</ele>
        <time>2022-05-12T13:56:14.000Z</time>
      </trkpt>
      <trkpt lat="43.51248" lon="4.75735">
        <ele>0.971746</ele>
        <time>2022-05-12T13:56:21.000Z</time>
      </trkpt>
      <trkpt lat="43.51269" lon="4.75728">
        <ele>0.963493</ele>
        <time>2022-05-12T13:56:25.000Z</time>
      </trkpt>
      <trkpt lat="43.5128" lon="4.75726">
        <ele>0.9767</ele>
        <time>2022-05-12T13:56:27.000Z</time>
      </trkpt>
      <trkpt lat="43.51308" lon="4.75717">
        <ele>1.010744</ele>
        <time>2022-05-12T13:56:32.000Z</time>
      </trkpt>
      <trkpt lat="43.5135" lon="4.75705">
        <ele>1.061596</ele>
        <time>2022-05-12T13:56:39.000Z</time>
      </trkpt>
      <trkpt lat="43.51354" lon="4.75704">
        <ele>1.066882</ele>
        <time>2022-05-12T13:56:40.000Z</time>
      </trkpt>
      <trkpt lat="43.51389" lon="4.75692">
        <ele>1.109489</ele>
        <time>2022-05-12T13:56:47.000Z</time>
      </trkpt>
      <trkpt lat="43.51424" lon="4.75682">
        <ele>1.150985</ele>
        <time>2022-05-12T13:56:54.000Z</time>
      </trkpt>
      <trkpt lat="43.51465" lon="4.75669">
        <ele>1.243335</ele>
        <time>2022-05-12T13:57:02.000Z</time>
      </trkpt>
      <trkpt lat="43.5152" lon="4.75652">
        <ele>1.384273</ele>
        <time>2022-05-12T13:57:12.000Z</time>
      </trkpt>
      <trkpt lat="43.51553" lon="4.75642">
        <ele>1.470032</ele>
        <time>2022-05-12T13:57:18.000Z</time>
      </trkpt>
      <trkpt lat="43.51576" lon="4.75636">
        <ele>1.529218</ele>
        <time>2022-05-12T13:57:22.000Z</time>
      </trkpt>
      <trkpt lat="43.51605" lon="4.75628">
        <ele>1.603086</ele>
        <time>2022-05-12T13:57:27.000Z</time>
      </trkpt>
      <trkpt lat="43.51642" lon="4.75616">
        <ele>1.621773</ele>
        <time>2022-05-12T13:57:33.000Z</time>
      </trkpt>
      <trkpt lat="43.51647" lon="4.75615">
        <ele>1.623122</ele>
        <time>2022-05-12T13:57:34.000Z</time>
      </trkpt>
      <trkpt lat="43.517" lon="4.756">
        <ele>1.638732</ele>
        <time>2022-05-12T13:57:43.000Z</time>
      </trkpt>
      <trkpt lat="43.51718" lon="4.75594">
        <ele>1.64389</ele>
        <time>2022-05-12T13:57:46.000Z</time>
      </trkpt>
      <trkpt lat="43.51769" lon="4.75578">
        <ele>1.658999</ele>
        <time>2022-05-12T13:57:55.000Z</time>
      </trkpt>
      <trkpt lat="43.51824" lon="4.75562">
        <ele>1.627755</ele>
        <time>2022-05-12T13:58:05.000Z</time>
      </trkpt>
      <trkpt lat="43.51828" lon="4.75561">
        <ele>1.623904</ele>
        <time>2022-05-12T13:58:06.000Z</time>
      </trkpt>
      <trkpt lat="43.51874" lon="4.75548">
        <ele>1.582048</ele>
        <time>2022-05-12T13:58:15.000Z</time>
      </trkpt>
      <trkpt lat="43.51914" lon="4.75537">
        <ele>1.544819</ele>
        <time>2022-05-12T13:58:23.000Z</time>
      </trkpt>
      <trkpt lat="43.51923" lon="4.75535">
        <ele>1.537421</ele>
        <time>2022-05-12T13:58:25.000Z</time>
      </trkpt>
      <trkpt lat="43.51937" lon="4.7553">
        <ele>1.523904</ele>
        <time>2022-05-12T13:58:29.000Z</time>
      </trkpt>
      <trkpt lat="43.5194" lon="4.7553">
        <ele>1.521695</ele>
        <time>2022-05-12T13:58:30.000Z</time>
      </trkpt>
      <trkpt lat="43.5195" lon="4.75527">
        <ele>1.511914</ele>
        <time>2022-05-12T13:58:35.000Z</time>
      </trkpt>
      <trkpt lat="43.51953" lon="4.75526">
        <ele>1.509807</ele>
        <time>2022-05-12T13:58:36.000Z</time>
      </trkpt>
      <trkpt lat="43.51956" lon="4.75525">
        <ele>1.506737</ele>
        <time>2022-05-12T13:58:38.000Z</time>
      </trkpt>
      <trkpt lat="43.51958" lon="4.75524">
        <ele>1.505321</ele>
        <time>2022-05-12T13:58:41.000Z</time>
      </trkpt>
      <trkpt lat="43.51959" lon="4.75523">
        <ele>1.503939</ele>
        <time>2022-05-12T13:58:46.000Z</time>
      </trkpt>
      <trkpt lat="43.51959" lon="4.75523">
        <ele>1.503939</ele>
        <time>2022-05-12T13:58:48.000Z</time>
      </trkpt>
      <trkpt lat="43.51959" lon="4.75523">
        <ele>1.503939</ele>
        <time>2022-05-12T13:58:54.000Z</time>
      </trkpt>
      <trkpt lat="43.51959" lon="4.75523">
        <ele>1.503939</ele>
        <time>2022-05-12T13:59:09.000Z</time>
      </trkpt>
      <trkpt lat="43.51959" lon="4.75523">
        <ele>1.503939</ele>
        <time>2022-05-12T13:59:13.000Z</time>
      </trkpt>
      <trkpt lat="43.51959" lon="4.75523">
        <ele>1.503939</ele>
        <time>2022-05-12T13:59:16.000Z</time>
      </trkpt>
      <trkpt lat="43.51959" lon="4.75523">
        <ele>1.503939</ele>
        <time>2022-05-12T13:59:23.000Z</time>
      </trkpt>
      <trkpt lat="43.51965" lon="4.75521">
        <ele>1.493497</ele>
        <time>2022-05-12T13:59:31.000Z</time>
      </trkpt>
      <trkpt lat="43.51985" lon="4.75514">
        <ele>1.454679</ele>
        <time>2022-05-12T13:59:37.000Z</time>
      </trkpt>
      <trkpt lat="43.52012" lon="4.75501">
        <ele>1.400128</ele>
        <time>2022-05-12T13:59:44.000Z</time>
      </trkpt>
      <trkpt lat="43.52026" lon="4.75496">
        <ele>1.373369</ele>
        <time>2022-05-12T13:59:47.000Z</time>
      </trkpt>
      <trkpt lat="43.52042" lon="4.75492">
        <ele>1.342315</ele>
        <time>2022-05-12T13:59:50.000Z</time>
      </trkpt>
      <trkpt lat="43.52084" lon="4.75481">
        <ele>1.26</ele>
        <time>2022-05-12T13:59:58.000Z</time>
      </trkpt>
      <trkpt lat="43.52119" lon="4.75472">
        <ele>1.193208</ele>
        <time>2022-05-12T14:00:04.000Z</time>
      </trkpt>
      <trkpt lat="43.52146" lon="4.75465">
        <ele>1.189832</ele>
        <time>2022-05-12T14:00:09.000Z</time>
      </trkpt>
      <trkpt lat="43.52191" lon="4.75451">
        <ele>1.321084</ele>
        <time>2022-05-12T14:00:17.000Z</time>
      </trkpt>
      <trkpt lat="43.52213" lon="4.75446">
        <ele>1.383334</ele>
        <time>2022-05-12T14:00:21.000Z</time>
      </trkpt>
      <trkpt lat="43.5223" lon="4.7544">
        <ele>1.431873</ele>
        <time>2022-05-12T14:00:24.000Z</time>
      </trkpt>
      <trkpt lat="43.52283" lon="4.75423">
        <ele>1.582563</ele>
        <time>2022-05-12T14:00:33.000Z</time>
      </trkpt>
      <trkpt lat="43.52336" lon="4.75408">
        <ele>1.697301</ele>
        <time>2022-05-12T14:00:42.000Z</time>
      </trkpt>
      <trkpt lat="43.52353" lon="4.75402">
        <ele>1.720232</ele>
        <time>2022-05-12T14:00:45.000Z</time>
      </trkpt>
      <trkpt lat="43.52408" lon="4.75383">
        <ele>1.793361</ele>
        <time>2022-05-12T14:00:55.000Z</time>
      </trkpt>
      <trkpt lat="43.52414" lon="4.75381">
        <ele>1.800587</ele>
        <time>2022-05-12T14:00:56.000Z</time>
      </trkpt>
      <trkpt lat="43.52468" lon="4.7536">
        <ele>1.873097</ele>
        <time>2022-05-12T14:01:06.000Z</time>
      </trkpt>
      <trkpt lat="43.5252" lon="4.75335">
        <ele>1.923622</ele>
        <time>2022-05-12T14:01:16.000Z</time>
      </trkpt>
      <trkpt lat="43.52574" lon="4.7531">
        <ele>1.964509</ele>
        <time>2022-05-12T14:01:26.000Z</time>
      </trkpt>
      <trkpt lat="43.52584" lon="4.75305">
        <ele>1.972539</ele>
        <time>2022-05-12T14:01:28.000Z</time>
      </trkpt>
      <trkpt lat="43.52626" lon="4.75282">
        <ele>2.005412</ele>
        <time>2022-05-12T14:01:36.000Z</time>
      </trkpt>
      <trkpt lat="43.52667" lon="4.75257">
        <ele>2.062833</ele>
        <time>2022-05-12T14:01:44.000Z</time>
      </trkpt>
      <trkpt lat="43.52718" lon="4.75224">
        <ele>2.202813</ele>
        <time>2022-05-12T14:01:54.000Z</time>
      </trkpt>
      <trkpt lat="43.52723" lon="4.7522">
        <ele>2.216426</ele>
        <time>2022-05-12T14:01:55.000Z</time>
      </trkpt>
      <trkpt lat="43.52733" lon="4.75214">
        <ele>2.243798</ele>
        <time>2022-05-12T14:01:57.000Z</time>
      </trkpt>
      <trkpt lat="43.52772" lon="4.75184">
        <ele>2.35312</ele>
        <time>2022-05-12T14:02:05.000Z</time>
      </trkpt>
      <trkpt lat="43.52787" lon="4.75173">
        <ele>2.39346</ele>
        <time>2022-05-12T14:02:08.000Z</time>
      </trkpt>
      <trkpt lat="43.52811" lon="4.75154">
        <ele>2.461385</ele>
        <time>2022-05-12T14:02:13.000Z</time>
      </trkpt>
      <trkpt lat="43.52861" lon="4.75116">
        <ele>2.334708</ele>
        <time>2022-05-12T14:02:23.000Z</time>
      </trkpt>
      <trkpt lat="43.52901" lon="4.75084">
        <ele>2.219386</ele>
        <time>2022-05-12T14:02:31.000Z</time>
      </trkpt>
      <trkpt lat="43.52939" lon="4.75053">
        <ele>2.109699</ele>
        <time>2022-05-12T14:02:39.000Z</time>
      </trkpt>
      <trkpt lat="43.5298" lon="4.75023">
        <ele>2.023282</ele>
        <time>2022-05-12T14:02:47.000Z</time>
      </trkpt>
      <trkpt lat="43.53" lon="4.75007">
        <ele>2.026057</ele>
        <time>2022-05-12T14:02:51.000Z</time>
      </trkpt>
      <trkpt lat="43.53028" lon="4.74984">
        <ele>2.029875</ele>
        <time>2022-05-12T14:02:57.000Z</time>
      </trkpt>
      <trkpt lat="43.53076" lon="4.74948">
        <ele>2.03637</ele>
        <time>2022-05-12T14:03:07.000Z</time>
      </trkpt>
      <trkpt lat="43.53126" lon="4.74909">
        <ele>2.043159</ele>
        <time>2022-05-12T14:03:17.000Z</time>
      </trkpt>
      <trkpt lat="43.5317" lon="4.74872">
        <ele>2.134486</ele>
        <time>2022-05-12T14:03:27.000Z</time>
      </trkpt>
      <trkpt lat="43.5321" lon="4.7484">
        <ele>2.217824</ele>
        <time>2022-05-12T14:03:35.000Z</time>
      </trkpt>
      <trkpt lat="43.53251" lon="4.74811">
        <ele>2.300367</ele>
        <time>2022-05-12T14:03:43.000Z</time>
      </trkpt>
      <trkpt lat="43.53299" lon="4.74774">
        <ele>2.293718</ele>
        <time>2022-05-12T14:03:52.000Z</time>
      </trkpt>
      <trkpt lat="43.53304" lon="4.7477">
        <ele>2.270091</ele>
        <time>2022-05-12T14:03:53.000Z</time>
      </trkpt>
      <trkpt lat="43.53351" lon="4.74732">
        <ele>2.043275</ele>
        <time>2022-05-12T14:04:02.000Z</time>
      </trkpt>
      <trkpt lat="43.53362" lon="4.74724">
        <ele>1.992349</ele>
        <time>2022-05-12T14:04:04.000Z</time>
      </trkpt>
      <trkpt lat="43.53409" lon="4.74688">
        <ele>1.769853</ele>
        <time>2022-05-12T14:04:13.000Z</time>
      </trkpt>
      <trkpt lat="43.53415" lon="4.74684">
        <ele>1.745722</ele>
        <time>2022-05-12T14:04:14.000Z</time>
      </trkpt>
      <trkpt lat="43.53447" lon="4.74659">
        <ele>1.608832</ele>
        <time>2022-05-12T14:04:20.000Z</time>
      </trkpt>
      <trkpt lat="43.53467" lon="4.74642">
        <ele>1.554113</ele>
        <time>2022-05-12T14:04:24.000Z</time>
      </trkpt>
      <trkpt lat="43.53514" lon="4.74605">
        <ele>1.429538</ele>
        <time>2022-05-12T14:04:33.000Z</time>
      </trkpt>
      <trkpt lat="43.53519" lon="4.74601">
        <ele>1.415986</ele>
        <time>2022-05-12T14:04:34.000Z</time>
      </trkpt>
      <trkpt lat="43.53567" lon="4.74564">
        <ele>1.289986</ele>
        <time>2022-05-12T14:04:43.000Z</time>
      </trkpt>
      <trkpt lat="43.53578" lon="4.74556">
        <ele>1.262084</ele>
        <time>2022-05-12T14:04:45.000Z</time>
      </trkpt>
      <trkpt lat="43.53629" lon="4.74516">
        <ele>1.310428</ele>
        <time>2022-05-12T14:04:55.000Z</time>
      </trkpt>
      <trkpt lat="43.53678" lon="4.74477">
        <ele>1.456791</ele>
        <time>2022-05-12T14:05:05.000Z</time>
      </trkpt>
      <trkpt lat="43.53688" lon="4.7447">
        <ele>1.48495</ele>
        <time>2022-05-12T14:05:07.000Z</time>
      </trkpt>
      <trkpt lat="43.53722" lon="4.74444">
        <ele>1.584729</ele>
        <time>2022-05-12T14:05:14.000Z</time>
      </trkpt>
      <trkpt lat="43.53761" lon="4.74413">
        <ele>1.699222</ele>
        <time>2022-05-12T14:05:22.000Z</time>
      </trkpt>
      <trkpt lat="43.5381" lon="4.74376">
        <ele>1.846515</ele>
        <time>2022-05-12T14:05:32.000Z</time>
      </trkpt>
      <trkpt lat="43.53853" lon="4.74342">
        <ele>1.974835</ele>
        <time>2022-05-12T14:05:41.000Z</time>
      </trkpt>
      <trkpt lat="43.53862" lon="4.74335">
        <ele>2.002361</ele>
        <time>2022-05-12T14:05:43.000Z</time>
      </trkpt>
      <trkpt lat="43.53895" lon="4.74309">
        <ele>2.101663</ele>
        <time>2022-05-12T14:05:50.000Z</time>
      </trkpt>
      <trkpt lat="43.53926" lon="4.74284">
        <ele>2.178981</ele>
        <time>2022-05-12T14:05:57.000Z</time>
      </trkpt>
      <trkpt lat="43.53972" lon="4.74249">
        <ele>2.269841</ele>
        <time>2022-05-12T14:06:07.000Z</time>
      </trkpt>
      <trkpt lat="43.54013" lon="4.74216">
        <ele>2.350874</ele>
        <time>2022-05-12T14:06:16.000Z</time>
      </trkpt>
      <trkpt lat="43.54058" lon="4.7418">
        <ele>2.43953</ele>
        <time>2022-05-12T14:06:26.000Z</time>
      </trkpt>
      <trkpt lat="43.54092" lon="4.74153">
        <ele>2.418144</ele>
        <time>2022-05-12T14:06:34.000Z</time>
      </trkpt>
      <trkpt lat="43.5412" lon="4.74129">
        <ele>2.379189</ele>
        <time>2022-05-12T14:06:40.000Z</time>
      </trkpt>
      <trkpt lat="43.54125" lon="4.74125">
        <ele>2.372449</ele>
        <time>2022-05-12T14:06:41.000Z</time>
      </trkpt>
      <trkpt lat="43.54144" lon="4.7411">
        <ele>2.346347</ele>
        <time>2022-05-12T14:06:45.000Z</time>
      </trkpt>
      <trkpt lat="43.54183" lon="4.74079">
        <ele>2.293869</ele>
        <time>2022-05-12T14:06:53.000Z</time>
      </trkpt>
      <trkpt lat="43.5423" lon="4.74041">
        <ele>2.27662</ele>
        <time>2022-05-12T14:07:03.000Z</time>
      </trkpt>
      <trkpt lat="43.54235" lon="4.74037">
        <ele>2.293155</ele>
        <time>2022-05-12T14:07:04.000Z</time>
      </trkpt>
      <trkpt lat="43.5428" lon="4.73998">
        <ele>2.454118</ele>
        <time>2022-05-12T14:07:14.000Z</time>
      </trkpt>
      <trkpt lat="43.54313" lon="4.73969">
        <ele>2.572015</ele>
        <time>2022-05-12T14:07:21.000Z</time>
      </trkpt>
      <trkpt lat="43.54363" lon="4.73924">
        <ele>2.750878</ele>
        <time>2022-05-12T14:07:31.000Z</time>
      </trkpt>
      <trkpt lat="43.54399" lon="4.7389">
        <ele>2.681759</ele>
        <time>2022-05-12T14:07:39.000Z</time>
      </trkpt>
      <trkpt lat="43.54412" lon="4.73876">
        <ele>2.629967</ele>
        <time>2022-05-12T14:07:42.000Z</time>
      </trkpt>
      <trkpt lat="43.54421" lon="4.73868">
        <ele>2.596567</ele>
        <time>2022-05-12T14:07:44.000Z</time>
      </trkpt>
      <trkpt lat="43.54464" lon="4.73824">
        <ele>2.425311</ele>
        <time>2022-05-12T14:07:54.000Z</time>
      </trkpt>
      <trkpt lat="43.54504" lon="4.73786">
        <ele>2.270638</ele>
        <time>2022-05-12T14:08:03.000Z</time>
      </trkpt>
      <trkpt lat="43.54543" lon="4.73748">
        <ele>2.191424</ele>
        <time>2022-05-12T14:08:12.000Z</time>
      </trkpt>
      <trkpt lat="43.54588" lon="4.73709">
        <ele>2.153827</ele>
        <time>2022-05-12T14:08:22.000Z</time>
      </trkpt>
      <trkpt lat="43.54628" lon="4.73673">
        <ele>2.119199</ele>
        <time>2022-05-12T14:08:31.000Z</time>
      </trkpt>
      <trkpt lat="43.54665" lon="4.73638">
        <ele>2.086884</ele>
        <time>2022-05-12T14:08:39.000Z</time>
      </trkpt>
      <trkpt lat="43.54675" lon="4.7363">
        <ele>2.08907</ele>
        <time>2022-05-12T14:08:41.000Z</time>
      </trkpt>
      <trkpt lat="43.54723" lon="4.73588">
        <ele>2.130849</ele>
        <time>2022-05-12T14:08:51.000Z</time>
      </trkpt>
      <trkpt lat="43.54732" lon="4.73578">
        <ele>2.139357</ele>
        <time>2022-05-12T14:08:53.000Z</time>
      </trkpt>
      <trkpt lat="43.54764" lon="4.73546">
        <ele>2.168488</ele>
        <time>2022-05-12T14:09:00.000Z</time>
      </trkpt>
      <trkpt lat="43.54795" lon="4.73516">
        <ele>2.195833</ele>
        <time>2022-05-12T14:09:07.000Z</time>
      </trkpt>
      <trkpt lat="43.54804" lon="4.73508">
        <ele>2.203585</ele>
        <time>2022-05-12T14:09:09.000Z</time>
      </trkpt>
      <trkpt lat="43.54817" lon="4.73496">
        <ele>2.215152</ele>
        <time>2022-05-12T14:09:12.000Z</time>
      </trkpt>
      <trkpt lat="43.54826" lon="4.73488">
        <ele>2.228669</ele>
        <time>2022-05-12T14:09:14.000Z</time>
      </trkpt>
      <trkpt lat="43.54843" lon="4.73472">
        <ele>2.257332</ele>
        <time>2022-05-12T14:09:18.000Z</time>
      </trkpt>
      <trkpt lat="43.54892" lon="4.73426">
        <ele>2.337408</ele>
        <time>2022-05-12T14:09:29.000Z</time>
      </trkpt>
      <trkpt lat="43.54925" lon="4.73394">
        <ele>2.392169</ele>
        <time>2022-05-12T14:09:37.000Z</time>
      </trkpt>
      <trkpt lat="43.54968" lon="4.73357">
        <ele>2.459746</ele>
        <time>2022-05-12T14:09:47.000Z</time>
      </trkpt>
      <trkpt lat="43.54996" lon="4.73329">
        <ele>2.474858</ele>
        <time>2022-05-12T14:09:54.000Z</time>
      </trkpt>
      <trkpt lat="43.5503" lon="4.73302">
        <ele>2.491877</ele>
        <time>2022-05-12T14:10:02.000Z</time>
      </trkpt>
      <trkpt lat="43.55062" lon="4.7327">
        <ele>2.509189</ele>
        <time>2022-05-12T14:10:10.000Z</time>
      </trkpt>
      <trkpt lat="43.55101" lon="4.73235">
        <ele>2.529258</ele>
        <time>2022-05-12T14:10:19.000Z</time>
      </trkpt>
      <trkpt lat="43.55146" lon="4.73193">
        <ele>2.665476</ele>
        <time>2022-05-12T14:10:29.000Z</time>
      </trkpt>
      <trkpt lat="43.55188" lon="4.73153">
        <ele>2.853179</ele>
        <time>2022-05-12T14:10:38.000Z</time>
      </trkpt>
      <trkpt lat="43.55193" lon="4.73148">
        <ele>2.873738</ele>
        <time>2022-05-12T14:10:39.000Z</time>
      </trkpt>
      <trkpt lat="43.55231" lon="4.73116">
        <ele>3.035252</ele>
        <time>2022-05-12T14:10:47.000Z</time>
      </trkpt>
      <trkpt lat="43.5527" lon="4.73079">
        <ele>3.191591</ele>
        <time>2022-05-12T14:10:56.000Z</time>
      </trkpt>
      <trkpt lat="43.55303" lon="4.73046">
        <ele>3.180863</ele>
        <time>2022-05-12T14:11:04.000Z</time>
      </trkpt>
      <trkpt lat="43.55345" lon="4.73005">
        <ele>3.167269</ele>
        <time>2022-05-12T14:11:14.000Z</time>
      </trkpt>
      <trkpt lat="43.55358" lon="4.72992">
        <ele>3.163179</ele>
        <time>2022-05-12T14:11:17.000Z</time>
      </trkpt>
      <trkpt lat="43.55376" lon="4.72976">
        <ele>3.157408</ele>
        <time>2022-05-12T14:11:21.000Z</time>
      </trkpt>
      <trkpt lat="43.55425" lon="4.72932">
        <ele>3.104839</ele>
        <time>2022-05-12T14:11:31.000Z</time>
      </trkpt>
      <trkpt lat="43.55467" lon="4.72892">
        <ele>2.938222</ele>
        <time>2022-05-12T14:11:40.000Z</time>
      </trkpt>
      <trkpt lat="43.555" lon="4.72861">
        <ele>2.808735</ele>
        <time>2022-05-12T14:11:47.000Z</time>
      </trkpt>
      <trkpt lat="43.55547" lon="4.72821">
        <ele>2.629185</ele>
        <time>2022-05-12T14:11:56.000Z</time>
      </trkpt>
      <trkpt lat="43.55586" lon="4.72783">
        <ele>2.553196</ele>
        <time>2022-05-12T14:12:04.000Z</time>
      </trkpt>
      <trkpt lat="43.55625" lon="4.72746">
        <ele>2.541914</ele>
        <time>2022-05-12T14:12:12.000Z</time>
      </trkpt>
      <trkpt lat="43.55659" lon="4.72715">
        <ele>2.532204</ele>
        <time>2022-05-12T14:12:19.000Z</time>
      </trkpt>
      <trkpt lat="43.55674" lon="4.72702">
        <ele>2.528058</ele>
        <time>2022-05-12T14:12:22.000Z</time>
      </trkpt>
      <trkpt lat="43.55716" lon="4.72661">
        <ele>2.509329</ele>
        <time>2022-05-12T14:12:31.000Z</time>
      </trkpt>
      <trkpt lat="43.55745" lon="4.72635">
        <ele>2.44271</ele>
        <time>2022-05-12T14:12:38.000Z</time>
      </trkpt>
      <trkpt lat="43.55777" lon="4.72605">
        <ele>2.368512</ele>
        <time>2022-05-12T14:12:46.000Z</time>
      </trkpt>
      <trkpt lat="43.55801" lon="4.72583">
        <ele>2.311619</ele>
        <time>2022-05-12T14:12:53.000Z</time>
      </trkpt>
      <trkpt lat="43.55805" lon="4.72581">
        <ele>2.305036</ele>
        <time>2022-05-12T14:12:54.000Z</time>
      </trkpt>
      <trkpt lat="43.55807" lon="4.72581">
        <ele>2.299632</ele>
        <time>2022-05-12T14:12:55.000Z</time>
      </trkpt>
      <trkpt lat="43.55812" lon="4.72585">
        <ele>2.28912</ele>
        <time>2022-05-12T14:12:57.000Z</time>
      </trkpt>
      <trkpt lat="43.55823" lon="4.72607">
        <ele>2.251607</ele>
        <time>2022-05-12T14:13:04.000Z</time>
      </trkpt>
      <trkpt lat="43.55838" lon="4.72629">
        <ele>2.210309</ele>
        <time>2022-05-12T14:13:10.000Z</time>
      </trkpt>
      <trkpt lat="43.55858" lon="4.72661">
        <ele>2.171343</ele>
        <time>2022-05-12T14:13:18.000Z</time>
      </trkpt>
      <trkpt lat="43.55873" lon="4.72697">
        <ele>2.171343</ele>
        <time>2022-05-12T14:13:24.000Z</time>
      </trkpt>
      <trkpt lat="43.5588" lon="4.72717">
        <ele>2.171343</ele>
        <time>2022-05-12T14:13:27.000Z</time>
      </trkpt>
      <trkpt lat="43.55882" lon="4.72723">
        <ele>2.171343</ele>
        <time>2022-05-12T14:13:28.000Z</time>
      </trkpt>
      <trkpt lat="43.55886" lon="4.72737">
        <ele>2.171343</ele>
        <time>2022-05-12T14:13:30.000Z</time>
      </trkpt>
      <trkpt lat="43.55891" lon="4.72744">
        <ele>2.171343</ele>
        <time>2022-05-12T14:13:32.000Z</time>
      </trkpt>
      <trkpt lat="43.55897" lon="4.72749">
        <ele>2.171343</ele>
        <time>2022-05-12T14:13:34.000Z</time>
      </trkpt>
      <trkpt lat="43.55901" lon="4.7275">
        <ele>2.171343</ele>
        <time>2022-05-12T14:13:38.000Z</time>
      </trkpt>
    </trkseg>
  </trk>
</gpx>